<?xml version="1.0" encoding="UTF-8" standalone="no" ?>
<gpx xmlns="http://www.topografix.com/GPX/1/1" xmlns:xsi="http://www.w3.org/2001/XMLSchema-instance" xsi:schemaLocation="http://www.topografix.com/GPX/1/1 http://www.topografix.com/GPX/1/1/gpx.xsd" version="1.1" creator="VisuGPX - https://www.visugpx.com">
  <metadata>
    <name>GR20 Bergerie de Vaccaghia- Onda 29/08/18</name>
    <desc><![CDATA[Encore une étape doublée, dans cette dernière nous avons sauté Petra Piana . Après Manganu la rando en crête passe à la Brêche de Capitello et la vue sur les lacs de Capitello et de Melo est magnifique. rencontre avec des bergers à cheval et visite à la bergerie Tolla  et arrivée à Onda ]]></desc>
  </metadata>
  <trk>
    <name><![CDATA[06 Vaccmia Onda]]></name>
    <trkseg>
      <trkpt lat="42.23627" lon="8.97334">
        <ele>1589.67</ele>
        <time>2018-08-29T03:38:12Z</time>
      </trkpt>
      <trkpt lat="42.23627" lon="8.97333">
        <ele>1591.98</ele>
        <time>2018-08-29T03:38:23Z</time>
      </trkpt>
      <trkpt lat="42.23626" lon="8.97335">
        <ele>1589.43</ele>
        <time>2018-08-29T03:38:31Z</time>
      </trkpt>
      <trkpt lat="42.23627" lon="8.97334">
        <ele>1584.18</ele>
        <time>2018-08-29T03:38:39Z</time>
      </trkpt>
      <trkpt lat="42.23627" lon="8.97334">
        <ele>1589.42</ele>
        <time>2018-08-29T03:38:40Z</time>
      </trkpt>
      <trkpt lat="42.23626" lon="8.97335">
        <ele>1592.36</ele>
        <time>2018-08-29T03:38:42Z</time>
      </trkpt>
      <trkpt lat="42.21992" lon="8.98051">
        <ele>1595.45</ele>
        <time>2018-08-29T04:53:15Z</time>
      </trkpt>
      <trkpt lat="42.21992" lon="8.9805">
        <ele>1593.61</ele>
        <time>2018-08-29T04:55:10Z</time>
      </trkpt>
      <trkpt lat="42.21681" lon="8.98336">
        <ele>1638.88</ele>
        <time>2018-08-29T05:18:41Z</time>
      </trkpt>
      <trkpt lat="42.21681" lon="8.98336">
        <ele>1638.88</ele>
        <time>2018-08-29T05:18:42Z</time>
      </trkpt>
      <trkpt lat="42.2168" lon="8.98336">
        <ele>1634.97</ele>
        <time>2018-08-29T05:18:51Z</time>
      </trkpt>
      <trkpt lat="42.21681" lon="8.98336">
        <ele>1637.93</ele>
        <time>2018-08-29T05:19:12Z</time>
      </trkpt>
      <trkpt lat="42.21681" lon="8.98335">
        <ele>1637.95</ele>
        <time>2018-08-29T05:19:28Z</time>
      </trkpt>
      <trkpt lat="42.21675" lon="8.98338">
        <ele>1637.97</ele>
        <time>2018-08-29T05:19:41Z</time>
      </trkpt>
      <trkpt lat="42.21664" lon="8.9835">
        <ele>1638.05</ele>
        <time>2018-08-29T05:19:58Z</time>
      </trkpt>
      <trkpt lat="42.21657" lon="8.98352">
        <ele>1639.11</ele>
        <time>2018-08-29T05:20:10Z</time>
      </trkpt>
      <trkpt lat="42.21648" lon="8.98353">
        <ele>1640.04</ele>
        <time>2018-08-29T05:20:22Z</time>
      </trkpt>
      <trkpt lat="42.21639" lon="8.98354">
        <ele>1640.03</ele>
        <time>2018-08-29T05:20:33Z</time>
      </trkpt>
      <trkpt lat="42.21637" lon="8.98353">
        <ele>1640.04</ele>
        <time>2018-08-29T05:20:35Z</time>
      </trkpt>
      <trkpt lat="42.21629" lon="8.98355">
        <ele>1641.26</ele>
        <time>2018-08-29T05:20:44Z</time>
      </trkpt>
      <trkpt lat="42.21621" lon="8.98353">
        <ele>1642.54</ele>
        <time>2018-08-29T05:20:55Z</time>
      </trkpt>
      <trkpt lat="42.2162" lon="8.98353">
        <ele>1642.54</ele>
        <time>2018-08-29T05:20:56Z</time>
      </trkpt>
      <trkpt lat="42.21613" lon="8.98359">
        <ele>1643.3</ele>
        <time>2018-08-29T05:21:07Z</time>
      </trkpt>
      <trkpt lat="42.21612" lon="8.98361">
        <ele>1643.37</ele>
        <time>2018-08-29T05:21:10Z</time>
      </trkpt>
      <trkpt lat="42.21606" lon="8.98364">
        <ele>1644.29</ele>
        <time>2018-08-29T05:21:20Z</time>
      </trkpt>
      <trkpt lat="42.21599" lon="8.98363">
        <ele>1645.07</ele>
        <time>2018-08-29T05:21:32Z</time>
      </trkpt>
      <trkpt lat="42.21592" lon="8.98367">
        <ele>1646.84</ele>
        <time>2018-08-29T05:21:44Z</time>
      </trkpt>
      <trkpt lat="42.21584" lon="8.98369">
        <ele>1647.82</ele>
        <time>2018-08-29T05:21:59Z</time>
      </trkpt>
      <trkpt lat="42.21581" lon="8.98378">
        <ele>1647.82</ele>
        <time>2018-08-29T05:22:09Z</time>
      </trkpt>
      <trkpt lat="42.21579" lon="8.98384">
        <ele>1650.61</ele>
        <time>2018-08-29T05:22:23Z</time>
      </trkpt>
      <trkpt lat="42.21576" lon="8.98389">
        <ele>1653.4</ele>
        <time>2018-08-29T05:22:37Z</time>
      </trkpt>
      <trkpt lat="42.21574" lon="8.98393">
        <ele>1655.06</ele>
        <time>2018-08-29T05:22:51Z</time>
      </trkpt>
      <trkpt lat="42.2157" lon="8.98394">
        <ele>1657.06</ele>
        <time>2018-08-29T05:23:04Z</time>
      </trkpt>
      <trkpt lat="42.21564" lon="8.98397">
        <ele>1659.78</ele>
        <time>2018-08-29T05:23:21Z</time>
      </trkpt>
      <trkpt lat="42.21561" lon="8.98399">
        <ele>1662.03</ele>
        <time>2018-08-29T05:23:32Z</time>
      </trkpt>
      <trkpt lat="42.21559" lon="8.984">
        <ele>1662.82</ele>
        <time>2018-08-29T05:23:42Z</time>
      </trkpt>
      <trkpt lat="42.21556" lon="8.98405">
        <ele>1664.72</ele>
        <time>2018-08-29T05:23:55Z</time>
      </trkpt>
      <trkpt lat="42.21553" lon="8.98408">
        <ele>1666.83</ele>
        <time>2018-08-29T05:24:08Z</time>
      </trkpt>
      <trkpt lat="42.21546" lon="8.98409">
        <ele>1667.83</ele>
        <time>2018-08-29T05:24:23Z</time>
      </trkpt>
      <trkpt lat="42.21539" lon="8.98402">
        <ele>1667.89</ele>
        <time>2018-08-29T05:24:37Z</time>
      </trkpt>
      <trkpt lat="42.21538" lon="8.98402">
        <ele>1669.17</ele>
        <time>2018-08-29T05:24:40Z</time>
      </trkpt>
      <trkpt lat="42.21534" lon="8.98402">
        <ele>1670.31</ele>
        <time>2018-08-29T05:24:55Z</time>
      </trkpt>
      <trkpt lat="42.21529" lon="8.98402">
        <ele>1673.89</ele>
        <time>2018-08-29T05:25:11Z</time>
      </trkpt>
      <trkpt lat="42.21526" lon="8.98404">
        <ele>1674.98</ele>
        <time>2018-08-29T05:25:23Z</time>
      </trkpt>
      <trkpt lat="42.21523" lon="8.98409">
        <ele>1677.83</ele>
        <time>2018-08-29T05:25:38Z</time>
      </trkpt>
      <trkpt lat="42.21519" lon="8.98412">
        <ele>1679.58</ele>
        <time>2018-08-29T05:25:52Z</time>
      </trkpt>
      <trkpt lat="42.21516" lon="8.98413">
        <ele>1680.84</ele>
        <time>2018-08-29T05:26:04Z</time>
      </trkpt>
      <trkpt lat="42.21516" lon="8.98414">
        <ele>1682.07</ele>
        <time>2018-08-29T05:26:08Z</time>
      </trkpt>
      <trkpt lat="42.21512" lon="8.98413">
        <ele>1682.94</ele>
        <time>2018-08-29T05:26:19Z</time>
      </trkpt>
      <trkpt lat="42.21509" lon="8.98408">
        <ele>1684.72</ele>
        <time>2018-08-29T05:26:33Z</time>
      </trkpt>
      <trkpt lat="42.21506" lon="8.98413">
        <ele>1686.49</ele>
        <time>2018-08-29T05:26:45Z</time>
      </trkpt>
      <trkpt lat="42.21502" lon="8.98416">
        <ele>1688.17</ele>
        <time>2018-08-29T05:26:59Z</time>
      </trkpt>
      <trkpt lat="42.21497" lon="8.98418">
        <ele>1691.3</ele>
        <time>2018-08-29T05:27:11Z</time>
      </trkpt>
      <trkpt lat="42.21492" lon="8.98419">
        <ele>1693.29</ele>
        <time>2018-08-29T05:27:25Z</time>
      </trkpt>
      <trkpt lat="42.21487" lon="8.98419">
        <ele>1694.45</ele>
        <time>2018-08-29T05:27:38Z</time>
      </trkpt>
      <trkpt lat="42.21481" lon="8.98422">
        <ele>1696.47</ele>
        <time>2018-08-29T05:27:53Z</time>
      </trkpt>
      <trkpt lat="42.21472" lon="8.98418">
        <ele>1698.29</ele>
        <time>2018-08-29T05:28:06Z</time>
      </trkpt>
      <trkpt lat="42.21469" lon="8.98416">
        <ele>1699.15</ele>
        <time>2018-08-29T05:28:13Z</time>
      </trkpt>
      <trkpt lat="42.21462" lon="8.98409">
        <ele>1699.98</ele>
        <time>2018-08-29T05:28:28Z</time>
      </trkpt>
      <trkpt lat="42.21457" lon="8.9841">
        <ele>1700.84</ele>
        <time>2018-08-29T05:28:42Z</time>
      </trkpt>
      <trkpt lat="42.21454" lon="8.98415">
        <ele>1702.93</ele>
        <time>2018-08-29T05:28:55Z</time>
      </trkpt>
      <trkpt lat="42.21453" lon="8.98418">
        <ele>1704.67</ele>
        <time>2018-08-29T05:29:08Z</time>
      </trkpt>
      <trkpt lat="42.21452" lon="8.9842">
        <ele>1706.75</ele>
        <time>2018-08-29T05:29:23Z</time>
      </trkpt>
      <trkpt lat="42.21449" lon="8.9842">
        <ele>1707.72</ele>
        <time>2018-08-29T05:29:34Z</time>
      </trkpt>
      <trkpt lat="42.21447" lon="8.98417">
        <ele>1709.27</ele>
        <time>2018-08-29T05:29:40Z</time>
      </trkpt>
      <trkpt lat="42.2144" lon="8.98419">
        <ele>1709.33</ele>
        <time>2018-08-29T05:29:52Z</time>
      </trkpt>
      <trkpt lat="42.21434" lon="8.98423">
        <ele>1712.23</ele>
        <time>2018-08-29T05:30:06Z</time>
      </trkpt>
      <trkpt lat="42.21433" lon="8.98423">
        <ele>1712.24</ele>
        <time>2018-08-29T05:30:09Z</time>
      </trkpt>
      <trkpt lat="42.21428" lon="8.98423">
        <ele>1713.84</ele>
        <time>2018-08-29T05:30:21Z</time>
      </trkpt>
      <trkpt lat="42.21425" lon="8.98422">
        <ele>1715.83</ele>
        <time>2018-08-29T05:30:33Z</time>
      </trkpt>
      <trkpt lat="42.21421" lon="8.98423">
        <ele>1718.06</ele>
        <time>2018-08-29T05:30:45Z</time>
      </trkpt>
      <trkpt lat="42.2142" lon="8.98424">
        <ele>1718.94</ele>
        <time>2018-08-29T05:30:57Z</time>
      </trkpt>
      <trkpt lat="42.21416" lon="8.98424">
        <ele>1720.89</ele>
        <time>2018-08-29T05:31:12Z</time>
      </trkpt>
      <trkpt lat="42.21414" lon="8.98427">
        <ele>1723.47</ele>
        <time>2018-08-29T05:31:26Z</time>
      </trkpt>
      <trkpt lat="42.21409" lon="8.98428">
        <ele>1725.45</ele>
        <time>2018-08-29T05:31:41Z</time>
      </trkpt>
      <trkpt lat="42.21409" lon="8.9843">
        <ele>1726.7</ele>
        <time>2018-08-29T05:31:45Z</time>
      </trkpt>
      <trkpt lat="42.21406" lon="8.98435">
        <ele>1727.66</ele>
        <time>2018-08-29T05:31:58Z</time>
      </trkpt>
      <trkpt lat="42.21402" lon="8.98434">
        <ele>1729.38</ele>
        <time>2018-08-29T05:32:10Z</time>
      </trkpt>
      <trkpt lat="42.21397" lon="8.98436">
        <ele>1731.35</ele>
        <time>2018-08-29T05:32:23Z</time>
      </trkpt>
      <trkpt lat="42.21395" lon="8.98441">
        <ele>1733.33</ele>
        <time>2018-08-29T05:32:35Z</time>
      </trkpt>
      <trkpt lat="42.21392" lon="8.98442">
        <ele>1736.03</ele>
        <time>2018-08-29T05:32:48Z</time>
      </trkpt>
      <trkpt lat="42.21388" lon="8.98443">
        <ele>1736.95</ele>
        <time>2018-08-29T05:33:01Z</time>
      </trkpt>
      <trkpt lat="42.21386" lon="8.98445">
        <ele>1738.32</ele>
        <time>2018-08-29T05:33:08Z</time>
      </trkpt>
      <trkpt lat="42.21385" lon="8.98452">
        <ele>1739.23</ele>
        <time>2018-08-29T05:33:22Z</time>
      </trkpt>
      <trkpt lat="42.21385" lon="8.98453">
        <ele>1740.97</ele>
        <time>2018-08-29T05:33:24Z</time>
      </trkpt>
      <trkpt lat="42.21381" lon="8.98457">
        <ele>1741.02</ele>
        <time>2018-08-29T05:33:35Z</time>
      </trkpt>
      <trkpt lat="42.21377" lon="8.98461">
        <ele>1741.89</ele>
        <time>2018-08-29T05:33:47Z</time>
      </trkpt>
      <trkpt lat="42.2137" lon="8.98465">
        <ele>1742.79</ele>
        <time>2018-08-29T05:34:03Z</time>
      </trkpt>
      <trkpt lat="42.21364" lon="8.98476">
        <ele>1743.59</ele>
        <time>2018-08-29T05:34:16Z</time>
      </trkpt>
      <trkpt lat="42.21357" lon="8.98487">
        <ele>1745.56</ele>
        <time>2018-08-29T05:34:32Z</time>
      </trkpt>
      <trkpt lat="42.21351" lon="8.98485">
        <ele>1746.52</ele>
        <time>2018-08-29T05:34:45Z</time>
      </trkpt>
      <trkpt lat="42.21346" lon="8.98488">
        <ele>1747.49</ele>
        <time>2018-08-29T05:34:57Z</time>
      </trkpt>
      <trkpt lat="42.2134" lon="8.98496">
        <ele>1748.37</ele>
        <time>2018-08-29T05:35:11Z</time>
      </trkpt>
      <trkpt lat="42.21339" lon="8.98496">
        <ele>1749.43</ele>
        <time>2018-08-29T05:35:13Z</time>
      </trkpt>
      <trkpt lat="42.21331" lon="8.98497">
        <ele>1749.6</ele>
        <time>2018-08-29T05:35:26Z</time>
      </trkpt>
      <trkpt lat="42.21326" lon="8.98502">
        <ele>1752.32</ele>
        <time>2018-08-29T05:35:40Z</time>
      </trkpt>
      <trkpt lat="42.21324" lon="8.98511">
        <ele>1755.16</ele>
        <time>2018-08-29T05:35:56Z</time>
      </trkpt>
      <trkpt lat="42.21319" lon="8.98515">
        <ele>1757.04</ele>
        <time>2018-08-29T05:36:10Z</time>
      </trkpt>
      <trkpt lat="42.21322" lon="8.98523">
        <ele>1758.94</ele>
        <time>2018-08-29T05:36:25Z</time>
      </trkpt>
      <trkpt lat="42.21328" lon="8.9853">
        <ele>1761.78</ele>
        <time>2018-08-29T05:36:41Z</time>
      </trkpt>
      <trkpt lat="42.21328" lon="8.98538">
        <ele>1763.94</ele>
        <time>2018-08-29T05:36:55Z</time>
      </trkpt>
      <trkpt lat="42.21327" lon="8.98543">
        <ele>1763.99</ele>
        <time>2018-08-29T05:37:08Z</time>
      </trkpt>
      <trkpt lat="42.21327" lon="8.98544">
        <ele>1765.1</ele>
        <time>2018-08-29T05:37:10Z</time>
      </trkpt>
      <trkpt lat="42.21323" lon="8.98551">
        <ele>1766.55</ele>
        <time>2018-08-29T05:37:22Z</time>
      </trkpt>
      <trkpt lat="42.21319" lon="8.98559">
        <ele>1767.42</ele>
        <time>2018-08-29T05:37:36Z</time>
      </trkpt>
      <trkpt lat="42.21314" lon="8.98564">
        <ele>1769.12</ele>
        <time>2018-08-29T05:37:48Z</time>
      </trkpt>
      <trkpt lat="42.21307" lon="8.98574">
        <ele>1769.98</ele>
        <time>2018-08-29T05:38:02Z</time>
      </trkpt>
      <trkpt lat="42.21305" lon="8.98577">
        <ele>1769.94</ele>
        <time>2018-08-29T05:38:06Z</time>
      </trkpt>
      <trkpt lat="42.21303" lon="8.98587">
        <ele>1769.97</ele>
        <time>2018-08-29T05:38:15Z</time>
      </trkpt>
      <trkpt lat="42.21296" lon="8.98593">
        <ele>1769.97</ele>
        <time>2018-08-29T05:38:29Z</time>
      </trkpt>
      <trkpt lat="42.21294" lon="8.98598">
        <ele>1769.96</ele>
        <time>2018-08-29T05:38:33Z</time>
      </trkpt>
      <trkpt lat="42.21289" lon="8.98614">
        <ele>1770.11</ele>
        <time>2018-08-29T05:38:47Z</time>
      </trkpt>
      <trkpt lat="42.21288" lon="8.98619">
        <ele>1770.11</ele>
        <time>2018-08-29T05:38:59Z</time>
      </trkpt>
      <trkpt lat="42.21288" lon="8.9862">
        <ele>1770.11</ele>
        <time>2018-08-29T05:39:00Z</time>
      </trkpt>
      <trkpt lat="42.21285" lon="8.9862">
        <ele>1770.11</ele>
        <time>2018-08-29T05:39:03Z</time>
      </trkpt>
      <trkpt lat="42.21278" lon="8.98617">
        <ele>1770.14</ele>
        <time>2018-08-29T05:39:09Z</time>
      </trkpt>
      <trkpt lat="42.21273" lon="8.98623">
        <ele>1770.15</ele>
        <time>2018-08-29T05:39:14Z</time>
      </trkpt>
      <trkpt lat="42.21267" lon="8.98639">
        <ele>1770.28</ele>
        <time>2018-08-29T05:39:32Z</time>
      </trkpt>
      <trkpt lat="42.21268" lon="8.98639">
        <ele>1770.29</ele>
        <time>2018-08-29T05:39:38Z</time>
      </trkpt>
      <trkpt lat="42.21255" lon="8.98659">
        <ele>1770.43</ele>
        <time>2018-08-29T05:39:58Z</time>
      </trkpt>
      <trkpt lat="42.21252" lon="8.98663">
        <ele>1770.45</ele>
        <time>2018-08-29T05:40:02Z</time>
      </trkpt>
      <trkpt lat="42.21248" lon="8.98666">
        <ele>1770.48</ele>
        <time>2018-08-29T05:40:07Z</time>
      </trkpt>
      <trkpt lat="42.21244" lon="8.98679">
        <ele>1771.28</ele>
        <time>2018-08-29T05:40:18Z</time>
      </trkpt>
      <trkpt lat="42.21242" lon="8.98691">
        <ele>1771.31</ele>
        <time>2018-08-29T05:40:27Z</time>
      </trkpt>
      <trkpt lat="42.21243" lon="8.98698">
        <ele>1771.26</ele>
        <time>2018-08-29T05:40:36Z</time>
      </trkpt>
      <trkpt lat="42.21245" lon="8.98717">
        <ele>1772.5</ele>
        <time>2018-08-29T05:40:51Z</time>
      </trkpt>
      <trkpt lat="42.21232" lon="8.98739">
        <ele>1772.51</ele>
        <time>2018-08-29T05:41:09Z</time>
      </trkpt>
      <trkpt lat="42.21226" lon="8.98758">
        <ele>1772.59</ele>
        <time>2018-08-29T05:41:25Z</time>
      </trkpt>
      <trkpt lat="42.2122" lon="8.98765">
        <ele>1773.88</ele>
        <time>2018-08-29T05:41:38Z</time>
      </trkpt>
      <trkpt lat="42.21212" lon="8.98769">
        <ele>1775.88</ele>
        <time>2018-08-29T05:41:52Z</time>
      </trkpt>
      <trkpt lat="42.21211" lon="8.9877">
        <ele>1775.85</ele>
        <time>2018-08-29T05:41:55Z</time>
      </trkpt>
      <trkpt lat="42.21208" lon="8.98774">
        <ele>1775.83</ele>
        <time>2018-08-29T05:42:00Z</time>
      </trkpt>
      <trkpt lat="42.21203" lon="8.98775">
        <ele>1773.54</ele>
        <time>2018-08-29T05:42:06Z</time>
      </trkpt>
      <trkpt lat="42.21202" lon="8.98781">
        <ele>1773.62</ele>
        <time>2018-08-29T05:42:11Z</time>
      </trkpt>
      <trkpt lat="42.21196" lon="8.98788">
        <ele>1773.68</ele>
        <time>2018-08-29T05:42:19Z</time>
      </trkpt>
      <trkpt lat="42.21186" lon="8.98795">
        <ele>1773.72</ele>
        <time>2018-08-29T05:42:32Z</time>
      </trkpt>
      <trkpt lat="42.21177" lon="8.98805">
        <ele>1773.76</ele>
        <time>2018-08-29T05:42:47Z</time>
      </trkpt>
      <trkpt lat="42.21175" lon="8.98805">
        <ele>1776.25</ele>
        <time>2018-08-29T05:42:49Z</time>
      </trkpt>
      <trkpt lat="42.21169" lon="8.98803">
        <ele>1776.25</ele>
        <time>2018-08-29T05:42:57Z</time>
      </trkpt>
      <trkpt lat="42.21164" lon="8.98804">
        <ele>1776.28</ele>
        <time>2018-08-29T05:43:02Z</time>
      </trkpt>
      <trkpt lat="42.21159" lon="8.9881">
        <ele>1776.24</ele>
        <time>2018-08-29T05:43:08Z</time>
      </trkpt>
      <trkpt lat="42.21147" lon="8.98818">
        <ele>1777.42</ele>
        <time>2018-08-29T05:43:23Z</time>
      </trkpt>
      <trkpt lat="42.21147" lon="8.98819">
        <ele>1777.41</ele>
        <time>2018-08-29T05:43:24Z</time>
      </trkpt>
      <trkpt lat="42.21137" lon="8.98827">
        <ele>1778.64</ele>
        <time>2018-08-29T05:43:40Z</time>
      </trkpt>
      <trkpt lat="42.21132" lon="8.98843">
        <ele>1779.45</ele>
        <time>2018-08-29T05:43:55Z</time>
      </trkpt>
      <trkpt lat="42.21128" lon="8.98852">
        <ele>1782.17</ele>
        <time>2018-08-29T05:44:06Z</time>
      </trkpt>
      <trkpt lat="42.21124" lon="8.98861">
        <ele>1783</ele>
        <time>2018-08-29T05:44:19Z</time>
      </trkpt>
      <trkpt lat="42.21126" lon="8.9887">
        <ele>1784.87</ele>
        <time>2018-08-29T05:44:32Z</time>
      </trkpt>
      <trkpt lat="42.21126" lon="8.98878">
        <ele>1786.58</ele>
        <time>2018-08-29T05:44:46Z</time>
      </trkpt>
      <trkpt lat="42.2112" lon="8.98881">
        <ele>1788.38</ele>
        <time>2018-08-29T05:44:59Z</time>
      </trkpt>
      <trkpt lat="42.21116" lon="8.98883">
        <ele>1789.73</ele>
        <time>2018-08-29T05:45:07Z</time>
      </trkpt>
      <trkpt lat="42.21109" lon="8.98888">
        <ele>1791.93</ele>
        <time>2018-08-29T05:45:21Z</time>
      </trkpt>
      <trkpt lat="42.21101" lon="8.98894">
        <ele>1792.78</ele>
        <time>2018-08-29T05:45:36Z</time>
      </trkpt>
      <trkpt lat="42.21098" lon="8.989">
        <ele>1794.73</ele>
        <time>2018-08-29T05:45:47Z</time>
      </trkpt>
      <trkpt lat="42.21092" lon="8.98908">
        <ele>1795.89</ele>
        <time>2018-08-29T05:46:02Z</time>
      </trkpt>
      <trkpt lat="42.21088" lon="8.98921">
        <ele>1798.38</ele>
        <time>2018-08-29T05:46:18Z</time>
      </trkpt>
      <trkpt lat="42.21089" lon="8.98925">
        <ele>1800.36</ele>
        <time>2018-08-29T05:46:31Z</time>
      </trkpt>
      <trkpt lat="42.21089" lon="8.98932">
        <ele>1802.1</ele>
        <time>2018-08-29T05:46:46Z</time>
      </trkpt>
      <trkpt lat="42.21094" lon="8.98935">
        <ele>1804.08</ele>
        <time>2018-08-29T05:47:00Z</time>
      </trkpt>
      <trkpt lat="42.21101" lon="8.98937">
        <ele>1806.17</ele>
        <time>2018-08-29T05:47:14Z</time>
      </trkpt>
      <trkpt lat="42.21111" lon="8.98939">
        <ele>1807.82</ele>
        <time>2018-08-29T05:47:28Z</time>
      </trkpt>
      <trkpt lat="42.2111" lon="8.98942">
        <ele>1810.69</ele>
        <time>2018-08-29T05:47:43Z</time>
      </trkpt>
      <trkpt lat="42.21104" lon="8.98945">
        <ele>1812.44</ele>
        <time>2018-08-29T05:47:57Z</time>
      </trkpt>
      <trkpt lat="42.21105" lon="8.98949">
        <ele>1814.98</ele>
        <time>2018-08-29T05:48:13Z</time>
      </trkpt>
      <trkpt lat="42.21108" lon="8.98952">
        <ele>1815.93</ele>
        <time>2018-08-29T05:48:25Z</time>
      </trkpt>
      <trkpt lat="42.21107" lon="8.98956">
        <ele>1817.82</ele>
        <time>2018-08-29T05:48:39Z</time>
      </trkpt>
      <trkpt lat="42.21104" lon="8.9896">
        <ele>1820.62</ele>
        <time>2018-08-29T05:48:53Z</time>
      </trkpt>
      <trkpt lat="42.21106" lon="8.98967">
        <ele>1822.44</ele>
        <time>2018-08-29T05:49:06Z</time>
      </trkpt>
      <trkpt lat="42.21109" lon="8.98971">
        <ele>1823.25</ele>
        <time>2018-08-29T05:49:18Z</time>
      </trkpt>
      <trkpt lat="42.21112" lon="8.98974">
        <ele>1825.24</ele>
        <time>2018-08-29T05:49:33Z</time>
      </trkpt>
      <trkpt lat="42.21111" lon="8.98978">
        <ele>1828.29</ele>
        <time>2018-08-29T05:49:45Z</time>
      </trkpt>
      <trkpt lat="42.21109" lon="8.98981">
        <ele>1829.52</ele>
        <time>2018-08-29T05:49:56Z</time>
      </trkpt>
      <trkpt lat="42.21115" lon="8.98982">
        <ele>1830.38</ele>
        <time>2018-08-29T05:50:10Z</time>
      </trkpt>
      <trkpt lat="42.21114" lon="8.98985">
        <ele>1833.43</ele>
        <time>2018-08-29T05:50:20Z</time>
      </trkpt>
      <trkpt lat="42.21113" lon="8.98986">
        <ele>1833.43</ele>
        <time>2018-08-29T05:50:22Z</time>
      </trkpt>
      <trkpt lat="42.21107" lon="8.98989">
        <ele>1834.39</ele>
        <time>2018-08-29T05:50:37Z</time>
      </trkpt>
      <trkpt lat="42.21101" lon="8.98996">
        <ele>1834.49</ele>
        <time>2018-08-29T05:50:50Z</time>
      </trkpt>
      <trkpt lat="42.21101" lon="8.99002">
        <ele>1835.49</ele>
        <time>2018-08-29T05:51:03Z</time>
      </trkpt>
      <trkpt lat="42.21102" lon="8.99007">
        <ele>1838.33</ele>
        <time>2018-08-29T05:51:18Z</time>
      </trkpt>
      <trkpt lat="42.21103" lon="8.99012">
        <ele>1839.35</ele>
        <time>2018-08-29T05:51:31Z</time>
      </trkpt>
      <trkpt lat="42.21111" lon="8.99006">
        <ele>1840.32</ele>
        <time>2018-08-29T05:51:44Z</time>
      </trkpt>
      <trkpt lat="42.21115" lon="8.99012">
        <ele>1842.51</ele>
        <time>2018-08-29T05:51:58Z</time>
      </trkpt>
      <trkpt lat="42.21111" lon="8.99018">
        <ele>1844.59</ele>
        <time>2018-08-29T05:52:12Z</time>
      </trkpt>
      <trkpt lat="42.2111" lon="8.99024">
        <ele>1847.17</ele>
        <time>2018-08-29T05:52:25Z</time>
      </trkpt>
      <trkpt lat="42.21119" lon="8.99026">
        <ele>1848.17</ele>
        <time>2018-08-29T05:52:36Z</time>
      </trkpt>
      <trkpt lat="42.21119" lon="8.9903">
        <ele>1849.13</ele>
        <time>2018-08-29T05:52:50Z</time>
      </trkpt>
      <trkpt lat="42.21116" lon="8.99035">
        <ele>1851.02</ele>
        <time>2018-08-29T05:53:02Z</time>
      </trkpt>
      <trkpt lat="42.21115" lon="8.99036">
        <ele>1852.04</ele>
        <time>2018-08-29T05:53:16Z</time>
      </trkpt>
      <trkpt lat="42.21114" lon="8.99036">
        <ele>1852.18</ele>
        <time>2018-08-29T05:53:40Z</time>
      </trkpt>
      <trkpt lat="42.21114" lon="8.99036">
        <ele>1853.18</ele>
        <time>2018-08-29T05:54:15Z</time>
      </trkpt>
      <trkpt lat="42.21115" lon="8.99044">
        <ele>1854.16</ele>
        <time>2018-08-29T05:54:30Z</time>
      </trkpt>
      <trkpt lat="42.21113" lon="8.99048">
        <ele>1855.41</ele>
        <time>2018-08-29T05:54:36Z</time>
      </trkpt>
      <trkpt lat="42.21111" lon="8.99058">
        <ele>1857.38</ele>
        <time>2018-08-29T05:54:51Z</time>
      </trkpt>
      <trkpt lat="42.21105" lon="8.99068">
        <ele>1857.39</ele>
        <time>2018-08-29T05:55:06Z</time>
      </trkpt>
      <trkpt lat="42.21102" lon="8.99074">
        <ele>1857.42</ele>
        <time>2018-08-29T05:55:17Z</time>
      </trkpt>
      <trkpt lat="42.21099" lon="8.99082">
        <ele>1857.54</ele>
        <time>2018-08-29T05:55:28Z</time>
      </trkpt>
      <trkpt lat="42.21095" lon="8.99089">
        <ele>1858.4</ele>
        <time>2018-08-29T05:55:41Z</time>
      </trkpt>
      <trkpt lat="42.21095" lon="8.99102">
        <ele>1860.4</ele>
        <time>2018-08-29T05:55:56Z</time>
      </trkpt>
      <trkpt lat="42.2109" lon="8.99111">
        <ele>1862.23</ele>
        <time>2018-08-29T05:56:11Z</time>
      </trkpt>
      <trkpt lat="42.21087" lon="8.99114">
        <ele>1862.25</ele>
        <time>2018-08-29T05:56:15Z</time>
      </trkpt>
      <trkpt lat="42.21083" lon="8.99122">
        <ele>1863.25</ele>
        <time>2018-08-29T05:56:26Z</time>
      </trkpt>
      <trkpt lat="42.21078" lon="8.99132">
        <ele>1865.01</ele>
        <time>2018-08-29T05:56:40Z</time>
      </trkpt>
      <trkpt lat="42.21072" lon="8.9914">
        <ele>1866.19</ele>
        <time>2018-08-29T05:56:54Z</time>
      </trkpt>
      <trkpt lat="42.21068" lon="8.99149">
        <ele>1867.19</ele>
        <time>2018-08-29T05:57:08Z</time>
      </trkpt>
      <trkpt lat="42.21074" lon="8.99154">
        <ele>1867.29</ele>
        <time>2018-08-29T05:57:37Z</time>
      </trkpt>
      <trkpt lat="42.21072" lon="8.99165">
        <ele>1868.6</ele>
        <time>2018-08-29T05:57:50Z</time>
      </trkpt>
      <trkpt lat="42.21068" lon="8.99173">
        <ele>1868.63</ele>
        <time>2018-08-29T05:57:59Z</time>
      </trkpt>
      <trkpt lat="42.21069" lon="8.99174">
        <ele>1870.02</ele>
        <time>2018-08-29T05:58:02Z</time>
      </trkpt>
      <trkpt lat="42.21074" lon="8.99183">
        <ele>1872.04</ele>
        <time>2018-08-29T05:58:17Z</time>
      </trkpt>
      <trkpt lat="42.21076" lon="8.99186">
        <ele>1874.24</ele>
        <time>2018-08-29T05:58:24Z</time>
      </trkpt>
      <trkpt lat="42.21076" lon="8.99195">
        <ele>1875.29</ele>
        <time>2018-08-29T05:58:38Z</time>
      </trkpt>
      <trkpt lat="42.21075" lon="8.99201">
        <ele>1876.78</ele>
        <time>2018-08-29T05:58:47Z</time>
      </trkpt>
      <trkpt lat="42.21074" lon="8.99202">
        <ele>1876.84</ele>
        <time>2018-08-29T05:59:02Z</time>
      </trkpt>
      <trkpt lat="42.21074" lon="8.99211">
        <ele>1877.83</ele>
        <time>2018-08-29T05:59:18Z</time>
      </trkpt>
      <trkpt lat="42.21078" lon="8.99216">
        <ele>1878.97</ele>
        <time>2018-08-29T05:59:31Z</time>
      </trkpt>
      <trkpt lat="42.21079" lon="8.99219">
        <ele>1881.14</ele>
        <time>2018-08-29T05:59:39Z</time>
      </trkpt>
      <trkpt lat="42.21082" lon="8.99225">
        <ele>1882.39</ele>
        <time>2018-08-29T05:59:50Z</time>
      </trkpt>
      <trkpt lat="42.21079" lon="8.99232">
        <ele>1883.28</ele>
        <time>2018-08-29T06:00:04Z</time>
      </trkpt>
      <trkpt lat="42.21073" lon="8.99241">
        <ele>1885.41</ele>
        <time>2018-08-29T06:00:19Z</time>
      </trkpt>
      <trkpt lat="42.21072" lon="8.99253">
        <ele>1887.45</ele>
        <time>2018-08-29T06:00:33Z</time>
      </trkpt>
      <trkpt lat="42.21072" lon="8.99262">
        <ele>1888.31</ele>
        <time>2018-08-29T06:00:45Z</time>
      </trkpt>
      <trkpt lat="42.21073" lon="8.99274">
        <ele>1889.46</ele>
        <time>2018-08-29T06:00:58Z</time>
      </trkpt>
      <trkpt lat="42.21075" lon="8.99285">
        <ele>1890.52</ele>
        <time>2018-08-29T06:01:10Z</time>
      </trkpt>
      <trkpt lat="42.21081" lon="8.99289">
        <ele>1892.67</ele>
        <time>2018-08-29T06:01:24Z</time>
      </trkpt>
      <trkpt lat="42.21089" lon="8.99285">
        <ele>1893.66</ele>
        <time>2018-08-29T06:01:38Z</time>
      </trkpt>
      <trkpt lat="42.2109" lon="8.99292">
        <ele>1895.53</ele>
        <time>2018-08-29T06:01:50Z</time>
      </trkpt>
      <trkpt lat="42.21092" lon="8.99294">
        <ele>1897.04</ele>
        <time>2018-08-29T06:01:54Z</time>
      </trkpt>
      <trkpt lat="42.21089" lon="8.99303">
        <ele>1898</ele>
        <time>2018-08-29T06:02:06Z</time>
      </trkpt>
      <trkpt lat="42.2109" lon="8.99314">
        <ele>1899.77</ele>
        <time>2018-08-29T06:02:19Z</time>
      </trkpt>
      <trkpt lat="42.21091" lon="8.99323">
        <ele>1900.68</ele>
        <time>2018-08-29T06:02:32Z</time>
      </trkpt>
      <trkpt lat="42.21089" lon="8.99331">
        <ele>1902.56</ele>
        <time>2018-08-29T06:02:45Z</time>
      </trkpt>
      <trkpt lat="42.21092" lon="8.99334">
        <ele>1904.52</ele>
        <time>2018-08-29T06:03:00Z</time>
      </trkpt>
      <trkpt lat="42.21097" lon="8.99332">
        <ele>1905.48</ele>
        <time>2018-08-29T06:03:14Z</time>
      </trkpt>
      <trkpt lat="42.21102" lon="8.99333">
        <ele>1908.3</ele>
        <time>2018-08-29T06:03:27Z</time>
      </trkpt>
      <trkpt lat="42.21104" lon="8.99338">
        <ele>1910.15</ele>
        <time>2018-08-29T06:03:42Z</time>
      </trkpt>
      <trkpt lat="42.21107" lon="8.99344">
        <ele>1911.47</ele>
        <time>2018-08-29T06:03:56Z</time>
      </trkpt>
      <trkpt lat="42.21108" lon="8.99349">
        <ele>1912.82</ele>
        <time>2018-08-29T06:04:09Z</time>
      </trkpt>
      <trkpt lat="42.21109" lon="8.99353">
        <ele>1914.94</ele>
        <time>2018-08-29T06:04:21Z</time>
      </trkpt>
      <trkpt lat="42.21108" lon="8.9936">
        <ele>1917.64</ele>
        <time>2018-08-29T06:04:35Z</time>
      </trkpt>
      <trkpt lat="42.21114" lon="8.99366">
        <ele>1918.72</ele>
        <time>2018-08-29T06:04:47Z</time>
      </trkpt>
      <trkpt lat="42.21116" lon="8.99374">
        <ele>1919.84</ele>
        <time>2018-08-29T06:05:00Z</time>
      </trkpt>
      <trkpt lat="42.21114" lon="8.99381">
        <ele>1922.14</ele>
        <time>2018-08-29T06:05:10Z</time>
      </trkpt>
      <trkpt lat="42.21113" lon="8.99388">
        <ele>1922.26</ele>
        <time>2018-08-29T06:05:23Z</time>
      </trkpt>
      <trkpt lat="42.21116" lon="8.99395">
        <ele>1924.32</ele>
        <time>2018-08-29T06:05:34Z</time>
      </trkpt>
      <trkpt lat="42.21118" lon="8.99401">
        <ele>1926.32</ele>
        <time>2018-08-29T06:05:50Z</time>
      </trkpt>
      <trkpt lat="42.2112" lon="8.99407">
        <ele>1929.1</ele>
        <time>2018-08-29T06:06:04Z</time>
      </trkpt>
      <trkpt lat="42.21122" lon="8.99415">
        <ele>1930.42</ele>
        <time>2018-08-29T06:06:17Z</time>
      </trkpt>
      <trkpt lat="42.21121" lon="8.99423">
        <ele>1931.28</ele>
        <time>2018-08-29T06:06:25Z</time>
      </trkpt>
      <trkpt lat="42.21118" lon="8.99425">
        <ele>1931.43</ele>
        <time>2018-08-29T06:06:39Z</time>
      </trkpt>
      <trkpt lat="42.21119" lon="8.99431">
        <ele>1932.72</ele>
        <time>2018-08-29T06:06:46Z</time>
      </trkpt>
      <trkpt lat="42.21121" lon="8.9944">
        <ele>1932.88</ele>
        <time>2018-08-29T06:06:58Z</time>
      </trkpt>
      <trkpt lat="42.21122" lon="8.99444">
        <ele>1934.16</ele>
        <time>2018-08-29T06:07:03Z</time>
      </trkpt>
      <trkpt lat="42.21126" lon="8.9945">
        <ele>1935.23</ele>
        <time>2018-08-29T06:07:16Z</time>
      </trkpt>
      <trkpt lat="42.21126" lon="8.99452">
        <ele>1936.77</ele>
        <time>2018-08-29T06:07:20Z</time>
      </trkpt>
      <trkpt lat="42.21132" lon="8.99452">
        <ele>1936.95</ele>
        <time>2018-08-29T06:07:33Z</time>
      </trkpt>
      <trkpt lat="42.21136" lon="8.99454">
        <ele>1939.01</ele>
        <time>2018-08-29T06:07:44Z</time>
      </trkpt>
      <trkpt lat="42.21134" lon="8.99466">
        <ele>1941.18</ele>
        <time>2018-08-29T06:08:01Z</time>
      </trkpt>
      <trkpt lat="42.21138" lon="8.99475">
        <ele>1943.56</ele>
        <time>2018-08-29T06:08:14Z</time>
      </trkpt>
      <trkpt lat="42.21135" lon="8.99483">
        <ele>1944.54</ele>
        <time>2018-08-29T06:08:28Z</time>
      </trkpt>
      <trkpt lat="42.21138" lon="8.99489">
        <ele>1947.47</ele>
        <time>2018-08-29T06:08:42Z</time>
      </trkpt>
      <trkpt lat="42.21139" lon="8.99497">
        <ele>1948.58</ele>
        <time>2018-08-29T06:08:56Z</time>
      </trkpt>
      <trkpt lat="42.21139" lon="8.99506">
        <ele>1949.52</ele>
        <time>2018-08-29T06:09:09Z</time>
      </trkpt>
      <trkpt lat="42.21142" lon="8.99517">
        <ele>1950.69</ele>
        <time>2018-08-29T06:09:21Z</time>
      </trkpt>
      <trkpt lat="42.21147" lon="8.99526">
        <ele>1952.46</ele>
        <time>2018-08-29T06:09:36Z</time>
      </trkpt>
      <trkpt lat="42.21152" lon="8.9954">
        <ele>1955.63</ele>
        <time>2018-08-29T06:09:52Z</time>
      </trkpt>
      <trkpt lat="42.21154" lon="8.99544">
        <ele>1956.72</ele>
        <time>2018-08-29T06:10:05Z</time>
      </trkpt>
      <trkpt lat="42.21155" lon="8.99551">
        <ele>1957.64</ele>
        <time>2018-08-29T06:10:18Z</time>
      </trkpt>
      <trkpt lat="42.21156" lon="8.99558">
        <ele>1957.7</ele>
        <time>2018-08-29T06:10:23Z</time>
      </trkpt>
      <trkpt lat="42.21155" lon="8.99573">
        <ele>1957.91</ele>
        <time>2018-08-29T06:10:38Z</time>
      </trkpt>
      <trkpt lat="42.21155" lon="8.99574">
        <ele>1957.92</ele>
        <time>2018-08-29T06:10:39Z</time>
      </trkpt>
      <trkpt lat="42.21155" lon="8.99578">
        <ele>1957.98</ele>
        <time>2018-08-29T06:10:43Z</time>
      </trkpt>
      <trkpt lat="42.2116" lon="8.99589">
        <ele>1958.14</ele>
        <time>2018-08-29T06:10:53Z</time>
      </trkpt>
      <trkpt lat="42.21165" lon="8.996">
        <ele>1958.32</ele>
        <time>2018-08-29T06:11:04Z</time>
      </trkpt>
      <trkpt lat="42.21166" lon="8.9961">
        <ele>1959.4</ele>
        <time>2018-08-29T06:11:17Z</time>
      </trkpt>
      <trkpt lat="42.21167" lon="8.99618">
        <ele>1959.57</ele>
        <time>2018-08-29T06:11:29Z</time>
      </trkpt>
      <trkpt lat="42.21167" lon="8.99618">
        <ele>1957.01</ele>
        <time>2018-08-29T06:11:31Z</time>
      </trkpt>
      <trkpt lat="42.21166" lon="8.99619">
        <ele>1957.02</ele>
        <time>2018-08-29T06:11:32Z</time>
      </trkpt>
      <trkpt lat="42.21166" lon="8.99621">
        <ele>1957.05</ele>
        <time>2018-08-29T06:11:34Z</time>
      </trkpt>
      <trkpt lat="42.21166" lon="8.99632">
        <ele>1957.27</ele>
        <time>2018-08-29T06:11:48Z</time>
      </trkpt>
      <trkpt lat="42.21166" lon="8.99643">
        <ele>1956.65</ele>
        <time>2018-08-29T06:12:00Z</time>
      </trkpt>
      <trkpt lat="42.21161" lon="8.9965">
        <ele>1955.01</ele>
        <time>2018-08-29T06:12:11Z</time>
      </trkpt>
      <trkpt lat="42.21158" lon="8.99661">
        <ele>1952.46</ele>
        <time>2018-08-29T06:12:24Z</time>
      </trkpt>
      <trkpt lat="42.21158" lon="8.99664">
        <ele>1952.49</ele>
        <time>2018-08-29T06:12:26Z</time>
      </trkpt>
      <trkpt lat="42.21157" lon="8.99669">
        <ele>1952.55</ele>
        <time>2018-08-29T06:12:30Z</time>
      </trkpt>
      <trkpt lat="42.21155" lon="8.9967">
        <ele>1952.5</ele>
        <time>2018-08-29T06:12:32Z</time>
      </trkpt>
      <trkpt lat="42.21152" lon="8.99675">
        <ele>1952.63</ele>
        <time>2018-08-29T06:12:36Z</time>
      </trkpt>
      <trkpt lat="42.21152" lon="8.99677">
        <ele>1952.66</ele>
        <time>2018-08-29T06:12:38Z</time>
      </trkpt>
      <trkpt lat="42.21152" lon="8.99684">
        <ele>1952.79</ele>
        <time>2018-08-29T06:12:46Z</time>
      </trkpt>
      <trkpt lat="42.21147" lon="8.99689">
        <ele>1952.86</ele>
        <time>2018-08-29T06:12:52Z</time>
      </trkpt>
      <trkpt lat="42.21146" lon="8.99701">
        <ele>1952.97</ele>
        <time>2018-08-29T06:13:00Z</time>
      </trkpt>
      <trkpt lat="42.21144" lon="8.99704">
        <ele>1953.01</ele>
        <time>2018-08-29T06:13:03Z</time>
      </trkpt>
      <trkpt lat="42.21142" lon="8.99712">
        <ele>1953.08</ele>
        <time>2018-08-29T06:13:08Z</time>
      </trkpt>
      <trkpt lat="42.21141" lon="8.99714">
        <ele>1953.1</ele>
        <time>2018-08-29T06:13:10Z</time>
      </trkpt>
      <trkpt lat="42.21138" lon="8.99723">
        <ele>1953.2</ele>
        <time>2018-08-29T06:13:17Z</time>
      </trkpt>
      <trkpt lat="42.21137" lon="8.99746">
        <ele>1953.43</ele>
        <time>2018-08-29T06:13:35Z</time>
      </trkpt>
      <trkpt lat="42.21137" lon="8.99752">
        <ele>1955.9</ele>
        <time>2018-08-29T06:13:43Z</time>
      </trkpt>
      <trkpt lat="42.21136" lon="8.99756">
        <ele>1955.94</ele>
        <time>2018-08-29T06:13:46Z</time>
      </trkpt>
      <trkpt lat="42.21134" lon="8.99765">
        <ele>1956.05</ele>
        <time>2018-08-29T06:13:53Z</time>
      </trkpt>
      <trkpt lat="42.21131" lon="8.99781">
        <ele>1956.15</ele>
        <time>2018-08-29T06:14:07Z</time>
      </trkpt>
      <trkpt lat="42.21133" lon="8.99789">
        <ele>1957.19</ele>
        <time>2018-08-29T06:14:16Z</time>
      </trkpt>
      <trkpt lat="42.21136" lon="8.99793">
        <ele>1957.32</ele>
        <time>2018-08-29T06:14:20Z</time>
      </trkpt>
      <trkpt lat="42.21142" lon="8.998">
        <ele>1958.23</ele>
        <time>2018-08-29T06:14:31Z</time>
      </trkpt>
      <trkpt lat="42.21141" lon="8.99806">
        <ele>1958.3</ele>
        <time>2018-08-29T06:14:39Z</time>
      </trkpt>
      <trkpt lat="42.2114" lon="8.99816">
        <ele>1960.57</ele>
        <time>2018-08-29T06:14:51Z</time>
      </trkpt>
      <trkpt lat="42.21143" lon="8.99827">
        <ele>1961.62</ele>
        <time>2018-08-29T06:15:04Z</time>
      </trkpt>
      <trkpt lat="42.21144" lon="8.99828">
        <ele>1962.83</ele>
        <time>2018-08-29T06:15:06Z</time>
      </trkpt>
      <trkpt lat="42.21147" lon="8.99838">
        <ele>1962.88</ele>
        <time>2018-08-29T06:15:24Z</time>
      </trkpt>
      <trkpt lat="42.21147" lon="8.99846">
        <ele>1963.82</ele>
        <time>2018-08-29T06:15:33Z</time>
      </trkpt>
      <trkpt lat="42.21149" lon="8.9986">
        <ele>1964.91</ele>
        <time>2018-08-29T06:15:46Z</time>
      </trkpt>
      <trkpt lat="42.21153" lon="8.99868">
        <ele>1966.72</ele>
        <time>2018-08-29T06:15:59Z</time>
      </trkpt>
      <trkpt lat="42.21159" lon="8.99875">
        <ele>1967.64</ele>
        <time>2018-08-29T06:16:12Z</time>
      </trkpt>
      <trkpt lat="42.2117" lon="8.99874">
        <ele>1967.72</ele>
        <time>2018-08-29T06:16:27Z</time>
      </trkpt>
      <trkpt lat="42.21171" lon="8.99875">
        <ele>1967.87</ele>
        <time>2018-08-29T06:16:46Z</time>
      </trkpt>
      <trkpt lat="42.21173" lon="8.99877">
        <ele>1968.16</ele>
        <time>2018-08-29T06:17:18Z</time>
      </trkpt>
      <trkpt lat="42.21172" lon="8.99876">
        <ele>1968.36</ele>
        <time>2018-08-29T06:17:42Z</time>
      </trkpt>
      <trkpt lat="42.21178" lon="8.99875">
        <ele>1968.45</ele>
        <time>2018-08-29T06:17:55Z</time>
      </trkpt>
      <trkpt lat="42.21181" lon="8.99878">
        <ele>1970.5</ele>
        <time>2018-08-29T06:18:08Z</time>
      </trkpt>
      <trkpt lat="42.21182" lon="8.99885">
        <ele>1971.41</ele>
        <time>2018-08-29T06:18:22Z</time>
      </trkpt>
      <trkpt lat="42.21182" lon="8.99887">
        <ele>1973.75</ele>
        <time>2018-08-29T06:18:27Z</time>
      </trkpt>
      <trkpt lat="42.21176" lon="8.99896">
        <ele>1973.76</ele>
        <time>2018-08-29T06:18:41Z</time>
      </trkpt>
      <trkpt lat="42.21181" lon="8.99899">
        <ele>1975.03</ele>
        <time>2018-08-29T06:18:51Z</time>
      </trkpt>
      <trkpt lat="42.21182" lon="8.99906">
        <ele>1976.21</ele>
        <time>2018-08-29T06:19:03Z</time>
      </trkpt>
      <trkpt lat="42.21184" lon="8.99907">
        <ele>1977.77</ele>
        <time>2018-08-29T06:19:07Z</time>
      </trkpt>
      <trkpt lat="42.21189" lon="8.99911">
        <ele>1979.76</ele>
        <time>2018-08-29T06:19:22Z</time>
      </trkpt>
      <trkpt lat="42.21192" lon="8.99913">
        <ele>1980.94</ele>
        <time>2018-08-29T06:19:36Z</time>
      </trkpt>
      <trkpt lat="42.21191" lon="8.99922">
        <ele>1982.92</ele>
        <time>2018-08-29T06:19:50Z</time>
      </trkpt>
      <trkpt lat="42.21198" lon="8.99922">
        <ele>1985.13</ele>
        <time>2018-08-29T06:20:05Z</time>
      </trkpt>
      <trkpt lat="42.21205" lon="8.99918">
        <ele>1986.01</ele>
        <time>2018-08-29T06:20:19Z</time>
      </trkpt>
      <trkpt lat="42.21206" lon="8.99917">
        <ele>1987.39</ele>
        <time>2018-08-29T06:20:22Z</time>
      </trkpt>
      <trkpt lat="42.21209" lon="8.99922">
        <ele>1988.24</ele>
        <time>2018-08-29T06:20:35Z</time>
      </trkpt>
      <trkpt lat="42.2121" lon="8.99922">
        <ele>1989.31</ele>
        <time>2018-08-29T06:20:38Z</time>
      </trkpt>
      <trkpt lat="42.21215" lon="8.99927">
        <ele>1991.21</ele>
        <time>2018-08-29T06:20:50Z</time>
      </trkpt>
      <trkpt lat="42.21215" lon="8.99932">
        <ele>1993.12</ele>
        <time>2018-08-29T06:21:04Z</time>
      </trkpt>
      <trkpt lat="42.21218" lon="8.99934">
        <ele>1995.17</ele>
        <time>2018-08-29T06:21:15Z</time>
      </trkpt>
      <trkpt lat="42.21223" lon="8.99937">
        <ele>1996.11</ele>
        <time>2018-08-29T06:21:28Z</time>
      </trkpt>
      <trkpt lat="42.21225" lon="8.99944">
        <ele>1998.39</ele>
        <time>2018-08-29T06:21:42Z</time>
      </trkpt>
      <trkpt lat="42.21226" lon="8.99949">
        <ele>1999.26</ele>
        <time>2018-08-29T06:21:55Z</time>
      </trkpt>
      <trkpt lat="42.21225" lon="8.99953">
        <ele>2000.2</ele>
        <time>2018-08-29T06:22:10Z</time>
      </trkpt>
      <trkpt lat="42.21225" lon="8.99959">
        <ele>2002.21</ele>
        <time>2018-08-29T06:22:23Z</time>
      </trkpt>
      <trkpt lat="42.21227" lon="8.99964">
        <ele>2004.41</ele>
        <time>2018-08-29T06:22:39Z</time>
      </trkpt>
      <trkpt lat="42.21229" lon="8.99965">
        <ele>2005.16</ele>
        <time>2018-08-29T06:22:52Z</time>
      </trkpt>
      <trkpt lat="42.21227" lon="8.9997">
        <ele>2006.36</ele>
        <time>2018-08-29T06:23:06Z</time>
      </trkpt>
      <trkpt lat="42.21227" lon="8.99972">
        <ele>2008.18</ele>
        <time>2018-08-29T06:23:20Z</time>
      </trkpt>
      <trkpt lat="42.21232" lon="8.99967">
        <ele>2009.06</ele>
        <time>2018-08-29T06:23:34Z</time>
      </trkpt>
      <trkpt lat="42.21235" lon="8.99963">
        <ele>2009.96</ele>
        <time>2018-08-29T06:23:47Z</time>
      </trkpt>
      <trkpt lat="42.21236" lon="8.99966">
        <ele>2011.82</ele>
        <time>2018-08-29T06:23:58Z</time>
      </trkpt>
      <trkpt lat="42.21236" lon="8.9997">
        <ele>2013.14</ele>
        <time>2018-08-29T06:24:07Z</time>
      </trkpt>
      <trkpt lat="42.2124" lon="8.99971">
        <ele>2014.17</ele>
        <time>2018-08-29T06:24:22Z</time>
      </trkpt>
      <trkpt lat="42.21243" lon="8.99977">
        <ele>2016.92</ele>
        <time>2018-08-29T06:24:40Z</time>
      </trkpt>
      <trkpt lat="42.21247" lon="8.99973">
        <ele>2019.93</ele>
        <time>2018-08-29T06:24:56Z</time>
      </trkpt>
      <trkpt lat="42.2125" lon="8.99976">
        <ele>2021.79</ele>
        <time>2018-08-29T06:25:12Z</time>
      </trkpt>
      <trkpt lat="42.21251" lon="8.99978">
        <ele>2023.92</ele>
        <time>2018-08-29T06:25:27Z</time>
      </trkpt>
      <trkpt lat="42.21255" lon="8.99978">
        <ele>2025.63</ele>
        <time>2018-08-29T06:25:41Z</time>
      </trkpt>
      <trkpt lat="42.21258" lon="8.9998">
        <ele>2027.58</ele>
        <time>2018-08-29T06:25:57Z</time>
      </trkpt>
      <trkpt lat="42.21258" lon="8.9998">
        <ele>2028.41</ele>
        <time>2018-08-29T06:26:11Z</time>
      </trkpt>
      <trkpt lat="42.21255" lon="8.99977">
        <ele>2028.39</ele>
        <time>2018-08-29T06:26:27Z</time>
      </trkpt>
      <trkpt lat="42.21253" lon="8.99975">
        <ele>2025.53</ele>
        <time>2018-08-29T06:26:36Z</time>
      </trkpt>
      <trkpt lat="42.2125" lon="8.99977">
        <ele>2024.7</ele>
        <time>2018-08-29T06:26:48Z</time>
      </trkpt>
      <trkpt lat="42.21247" lon="8.99972">
        <ele>2020.94</ele>
        <time>2018-08-29T06:26:59Z</time>
      </trkpt>
      <trkpt lat="42.21243" lon="8.99973">
        <ele>2020.06</ele>
        <time>2018-08-29T06:27:11Z</time>
      </trkpt>
      <trkpt lat="42.21239" lon="8.99979">
        <ele>2018.91</ele>
        <time>2018-08-29T06:27:21Z</time>
      </trkpt>
      <trkpt lat="42.21239" lon="8.99984">
        <ele>2019.01</ele>
        <time>2018-08-29T06:27:26Z</time>
      </trkpt>
      <trkpt lat="42.21234" lon="8.99996">
        <ele>2019.14</ele>
        <time>2018-08-29T06:27:38Z</time>
      </trkpt>
      <trkpt lat="42.21237" lon="9.00013">
        <ele>2019.27</ele>
        <time>2018-08-29T06:27:54Z</time>
      </trkpt>
      <trkpt lat="42.21237" lon="9.00014">
        <ele>2021.76</ele>
        <time>2018-08-29T06:27:56Z</time>
      </trkpt>
      <trkpt lat="42.21239" lon="9.00021">
        <ele>2023.76</ele>
        <time>2018-08-29T06:28:11Z</time>
      </trkpt>
      <trkpt lat="42.21237" lon="9.00026">
        <ele>2025.45</ele>
        <time>2018-08-29T06:28:25Z</time>
      </trkpt>
      <trkpt lat="42.21237" lon="9.00029">
        <ele>2027.25</ele>
        <time>2018-08-29T06:28:38Z</time>
      </trkpt>
      <trkpt lat="42.21238" lon="9.00033">
        <ele>2029.29</ele>
        <time>2018-08-29T06:28:50Z</time>
      </trkpt>
      <trkpt lat="42.21239" lon="9.00038">
        <ele>2031.4</ele>
        <time>2018-08-29T06:29:06Z</time>
      </trkpt>
      <trkpt lat="42.2124" lon="9.00043">
        <ele>2033.21</ele>
        <time>2018-08-29T06:29:19Z</time>
      </trkpt>
      <trkpt lat="42.21238" lon="9.00048">
        <ele>2035.96</ele>
        <time>2018-08-29T06:29:34Z</time>
      </trkpt>
      <trkpt lat="42.21237" lon="9.00052">
        <ele>2036.83</ele>
        <time>2018-08-29T06:29:47Z</time>
      </trkpt>
      <trkpt lat="42.21236" lon="9.00061">
        <ele>2038.61</ele>
        <time>2018-08-29T06:30:01Z</time>
      </trkpt>
      <trkpt lat="42.21235" lon="9.0007">
        <ele>2039.74</ele>
        <time>2018-08-29T06:30:13Z</time>
      </trkpt>
      <trkpt lat="42.21233" lon="9.00083">
        <ele>2040.72</ele>
        <time>2018-08-29T06:30:27Z</time>
      </trkpt>
      <trkpt lat="42.21233" lon="9.00092">
        <ele>2042.77</ele>
        <time>2018-08-29T06:30:43Z</time>
      </trkpt>
      <trkpt lat="42.2123" lon="9.00099">
        <ele>2042.95</ele>
        <time>2018-08-29T06:31:00Z</time>
      </trkpt>
      <trkpt lat="42.21231" lon="9.00104">
        <ele>2044.24</ele>
        <time>2018-08-29T06:31:08Z</time>
      </trkpt>
      <trkpt lat="42.2123" lon="9.00113">
        <ele>2046.25</ele>
        <time>2018-08-29T06:31:25Z</time>
      </trkpt>
      <trkpt lat="42.21229" lon="9.0012">
        <ele>2048.99</ele>
        <time>2018-08-29T06:31:40Z</time>
      </trkpt>
      <trkpt lat="42.2123" lon="9.00126">
        <ele>2051.03</ele>
        <time>2018-08-29T06:31:54Z</time>
      </trkpt>
      <trkpt lat="42.21231" lon="9.00132">
        <ele>2053.37</ele>
        <time>2018-08-29T06:32:11Z</time>
      </trkpt>
      <trkpt lat="42.21231" lon="9.00138">
        <ele>2054.23</ele>
        <time>2018-08-29T06:32:28Z</time>
      </trkpt>
      <trkpt lat="42.21229" lon="9.00143">
        <ele>2054.46</ele>
        <time>2018-08-29T06:32:45Z</time>
      </trkpt>
      <trkpt lat="42.2123" lon="9.0015">
        <ele>2056.82</ele>
        <time>2018-08-29T06:32:55Z</time>
      </trkpt>
      <trkpt lat="42.21228" lon="9.00157">
        <ele>2057.77</ele>
        <time>2018-08-29T06:33:08Z</time>
      </trkpt>
      <trkpt lat="42.21224" lon="9.00163">
        <ele>2060.23</ele>
        <time>2018-08-29T06:33:22Z</time>
      </trkpt>
      <trkpt lat="42.21225" lon="9.00163">
        <ele>2060.24</ele>
        <time>2018-08-29T06:33:23Z</time>
      </trkpt>
      <trkpt lat="42.21226" lon="9.00168">
        <ele>2060.35</ele>
        <time>2018-08-29T06:33:35Z</time>
      </trkpt>
      <trkpt lat="42.21227" lon="9.00173">
        <ele>2062.12</ele>
        <time>2018-08-29T06:33:50Z</time>
      </trkpt>
      <trkpt lat="42.21225" lon="9.00177">
        <ele>2063.34</ele>
        <time>2018-08-29T06:34:10Z</time>
      </trkpt>
      <trkpt lat="42.21225" lon="9.00183">
        <ele>2064.25</ele>
        <time>2018-08-29T06:34:24Z</time>
      </trkpt>
      <trkpt lat="42.21226" lon="9.00189">
        <ele>2066.22</ele>
        <time>2018-08-29T06:34:41Z</time>
      </trkpt>
      <trkpt lat="42.21225" lon="9.0019">
        <ele>2066.26</ele>
        <time>2018-08-29T06:34:44Z</time>
      </trkpt>
      <trkpt lat="42.2122" lon="9.00195">
        <ele>2066.38</ele>
        <time>2018-08-29T06:35:00Z</time>
      </trkpt>
      <trkpt lat="42.2122" lon="9.00196">
        <ele>2066.39</ele>
        <time>2018-08-29T06:35:02Z</time>
      </trkpt>
      <trkpt lat="42.21217" lon="9.00206">
        <ele>2068.32</ele>
        <time>2018-08-29T06:35:16Z</time>
      </trkpt>
      <trkpt lat="42.21215" lon="9.00216">
        <ele>2070.14</ele>
        <time>2018-08-29T06:35:31Z</time>
      </trkpt>
      <trkpt lat="42.21216" lon="9.00222">
        <ele>2071.33</ele>
        <time>2018-08-29T06:35:44Z</time>
      </trkpt>
      <trkpt lat="42.21216" lon="9.00229">
        <ele>2073.78</ele>
        <time>2018-08-29T06:35:59Z</time>
      </trkpt>
      <trkpt lat="42.21217" lon="9.00234">
        <ele>2074.86</ele>
        <time>2018-08-29T06:36:12Z</time>
      </trkpt>
      <trkpt lat="42.21215" lon="9.0024">
        <ele>2075.99</ele>
        <time>2018-08-29T06:36:26Z</time>
      </trkpt>
      <trkpt lat="42.21216" lon="9.00243">
        <ele>2079.25</ele>
        <time>2018-08-29T06:36:37Z</time>
      </trkpt>
      <trkpt lat="42.21216" lon="9.00243">
        <ele>2079.25</ele>
        <time>2018-08-29T06:36:38Z</time>
      </trkpt>
      <trkpt lat="42.21216" lon="9.00247">
        <ele>2079.27</ele>
        <time>2018-08-29T06:36:49Z</time>
      </trkpt>
      <trkpt lat="42.21214" lon="9.00251">
        <ele>2081.85</ele>
        <time>2018-08-29T06:36:59Z</time>
      </trkpt>
      <trkpt lat="42.21209" lon="9.00253">
        <ele>2083.19</ele>
        <time>2018-08-29T06:37:13Z</time>
      </trkpt>
      <trkpt lat="42.21205" lon="9.00258">
        <ele>2085.36</ele>
        <time>2018-08-29T06:37:28Z</time>
      </trkpt>
      <trkpt lat="42.21203" lon="9.00264">
        <ele>2086.19</ele>
        <time>2018-08-29T06:37:40Z</time>
      </trkpt>
      <trkpt lat="42.212" lon="9.00265">
        <ele>2088.44</ele>
        <time>2018-08-29T06:37:48Z</time>
      </trkpt>
      <trkpt lat="42.21198" lon="9.00271">
        <ele>2090.08</ele>
        <time>2018-08-29T06:38:01Z</time>
      </trkpt>
      <trkpt lat="42.21193" lon="9.00269">
        <ele>2091.14</ele>
        <time>2018-08-29T06:38:13Z</time>
      </trkpt>
      <trkpt lat="42.21191" lon="9.00271">
        <ele>2092.42</ele>
        <time>2018-08-29T06:38:28Z</time>
      </trkpt>
      <trkpt lat="42.2119" lon="9.00278">
        <ele>2094.4</ele>
        <time>2018-08-29T06:38:44Z</time>
      </trkpt>
      <trkpt lat="42.21185" lon="9.00283">
        <ele>2096.35</ele>
        <time>2018-08-29T06:38:58Z</time>
      </trkpt>
      <trkpt lat="42.21182" lon="9.0029">
        <ele>2098.1</ele>
        <time>2018-08-29T06:39:11Z</time>
      </trkpt>
      <trkpt lat="42.2118" lon="9.00294">
        <ele>2100.69</ele>
        <time>2018-08-29T06:39:24Z</time>
      </trkpt>
      <trkpt lat="42.21177" lon="9.00296">
        <ele>2102.3</ele>
        <time>2018-08-29T06:39:34Z</time>
      </trkpt>
      <trkpt lat="42.21174" lon="9.003">
        <ele>2103.49</ele>
        <time>2018-08-29T06:39:49Z</time>
      </trkpt>
      <trkpt lat="42.21172" lon="9.00302">
        <ele>2104.42</ele>
        <time>2018-08-29T06:40:03Z</time>
      </trkpt>
      <trkpt lat="42.21172" lon="9.00306">
        <ele>2107.22</ele>
        <time>2018-08-29T06:40:16Z</time>
      </trkpt>
      <trkpt lat="42.21167" lon="9.00308">
        <ele>2108.28</ele>
        <time>2018-08-29T06:40:30Z</time>
      </trkpt>
      <trkpt lat="42.21168" lon="9.00316">
        <ele>2110.1</ele>
        <time>2018-08-29T06:40:44Z</time>
      </trkpt>
      <trkpt lat="42.21169" lon="9.00319">
        <ele>2112.15</ele>
        <time>2018-08-29T06:40:56Z</time>
      </trkpt>
      <trkpt lat="42.2117" lon="9.00326">
        <ele>2113.14</ele>
        <time>2018-08-29T06:41:10Z</time>
      </trkpt>
      <trkpt lat="42.21172" lon="9.00333">
        <ele>2114.4</ele>
        <time>2018-08-29T06:41:22Z</time>
      </trkpt>
      <trkpt lat="42.21175" lon="9.00336">
        <ele>2115.38</ele>
        <time>2018-08-29T06:41:36Z</time>
      </trkpt>
      <trkpt lat="42.21179" lon="9.00339">
        <ele>2116.35</ele>
        <time>2018-08-29T06:41:48Z</time>
      </trkpt>
      <trkpt lat="42.21176" lon="9.00343">
        <ele>2119.71</ele>
        <time>2018-08-29T06:42:05Z</time>
      </trkpt>
      <trkpt lat="42.21175" lon="9.00342">
        <ele>2119.71</ele>
        <time>2018-08-29T06:42:06Z</time>
      </trkpt>
      <trkpt lat="42.21173" lon="9.00345">
        <ele>2120.88</ele>
        <time>2018-08-29T06:42:25Z</time>
      </trkpt>
      <trkpt lat="42.21173" lon="9.00347">
        <ele>2121.75</ele>
        <time>2018-08-29T06:42:37Z</time>
      </trkpt>
      <trkpt lat="42.21175" lon="9.00351">
        <ele>2123.56</ele>
        <time>2018-08-29T06:42:51Z</time>
      </trkpt>
      <trkpt lat="42.21174" lon="9.00354">
        <ele>2123.82</ele>
        <time>2018-08-29T06:43:29Z</time>
      </trkpt>
      <trkpt lat="42.21177" lon="9.00355">
        <ele>2125.09</ele>
        <time>2018-08-29T06:43:45Z</time>
      </trkpt>
      <trkpt lat="42.21176" lon="9.0036">
        <ele>2127.97</ele>
        <time>2018-08-29T06:43:58Z</time>
      </trkpt>
      <trkpt lat="42.21174" lon="9.00363">
        <ele>2130.25</ele>
        <time>2018-08-29T06:44:12Z</time>
      </trkpt>
      <trkpt lat="42.21174" lon="9.00363">
        <ele>2130.25</ele>
        <time>2018-08-29T06:44:13Z</time>
      </trkpt>
      <trkpt lat="42.21171" lon="9.00364">
        <ele>2130.33</ele>
        <time>2018-08-29T06:44:25Z</time>
      </trkpt>
      <trkpt lat="42.21166" lon="9.00368">
        <ele>2131.27</ele>
        <time>2018-08-29T06:44:37Z</time>
      </trkpt>
      <trkpt lat="42.21164" lon="9.0037">
        <ele>2132.52</ele>
        <time>2018-08-29T06:44:42Z</time>
      </trkpt>
      <trkpt lat="42.21162" lon="9.00372">
        <ele>2133.48</ele>
        <time>2018-08-29T06:44:57Z</time>
      </trkpt>
      <trkpt lat="42.21163" lon="9.00374">
        <ele>2133.6</ele>
        <time>2018-08-29T06:45:14Z</time>
      </trkpt>
      <trkpt lat="42.21163" lon="9.00376">
        <ele>2134.51</ele>
        <time>2018-08-29T06:45:26Z</time>
      </trkpt>
      <trkpt lat="42.21161" lon="9.00379">
        <ele>2136.42</ele>
        <time>2018-08-29T06:45:40Z</time>
      </trkpt>
      <trkpt lat="42.21165" lon="9.00382">
        <ele>2138.44</ele>
        <time>2018-08-29T06:45:55Z</time>
      </trkpt>
      <trkpt lat="42.21171" lon="9.00384">
        <ele>2138.55</ele>
        <time>2018-08-29T06:46:11Z</time>
      </trkpt>
      <trkpt lat="42.21175" lon="9.00387">
        <ele>2141.54</ele>
        <time>2018-08-29T06:46:26Z</time>
      </trkpt>
      <trkpt lat="42.21176" lon="9.00391">
        <ele>2141.63</ele>
        <time>2018-08-29T06:46:44Z</time>
      </trkpt>
      <trkpt lat="42.21176" lon="9.00394">
        <ele>2142.58</ele>
        <time>2018-08-29T06:46:59Z</time>
      </trkpt>
      <trkpt lat="42.21175" lon="9.00395">
        <ele>2145.22</ele>
        <time>2018-08-29T06:47:04Z</time>
      </trkpt>
      <trkpt lat="42.21176" lon="9.00399">
        <ele>2146.56</ele>
        <time>2018-08-29T06:47:16Z</time>
      </trkpt>
      <trkpt lat="42.2118" lon="9.00402">
        <ele>2148.32</ele>
        <time>2018-08-29T06:47:31Z</time>
      </trkpt>
      <trkpt lat="42.21182" lon="9.00409">
        <ele>2150.79</ele>
        <time>2018-08-29T06:47:45Z</time>
      </trkpt>
      <trkpt lat="42.21183" lon="9.00415">
        <ele>2151.79</ele>
        <time>2018-08-29T06:47:57Z</time>
      </trkpt>
      <trkpt lat="42.21184" lon="9.00418">
        <ele>2152.88</ele>
        <time>2018-08-29T06:48:12Z</time>
      </trkpt>
      <trkpt lat="42.21185" lon="9.0042">
        <ele>2154.18</ele>
        <time>2018-08-29T06:48:20Z</time>
      </trkpt>
      <trkpt lat="42.21187" lon="9.00421">
        <ele>2155.15</ele>
        <time>2018-08-29T06:48:34Z</time>
      </trkpt>
      <trkpt lat="42.2119" lon="9.00424">
        <ele>2157.07</ele>
        <time>2018-08-29T06:48:46Z</time>
      </trkpt>
      <trkpt lat="42.2119" lon="9.00429">
        <ele>2158.74</ele>
        <time>2018-08-29T06:48:59Z</time>
      </trkpt>
      <trkpt lat="42.21189" lon="9.00434">
        <ele>2161.34</ele>
        <time>2018-08-29T06:49:14Z</time>
      </trkpt>
      <trkpt lat="42.21188" lon="9.00438">
        <ele>2163.26</ele>
        <time>2018-08-29T06:49:27Z</time>
      </trkpt>
      <trkpt lat="42.21184" lon="9.0044">
        <ele>2164.91</ele>
        <time>2018-08-29T06:49:43Z</time>
      </trkpt>
      <trkpt lat="42.21185" lon="9.00444">
        <ele>2166.83</ele>
        <time>2018-08-29T06:49:56Z</time>
      </trkpt>
      <trkpt lat="42.21184" lon="9.00447">
        <ele>2167.94</ele>
        <time>2018-08-29T06:50:09Z</time>
      </trkpt>
      <trkpt lat="42.21183" lon="9.00456">
        <ele>2169.97</ele>
        <time>2018-08-29T06:50:26Z</time>
      </trkpt>
      <trkpt lat="42.21184" lon="9.00461">
        <ele>2170.87</ele>
        <time>2018-08-29T06:50:53Z</time>
      </trkpt>
      <trkpt lat="42.21181" lon="9.00463">
        <ele>2172.96</ele>
        <time>2018-08-29T06:51:06Z</time>
      </trkpt>
      <trkpt lat="42.21178" lon="9.00467">
        <ele>2175.14</ele>
        <time>2018-08-29T06:51:19Z</time>
      </trkpt>
      <trkpt lat="42.21178" lon="9.00472">
        <ele>2176.3</ele>
        <time>2018-08-29T06:51:34Z</time>
      </trkpt>
      <trkpt lat="42.21177" lon="9.00477">
        <ele>2177.31</ele>
        <time>2018-08-29T06:51:45Z</time>
      </trkpt>
      <trkpt lat="42.21176" lon="9.00478">
        <ele>2179.23</ele>
        <time>2018-08-29T06:51:50Z</time>
      </trkpt>
      <trkpt lat="42.21173" lon="9.00478">
        <ele>2180.53</ele>
        <time>2018-08-29T06:51:59Z</time>
      </trkpt>
      <trkpt lat="42.21172" lon="9.00484">
        <ele>2181.69</ele>
        <time>2018-08-29T06:52:11Z</time>
      </trkpt>
      <trkpt lat="42.21173" lon="9.00486">
        <ele>2182.58</ele>
        <time>2018-08-29T06:52:23Z</time>
      </trkpt>
      <trkpt lat="42.21172" lon="9.00486">
        <ele>2184.01</ele>
        <time>2018-08-29T06:52:27Z</time>
      </trkpt>
      <trkpt lat="42.21168" lon="9.00493">
        <ele>2185.09</ele>
        <time>2018-08-29T06:52:42Z</time>
      </trkpt>
      <trkpt lat="42.21169" lon="9.00494">
        <ele>2186.89</ele>
        <time>2018-08-29T06:52:46Z</time>
      </trkpt>
      <trkpt lat="42.21168" lon="9.00501">
        <ele>2187.94</ele>
        <time>2018-08-29T06:52:59Z</time>
      </trkpt>
      <trkpt lat="42.21165" lon="9.00504">
        <ele>2189.76</ele>
        <time>2018-08-29T06:53:13Z</time>
      </trkpt>
      <trkpt lat="42.21163" lon="9.00507">
        <ele>2191.67</ele>
        <time>2018-08-29T06:53:28Z</time>
      </trkpt>
      <trkpt lat="42.21162" lon="9.00514">
        <ele>2192.56</ele>
        <time>2018-08-29T06:53:45Z</time>
      </trkpt>
      <trkpt lat="42.21159" lon="9.00516">
        <ele>2195.24</ele>
        <time>2018-08-29T06:53:55Z</time>
      </trkpt>
      <trkpt lat="42.21163" lon="9.00524">
        <ele>2196.4</ele>
        <time>2018-08-29T06:54:11Z</time>
      </trkpt>
      <trkpt lat="42.21162" lon="9.00525">
        <ele>2197.16</ele>
        <time>2018-08-29T06:54:31Z</time>
      </trkpt>
      <trkpt lat="42.21159" lon="9.00524">
        <ele>2198.26</ele>
        <time>2018-08-29T06:54:45Z</time>
      </trkpt>
      <trkpt lat="42.21156" lon="9.00529">
        <ele>2201.45</ele>
        <time>2018-08-29T06:54:59Z</time>
      </trkpt>
      <trkpt lat="42.21158" lon="9.00536">
        <ele>2203.15</ele>
        <time>2018-08-29T06:55:14Z</time>
      </trkpt>
      <trkpt lat="42.21156" lon="9.00539">
        <ele>2205.23</ele>
        <time>2018-08-29T06:55:30Z</time>
      </trkpt>
      <trkpt lat="42.21156" lon="9.00542">
        <ele>2206.54</ele>
        <time>2018-08-29T06:55:37Z</time>
      </trkpt>
      <trkpt lat="42.21157" lon="9.00546">
        <ele>2208.4</ele>
        <time>2018-08-29T06:55:53Z</time>
      </trkpt>
      <trkpt lat="42.21156" lon="9.0055">
        <ele>2210.06</ele>
        <time>2018-08-29T06:56:04Z</time>
      </trkpt>
      <trkpt lat="42.21154" lon="9.00554">
        <ele>2211.83</ele>
        <time>2018-08-29T06:56:20Z</time>
      </trkpt>
      <trkpt lat="42.21157" lon="9.00559">
        <ele>2214.37</ele>
        <time>2018-08-29T06:56:36Z</time>
      </trkpt>
      <trkpt lat="42.2116" lon="9.00566">
        <ele>2216.32</ele>
        <time>2018-08-29T06:56:50Z</time>
      </trkpt>
      <trkpt lat="42.21161" lon="9.00572">
        <ele>2218.93</ele>
        <time>2018-08-29T06:57:04Z</time>
      </trkpt>
      <trkpt lat="42.2116" lon="9.00575">
        <ele>2220.42</ele>
        <time>2018-08-29T06:57:18Z</time>
      </trkpt>
      <trkpt lat="42.2116" lon="9.00578">
        <ele>2221.67</ele>
        <time>2018-08-29T06:57:30Z</time>
      </trkpt>
      <trkpt lat="42.2116" lon="9.0058">
        <ele>2222.57</ele>
        <time>2018-08-29T06:57:45Z</time>
      </trkpt>
      <trkpt lat="42.2116" lon="9.00583">
        <ele>2224.31</ele>
        <time>2018-08-29T06:57:58Z</time>
      </trkpt>
      <trkpt lat="42.2116" lon="9.00582">
        <ele>2225.96</ele>
        <time>2018-08-29T06:58:12Z</time>
      </trkpt>
      <trkpt lat="42.21162" lon="9.00583">
        <ele>2226.01</ele>
        <time>2018-08-29T06:58:44Z</time>
      </trkpt>
      <trkpt lat="42.2116" lon="9.00586">
        <ele>2227.92</ele>
        <time>2018-08-29T06:58:58Z</time>
      </trkpt>
      <trkpt lat="42.2116" lon="9.0059">
        <ele>2229.82</ele>
        <time>2018-08-29T06:59:11Z</time>
      </trkpt>
      <trkpt lat="42.2116" lon="9.00592">
        <ele>2230.59</ele>
        <time>2018-08-29T06:59:26Z</time>
      </trkpt>
      <trkpt lat="42.2116" lon="9.00593">
        <ele>2231.52</ele>
        <time>2018-08-29T06:59:43Z</time>
      </trkpt>
      <trkpt lat="42.2116" lon="9.00595">
        <ele>2231.57</ele>
        <time>2018-08-29T06:59:55Z</time>
      </trkpt>
      <trkpt lat="42.21158" lon="9.00597">
        <ele>2231.52</ele>
        <time>2018-08-29T07:00:09Z</time>
      </trkpt>
      <trkpt lat="42.21158" lon="9.00597">
        <ele>2231.48</ele>
        <time>2018-08-29T07:00:33Z</time>
      </trkpt>
      <trkpt lat="42.21158" lon="9.00598">
        <ele>2231.51</ele>
        <time>2018-08-29T07:01:01Z</time>
      </trkpt>
      <trkpt lat="42.21158" lon="9.00598">
        <ele>2231.47</ele>
        <time>2018-08-29T07:01:40Z</time>
      </trkpt>
      <trkpt lat="42.21157" lon="9.00598">
        <ele>2231.45</ele>
        <time>2018-08-29T07:01:57Z</time>
      </trkpt>
      <trkpt lat="42.21156" lon="9.00597">
        <ele>2231.43</ele>
        <time>2018-08-29T07:02:16Z</time>
      </trkpt>
      <trkpt lat="42.21156" lon="9.00596">
        <ele>2231.41</ele>
        <time>2018-08-29T07:02:59Z</time>
      </trkpt>
      <trkpt lat="42.21156" lon="9.00596">
        <ele>2231.38</ele>
        <time>2018-08-29T07:03:38Z</time>
      </trkpt>
      <trkpt lat="42.21155" lon="9.00597">
        <ele>2231.33</ele>
        <time>2018-08-29T07:04:05Z</time>
      </trkpt>
      <trkpt lat="42.21155" lon="9.00595">
        <ele>2231.24</ele>
        <time>2018-08-29T07:04:53Z</time>
      </trkpt>
      <trkpt lat="42.21155" lon="9.00594">
        <ele>2231.2</ele>
        <time>2018-08-29T07:05:54Z</time>
      </trkpt>
      <trkpt lat="42.21157" lon="9.00595">
        <ele>2231.21</ele>
        <time>2018-08-29T07:06:43Z</time>
      </trkpt>
      <trkpt lat="42.21157" lon="9.00596">
        <ele>2231.23</ele>
        <time>2018-08-29T07:07:36Z</time>
      </trkpt>
      <trkpt lat="42.21157" lon="9.00595">
        <ele>2231.28</ele>
        <time>2018-08-29T07:08:22Z</time>
      </trkpt>
      <trkpt lat="42.21158" lon="9.00595">
        <ele>2231.31</ele>
        <time>2018-08-29T07:08:40Z</time>
      </trkpt>
      <trkpt lat="42.21158" lon="9.00597">
        <ele>2231.32</ele>
        <time>2018-08-29T07:09:02Z</time>
      </trkpt>
      <trkpt lat="42.21157" lon="9.00596">
        <ele>2228.9</ele>
        <time>2018-08-29T07:09:34Z</time>
      </trkpt>
      <trkpt lat="42.21157" lon="9.00598">
        <ele>2228.89</ele>
        <time>2018-08-29T07:10:05Z</time>
      </trkpt>
      <trkpt lat="42.21157" lon="9.00598">
        <ele>2228.88</ele>
        <time>2018-08-29T07:10:21Z</time>
      </trkpt>
      <trkpt lat="42.21155" lon="9.00596">
        <ele>2228.8</ele>
        <time>2018-08-29T07:11:12Z</time>
      </trkpt>
      <trkpt lat="42.21155" lon="9.00598">
        <ele>2228.73</ele>
        <time>2018-08-29T07:11:57Z</time>
      </trkpt>
      <trkpt lat="42.21156" lon="9.00599">
        <ele>2228.66</ele>
        <time>2018-08-29T07:12:34Z</time>
      </trkpt>
      <trkpt lat="42.21157" lon="9.00598">
        <ele>2228.61</ele>
        <time>2018-08-29T07:12:58Z</time>
      </trkpt>
      <trkpt lat="42.21156" lon="9.00597">
        <ele>2228.56</ele>
        <time>2018-08-29T07:13:25Z</time>
      </trkpt>
      <trkpt lat="42.21156" lon="9.00597">
        <ele>2228.49</ele>
        <time>2018-08-29T07:14:01Z</time>
      </trkpt>
      <trkpt lat="42.21156" lon="9.00597">
        <ele>2228.44</ele>
        <time>2018-08-29T07:14:28Z</time>
      </trkpt>
      <trkpt lat="42.21157" lon="9.00596">
        <ele>2228.39</ele>
        <time>2018-08-29T07:15:07Z</time>
      </trkpt>
      <trkpt lat="42.21157" lon="9.00596">
        <ele>2228.37</ele>
        <time>2018-08-29T07:15:30Z</time>
      </trkpt>
      <trkpt lat="42.21157" lon="9.00597">
        <ele>2228.37</ele>
        <time>2018-08-29T07:15:54Z</time>
      </trkpt>
      <trkpt lat="42.21157" lon="9.00597">
        <ele>2228.38</ele>
        <time>2018-08-29T07:16:15Z</time>
      </trkpt>
      <trkpt lat="42.21156" lon="9.00597">
        <ele>2228.4</ele>
        <time>2018-08-29T07:16:42Z</time>
      </trkpt>
      <trkpt lat="42.21156" lon="9.00596">
        <ele>2230.77</ele>
        <time>2018-08-29T07:16:51Z</time>
      </trkpt>
      <trkpt lat="42.21157" lon="9.00597">
        <ele>2230.79</ele>
        <time>2018-08-29T07:17:15Z</time>
      </trkpt>
      <trkpt lat="42.21156" lon="9.00597">
        <ele>2230.81</ele>
        <time>2018-08-29T07:17:31Z</time>
      </trkpt>
      <trkpt lat="42.21157" lon="9.00598">
        <ele>2230.81</ele>
        <time>2018-08-29T07:17:48Z</time>
      </trkpt>
      <trkpt lat="42.21156" lon="9.00601">
        <ele>2228.46</ele>
        <time>2018-08-29T07:17:53Z</time>
      </trkpt>
      <trkpt lat="42.21153" lon="9.00606">
        <ele>2226.73</ele>
        <time>2018-08-29T07:18:10Z</time>
      </trkpt>
      <trkpt lat="42.21151" lon="9.00607">
        <ele>2225.88</ele>
        <time>2018-08-29T07:18:32Z</time>
      </trkpt>
      <trkpt lat="42.21149" lon="9.00611">
        <ele>2222.93</ele>
        <time>2018-08-29T07:18:43Z</time>
      </trkpt>
      <trkpt lat="42.21146" lon="9.00615">
        <ele>2222.92</ele>
        <time>2018-08-29T07:19:00Z</time>
      </trkpt>
      <trkpt lat="42.21145" lon="9.00619">
        <ele>2221.24</ele>
        <time>2018-08-29T07:19:14Z</time>
      </trkpt>
      <trkpt lat="42.21142" lon="9.00623">
        <ele>2220.4</ele>
        <time>2018-08-29T07:19:32Z</time>
      </trkpt>
      <trkpt lat="42.21139" lon="9.00625">
        <ele>2219.62</ele>
        <time>2018-08-29T07:19:48Z</time>
      </trkpt>
      <trkpt lat="42.21135" lon="9.00631">
        <ele>2218.74</ele>
        <time>2018-08-29T07:20:05Z</time>
      </trkpt>
      <trkpt lat="42.21131" lon="9.00632">
        <ele>2218.76</ele>
        <time>2018-08-29T07:20:16Z</time>
      </trkpt>
      <trkpt lat="42.21127" lon="9.00637">
        <ele>2218.77</ele>
        <time>2018-08-29T07:20:30Z</time>
      </trkpt>
      <trkpt lat="42.21121" lon="9.00642">
        <ele>2218.73</ele>
        <time>2018-08-29T07:20:44Z</time>
      </trkpt>
      <trkpt lat="42.21117" lon="9.00645">
        <ele>2218.76</ele>
        <time>2018-08-29T07:20:58Z</time>
      </trkpt>
      <trkpt lat="42.21112" lon="9.0065">
        <ele>2217.99</ele>
        <time>2018-08-29T07:21:12Z</time>
      </trkpt>
      <trkpt lat="42.21109" lon="9.00652">
        <ele>2216.44</ele>
        <time>2018-08-29T07:21:17Z</time>
      </trkpt>
      <trkpt lat="42.21105" lon="9.00657">
        <ele>2215.49</ele>
        <time>2018-08-29T07:21:31Z</time>
      </trkpt>
      <trkpt lat="42.21098" lon="9.00665">
        <ele>2213.76</ele>
        <time>2018-08-29T07:21:45Z</time>
      </trkpt>
      <trkpt lat="42.21096" lon="9.00668">
        <ele>2213.78</ele>
        <time>2018-08-29T07:21:51Z</time>
      </trkpt>
      <trkpt lat="42.21098" lon="9.00668">
        <ele>2211.64</ele>
        <time>2018-08-29T07:22:03Z</time>
      </trkpt>
      <trkpt lat="42.21097" lon="9.00671">
        <ele>2210.83</ele>
        <time>2018-08-29T07:22:14Z</time>
      </trkpt>
      <trkpt lat="42.21092" lon="9.00675">
        <ele>2210.07</ele>
        <time>2018-08-29T07:22:27Z</time>
      </trkpt>
      <trkpt lat="42.21087" lon="9.00678">
        <ele>2209.3</ele>
        <time>2018-08-29T07:22:44Z</time>
      </trkpt>
      <trkpt lat="42.21083" lon="9.0068">
        <ele>2208.42</ele>
        <time>2018-08-29T07:22:57Z</time>
      </trkpt>
      <trkpt lat="42.21079" lon="9.00682">
        <ele>2208.44</ele>
        <time>2018-08-29T07:23:08Z</time>
      </trkpt>
      <trkpt lat="42.21073" lon="9.00681">
        <ele>2208.46</ele>
        <time>2018-08-29T07:23:19Z</time>
      </trkpt>
      <trkpt lat="42.21067" lon="9.00684">
        <ele>2207.44</ele>
        <time>2018-08-29T07:23:33Z</time>
      </trkpt>
      <trkpt lat="42.21061" lon="9.00688">
        <ele>2206.62</ele>
        <time>2018-08-29T07:23:44Z</time>
      </trkpt>
      <trkpt lat="42.21054" lon="9.0069">
        <ele>2206.63</ele>
        <time>2018-08-29T07:23:56Z</time>
      </trkpt>
      <trkpt lat="42.21048" lon="9.00688">
        <ele>2206.63</ele>
        <time>2018-08-29T07:24:07Z</time>
      </trkpt>
      <trkpt lat="42.21047" lon="9.00688">
        <ele>2206.62</ele>
        <time>2018-08-29T07:24:10Z</time>
      </trkpt>
      <trkpt lat="42.21044" lon="9.0069">
        <ele>2206.62</ele>
        <time>2018-08-29T07:24:14Z</time>
      </trkpt>
      <trkpt lat="42.2104" lon="9.00692">
        <ele>2206.63</ele>
        <time>2018-08-29T07:24:19Z</time>
      </trkpt>
      <trkpt lat="42.21036" lon="9.00693">
        <ele>2206.63</ele>
        <time>2018-08-29T07:24:24Z</time>
      </trkpt>
      <trkpt lat="42.21027" lon="9.00691">
        <ele>2205.73</ele>
        <time>2018-08-29T07:24:34Z</time>
      </trkpt>
      <trkpt lat="42.21024" lon="9.00692">
        <ele>2205.73</ele>
        <time>2018-08-29T07:24:37Z</time>
      </trkpt>
      <trkpt lat="42.21013" lon="9.00699">
        <ele>2205.73</ele>
        <time>2018-08-29T07:24:53Z</time>
      </trkpt>
      <trkpt lat="42.21008" lon="9.00705">
        <ele>2204.08</ele>
        <time>2018-08-29T07:25:09Z</time>
      </trkpt>
      <trkpt lat="42.21003" lon="9.00706">
        <ele>2202.44</ele>
        <time>2018-08-29T07:25:20Z</time>
      </trkpt>
      <trkpt lat="42.21" lon="9.00706">
        <ele>2200.87</ele>
        <time>2018-08-29T07:25:33Z</time>
      </trkpt>
      <trkpt lat="42.20993" lon="9.00713">
        <ele>2198</ele>
        <time>2018-08-29T07:25:46Z</time>
      </trkpt>
      <trkpt lat="42.20983" lon="9.0072">
        <ele>2197.97</ele>
        <time>2018-08-29T07:25:59Z</time>
      </trkpt>
      <trkpt lat="42.20978" lon="9.00729">
        <ele>2196.24</ele>
        <time>2018-08-29T07:26:12Z</time>
      </trkpt>
      <trkpt lat="42.20975" lon="9.00738">
        <ele>2193.65</ele>
        <time>2018-08-29T07:26:25Z</time>
      </trkpt>
      <trkpt lat="42.20972" lon="9.00747">
        <ele>2191.76</ele>
        <time>2018-08-29T07:26:38Z</time>
      </trkpt>
      <trkpt lat="42.2097" lon="9.00749">
        <ele>2190.33</ele>
        <time>2018-08-29T07:26:43Z</time>
      </trkpt>
      <trkpt lat="42.20967" lon="9.00747">
        <ele>2189.2</ele>
        <time>2018-08-29T07:26:55Z</time>
      </trkpt>
      <trkpt lat="42.20962" lon="9.0075">
        <ele>2187.23</ele>
        <time>2018-08-29T07:27:08Z</time>
      </trkpt>
      <trkpt lat="42.20955" lon="9.00758">
        <ele>2186.08</ele>
        <time>2018-08-29T07:27:21Z</time>
      </trkpt>
      <trkpt lat="42.20951" lon="9.00761">
        <ele>2185.28</ele>
        <time>2018-08-29T07:27:27Z</time>
      </trkpt>
      <trkpt lat="42.20946" lon="9.00768">
        <ele>2185.27</ele>
        <time>2018-08-29T07:27:34Z</time>
      </trkpt>
      <trkpt lat="42.20944" lon="9.00773">
        <ele>2185.26</ele>
        <time>2018-08-29T07:27:38Z</time>
      </trkpt>
      <trkpt lat="42.20941" lon="9.0078">
        <ele>2185.25</ele>
        <time>2018-08-29T07:27:44Z</time>
      </trkpt>
      <trkpt lat="42.20933" lon="9.00786">
        <ele>2185.23</ele>
        <time>2018-08-29T07:27:58Z</time>
      </trkpt>
      <trkpt lat="42.2093" lon="9.00793">
        <ele>2184.43</ele>
        <time>2018-08-29T07:28:10Z</time>
      </trkpt>
      <trkpt lat="42.20929" lon="9.00795">
        <ele>2183.18</ele>
        <time>2018-08-29T07:28:17Z</time>
      </trkpt>
      <trkpt lat="42.20928" lon="9.00796">
        <ele>2182.22</ele>
        <time>2018-08-29T07:28:33Z</time>
      </trkpt>
      <trkpt lat="42.20926" lon="9.00803">
        <ele>2180.48</ele>
        <time>2018-08-29T07:28:45Z</time>
      </trkpt>
      <trkpt lat="42.20925" lon="9.00809">
        <ele>2177.6</ele>
        <time>2018-08-29T07:28:56Z</time>
      </trkpt>
      <trkpt lat="42.20924" lon="9.00812">
        <ele>2175.56</ele>
        <time>2018-08-29T07:29:00Z</time>
      </trkpt>
      <trkpt lat="42.20925" lon="9.00817">
        <ele>2174.29</ele>
        <time>2018-08-29T07:29:06Z</time>
      </trkpt>
      <trkpt lat="42.20925" lon="9.00818">
        <ele>2174.29</ele>
        <time>2018-08-29T07:29:07Z</time>
      </trkpt>
      <trkpt lat="42.2092" lon="9.00826">
        <ele>2171.9</ele>
        <time>2018-08-29T07:29:20Z</time>
      </trkpt>
      <trkpt lat="42.20919" lon="9.00826">
        <ele>2171.89</ele>
        <time>2018-08-29T07:29:21Z</time>
      </trkpt>
      <trkpt lat="42.20919" lon="9.00834">
        <ele>2170.95</ele>
        <time>2018-08-29T07:29:31Z</time>
      </trkpt>
      <trkpt lat="42.20915" lon="9.00842">
        <ele>2169.74</ele>
        <time>2018-08-29T07:29:44Z</time>
      </trkpt>
      <trkpt lat="42.20911" lon="9.00843">
        <ele>2168.91</ele>
        <time>2018-08-29T07:29:58Z</time>
      </trkpt>
      <trkpt lat="42.2091" lon="9.00844">
        <ele>2168.15</ele>
        <time>2018-08-29T07:30:03Z</time>
      </trkpt>
      <trkpt lat="42.20907" lon="9.00851">
        <ele>2167.36</ele>
        <time>2018-08-29T07:30:17Z</time>
      </trkpt>
      <trkpt lat="42.20905" lon="9.00851">
        <ele>2166.48</ele>
        <time>2018-08-29T07:30:29Z</time>
      </trkpt>
      <trkpt lat="42.20903" lon="9.00853">
        <ele>2164.56</ele>
        <time>2018-08-29T07:30:41Z</time>
      </trkpt>
      <trkpt lat="42.20903" lon="9.00854">
        <ele>2163.66</ele>
        <time>2018-08-29T07:30:55Z</time>
      </trkpt>
      <trkpt lat="42.20903" lon="9.00854">
        <ele>2162.31</ele>
        <time>2018-08-29T07:31:16Z</time>
      </trkpt>
      <trkpt lat="42.20902" lon="9.00857">
        <ele>2162.07</ele>
        <time>2018-08-29T07:31:32Z</time>
      </trkpt>
      <trkpt lat="42.209" lon="9.00859">
        <ele>2160.67</ele>
        <time>2018-08-29T07:31:44Z</time>
      </trkpt>
      <trkpt lat="42.20901" lon="9.0086">
        <ele>2160.76</ele>
        <time>2018-08-29T07:31:59Z</time>
      </trkpt>
      <trkpt lat="42.20901" lon="9.0086">
        <ele>2160.63</ele>
        <time>2018-08-29T07:32:15Z</time>
      </trkpt>
      <trkpt lat="42.20901" lon="9.00861">
        <ele>2160.61</ele>
        <time>2018-08-29T07:32:34Z</time>
      </trkpt>
      <trkpt lat="42.209" lon="9.00862">
        <ele>2158.89</ele>
        <time>2018-08-29T07:32:57Z</time>
      </trkpt>
      <trkpt lat="42.20898" lon="9.0086">
        <ele>2158.96</ele>
        <time>2018-08-29T07:33:19Z</time>
      </trkpt>
      <trkpt lat="42.20898" lon="9.0087">
        <ele>2156.23</ele>
        <time>2018-08-29T07:33:33Z</time>
      </trkpt>
      <trkpt lat="42.209" lon="9.00876">
        <ele>2153.67</ele>
        <time>2018-08-29T07:33:47Z</time>
      </trkpt>
      <trkpt lat="42.20895" lon="9.00882">
        <ele>2151.78</ele>
        <time>2018-08-29T07:34:02Z</time>
      </trkpt>
      <trkpt lat="42.20895" lon="9.00883">
        <ele>2150.26</ele>
        <time>2018-08-29T07:34:06Z</time>
      </trkpt>
      <trkpt lat="42.2089" lon="9.00888">
        <ele>2149.35</ele>
        <time>2018-08-29T07:34:18Z</time>
      </trkpt>
      <trkpt lat="42.20889" lon="9.0089">
        <ele>2149.38</ele>
        <time>2018-08-29T07:34:21Z</time>
      </trkpt>
      <trkpt lat="42.20889" lon="9.00898">
        <ele>2146.81</ele>
        <time>2018-08-29T07:34:34Z</time>
      </trkpt>
      <trkpt lat="42.20883" lon="9.00903">
        <ele>2146.98</ele>
        <time>2018-08-29T07:34:48Z</time>
      </trkpt>
      <trkpt lat="42.20878" lon="9.0091">
        <ele>2146.99</ele>
        <time>2018-08-29T07:35:05Z</time>
      </trkpt>
      <trkpt lat="42.20876" lon="9.00921">
        <ele>2146.05</ele>
        <time>2018-08-29T07:35:16Z</time>
      </trkpt>
      <trkpt lat="42.20873" lon="9.00932">
        <ele>2146.05</ele>
        <time>2018-08-29T07:35:29Z</time>
      </trkpt>
      <trkpt lat="42.20873" lon="9.00938">
        <ele>2146.08</ele>
        <time>2018-08-29T07:35:41Z</time>
      </trkpt>
      <trkpt lat="42.20872" lon="9.00941">
        <ele>2146</ele>
        <time>2018-08-29T07:36:05Z</time>
      </trkpt>
      <trkpt lat="42.20868" lon="9.00944">
        <ele>2144.9</ele>
        <time>2018-08-29T07:36:19Z</time>
      </trkpt>
      <trkpt lat="42.20868" lon="9.0095">
        <ele>2143.24</ele>
        <time>2018-08-29T07:36:30Z</time>
      </trkpt>
      <trkpt lat="42.20864" lon="9.00956">
        <ele>2141.33</ele>
        <time>2018-08-29T07:36:41Z</time>
      </trkpt>
      <trkpt lat="42.20862" lon="9.00955">
        <ele>2140.42</ele>
        <time>2018-08-29T07:36:46Z</time>
      </trkpt>
      <trkpt lat="42.20859" lon="9.00957">
        <ele>2138.07</ele>
        <time>2018-08-29T07:36:57Z</time>
      </trkpt>
      <trkpt lat="42.20855" lon="9.0096">
        <ele>2136.51</ele>
        <time>2018-08-29T07:37:10Z</time>
      </trkpt>
      <trkpt lat="42.20857" lon="9.00963">
        <ele>2134.58</ele>
        <time>2018-08-29T07:37:22Z</time>
      </trkpt>
      <trkpt lat="42.20856" lon="9.00968">
        <ele>2132.89</ele>
        <time>2018-08-29T07:37:34Z</time>
      </trkpt>
      <trkpt lat="42.20854" lon="9.00974">
        <ele>2129.11</ele>
        <time>2018-08-29T07:37:47Z</time>
      </trkpt>
      <trkpt lat="42.20856" lon="9.0098">
        <ele>2126.2</ele>
        <time>2018-08-29T07:38:02Z</time>
      </trkpt>
      <trkpt lat="42.20854" lon="9.00986">
        <ele>2124.06</ele>
        <time>2018-08-29T07:38:14Z</time>
      </trkpt>
      <trkpt lat="42.20855" lon="9.0099">
        <ele>2122.93</ele>
        <time>2018-08-29T07:38:26Z</time>
      </trkpt>
      <trkpt lat="42.20854" lon="9.00996">
        <ele>2121.27</ele>
        <time>2018-08-29T07:38:40Z</time>
      </trkpt>
      <trkpt lat="42.20854" lon="9.00997">
        <ele>2119.49</ele>
        <time>2018-08-29T07:38:43Z</time>
      </trkpt>
      <trkpt lat="42.20852" lon="9.01001">
        <ele>2118.34</ele>
        <time>2018-08-29T07:38:54Z</time>
      </trkpt>
      <trkpt lat="42.20852" lon="9.01007">
        <ele>2115.7</ele>
        <time>2018-08-29T07:39:07Z</time>
      </trkpt>
      <trkpt lat="42.20853" lon="9.01013">
        <ele>2114.52</ele>
        <time>2018-08-29T07:39:20Z</time>
      </trkpt>
      <trkpt lat="42.20852" lon="9.01018">
        <ele>2113.69</ele>
        <time>2018-08-29T07:39:32Z</time>
      </trkpt>
      <trkpt lat="42.2085" lon="9.01024">
        <ele>2113.69</ele>
        <time>2018-08-29T07:39:49Z</time>
      </trkpt>
      <trkpt lat="42.20848" lon="9.01033">
        <ele>2113.69</ele>
        <time>2018-08-29T07:39:59Z</time>
      </trkpt>
      <trkpt lat="42.20847" lon="9.01053">
        <ele>2113.61</ele>
        <time>2018-08-29T07:40:18Z</time>
      </trkpt>
      <trkpt lat="42.20848" lon="9.01067">
        <ele>2112.68</ele>
        <time>2018-08-29T07:40:32Z</time>
      </trkpt>
      <trkpt lat="42.2085" lon="9.01082">
        <ele>2111.41</ele>
        <time>2018-08-29T07:40:47Z</time>
      </trkpt>
      <trkpt lat="42.2085" lon="9.01088">
        <ele>2111.49</ele>
        <time>2018-08-29T07:40:59Z</time>
      </trkpt>
      <trkpt lat="42.20854" lon="9.01097">
        <ele>2111.38</ele>
        <time>2018-08-29T07:41:13Z</time>
      </trkpt>
      <trkpt lat="42.20855" lon="9.01098">
        <ele>2111.38</ele>
        <time>2018-08-29T07:41:14Z</time>
      </trkpt>
      <trkpt lat="42.20855" lon="9.01105">
        <ele>2111.38</ele>
        <time>2018-08-29T07:41:28Z</time>
      </trkpt>
      <trkpt lat="42.20854" lon="9.01104">
        <ele>2111.35</ele>
        <time>2018-08-29T07:41:45Z</time>
      </trkpt>
      <trkpt lat="42.20857" lon="9.01104">
        <ele>2111.28</ele>
        <time>2018-08-29T07:42:29Z</time>
      </trkpt>
      <trkpt lat="42.20858" lon="9.01106">
        <ele>2111.22</ele>
        <time>2018-08-29T07:43:07Z</time>
      </trkpt>
      <trkpt lat="42.20855" lon="9.01107">
        <ele>2110.15</ele>
        <time>2018-08-29T07:43:20Z</time>
      </trkpt>
      <trkpt lat="42.20854" lon="9.01108">
        <ele>2108.34</ele>
        <time>2018-08-29T07:43:37Z</time>
      </trkpt>
      <trkpt lat="42.20852" lon="9.0111">
        <ele>2107.48</ele>
        <time>2018-08-29T07:43:50Z</time>
      </trkpt>
      <trkpt lat="42.20852" lon="9.01111">
        <ele>2106.42</ele>
        <time>2018-08-29T07:44:07Z</time>
      </trkpt>
      <trkpt lat="42.20851" lon="9.01112">
        <ele>2105.58</ele>
        <time>2018-08-29T07:44:24Z</time>
      </trkpt>
      <trkpt lat="42.20851" lon="9.01115">
        <ele>2105.6</ele>
        <time>2018-08-29T07:44:46Z</time>
      </trkpt>
      <trkpt lat="42.2085" lon="9.01116">
        <ele>2104.1</ele>
        <time>2018-08-29T07:45:00Z</time>
      </trkpt>
      <trkpt lat="42.20851" lon="9.01118">
        <ele>2104.13</ele>
        <time>2018-08-29T07:45:18Z</time>
      </trkpt>
      <trkpt lat="42.20849" lon="9.01117">
        <ele>2102.52</ele>
        <time>2018-08-29T07:45:38Z</time>
      </trkpt>
      <trkpt lat="42.20848" lon="9.01116">
        <ele>2101.7</ele>
        <time>2018-08-29T07:45:55Z</time>
      </trkpt>
      <trkpt lat="42.20846" lon="9.01115">
        <ele>2101.7</ele>
        <time>2018-08-29T07:46:20Z</time>
      </trkpt>
      <trkpt lat="42.20845" lon="9.01118">
        <ele>2100.1</ele>
        <time>2018-08-29T07:46:39Z</time>
      </trkpt>
      <trkpt lat="42.20847" lon="9.01127">
        <ele>2099.43</ele>
        <time>2018-08-29T07:47:03Z</time>
      </trkpt>
      <trkpt lat="42.20849" lon="9.01129">
        <ele>2099.59</ele>
        <time>2018-08-29T07:47:31Z</time>
      </trkpt>
      <trkpt lat="42.20849" lon="9.0113">
        <ele>2099.76</ele>
        <time>2018-08-29T07:47:58Z</time>
      </trkpt>
      <trkpt lat="42.20849" lon="9.01131">
        <ele>2098.43</ele>
        <time>2018-08-29T07:48:03Z</time>
      </trkpt>
      <trkpt lat="42.20849" lon="9.01133">
        <ele>2097.63</ele>
        <time>2018-08-29T07:48:20Z</time>
      </trkpt>
      <trkpt lat="42.20848" lon="9.01138">
        <ele>2095.72</ele>
        <time>2018-08-29T07:48:33Z</time>
      </trkpt>
      <trkpt lat="42.20846" lon="9.01142">
        <ele>2093.84</ele>
        <time>2018-08-29T07:48:48Z</time>
      </trkpt>
      <trkpt lat="42.20842" lon="9.01144">
        <ele>2093.9</ele>
        <time>2018-08-29T07:49:00Z</time>
      </trkpt>
      <trkpt lat="42.20842" lon="9.01145">
        <ele>2092.81</ele>
        <time>2018-08-29T07:49:16Z</time>
      </trkpt>
      <trkpt lat="42.2084" lon="9.01145">
        <ele>2091.58</ele>
        <time>2018-08-29T07:49:33Z</time>
      </trkpt>
      <trkpt lat="42.20837" lon="9.01148">
        <ele>2090.6</ele>
        <time>2018-08-29T07:49:45Z</time>
      </trkpt>
      <trkpt lat="42.20835" lon="9.01148">
        <ele>2090.63</ele>
        <time>2018-08-29T07:50:09Z</time>
      </trkpt>
      <trkpt lat="42.20835" lon="9.01147">
        <ele>2090.54</ele>
        <time>2018-08-29T07:50:38Z</time>
      </trkpt>
      <trkpt lat="42.20831" lon="9.01145">
        <ele>2092.91</ele>
        <time>2018-08-29T07:50:54Z</time>
      </trkpt>
      <trkpt lat="42.20831" lon="9.01145">
        <ele>2092.91</ele>
        <time>2018-08-29T07:50:55Z</time>
      </trkpt>
      <trkpt lat="42.20827" lon="9.01146">
        <ele>2094.54</ele>
        <time>2018-08-29T07:51:12Z</time>
      </trkpt>
      <trkpt lat="42.20825" lon="9.01147">
        <ele>2096.48</ele>
        <time>2018-08-29T07:51:27Z</time>
      </trkpt>
      <trkpt lat="42.20824" lon="9.01147">
        <ele>2096.27</ele>
        <time>2018-08-29T07:51:55Z</time>
      </trkpt>
      <trkpt lat="42.20826" lon="9.0115">
        <ele>2097.79</ele>
        <time>2018-08-29T07:52:10Z</time>
      </trkpt>
      <trkpt lat="42.20827" lon="9.01153">
        <ele>2098.48</ele>
        <time>2018-08-29T07:52:22Z</time>
      </trkpt>
      <trkpt lat="42.20826" lon="9.01157">
        <ele>2098.27</ele>
        <time>2018-08-29T07:52:49Z</time>
      </trkpt>
      <trkpt lat="42.20827" lon="9.01165">
        <ele>2098.15</ele>
        <time>2018-08-29T07:53:07Z</time>
      </trkpt>
      <trkpt lat="42.20827" lon="9.01166">
        <ele>2097.96</ele>
        <time>2018-08-29T07:53:49Z</time>
      </trkpt>
      <trkpt lat="42.20825" lon="9.01169">
        <ele>2097.85</ele>
        <time>2018-08-29T07:54:18Z</time>
      </trkpt>
      <trkpt lat="42.20822" lon="9.01172">
        <ele>2097.78</ele>
        <time>2018-08-29T07:54:37Z</time>
      </trkpt>
      <trkpt lat="42.20818" lon="9.01176">
        <ele>2097.75</ele>
        <time>2018-08-29T07:54:51Z</time>
      </trkpt>
      <trkpt lat="42.20818" lon="9.01176">
        <ele>2095.29</ele>
        <time>2018-08-29T07:55:00Z</time>
      </trkpt>
      <trkpt lat="42.20822" lon="9.01176">
        <ele>2095.22</ele>
        <time>2018-08-29T07:55:32Z</time>
      </trkpt>
      <trkpt lat="42.20824" lon="9.01182">
        <ele>2095.21</ele>
        <time>2018-08-29T07:55:45Z</time>
      </trkpt>
      <trkpt lat="42.20823" lon="9.01186">
        <ele>2097.73</ele>
        <time>2018-08-29T07:55:54Z</time>
      </trkpt>
      <trkpt lat="42.20822" lon="9.0119">
        <ele>2097.71</ele>
        <time>2018-08-29T07:56:07Z</time>
      </trkpt>
      <trkpt lat="42.20821" lon="9.01194">
        <ele>2097.7</ele>
        <time>2018-08-29T07:56:18Z</time>
      </trkpt>
      <trkpt lat="42.20818" lon="9.01197">
        <ele>2097.69</ele>
        <time>2018-08-29T07:56:32Z</time>
      </trkpt>
      <trkpt lat="42.20817" lon="9.01199">
        <ele>2097.69</ele>
        <time>2018-08-29T07:56:53Z</time>
      </trkpt>
      <trkpt lat="42.20816" lon="9.01202">
        <ele>2095.03</ele>
        <time>2018-08-29T07:57:04Z</time>
      </trkpt>
      <trkpt lat="42.20816" lon="9.01205">
        <ele>2094.22</ele>
        <time>2018-08-29T07:57:20Z</time>
      </trkpt>
      <trkpt lat="42.20818" lon="9.01209">
        <ele>2092.15</ele>
        <time>2018-08-29T07:57:32Z</time>
      </trkpt>
      <trkpt lat="42.20818" lon="9.01215">
        <ele>2090.08</ele>
        <time>2018-08-29T07:57:51Z</time>
      </trkpt>
      <trkpt lat="42.20815" lon="9.01217">
        <ele>2088.91</ele>
        <time>2018-08-29T07:58:04Z</time>
      </trkpt>
      <trkpt lat="42.20816" lon="9.01218">
        <ele>2087.59</ele>
        <time>2018-08-29T07:58:09Z</time>
      </trkpt>
      <trkpt lat="42.20817" lon="9.01224">
        <ele>2086.82</ele>
        <time>2018-08-29T07:58:22Z</time>
      </trkpt>
      <trkpt lat="42.20817" lon="9.01226">
        <ele>2085.84</ele>
        <time>2018-08-29T07:58:26Z</time>
      </trkpt>
      <trkpt lat="42.20816" lon="9.01231">
        <ele>2084.79</ele>
        <time>2018-08-29T07:58:37Z</time>
      </trkpt>
      <trkpt lat="42.20815" lon="9.01233">
        <ele>2083.05</ele>
        <time>2018-08-29T07:58:51Z</time>
      </trkpt>
      <trkpt lat="42.20813" lon="9.01241">
        <ele>2081.27</ele>
        <time>2018-08-29T07:59:04Z</time>
      </trkpt>
      <trkpt lat="42.20811" lon="9.01241">
        <ele>2079.61</ele>
        <time>2018-08-29T07:59:13Z</time>
      </trkpt>
      <trkpt lat="42.20809" lon="9.01243">
        <ele>2079.7</ele>
        <time>2018-08-29T07:59:30Z</time>
      </trkpt>
      <trkpt lat="42.20808" lon="9.01242">
        <ele>2078.09</ele>
        <time>2018-08-29T07:59:43Z</time>
      </trkpt>
      <trkpt lat="42.20806" lon="9.01246">
        <ele>2077.32</ele>
        <time>2018-08-29T07:59:58Z</time>
      </trkpt>
      <trkpt lat="42.20802" lon="9.0125">
        <ele>2075.58</ele>
        <time>2018-08-29T08:00:09Z</time>
      </trkpt>
      <trkpt lat="42.20802" lon="9.01255">
        <ele>2075.61</ele>
        <time>2018-08-29T08:00:15Z</time>
      </trkpt>
      <trkpt lat="42.20802" lon="9.01258">
        <ele>2075.64</ele>
        <time>2018-08-29T08:00:17Z</time>
      </trkpt>
      <trkpt lat="42.20804" lon="9.01261">
        <ele>2075.81</ele>
        <time>2018-08-29T08:00:42Z</time>
      </trkpt>
      <trkpt lat="42.20807" lon="9.01266">
        <ele>2075.89</ele>
        <time>2018-08-29T08:00:55Z</time>
      </trkpt>
      <trkpt lat="42.20807" lon="9.01266">
        <ele>2078.21</ele>
        <time>2018-08-29T08:00:58Z</time>
      </trkpt>
      <trkpt lat="42.20809" lon="9.01271">
        <ele>2078.31</ele>
        <time>2018-08-29T08:01:12Z</time>
      </trkpt>
      <trkpt lat="42.20811" lon="9.01275">
        <ele>2080.17</ele>
        <time>2018-08-29T08:01:29Z</time>
      </trkpt>
      <trkpt lat="42.20811" lon="9.01278">
        <ele>2082.02</ele>
        <time>2018-08-29T08:01:44Z</time>
      </trkpt>
      <trkpt lat="42.20812" lon="9.01281">
        <ele>2083.8</ele>
        <time>2018-08-29T08:01:59Z</time>
      </trkpt>
      <trkpt lat="42.20812" lon="9.01283">
        <ele>2084.8</ele>
        <time>2018-08-29T08:02:21Z</time>
      </trkpt>
      <trkpt lat="42.20812" lon="9.01283">
        <ele>2084.88</ele>
        <time>2018-08-29T08:02:39Z</time>
      </trkpt>
      <trkpt lat="42.20813" lon="9.01285">
        <ele>2085.84</ele>
        <time>2018-08-29T08:02:56Z</time>
      </trkpt>
      <trkpt lat="42.20812" lon="9.01283">
        <ele>2085.93</ele>
        <time>2018-08-29T08:03:15Z</time>
      </trkpt>
      <trkpt lat="42.20812" lon="9.01287">
        <ele>2086.01</ele>
        <time>2018-08-29T08:03:45Z</time>
      </trkpt>
      <trkpt lat="42.20813" lon="9.01291">
        <ele>2086.04</ele>
        <time>2018-08-29T08:03:58Z</time>
      </trkpt>
      <trkpt lat="42.20813" lon="9.01294">
        <ele>2086.06</ele>
        <time>2018-08-29T08:04:10Z</time>
      </trkpt>
      <trkpt lat="42.20812" lon="9.01299">
        <ele>2086.04</ele>
        <time>2018-08-29T08:04:22Z</time>
      </trkpt>
      <trkpt lat="42.20811" lon="9.01304">
        <ele>2083.65</ele>
        <time>2018-08-29T08:04:31Z</time>
      </trkpt>
      <trkpt lat="42.2081" lon="9.01307">
        <ele>2082.91</ele>
        <time>2018-08-29T08:04:45Z</time>
      </trkpt>
      <trkpt lat="42.20807" lon="9.01312">
        <ele>2082.91</ele>
        <time>2018-08-29T08:05:03Z</time>
      </trkpt>
      <trkpt lat="42.20806" lon="9.01315">
        <ele>2082.91</ele>
        <time>2018-08-29T08:05:18Z</time>
      </trkpt>
      <trkpt lat="42.20807" lon="9.01322">
        <ele>2082.9</ele>
        <time>2018-08-29T08:05:34Z</time>
      </trkpt>
      <trkpt lat="42.20807" lon="9.01323">
        <ele>2085.14</ele>
        <time>2018-08-29T08:05:40Z</time>
      </trkpt>
      <trkpt lat="42.20807" lon="9.01325">
        <ele>2085.87</ele>
        <time>2018-08-29T08:05:58Z</time>
      </trkpt>
      <trkpt lat="42.20807" lon="9.01327">
        <ele>2085.82</ele>
        <time>2018-08-29T08:06:17Z</time>
      </trkpt>
      <trkpt lat="42.20808" lon="9.0133">
        <ele>2085.77</ele>
        <time>2018-08-29T08:06:38Z</time>
      </trkpt>
      <trkpt lat="42.20805" lon="9.01334">
        <ele>2085.73</ele>
        <time>2018-08-29T08:06:53Z</time>
      </trkpt>
      <trkpt lat="42.20803" lon="9.01338">
        <ele>2083.29</ele>
        <time>2018-08-29T08:06:57Z</time>
      </trkpt>
      <trkpt lat="42.20802" lon="9.01348">
        <ele>2083.26</ele>
        <time>2018-08-29T08:07:10Z</time>
      </trkpt>
      <trkpt lat="42.20801" lon="9.0135">
        <ele>2083.26</ele>
        <time>2018-08-29T08:07:13Z</time>
      </trkpt>
      <trkpt lat="42.20795" lon="9.01361">
        <ele>2083.23</ele>
        <time>2018-08-29T08:07:25Z</time>
      </trkpt>
      <trkpt lat="42.20791" lon="9.01374">
        <ele>2083.21</ele>
        <time>2018-08-29T08:07:39Z</time>
      </trkpt>
      <trkpt lat="42.20789" lon="9.01377">
        <ele>2083.22</ele>
        <time>2018-08-29T08:07:45Z</time>
      </trkpt>
      <trkpt lat="42.20788" lon="9.01381">
        <ele>2085.46</ele>
        <time>2018-08-29T08:07:52Z</time>
      </trkpt>
      <trkpt lat="42.20784" lon="9.01391">
        <ele>2085.45</ele>
        <time>2018-08-29T08:08:05Z</time>
      </trkpt>
      <trkpt lat="42.20783" lon="9.01394">
        <ele>2085.52</ele>
        <time>2018-08-29T08:08:09Z</time>
      </trkpt>
      <trkpt lat="42.20781" lon="9.014">
        <ele>2086.37</ele>
        <time>2018-08-29T08:08:22Z</time>
      </trkpt>
      <trkpt lat="42.20777" lon="9.01408">
        <ele>2086.35</ele>
        <time>2018-08-29T08:08:35Z</time>
      </trkpt>
      <trkpt lat="42.20773" lon="9.01414">
        <ele>2088.18</ele>
        <time>2018-08-29T08:08:47Z</time>
      </trkpt>
      <trkpt lat="42.20773" lon="9.01415">
        <ele>2088.01</ele>
        <time>2018-08-29T08:09:03Z</time>
      </trkpt>
      <trkpt lat="42.20771" lon="9.01419">
        <ele>2087.93</ele>
        <time>2018-08-29T08:09:27Z</time>
      </trkpt>
      <trkpt lat="42.20767" lon="9.01428">
        <ele>2087.89</ele>
        <time>2018-08-29T08:09:40Z</time>
      </trkpt>
      <trkpt lat="42.20763" lon="9.01432">
        <ele>2085.52</ele>
        <time>2018-08-29T08:09:47Z</time>
      </trkpt>
      <trkpt lat="42.20758" lon="9.0144">
        <ele>2085.4</ele>
        <time>2018-08-29T08:10:00Z</time>
      </trkpt>
      <trkpt lat="42.20755" lon="9.01441">
        <ele>2085.49</ele>
        <time>2018-08-29T08:10:06Z</time>
      </trkpt>
      <trkpt lat="42.20749" lon="9.01447">
        <ele>2085.48</ele>
        <time>2018-08-29T08:10:18Z</time>
      </trkpt>
      <trkpt lat="42.20748" lon="9.0145">
        <ele>2085.4</ele>
        <time>2018-08-29T08:10:22Z</time>
      </trkpt>
      <trkpt lat="42.20746" lon="9.01461">
        <ele>2085.38</ele>
        <time>2018-08-29T08:10:35Z</time>
      </trkpt>
      <trkpt lat="42.20744" lon="9.01472">
        <ele>2085.37</ele>
        <time>2018-08-29T08:10:49Z</time>
      </trkpt>
      <trkpt lat="42.20742" lon="9.01477">
        <ele>2085.34</ele>
        <time>2018-08-29T08:11:02Z</time>
      </trkpt>
      <trkpt lat="42.20741" lon="9.01478">
        <ele>2085.33</ele>
        <time>2018-08-29T08:11:06Z</time>
      </trkpt>
      <trkpt lat="42.20735" lon="9.01486">
        <ele>2084.34</ele>
        <time>2018-08-29T08:11:23Z</time>
      </trkpt>
      <trkpt lat="42.20731" lon="9.0149">
        <ele>2082.03</ele>
        <time>2018-08-29T08:11:29Z</time>
      </trkpt>
      <trkpt lat="42.20727" lon="9.01501">
        <ele>2080.22</ele>
        <time>2018-08-29T08:11:43Z</time>
      </trkpt>
      <trkpt lat="42.20727" lon="9.01503">
        <ele>2080.22</ele>
        <time>2018-08-29T08:11:45Z</time>
      </trkpt>
      <trkpt lat="42.20722" lon="9.0151">
        <ele>2079.44</ele>
        <time>2018-08-29T08:11:59Z</time>
      </trkpt>
      <trkpt lat="42.20718" lon="9.01508">
        <ele>2077.47</ele>
        <time>2018-08-29T08:12:09Z</time>
      </trkpt>
      <trkpt lat="42.20711" lon="9.01519">
        <ele>2076.33</ele>
        <time>2018-08-29T08:12:21Z</time>
      </trkpt>
      <trkpt lat="42.20708" lon="9.01523">
        <ele>2075.46</ele>
        <time>2018-08-29T08:12:25Z</time>
      </trkpt>
      <trkpt lat="42.20699" lon="9.01537">
        <ele>2075.48</ele>
        <time>2018-08-29T08:12:40Z</time>
      </trkpt>
      <trkpt lat="42.20696" lon="9.01542">
        <ele>2075.39</ele>
        <time>2018-08-29T08:12:56Z</time>
      </trkpt>
      <trkpt lat="42.20692" lon="9.01546">
        <ele>2073.5</ele>
        <time>2018-08-29T08:13:11Z</time>
      </trkpt>
      <trkpt lat="42.20691" lon="9.01548">
        <ele>2073.64</ele>
        <time>2018-08-29T08:13:23Z</time>
      </trkpt>
      <trkpt lat="42.20687" lon="9.01551">
        <ele>2072.43</ele>
        <time>2018-08-29T08:13:35Z</time>
      </trkpt>
      <trkpt lat="42.2068" lon="9.0156">
        <ele>2069.57</ele>
        <time>2018-08-29T08:13:49Z</time>
      </trkpt>
      <trkpt lat="42.20678" lon="9.01565">
        <ele>2069.67</ele>
        <time>2018-08-29T08:13:57Z</time>
      </trkpt>
      <trkpt lat="42.20674" lon="9.01575">
        <ele>2067.72</ele>
        <time>2018-08-29T08:14:10Z</time>
      </trkpt>
      <trkpt lat="42.20672" lon="9.01572">
        <ele>2066.37</ele>
        <time>2018-08-29T08:14:24Z</time>
      </trkpt>
      <trkpt lat="42.20666" lon="9.01576">
        <ele>2064.44</ele>
        <time>2018-08-29T08:14:36Z</time>
      </trkpt>
      <trkpt lat="42.20659" lon="9.01585">
        <ele>2062.21</ele>
        <time>2018-08-29T08:14:50Z</time>
      </trkpt>
      <trkpt lat="42.20655" lon="9.01591">
        <ele>2060.27</ele>
        <time>2018-08-29T08:15:02Z</time>
      </trkpt>
      <trkpt lat="42.20649" lon="9.01587">
        <ele>2056.8</ele>
        <time>2018-08-29T08:15:15Z</time>
      </trkpt>
      <trkpt lat="42.20649" lon="9.01587">
        <ele>2056.82</ele>
        <time>2018-08-29T08:15:16Z</time>
      </trkpt>
      <trkpt lat="42.20644" lon="9.01591">
        <ele>2054.18</ele>
        <time>2018-08-29T08:15:29Z</time>
      </trkpt>
      <trkpt lat="42.2064" lon="9.01591">
        <ele>2052.97</ele>
        <time>2018-08-29T08:15:38Z</time>
      </trkpt>
      <trkpt lat="42.20637" lon="9.01592">
        <ele>2051.94</ele>
        <time>2018-08-29T08:15:45Z</time>
      </trkpt>
      <trkpt lat="42.20625" lon="9.01599">
        <ele>2050.07</ele>
        <time>2018-08-29T08:16:02Z</time>
      </trkpt>
      <trkpt lat="42.20619" lon="9.01604">
        <ele>2048.32</ele>
        <time>2018-08-29T08:16:16Z</time>
      </trkpt>
      <trkpt lat="42.20617" lon="9.01605">
        <ele>2045.87</ele>
        <time>2018-08-29T08:16:21Z</time>
      </trkpt>
      <trkpt lat="42.20614" lon="9.01611">
        <ele>2045.09</ele>
        <time>2018-08-29T08:16:36Z</time>
      </trkpt>
      <trkpt lat="42.20614" lon="9.01617">
        <ele>2044.18</ele>
        <time>2018-08-29T08:16:46Z</time>
      </trkpt>
      <trkpt lat="42.20608" lon="9.01623">
        <ele>2043.47</ele>
        <time>2018-08-29T08:16:55Z</time>
      </trkpt>
      <trkpt lat="42.20604" lon="9.01638">
        <ele>2042.48</ele>
        <time>2018-08-29T08:17:07Z</time>
      </trkpt>
      <trkpt lat="42.20599" lon="9.0164">
        <ele>2042.55</ele>
        <time>2018-08-29T08:17:20Z</time>
      </trkpt>
      <trkpt lat="42.20597" lon="9.01643">
        <ele>2041.75</ele>
        <time>2018-08-29T08:17:34Z</time>
      </trkpt>
      <trkpt lat="42.20594" lon="9.01651">
        <ele>2040.86</ele>
        <time>2018-08-29T08:17:45Z</time>
      </trkpt>
      <trkpt lat="42.20589" lon="9.0166">
        <ele>2040.83</ele>
        <time>2018-08-29T08:17:55Z</time>
      </trkpt>
      <trkpt lat="42.20586" lon="9.01662">
        <ele>2039.98</ele>
        <time>2018-08-29T08:17:59Z</time>
      </trkpt>
      <trkpt lat="42.20584" lon="9.01664">
        <ele>2039.94</ele>
        <time>2018-08-29T08:18:02Z</time>
      </trkpt>
      <trkpt lat="42.20576" lon="9.01664">
        <ele>2038.2</ele>
        <time>2018-08-29T08:18:15Z</time>
      </trkpt>
      <trkpt lat="42.20568" lon="9.01673">
        <ele>2036.45</ele>
        <time>2018-08-29T08:18:30Z</time>
      </trkpt>
      <trkpt lat="42.20565" lon="9.01683">
        <ele>2036.53</ele>
        <time>2018-08-29T08:18:42Z</time>
      </trkpt>
      <trkpt lat="42.20566" lon="9.01684">
        <ele>2039.31</ele>
        <time>2018-08-29T08:18:44Z</time>
      </trkpt>
      <trkpt lat="42.20565" lon="9.01692">
        <ele>2040.12</ele>
        <time>2018-08-29T08:18:56Z</time>
      </trkpt>
      <trkpt lat="42.20559" lon="9.01707">
        <ele>2039.96</ele>
        <time>2018-08-29T08:19:11Z</time>
      </trkpt>
      <trkpt lat="42.20553" lon="9.01719">
        <ele>2039.99</ele>
        <time>2018-08-29T08:19:24Z</time>
      </trkpt>
      <trkpt lat="42.20553" lon="9.0172">
        <ele>2040.02</ele>
        <time>2018-08-29T08:19:25Z</time>
      </trkpt>
      <trkpt lat="42.20548" lon="9.01727">
        <ele>2040.02</ele>
        <time>2018-08-29T08:19:34Z</time>
      </trkpt>
      <trkpt lat="42.20539" lon="9.01736">
        <ele>2040.69</ele>
        <time>2018-08-29T08:19:49Z</time>
      </trkpt>
      <trkpt lat="42.20535" lon="9.01745">
        <ele>2040.68</ele>
        <time>2018-08-29T08:20:03Z</time>
      </trkpt>
      <trkpt lat="42.20531" lon="9.01749">
        <ele>2040.64</ele>
        <time>2018-08-29T08:20:15Z</time>
      </trkpt>
      <trkpt lat="42.20529" lon="9.0175">
        <ele>2040.61</ele>
        <time>2018-08-29T08:20:28Z</time>
      </trkpt>
      <trkpt lat="42.20527" lon="9.01753">
        <ele>2040.62</ele>
        <time>2018-08-29T08:20:40Z</time>
      </trkpt>
      <trkpt lat="42.20526" lon="9.01756">
        <ele>2040.54</ele>
        <time>2018-08-29T08:20:55Z</time>
      </trkpt>
      <trkpt lat="42.20522" lon="9.01761">
        <ele>2040.5</ele>
        <time>2018-08-29T08:21:06Z</time>
      </trkpt>
      <trkpt lat="42.20516" lon="9.0177">
        <ele>2040.5</ele>
        <time>2018-08-29T08:21:19Z</time>
      </trkpt>
      <trkpt lat="42.20512" lon="9.01777">
        <ele>2041.41</ele>
        <time>2018-08-29T08:21:34Z</time>
      </trkpt>
      <trkpt lat="42.20512" lon="9.01778">
        <ele>2041.4</ele>
        <time>2018-08-29T08:21:35Z</time>
      </trkpt>
      <trkpt lat="42.20505" lon="9.0179">
        <ele>2042.3</ele>
        <time>2018-08-29T08:21:50Z</time>
      </trkpt>
      <trkpt lat="42.20502" lon="9.01793">
        <ele>2042.28</ele>
        <time>2018-08-29T08:21:54Z</time>
      </trkpt>
      <trkpt lat="42.20493" lon="9.01811">
        <ele>2043.48</ele>
        <time>2018-08-29T08:22:12Z</time>
      </trkpt>
      <trkpt lat="42.20486" lon="9.01828">
        <ele>2044.22</ele>
        <time>2018-08-29T08:22:30Z</time>
      </trkpt>
      <trkpt lat="42.20488" lon="9.01826">
        <ele>2044.11</ele>
        <time>2018-08-29T08:22:46Z</time>
      </trkpt>
      <trkpt lat="42.20487" lon="9.01826">
        <ele>2044.93</ele>
        <time>2018-08-29T08:23:04Z</time>
      </trkpt>
      <trkpt lat="42.20478" lon="9.01828">
        <ele>2044.96</ele>
        <time>2018-08-29T08:23:12Z</time>
      </trkpt>
      <trkpt lat="42.20476" lon="9.01832">
        <ele>2044.87</ele>
        <time>2018-08-29T08:23:29Z</time>
      </trkpt>
      <trkpt lat="42.20479" lon="9.01837">
        <ele>2044.89</ele>
        <time>2018-08-29T08:23:44Z</time>
      </trkpt>
      <trkpt lat="42.20479" lon="9.01837">
        <ele>2045.55</ele>
        <time>2018-08-29T08:24:14Z</time>
      </trkpt>
      <trkpt lat="42.2048" lon="9.01838">
        <ele>2045.41</ele>
        <time>2018-08-29T08:25:05Z</time>
      </trkpt>
      <trkpt lat="42.20479" lon="9.01838">
        <ele>2045.3</ele>
        <time>2018-08-29T08:25:45Z</time>
      </trkpt>
      <trkpt lat="42.20473" lon="9.01844">
        <ele>2045.26</ele>
        <time>2018-08-29T08:25:58Z</time>
      </trkpt>
      <trkpt lat="42.2047" lon="9.01848">
        <ele>2045.23</ele>
        <time>2018-08-29T08:26:02Z</time>
      </trkpt>
      <trkpt lat="42.20465" lon="9.01856">
        <ele>2042.87</ele>
        <time>2018-08-29T08:26:09Z</time>
      </trkpt>
      <trkpt lat="42.20461" lon="9.0187">
        <ele>2042.84</ele>
        <time>2018-08-29T08:26:22Z</time>
      </trkpt>
      <trkpt lat="42.2046" lon="9.01877">
        <ele>2042.82</ele>
        <time>2018-08-29T08:26:29Z</time>
      </trkpt>
      <trkpt lat="42.20458" lon="9.01884">
        <ele>2042.77</ele>
        <time>2018-08-29T08:26:34Z</time>
      </trkpt>
      <trkpt lat="42.20454" lon="9.01897">
        <ele>2042.77</ele>
        <time>2018-08-29T08:26:44Z</time>
      </trkpt>
      <trkpt lat="42.20449" lon="9.01924">
        <ele>2042.72</ele>
        <time>2018-08-29T08:27:03Z</time>
      </trkpt>
      <trkpt lat="42.20448" lon="9.01932">
        <ele>2042.7</ele>
        <time>2018-08-29T08:27:10Z</time>
      </trkpt>
      <trkpt lat="42.20442" lon="9.01941">
        <ele>2042.67</ele>
        <time>2018-08-29T08:27:23Z</time>
      </trkpt>
      <trkpt lat="42.20442" lon="9.01943">
        <ele>2041.32</ele>
        <time>2018-08-29T08:27:25Z</time>
      </trkpt>
      <trkpt lat="42.20441" lon="9.01952">
        <ele>2040.43</ele>
        <time>2018-08-29T08:27:31Z</time>
      </trkpt>
      <trkpt lat="42.20435" lon="9.01963">
        <ele>2038.67</ele>
        <time>2018-08-29T08:27:46Z</time>
      </trkpt>
      <trkpt lat="42.20433" lon="9.01967">
        <ele>2037.35</ele>
        <time>2018-08-29T08:27:53Z</time>
      </trkpt>
      <trkpt lat="42.20428" lon="9.01976">
        <ele>2036.28</ele>
        <time>2018-08-29T08:28:06Z</time>
      </trkpt>
      <trkpt lat="42.20427" lon="9.01978">
        <ele>2034.81</ele>
        <time>2018-08-29T08:28:08Z</time>
      </trkpt>
      <trkpt lat="42.20425" lon="9.01989">
        <ele>2034.82</ele>
        <time>2018-08-29T08:28:21Z</time>
      </trkpt>
      <trkpt lat="42.20425" lon="9.01991">
        <ele>2034.81</ele>
        <time>2018-08-29T08:28:24Z</time>
      </trkpt>
      <trkpt lat="42.20422" lon="9.02">
        <ele>2034.78</ele>
        <time>2018-08-29T08:28:40Z</time>
      </trkpt>
      <trkpt lat="42.2042" lon="9.02004">
        <ele>2034.75</ele>
        <time>2018-08-29T08:28:52Z</time>
      </trkpt>
      <trkpt lat="42.20418" lon="9.02007">
        <ele>2033.9</ele>
        <time>2018-08-29T08:29:06Z</time>
      </trkpt>
      <trkpt lat="42.20415" lon="9.02013">
        <ele>2032.73</ele>
        <time>2018-08-29T08:29:16Z</time>
      </trkpt>
      <trkpt lat="42.20414" lon="9.02017">
        <ele>2031.42</ele>
        <time>2018-08-29T08:29:19Z</time>
      </trkpt>
      <trkpt lat="42.2041" lon="9.02028">
        <ele>2030.27</ele>
        <time>2018-08-29T08:29:34Z</time>
      </trkpt>
      <trkpt lat="42.20408" lon="9.02035">
        <ele>2030.29</ele>
        <time>2018-08-29T08:29:47Z</time>
      </trkpt>
      <trkpt lat="42.20407" lon="9.02037">
        <ele>2029.5</ele>
        <time>2018-08-29T08:30:00Z</time>
      </trkpt>
      <trkpt lat="42.20404" lon="9.02038">
        <ele>2028.01</ele>
        <time>2018-08-29T08:30:07Z</time>
      </trkpt>
      <trkpt lat="42.20402" lon="9.02046">
        <ele>2026.9</ele>
        <time>2018-08-29T08:30:21Z</time>
      </trkpt>
      <trkpt lat="42.20402" lon="9.02052">
        <ele>2026.88</ele>
        <time>2018-08-29T08:30:34Z</time>
      </trkpt>
      <trkpt lat="42.20402" lon="9.02056">
        <ele>2029.33</ele>
        <time>2018-08-29T08:30:48Z</time>
      </trkpt>
      <trkpt lat="42.20398" lon="9.02064">
        <ele>2029.27</ele>
        <time>2018-08-29T08:31:00Z</time>
      </trkpt>
      <trkpt lat="42.20395" lon="9.0207">
        <ele>2029.23</ele>
        <time>2018-08-29T08:31:06Z</time>
      </trkpt>
      <trkpt lat="42.20392" lon="9.02086">
        <ele>2029.22</ele>
        <time>2018-08-29T08:31:21Z</time>
      </trkpt>
      <trkpt lat="42.2039" lon="9.02096">
        <ele>2029.23</ele>
        <time>2018-08-29T08:31:36Z</time>
      </trkpt>
      <trkpt lat="42.20387" lon="9.02113">
        <ele>2029.93</ele>
        <time>2018-08-29T08:31:55Z</time>
      </trkpt>
      <trkpt lat="42.20387" lon="9.02118">
        <ele>2029.94</ele>
        <time>2018-08-29T08:32:08Z</time>
      </trkpt>
      <trkpt lat="42.20386" lon="9.0212">
        <ele>2027.51</ele>
        <time>2018-08-29T08:32:21Z</time>
      </trkpt>
      <trkpt lat="42.2038" lon="9.02126">
        <ele>2027.48</ele>
        <time>2018-08-29T08:32:35Z</time>
      </trkpt>
      <trkpt lat="42.20378" lon="9.02127">
        <ele>2029.87</ele>
        <time>2018-08-29T08:32:38Z</time>
      </trkpt>
      <trkpt lat="42.20375" lon="9.02127">
        <ele>2030.67</ele>
        <time>2018-08-29T08:32:53Z</time>
      </trkpt>
      <trkpt lat="42.20371" lon="9.02133">
        <ele>2031.52</ele>
        <time>2018-08-29T08:33:07Z</time>
      </trkpt>
      <trkpt lat="42.20369" lon="9.0213">
        <ele>2031.43</ele>
        <time>2018-08-29T08:33:20Z</time>
      </trkpt>
      <trkpt lat="42.20366" lon="9.02135">
        <ele>2031.39</ele>
        <time>2018-08-29T08:33:42Z</time>
      </trkpt>
      <trkpt lat="42.20363" lon="9.0214">
        <ele>2032.2</ele>
        <time>2018-08-29T08:33:58Z</time>
      </trkpt>
      <trkpt lat="42.2036" lon="9.02146">
        <ele>2032.22</ele>
        <time>2018-08-29T08:34:10Z</time>
      </trkpt>
      <trkpt lat="42.20359" lon="9.02148">
        <ele>2033.74</ele>
        <time>2018-08-29T08:34:23Z</time>
      </trkpt>
      <trkpt lat="42.20357" lon="9.02152">
        <ele>2033.75</ele>
        <time>2018-08-29T08:34:34Z</time>
      </trkpt>
      <trkpt lat="42.2035" lon="9.02154">
        <ele>2033.67</ele>
        <time>2018-08-29T08:34:46Z</time>
      </trkpt>
      <trkpt lat="42.20345" lon="9.02159">
        <ele>2033.68</ele>
        <time>2018-08-29T08:34:58Z</time>
      </trkpt>
      <trkpt lat="42.20342" lon="9.02161">
        <ele>2033.69</ele>
        <time>2018-08-29T08:35:02Z</time>
      </trkpt>
      <trkpt lat="42.20327" lon="9.02171">
        <ele>2035.46</ele>
        <time>2018-08-29T08:35:24Z</time>
      </trkpt>
      <trkpt lat="42.20322" lon="9.02175">
        <ele>2037.16</ele>
        <time>2018-08-29T08:35:38Z</time>
      </trkpt>
      <trkpt lat="42.20319" lon="9.02179">
        <ele>2038.78</ele>
        <time>2018-08-29T08:35:52Z</time>
      </trkpt>
      <trkpt lat="42.20315" lon="9.0218">
        <ele>2040.87</ele>
        <time>2018-08-29T08:36:05Z</time>
      </trkpt>
      <trkpt lat="42.20312" lon="9.02185">
        <ele>2041.72</ele>
        <time>2018-08-29T08:36:20Z</time>
      </trkpt>
      <trkpt lat="42.20307" lon="9.02187">
        <ele>2042.47</ele>
        <time>2018-08-29T08:36:33Z</time>
      </trkpt>
      <trkpt lat="42.20303" lon="9.02189">
        <ele>2044.84</ele>
        <time>2018-08-29T08:36:45Z</time>
      </trkpt>
      <trkpt lat="42.203" lon="9.02189">
        <ele>2044.79</ele>
        <time>2018-08-29T08:36:56Z</time>
      </trkpt>
      <trkpt lat="42.20299" lon="9.02189">
        <ele>2044.76</ele>
        <time>2018-08-29T08:37:16Z</time>
      </trkpt>
      <trkpt lat="42.203" lon="9.02187">
        <ele>2044.74</ele>
        <time>2018-08-29T08:37:30Z</time>
      </trkpt>
      <trkpt lat="42.203" lon="9.02186">
        <ele>2044.72</ele>
        <time>2018-08-29T08:37:49Z</time>
      </trkpt>
      <trkpt lat="42.203" lon="9.02187">
        <ele>2044.69</ele>
        <time>2018-08-29T08:38:15Z</time>
      </trkpt>
      <trkpt lat="42.20299" lon="9.02188">
        <ele>2044.67</ele>
        <time>2018-08-29T08:38:39Z</time>
      </trkpt>
      <trkpt lat="42.203" lon="9.02189">
        <ele>2044.65</ele>
        <time>2018-08-29T08:38:58Z</time>
      </trkpt>
      <trkpt lat="42.203" lon="9.0219">
        <ele>2044.61</ele>
        <time>2018-08-29T08:39:30Z</time>
      </trkpt>
      <trkpt lat="42.203" lon="9.02188">
        <ele>2044.6</ele>
        <time>2018-08-29T08:39:45Z</time>
      </trkpt>
      <trkpt lat="42.203" lon="9.0219">
        <ele>2044.57</ele>
        <time>2018-08-29T08:40:02Z</time>
      </trkpt>
      <trkpt lat="42.20306" lon="9.02197">
        <ele>2044.56</ele>
        <time>2018-08-29T08:40:16Z</time>
      </trkpt>
      <trkpt lat="42.20313" lon="9.022">
        <ele>2046.23</ele>
        <time>2018-08-29T08:40:29Z</time>
      </trkpt>
      <trkpt lat="42.20315" lon="9.02207">
        <ele>2046.18</ele>
        <time>2018-08-29T08:40:42Z</time>
      </trkpt>
      <trkpt lat="42.20317" lon="9.02212">
        <ele>2046.16</ele>
        <time>2018-08-29T08:40:54Z</time>
      </trkpt>
      <trkpt lat="42.20318" lon="9.02215">
        <ele>2046.14</ele>
        <time>2018-08-29T08:41:04Z</time>
      </trkpt>
      <trkpt lat="42.2032" lon="9.02216">
        <ele>2043.63</ele>
        <time>2018-08-29T08:41:11Z</time>
      </trkpt>
      <trkpt lat="42.2032" lon="9.02218">
        <ele>2043.59</ele>
        <time>2018-08-29T08:41:36Z</time>
      </trkpt>
      <trkpt lat="42.2032" lon="9.02221">
        <ele>2042.5</ele>
        <time>2018-08-29T08:41:49Z</time>
      </trkpt>
      <trkpt lat="42.20319" lon="9.02221">
        <ele>2041.67</ele>
        <time>2018-08-29T08:41:59Z</time>
      </trkpt>
      <trkpt lat="42.20321" lon="9.02222">
        <ele>2041.64</ele>
        <time>2018-08-29T08:42:13Z</time>
      </trkpt>
      <trkpt lat="42.20323" lon="9.02228">
        <ele>2039.88</ele>
        <time>2018-08-29T08:42:24Z</time>
      </trkpt>
      <trkpt lat="42.2032" lon="9.02229">
        <ele>2038.6</ele>
        <time>2018-08-29T08:42:31Z</time>
      </trkpt>
      <trkpt lat="42.20321" lon="9.02233">
        <ele>2038.58</ele>
        <time>2018-08-29T08:42:36Z</time>
      </trkpt>
      <trkpt lat="42.20326" lon="9.02238">
        <ele>2036.89</ele>
        <time>2018-08-29T08:42:51Z</time>
      </trkpt>
      <trkpt lat="42.2033" lon="9.02244">
        <ele>2036.88</ele>
        <time>2018-08-29T08:43:01Z</time>
      </trkpt>
      <trkpt lat="42.20331" lon="9.02247">
        <ele>2036.87</ele>
        <time>2018-08-29T08:43:05Z</time>
      </trkpt>
      <trkpt lat="42.20334" lon="9.02253">
        <ele>2036.86</ele>
        <time>2018-08-29T08:43:10Z</time>
      </trkpt>
      <trkpt lat="42.20337" lon="9.02256">
        <ele>2036.88</ele>
        <time>2018-08-29T08:43:14Z</time>
      </trkpt>
      <trkpt lat="42.20342" lon="9.02268">
        <ele>2036.82</ele>
        <time>2018-08-29T08:43:28Z</time>
      </trkpt>
      <trkpt lat="42.20345" lon="9.02271">
        <ele>2036.82</ele>
        <time>2018-08-29T08:43:32Z</time>
      </trkpt>
      <trkpt lat="42.20356" lon="9.02283">
        <ele>2039.48</ele>
        <time>2018-08-29T08:43:48Z</time>
      </trkpt>
      <trkpt lat="42.20356" lon="9.02293">
        <ele>2039.45</ele>
        <time>2018-08-29T08:44:02Z</time>
      </trkpt>
      <trkpt lat="42.20358" lon="9.02305">
        <ele>2040.56</ele>
        <time>2018-08-29T08:44:16Z</time>
      </trkpt>
      <trkpt lat="42.20358" lon="9.02306">
        <ele>2040.56</ele>
        <time>2018-08-29T08:44:17Z</time>
      </trkpt>
      <trkpt lat="42.2036" lon="9.02309">
        <ele>2040.56</ele>
        <time>2018-08-29T08:44:21Z</time>
      </trkpt>
      <trkpt lat="42.20362" lon="9.02312">
        <ele>2040.51</ele>
        <time>2018-08-29T08:44:40Z</time>
      </trkpt>
      <trkpt lat="42.20362" lon="9.02313">
        <ele>2040.46</ele>
        <time>2018-08-29T08:44:55Z</time>
      </trkpt>
      <trkpt lat="42.20361" lon="9.02313">
        <ele>2040.38</ele>
        <time>2018-08-29T08:45:22Z</time>
      </trkpt>
      <trkpt lat="42.20362" lon="9.0232">
        <ele>2040.3</ele>
        <time>2018-08-29T08:45:42Z</time>
      </trkpt>
      <trkpt lat="42.20361" lon="9.02323">
        <ele>2042.18</ele>
        <time>2018-08-29T08:45:57Z</time>
      </trkpt>
      <trkpt lat="42.2036" lon="9.02326">
        <ele>2044.05</ele>
        <time>2018-08-29T08:46:10Z</time>
      </trkpt>
      <trkpt lat="42.20362" lon="9.02327">
        <ele>2044.99</ele>
        <time>2018-08-29T08:46:27Z</time>
      </trkpt>
      <trkpt lat="42.20362" lon="9.02329">
        <ele>2044.89</ele>
        <time>2018-08-29T08:46:58Z</time>
      </trkpt>
      <trkpt lat="42.20363" lon="9.02329">
        <ele>2044.79</ele>
        <time>2018-08-29T08:47:26Z</time>
      </trkpt>
      <trkpt lat="42.20361" lon="9.02333">
        <ele>2045.75</ele>
        <time>2018-08-29T08:47:56Z</time>
      </trkpt>
      <trkpt lat="42.20362" lon="9.02336">
        <ele>2046.67</ele>
        <time>2018-08-29T08:48:09Z</time>
      </trkpt>
      <trkpt lat="42.20362" lon="9.02343">
        <ele>2047.41</ele>
        <time>2018-08-29T08:48:21Z</time>
      </trkpt>
      <trkpt lat="42.20363" lon="9.02348">
        <ele>2049.31</ele>
        <time>2018-08-29T08:48:36Z</time>
      </trkpt>
      <trkpt lat="42.20362" lon="9.02357">
        <ele>2049.23</ele>
        <time>2018-08-29T08:48:48Z</time>
      </trkpt>
      <trkpt lat="42.20366" lon="9.02359">
        <ele>2049.04</ele>
        <time>2018-08-29T08:49:02Z</time>
      </trkpt>
      <trkpt lat="42.20366" lon="9.02358">
        <ele>2046.56</ele>
        <time>2018-08-29T08:49:05Z</time>
      </trkpt>
      <trkpt lat="42.2037" lon="9.02359">
        <ele>2044.01</ele>
        <time>2018-08-29T08:49:15Z</time>
      </trkpt>
      <trkpt lat="42.20376" lon="9.02361">
        <ele>2042.91</ele>
        <time>2018-08-29T08:49:27Z</time>
      </trkpt>
      <trkpt lat="42.20378" lon="9.02365">
        <ele>2043.01</ele>
        <time>2018-08-29T08:49:38Z</time>
      </trkpt>
      <trkpt lat="42.2038" lon="9.02371">
        <ele>2042.98</ele>
        <time>2018-08-29T08:49:55Z</time>
      </trkpt>
      <trkpt lat="42.20382" lon="9.02373">
        <ele>2042.88</ele>
        <time>2018-08-29T08:50:07Z</time>
      </trkpt>
      <trkpt lat="42.20384" lon="9.02373">
        <ele>2042.1</ele>
        <time>2018-08-29T08:50:16Z</time>
      </trkpt>
      <trkpt lat="42.20391" lon="9.02375">
        <ele>2041.22</ele>
        <time>2018-08-29T08:50:28Z</time>
      </trkpt>
      <trkpt lat="42.20397" lon="9.02377">
        <ele>2041.23</ele>
        <time>2018-08-29T08:50:43Z</time>
      </trkpt>
      <trkpt lat="42.204" lon="9.02382">
        <ele>2043.65</ele>
        <time>2018-08-29T08:50:55Z</time>
      </trkpt>
      <trkpt lat="42.20406" lon="9.02384">
        <ele>2044.5</ele>
        <time>2018-08-29T08:51:08Z</time>
      </trkpt>
      <trkpt lat="42.2041" lon="9.02388">
        <ele>2045.25</ele>
        <time>2018-08-29T08:51:15Z</time>
      </trkpt>
      <trkpt lat="42.20414" lon="9.02398">
        <ele>2047.09</ele>
        <time>2018-08-29T08:51:30Z</time>
      </trkpt>
      <trkpt lat="42.2042" lon="9.02404">
        <ele>2047.94</ele>
        <time>2018-08-29T08:51:45Z</time>
      </trkpt>
      <trkpt lat="42.20427" lon="9.02413">
        <ele>2047.8</ele>
        <time>2018-08-29T08:51:58Z</time>
      </trkpt>
      <trkpt lat="42.20433" lon="9.02424">
        <ele>2047.79</ele>
        <time>2018-08-29T08:52:10Z</time>
      </trkpt>
      <trkpt lat="42.20439" lon="9.02432">
        <ele>2048.84</ele>
        <time>2018-08-29T08:52:22Z</time>
      </trkpt>
      <trkpt lat="42.20446" lon="9.0244">
        <ele>2049.75</ele>
        <time>2018-08-29T08:52:37Z</time>
      </trkpt>
      <trkpt lat="42.20445" lon="9.02443">
        <ele>2050.96</ele>
        <time>2018-08-29T08:52:43Z</time>
      </trkpt>
      <trkpt lat="42.20449" lon="9.02448">
        <ele>2051.82</ele>
        <time>2018-08-29T08:52:54Z</time>
      </trkpt>
      <trkpt lat="42.20456" lon="9.02457">
        <ele>2051.7</ele>
        <time>2018-08-29T08:53:10Z</time>
      </trkpt>
      <trkpt lat="42.20456" lon="9.02458">
        <ele>2052.42</ele>
        <time>2018-08-29T08:53:33Z</time>
      </trkpt>
      <trkpt lat="42.20458" lon="9.02463">
        <ele>2053.14</ele>
        <time>2018-08-29T08:53:49Z</time>
      </trkpt>
      <trkpt lat="42.20459" lon="9.02466">
        <ele>2053.11</ele>
        <time>2018-08-29T08:54:09Z</time>
      </trkpt>
      <trkpt lat="42.2046" lon="9.02467">
        <ele>2053.12</ele>
        <time>2018-08-29T08:54:10Z</time>
      </trkpt>
      <trkpt lat="42.20467" lon="9.02473">
        <ele>2053.87</ele>
        <time>2018-08-29T08:54:22Z</time>
      </trkpt>
      <trkpt lat="42.20469" lon="9.02474">
        <ele>2053.89</ele>
        <time>2018-08-29T08:54:32Z</time>
      </trkpt>
      <trkpt lat="42.2047" lon="9.02475">
        <ele>2054.67</ele>
        <time>2018-08-29T08:54:35Z</time>
      </trkpt>
      <trkpt lat="42.20472" lon="9.02475">
        <ele>2054.58</ele>
        <time>2018-08-29T08:54:40Z</time>
      </trkpt>
      <trkpt lat="42.20478" lon="9.02473">
        <ele>2054.53</ele>
        <time>2018-08-29T08:54:55Z</time>
      </trkpt>
      <trkpt lat="42.2048" lon="9.02474">
        <ele>2052.15</ele>
        <time>2018-08-29T08:55:07Z</time>
      </trkpt>
      <trkpt lat="42.20481" lon="9.02474">
        <ele>2052.13</ele>
        <time>2018-08-29T08:55:22Z</time>
      </trkpt>
      <trkpt lat="42.20483" lon="9.02474">
        <ele>2052.2</ele>
        <time>2018-08-29T08:55:25Z</time>
      </trkpt>
      <trkpt lat="42.20491" lon="9.02481">
        <ele>2050.24</ele>
        <time>2018-08-29T08:55:36Z</time>
      </trkpt>
      <trkpt lat="42.20497" lon="9.02491">
        <ele>2050.22</ele>
        <time>2018-08-29T08:55:46Z</time>
      </trkpt>
      <trkpt lat="42.205" lon="9.02492">
        <ele>2050.22</ele>
        <time>2018-08-29T08:55:49Z</time>
      </trkpt>
      <trkpt lat="42.20506" lon="9.02501">
        <ele>2049.44</ele>
        <time>2018-08-29T08:55:58Z</time>
      </trkpt>
      <trkpt lat="42.20512" lon="9.02506">
        <ele>2049.39</ele>
        <time>2018-08-29T08:56:05Z</time>
      </trkpt>
      <trkpt lat="42.20517" lon="9.02513">
        <ele>2048.36</ele>
        <time>2018-08-29T08:56:20Z</time>
      </trkpt>
      <trkpt lat="42.20522" lon="9.02517">
        <ele>2045.61</ele>
        <time>2018-08-29T08:56:32Z</time>
      </trkpt>
      <trkpt lat="42.2053" lon="9.02523">
        <ele>2044.37</ele>
        <time>2018-08-29T08:56:48Z</time>
      </trkpt>
      <trkpt lat="42.20537" lon="9.02528">
        <ele>2044.38</ele>
        <time>2018-08-29T08:57:01Z</time>
      </trkpt>
      <trkpt lat="42.20539" lon="9.0253">
        <ele>2044.38</ele>
        <time>2018-08-29T08:57:04Z</time>
      </trkpt>
      <trkpt lat="42.20546" lon="9.02536">
        <ele>2044.45</ele>
        <time>2018-08-29T08:57:14Z</time>
      </trkpt>
      <trkpt lat="42.20548" lon="9.02539">
        <ele>2044.45</ele>
        <time>2018-08-29T08:57:20Z</time>
      </trkpt>
      <trkpt lat="42.20556" lon="9.02544">
        <ele>2046.68</ele>
        <time>2018-08-29T08:57:34Z</time>
      </trkpt>
      <trkpt lat="42.20567" lon="9.02549">
        <ele>2046.53</ele>
        <time>2018-08-29T08:57:52Z</time>
      </trkpt>
      <trkpt lat="42.20569" lon="9.02551">
        <ele>2046.48</ele>
        <time>2018-08-29T08:57:55Z</time>
      </trkpt>
      <trkpt lat="42.20571" lon="9.02552">
        <ele>2044.16</ele>
        <time>2018-08-29T08:57:57Z</time>
      </trkpt>
      <trkpt lat="42.20576" lon="9.02554">
        <ele>2044.26</ele>
        <time>2018-08-29T08:58:08Z</time>
      </trkpt>
      <trkpt lat="42.20578" lon="9.02558">
        <ele>2046.65</ele>
        <time>2018-08-29T08:58:15Z</time>
      </trkpt>
      <trkpt lat="42.20579" lon="9.02557">
        <ele>2047.23</ele>
        <time>2018-08-29T08:58:34Z</time>
      </trkpt>
      <trkpt lat="42.20588" lon="9.02557">
        <ele>2047.17</ele>
        <time>2018-08-29T08:58:46Z</time>
      </trkpt>
      <trkpt lat="42.20591" lon="9.02558">
        <ele>2044.88</ele>
        <time>2018-08-29T08:58:49Z</time>
      </trkpt>
      <trkpt lat="42.20594" lon="9.02557">
        <ele>2043.55</ele>
        <time>2018-08-29T08:58:53Z</time>
      </trkpt>
      <trkpt lat="42.20596" lon="9.02556">
        <ele>2043.53</ele>
        <time>2018-08-29T08:58:55Z</time>
      </trkpt>
      <trkpt lat="42.20607" lon="9.02561">
        <ele>2042.29</ele>
        <time>2018-08-29T08:59:09Z</time>
      </trkpt>
      <trkpt lat="42.20614" lon="9.02561">
        <ele>2042.33</ele>
        <time>2018-08-29T08:59:21Z</time>
      </trkpt>
      <trkpt lat="42.20617" lon="9.02563">
        <ele>2042.34</ele>
        <time>2018-08-29T08:59:26Z</time>
      </trkpt>
      <trkpt lat="42.20624" lon="9.02566">
        <ele>2042.25</ele>
        <time>2018-08-29T08:59:38Z</time>
      </trkpt>
      <trkpt lat="42.20634" lon="9.02564">
        <ele>2042.2</ele>
        <time>2018-08-29T08:59:53Z</time>
      </trkpt>
      <trkpt lat="42.20638" lon="9.02566">
        <ele>2044.93</ele>
        <time>2018-08-29T09:00:03Z</time>
      </trkpt>
      <trkpt lat="42.20644" lon="9.02571">
        <ele>2045.89</ele>
        <time>2018-08-29T09:00:16Z</time>
      </trkpt>
      <trkpt lat="42.20649" lon="9.02571">
        <ele>2046.78</ele>
        <time>2018-08-29T09:00:28Z</time>
      </trkpt>
      <trkpt lat="42.20653" lon="9.02567">
        <ele>2046.71</ele>
        <time>2018-08-29T09:00:50Z</time>
      </trkpt>
      <trkpt lat="42.20654" lon="9.02565">
        <ele>2044.1</ele>
        <time>2018-08-29T09:00:56Z</time>
      </trkpt>
      <trkpt lat="42.20659" lon="9.02564">
        <ele>2042.37</ele>
        <time>2018-08-29T09:01:10Z</time>
      </trkpt>
      <trkpt lat="42.20659" lon="9.02564">
        <ele>2042.38</ele>
        <time>2018-08-29T09:01:11Z</time>
      </trkpt>
      <trkpt lat="42.20665" lon="9.02575">
        <ele>2041.43</ele>
        <time>2018-08-29T09:01:25Z</time>
      </trkpt>
      <trkpt lat="42.20668" lon="9.0258">
        <ele>2040.64</ele>
        <time>2018-08-29T09:01:36Z</time>
      </trkpt>
      <trkpt lat="42.20671" lon="9.02584">
        <ele>2040.62</ele>
        <time>2018-08-29T09:01:47Z</time>
      </trkpt>
      <trkpt lat="42.20675" lon="9.0259">
        <ele>2040.61</ele>
        <time>2018-08-29T09:01:59Z</time>
      </trkpt>
      <trkpt lat="42.2068" lon="9.02595">
        <ele>2040.61</ele>
        <time>2018-08-29T09:02:08Z</time>
      </trkpt>
      <trkpt lat="42.20686" lon="9.02603">
        <ele>2040.57</ele>
        <time>2018-08-29T09:02:20Z</time>
      </trkpt>
      <trkpt lat="42.20686" lon="9.02609">
        <ele>2042.99</ele>
        <time>2018-08-29T09:02:29Z</time>
      </trkpt>
      <trkpt lat="42.20686" lon="9.02618">
        <ele>2043.81</ele>
        <time>2018-08-29T09:02:43Z</time>
      </trkpt>
      <trkpt lat="42.20687" lon="9.02624">
        <ele>2043.76</ele>
        <time>2018-08-29T09:02:57Z</time>
      </trkpt>
      <trkpt lat="42.20688" lon="9.02628">
        <ele>2043.74</ele>
        <time>2018-08-29T09:03:03Z</time>
      </trkpt>
      <trkpt lat="42.20691" lon="9.02635">
        <ele>2043.75</ele>
        <time>2018-08-29T09:03:15Z</time>
      </trkpt>
      <trkpt lat="42.2069" lon="9.02638">
        <ele>2045.09</ele>
        <time>2018-08-29T09:03:21Z</time>
      </trkpt>
      <trkpt lat="42.2069" lon="9.02641">
        <ele>2046.6</ele>
        <time>2018-08-29T09:03:28Z</time>
      </trkpt>
      <trkpt lat="42.20695" lon="9.02648">
        <ele>2047.43</ele>
        <time>2018-08-29T09:03:42Z</time>
      </trkpt>
      <trkpt lat="42.207" lon="9.0265">
        <ele>2047.38</ele>
        <time>2018-08-29T09:03:55Z</time>
      </trkpt>
      <trkpt lat="42.20705" lon="9.02653">
        <ele>2047.34</ele>
        <time>2018-08-29T09:04:06Z</time>
      </trkpt>
      <trkpt lat="42.20705" lon="9.02659">
        <ele>2050.09</ele>
        <time>2018-08-29T09:04:19Z</time>
      </trkpt>
      <trkpt lat="42.20706" lon="9.02663">
        <ele>2049.98</ele>
        <time>2018-08-29T09:04:35Z</time>
      </trkpt>
      <trkpt lat="42.20706" lon="9.02661">
        <ele>2049.94</ele>
        <time>2018-08-29T09:04:52Z</time>
      </trkpt>
      <trkpt lat="42.20709" lon="9.02667">
        <ele>2049.9</ele>
        <time>2018-08-29T09:05:14Z</time>
      </trkpt>
      <trkpt lat="42.20711" lon="9.0267">
        <ele>2052.17</ele>
        <time>2018-08-29T09:05:24Z</time>
      </trkpt>
      <trkpt lat="42.20711" lon="9.02672">
        <ele>2053.4</ele>
        <time>2018-08-29T09:05:34Z</time>
      </trkpt>
      <trkpt lat="42.20711" lon="9.02673">
        <ele>2053.49</ele>
        <time>2018-08-29T09:05:37Z</time>
      </trkpt>
      <trkpt lat="42.20714" lon="9.02679">
        <ele>2054.22</ele>
        <time>2018-08-29T09:05:49Z</time>
      </trkpt>
      <trkpt lat="42.20714" lon="9.02681">
        <ele>2054.99</ele>
        <time>2018-08-29T09:06:08Z</time>
      </trkpt>
      <trkpt lat="42.20717" lon="9.02689">
        <ele>2056.71</ele>
        <time>2018-08-29T09:06:23Z</time>
      </trkpt>
      <trkpt lat="42.20721" lon="9.02693">
        <ele>2057.44</ele>
        <time>2018-08-29T09:06:31Z</time>
      </trkpt>
      <trkpt lat="42.20723" lon="9.027">
        <ele>2057.42</ele>
        <time>2018-08-29T09:06:38Z</time>
      </trkpt>
      <trkpt lat="42.2073" lon="9.02708">
        <ele>2057.34</ele>
        <time>2018-08-29T09:06:52Z</time>
      </trkpt>
      <trkpt lat="42.20731" lon="9.02715">
        <ele>2054.85</ele>
        <time>2018-08-29T09:07:03Z</time>
      </trkpt>
      <trkpt lat="42.20736" lon="9.02721">
        <ele>2053.02</ele>
        <time>2018-08-29T09:07:16Z</time>
      </trkpt>
      <trkpt lat="42.20738" lon="9.02728">
        <ele>2052.2</ele>
        <time>2018-08-29T09:07:26Z</time>
      </trkpt>
      <trkpt lat="42.20741" lon="9.02735">
        <ele>2052.27</ele>
        <time>2018-08-29T09:07:42Z</time>
      </trkpt>
      <trkpt lat="42.20742" lon="9.02737">
        <ele>2054.53</ele>
        <time>2018-08-29T09:07:47Z</time>
      </trkpt>
      <trkpt lat="42.20745" lon="9.0274">
        <ele>2056.08</ele>
        <time>2018-08-29T09:08:00Z</time>
      </trkpt>
      <trkpt lat="42.20748" lon="9.02746">
        <ele>2056.99</ele>
        <time>2018-08-29T09:08:15Z</time>
      </trkpt>
      <trkpt lat="42.2075" lon="9.02747">
        <ele>2057.75</ele>
        <time>2018-08-29T09:08:40Z</time>
      </trkpt>
      <trkpt lat="42.20754" lon="9.02752">
        <ele>2058.52</ele>
        <time>2018-08-29T09:08:53Z</time>
      </trkpt>
      <trkpt lat="42.20754" lon="9.02753">
        <ele>2058.47</ele>
        <time>2018-08-29T09:09:11Z</time>
      </trkpt>
      <trkpt lat="42.20758" lon="9.02755">
        <ele>2058.45</ele>
        <time>2018-08-29T09:09:31Z</time>
      </trkpt>
      <trkpt lat="42.20762" lon="9.02759">
        <ele>2059.4</ele>
        <time>2018-08-29T09:09:41Z</time>
      </trkpt>
      <trkpt lat="42.20763" lon="9.02761">
        <ele>2060.16</ele>
        <time>2018-08-29T09:09:54Z</time>
      </trkpt>
      <trkpt lat="42.20763" lon="9.02763">
        <ele>2060.17</ele>
        <time>2018-08-29T09:10:12Z</time>
      </trkpt>
      <trkpt lat="42.20763" lon="9.02763">
        <ele>2060.2</ele>
        <time>2018-08-29T09:10:28Z</time>
      </trkpt>
      <trkpt lat="42.20764" lon="9.02765">
        <ele>2057.93</ele>
        <time>2018-08-29T09:10:34Z</time>
      </trkpt>
      <trkpt lat="42.20765" lon="9.02766">
        <ele>2057.02</ele>
        <time>2018-08-29T09:10:45Z</time>
      </trkpt>
      <trkpt lat="42.20768" lon="9.02766">
        <ele>2055.53</ele>
        <time>2018-08-29T09:10:56Z</time>
      </trkpt>
      <trkpt lat="42.20775" lon="9.02766">
        <ele>2053.32</ele>
        <time>2018-08-29T09:11:09Z</time>
      </trkpt>
      <trkpt lat="42.20776" lon="9.02765">
        <ele>2053.32</ele>
        <time>2018-08-29T09:11:10Z</time>
      </trkpt>
      <trkpt lat="42.2078" lon="9.02765">
        <ele>2053.35</ele>
        <time>2018-08-29T09:11:19Z</time>
      </trkpt>
      <trkpt lat="42.20786" lon="9.02765">
        <ele>2052.45</ele>
        <time>2018-08-29T09:11:32Z</time>
      </trkpt>
      <trkpt lat="42.20793" lon="9.02769">
        <ele>2051.62</ele>
        <time>2018-08-29T09:11:46Z</time>
      </trkpt>
      <trkpt lat="42.20799" lon="9.02771">
        <ele>2050.91</ele>
        <time>2018-08-29T09:11:56Z</time>
      </trkpt>
      <trkpt lat="42.20802" lon="9.02775">
        <ele>2050.98</ele>
        <time>2018-08-29T09:12:08Z</time>
      </trkpt>
      <trkpt lat="42.20805" lon="9.02776">
        <ele>2051</ele>
        <time>2018-08-29T09:12:18Z</time>
      </trkpt>
      <trkpt lat="42.20805" lon="9.02778">
        <ele>2053.34</ele>
        <time>2018-08-29T09:12:23Z</time>
      </trkpt>
      <trkpt lat="42.20807" lon="9.02778">
        <ele>2054.1</ele>
        <time>2018-08-29T09:12:37Z</time>
      </trkpt>
      <trkpt lat="42.20808" lon="9.0278">
        <ele>2054.1</ele>
        <time>2018-08-29T09:12:41Z</time>
      </trkpt>
      <trkpt lat="42.20811" lon="9.02783">
        <ele>2054.13</ele>
        <time>2018-08-29T09:12:53Z</time>
      </trkpt>
      <trkpt lat="42.20813" lon="9.02785">
        <ele>2054.95</ele>
        <time>2018-08-29T09:13:04Z</time>
      </trkpt>
      <trkpt lat="42.20817" lon="9.02785">
        <ele>2054.98</ele>
        <time>2018-08-29T09:13:17Z</time>
      </trkpt>
      <trkpt lat="42.2082" lon="9.02785">
        <ele>2055.01</ele>
        <time>2018-08-29T09:13:32Z</time>
      </trkpt>
      <trkpt lat="42.20823" lon="9.02787">
        <ele>2055.02</ele>
        <time>2018-08-29T09:13:43Z</time>
      </trkpt>
      <trkpt lat="42.20825" lon="9.02789">
        <ele>2055.06</ele>
        <time>2018-08-29T09:13:54Z</time>
      </trkpt>
      <trkpt lat="42.20826" lon="9.02791">
        <ele>2055.1</ele>
        <time>2018-08-29T09:14:10Z</time>
      </trkpt>
      <trkpt lat="42.20829" lon="9.02791">
        <ele>2055.1</ele>
        <time>2018-08-29T09:14:21Z</time>
      </trkpt>
      <trkpt lat="42.20833" lon="9.02793">
        <ele>2055.15</ele>
        <time>2018-08-29T09:14:34Z</time>
      </trkpt>
      <trkpt lat="42.20834" lon="9.02795">
        <ele>2052.62</ele>
        <time>2018-08-29T09:14:37Z</time>
      </trkpt>
      <trkpt lat="42.20836" lon="9.02793">
        <ele>2051.9</ele>
        <time>2018-08-29T09:14:53Z</time>
      </trkpt>
      <trkpt lat="42.2084" lon="9.02797">
        <ele>2051.93</ele>
        <time>2018-08-29T09:15:05Z</time>
      </trkpt>
      <trkpt lat="42.20843" lon="9.02801">
        <ele>2051.97</ele>
        <time>2018-08-29T09:15:16Z</time>
      </trkpt>
      <trkpt lat="42.20846" lon="9.02801">
        <ele>2052.02</ele>
        <time>2018-08-29T09:15:27Z</time>
      </trkpt>
      <trkpt lat="42.20847" lon="9.02804">
        <ele>2052.04</ele>
        <time>2018-08-29T09:15:40Z</time>
      </trkpt>
      <trkpt lat="42.20851" lon="9.02807">
        <ele>2051.08</ele>
        <time>2018-08-29T09:15:53Z</time>
      </trkpt>
      <trkpt lat="42.20853" lon="9.02808">
        <ele>2050.22</ele>
        <time>2018-08-29T09:16:08Z</time>
      </trkpt>
      <trkpt lat="42.2086" lon="9.02809">
        <ele>2049.06</ele>
        <time>2018-08-29T09:16:24Z</time>
      </trkpt>
      <trkpt lat="42.20862" lon="9.028">
        <ele>2047.3</ele>
        <time>2018-08-29T09:16:40Z</time>
      </trkpt>
      <trkpt lat="42.20863" lon="9.028">
        <ele>2046.28</ele>
        <time>2018-08-29T09:17:03Z</time>
      </trkpt>
      <trkpt lat="42.20866" lon="9.02798">
        <ele>2044.34</ele>
        <time>2018-08-29T09:17:15Z</time>
      </trkpt>
      <trkpt lat="42.20869" lon="9.02798">
        <ele>2043.53</ele>
        <time>2018-08-29T09:17:29Z</time>
      </trkpt>
      <trkpt lat="42.2087" lon="9.02798">
        <ele>2042.72</ele>
        <time>2018-08-29T09:17:41Z</time>
      </trkpt>
      <trkpt lat="42.2087" lon="9.02796">
        <ele>2041.81</ele>
        <time>2018-08-29T09:18:24Z</time>
      </trkpt>
      <trkpt lat="42.20872" lon="9.02799">
        <ele>2041.89</ele>
        <time>2018-08-29T09:18:47Z</time>
      </trkpt>
      <trkpt lat="42.20877" lon="9.02806">
        <ele>2041.94</ele>
        <time>2018-08-29T09:19:02Z</time>
      </trkpt>
      <trkpt lat="42.20877" lon="9.02806">
        <ele>2038.78</ele>
        <time>2018-08-29T09:19:11Z</time>
      </trkpt>
      <trkpt lat="42.20877" lon="9.02806">
        <ele>2042.5</ele>
        <time>2018-08-29T09:19:12Z</time>
      </trkpt>
      <trkpt lat="42.20876" lon="9.02806">
        <ele>2043.65</ele>
        <time>2018-08-29T09:19:39Z</time>
      </trkpt>
      <trkpt lat="42.20877" lon="9.02804">
        <ele>2043.79</ele>
        <time>2018-08-29T09:20:13Z</time>
      </trkpt>
      <trkpt lat="42.20877" lon="9.02804">
        <ele>2043.93</ele>
        <time>2018-08-29T09:20:47Z</time>
      </trkpt>
      <trkpt lat="42.20876" lon="9.02805">
        <ele>2044.09</ele>
        <time>2018-08-29T09:21:22Z</time>
      </trkpt>
      <trkpt lat="42.20875" lon="9.02806">
        <ele>2044.23</ele>
        <time>2018-08-29T09:21:50Z</time>
      </trkpt>
      <trkpt lat="42.20876" lon="9.02806">
        <ele>2044.36</ele>
        <time>2018-08-29T09:22:18Z</time>
      </trkpt>
      <trkpt lat="42.20877" lon="9.02806">
        <ele>2042.75</ele>
        <time>2018-08-29T09:22:34Z</time>
      </trkpt>
      <trkpt lat="42.20877" lon="9.02807">
        <ele>2042.84</ele>
        <time>2018-08-29T09:22:53Z</time>
      </trkpt>
      <trkpt lat="42.20876" lon="9.02807">
        <ele>2042.93</ele>
        <time>2018-08-29T09:23:16Z</time>
      </trkpt>
      <trkpt lat="42.20876" lon="9.02807">
        <ele>2043</ele>
        <time>2018-08-29T09:23:35Z</time>
      </trkpt>
      <trkpt lat="42.20877" lon="9.02809">
        <ele>2045.63</ele>
        <time>2018-08-29T09:23:40Z</time>
      </trkpt>
      <trkpt lat="42.20882" lon="9.0281">
        <ele>2045.7</ele>
        <time>2018-08-29T09:23:58Z</time>
      </trkpt>
      <trkpt lat="42.20887" lon="9.02813">
        <ele>2045.73</ele>
        <time>2018-08-29T09:24:11Z</time>
      </trkpt>
      <trkpt lat="42.20888" lon="9.02813">
        <ele>2045.74</ele>
        <time>2018-08-29T09:24:12Z</time>
      </trkpt>
      <trkpt lat="42.20892" lon="9.02815">
        <ele>2045.79</ele>
        <time>2018-08-29T09:24:24Z</time>
      </trkpt>
      <trkpt lat="42.20891" lon="9.02818">
        <ele>2047.44</ele>
        <time>2018-08-29T09:24:39Z</time>
      </trkpt>
      <trkpt lat="42.20895" lon="9.02821">
        <ele>2048.42</ele>
        <time>2018-08-29T09:24:55Z</time>
      </trkpt>
      <trkpt lat="42.20897" lon="9.02823">
        <ele>2050.28</ele>
        <time>2018-08-29T09:25:06Z</time>
      </trkpt>
      <trkpt lat="42.20899" lon="9.02825">
        <ele>2051.13</ele>
        <time>2018-08-29T09:25:22Z</time>
      </trkpt>
      <trkpt lat="42.20904" lon="9.02826">
        <ele>2053.06</ele>
        <time>2018-08-29T09:25:36Z</time>
      </trkpt>
      <trkpt lat="42.20908" lon="9.02829">
        <ele>2053.13</ele>
        <time>2018-08-29T09:25:50Z</time>
      </trkpt>
      <trkpt lat="42.20913" lon="9.02833">
        <ele>2054.93</ele>
        <time>2018-08-29T09:26:03Z</time>
      </trkpt>
      <trkpt lat="42.20919" lon="9.02839">
        <ele>2056.85</ele>
        <time>2018-08-29T09:26:19Z</time>
      </trkpt>
      <trkpt lat="42.2092" lon="9.02842">
        <ele>2057.8</ele>
        <time>2018-08-29T09:26:33Z</time>
      </trkpt>
      <trkpt lat="42.20926" lon="9.02844">
        <ele>2057.7</ele>
        <time>2018-08-29T09:26:45Z</time>
      </trkpt>
      <trkpt lat="42.20929" lon="9.02847">
        <ele>2057.73</ele>
        <time>2018-08-29T09:26:57Z</time>
      </trkpt>
      <trkpt lat="42.20933" lon="9.02849">
        <ele>2058.89</ele>
        <time>2018-08-29T09:27:10Z</time>
      </trkpt>
      <trkpt lat="42.2093" lon="9.02852">
        <ele>2060.74</ele>
        <time>2018-08-29T09:27:23Z</time>
      </trkpt>
      <trkpt lat="42.20925" lon="9.02855">
        <ele>2063.3</ele>
        <time>2018-08-29T09:27:39Z</time>
      </trkpt>
      <trkpt lat="42.20928" lon="9.02857">
        <ele>2063.27</ele>
        <time>2018-08-29T09:27:55Z</time>
      </trkpt>
      <trkpt lat="42.20927" lon="9.02858">
        <ele>2065.14</ele>
        <time>2018-08-29T09:28:07Z</time>
      </trkpt>
      <trkpt lat="42.20927" lon="9.02862">
        <ele>2066.06</ele>
        <time>2018-08-29T09:28:21Z</time>
      </trkpt>
      <trkpt lat="42.20931" lon="9.02866">
        <ele>2068.01</ele>
        <time>2018-08-29T09:28:35Z</time>
      </trkpt>
      <trkpt lat="42.20931" lon="9.02868">
        <ele>2068.91</ele>
        <time>2018-08-29T09:28:48Z</time>
      </trkpt>
      <trkpt lat="42.20928" lon="9.0287">
        <ele>2071.76</ele>
        <time>2018-08-29T09:29:05Z</time>
      </trkpt>
      <trkpt lat="42.20928" lon="9.02871">
        <ele>2073.46</ele>
        <time>2018-08-29T09:29:10Z</time>
      </trkpt>
      <trkpt lat="42.20925" lon="9.02873">
        <ele>2075.29</ele>
        <time>2018-08-29T09:29:25Z</time>
      </trkpt>
      <trkpt lat="42.20922" lon="9.02874">
        <ele>2075.34</ele>
        <time>2018-08-29T09:29:39Z</time>
      </trkpt>
      <trkpt lat="42.2092" lon="9.02874">
        <ele>2075.34</ele>
        <time>2018-08-29T09:29:56Z</time>
      </trkpt>
      <trkpt lat="42.20915" lon="9.02876">
        <ele>2077.34</ele>
        <time>2018-08-29T09:30:11Z</time>
      </trkpt>
      <trkpt lat="42.20917" lon="9.0288">
        <ele>2079.82</ele>
        <time>2018-08-29T09:30:25Z</time>
      </trkpt>
      <trkpt lat="42.20916" lon="9.02882">
        <ele>2080.76</ele>
        <time>2018-08-29T09:30:38Z</time>
      </trkpt>
      <trkpt lat="42.20914" lon="9.02882">
        <ele>2082.93</ele>
        <time>2018-08-29T09:30:52Z</time>
      </trkpt>
      <trkpt lat="42.20908" lon="9.02882">
        <ele>2084.78</ele>
        <time>2018-08-29T09:31:08Z</time>
      </trkpt>
      <trkpt lat="42.20906" lon="9.02882">
        <ele>2086.04</ele>
        <time>2018-08-29T09:31:13Z</time>
      </trkpt>
      <trkpt lat="42.20903" lon="9.02887">
        <ele>2087.85</ele>
        <time>2018-08-29T09:31:28Z</time>
      </trkpt>
      <trkpt lat="42.20905" lon="9.02891">
        <ele>2089.67</ele>
        <time>2018-08-29T09:31:41Z</time>
      </trkpt>
      <trkpt lat="42.20908" lon="9.02894">
        <ele>2090.4</ele>
        <time>2018-08-29T09:31:56Z</time>
      </trkpt>
      <trkpt lat="42.20912" lon="9.02897">
        <ele>2092.53</ele>
        <time>2018-08-29T09:32:09Z</time>
      </trkpt>
      <trkpt lat="42.20912" lon="9.029">
        <ele>2094.3</ele>
        <time>2018-08-29T09:32:23Z</time>
      </trkpt>
      <trkpt lat="42.2091" lon="9.02903">
        <ele>2095.29</ele>
        <time>2018-08-29T09:32:33Z</time>
      </trkpt>
      <trkpt lat="42.20914" lon="9.02906">
        <ele>2096.42</ele>
        <time>2018-08-29T09:32:47Z</time>
      </trkpt>
      <trkpt lat="42.20915" lon="9.02907">
        <ele>2097.33</ele>
        <time>2018-08-29T09:33:00Z</time>
      </trkpt>
      <trkpt lat="42.20918" lon="9.02909">
        <ele>2099.97</ele>
        <time>2018-08-29T09:33:14Z</time>
      </trkpt>
      <trkpt lat="42.20919" lon="9.02911">
        <ele>2101.03</ele>
        <time>2018-08-29T09:33:27Z</time>
      </trkpt>
      <trkpt lat="42.20915" lon="9.02912">
        <ele>2101.97</ele>
        <time>2018-08-29T09:33:43Z</time>
      </trkpt>
      <trkpt lat="42.20913" lon="9.02916">
        <ele>2103.69</ele>
        <time>2018-08-29T09:33:57Z</time>
      </trkpt>
      <trkpt lat="42.20913" lon="9.02918">
        <ele>2104.99</ele>
        <time>2018-08-29T09:34:05Z</time>
      </trkpt>
      <trkpt lat="42.20916" lon="9.02919">
        <ele>2105.86</ele>
        <time>2018-08-29T09:34:23Z</time>
      </trkpt>
      <trkpt lat="42.20914" lon="9.02922">
        <ele>2107.72</ele>
        <time>2018-08-29T09:34:36Z</time>
      </trkpt>
      <trkpt lat="42.20912" lon="9.02926">
        <ele>2109.7</ele>
        <time>2018-08-29T09:34:49Z</time>
      </trkpt>
      <trkpt lat="42.20911" lon="9.0293">
        <ele>2111.6</ele>
        <time>2018-08-29T09:35:06Z</time>
      </trkpt>
      <trkpt lat="42.20912" lon="9.02933">
        <ele>2112.67</ele>
        <time>2018-08-29T09:35:18Z</time>
      </trkpt>
      <trkpt lat="42.20915" lon="9.02934">
        <ele>2113.93</ele>
        <time>2018-08-29T09:35:26Z</time>
      </trkpt>
      <trkpt lat="42.20914" lon="9.02935">
        <ele>2114.79</ele>
        <time>2018-08-29T09:35:39Z</time>
      </trkpt>
      <trkpt lat="42.20912" lon="9.02938">
        <ele>2116.77</ele>
        <time>2018-08-29T09:35:52Z</time>
      </trkpt>
      <trkpt lat="42.20911" lon="9.02941">
        <ele>2117.6</ele>
        <time>2018-08-29T09:36:08Z</time>
      </trkpt>
      <trkpt lat="42.20909" lon="9.02941">
        <ele>2119.43</ele>
        <time>2018-08-29T09:36:20Z</time>
      </trkpt>
      <trkpt lat="42.20908" lon="9.02945">
        <ele>2121.3</ele>
        <time>2018-08-29T09:36:32Z</time>
      </trkpt>
      <trkpt lat="42.20907" lon="9.02947">
        <ele>2123.19</ele>
        <time>2018-08-29T09:36:43Z</time>
      </trkpt>
      <trkpt lat="42.20905" lon="9.02948">
        <ele>2124.14</ele>
        <time>2018-08-29T09:36:54Z</time>
      </trkpt>
      <trkpt lat="42.20901" lon="9.0295">
        <ele>2125.94</ele>
        <time>2018-08-29T09:37:09Z</time>
      </trkpt>
      <trkpt lat="42.20897" lon="9.02952">
        <ele>2126.8</ele>
        <time>2018-08-29T09:37:22Z</time>
      </trkpt>
      <trkpt lat="42.20893" lon="9.02955">
        <ele>2128.68</ele>
        <time>2018-08-29T09:37:38Z</time>
      </trkpt>
      <trkpt lat="42.20887" lon="9.02956">
        <ele>2131.33</ele>
        <time>2018-08-29T09:37:55Z</time>
      </trkpt>
      <trkpt lat="42.20887" lon="9.02961">
        <ele>2133.11</ele>
        <time>2018-08-29T09:38:10Z</time>
      </trkpt>
      <trkpt lat="42.20885" lon="9.0296">
        <ele>2134.92</ele>
        <time>2018-08-29T09:38:25Z</time>
      </trkpt>
      <trkpt lat="42.20884" lon="9.02964">
        <ele>2135.77</ele>
        <time>2018-08-29T09:38:37Z</time>
      </trkpt>
      <trkpt lat="42.20882" lon="9.02969">
        <ele>2138.12</ele>
        <time>2018-08-29T09:38:51Z</time>
      </trkpt>
      <trkpt lat="42.20879" lon="9.02974">
        <ele>2139.84</ele>
        <time>2018-08-29T09:39:06Z</time>
      </trkpt>
      <trkpt lat="42.20879" lon="9.02978">
        <ele>2140.87</ele>
        <time>2018-08-29T09:39:20Z</time>
      </trkpt>
      <trkpt lat="42.20878" lon="9.0298">
        <ele>2142.18</ele>
        <time>2018-08-29T09:39:28Z</time>
      </trkpt>
      <trkpt lat="42.20871" lon="9.02985">
        <ele>2142.17</ele>
        <time>2018-08-29T09:39:41Z</time>
      </trkpt>
      <trkpt lat="42.20866" lon="9.02992">
        <ele>2143.29</ele>
        <time>2018-08-29T09:39:54Z</time>
      </trkpt>
      <trkpt lat="42.20862" lon="9.02995">
        <ele>2144.05</ele>
        <time>2018-08-29T09:40:05Z</time>
      </trkpt>
      <trkpt lat="42.20857" lon="9.02997">
        <ele>2144.1</ele>
        <time>2018-08-29T09:40:17Z</time>
      </trkpt>
      <trkpt lat="42.20857" lon="9.02997">
        <ele>2145.01</ele>
        <time>2018-08-29T09:40:35Z</time>
      </trkpt>
      <trkpt lat="42.20854" lon="9.02999">
        <ele>2145.09</ele>
        <time>2018-08-29T09:40:49Z</time>
      </trkpt>
      <trkpt lat="42.20851" lon="9.03002">
        <ele>2146.1</ele>
        <time>2018-08-29T09:41:19Z</time>
      </trkpt>
      <trkpt lat="42.20843" lon="9.0301">
        <ele>2148.89</ele>
        <time>2018-08-29T09:41:33Z</time>
      </trkpt>
      <trkpt lat="42.2084" lon="9.03016">
        <ele>2149.87</ele>
        <time>2018-08-29T09:41:47Z</time>
      </trkpt>
      <trkpt lat="42.20839" lon="9.03017">
        <ele>2149.93</ele>
        <time>2018-08-29T09:42:01Z</time>
      </trkpt>
      <trkpt lat="42.20839" lon="9.03016">
        <ele>2150.05</ele>
        <time>2018-08-29T09:42:32Z</time>
      </trkpt>
      <trkpt lat="42.20838" lon="9.03016">
        <ele>2150.17</ele>
        <time>2018-08-29T09:42:51Z</time>
      </trkpt>
      <trkpt lat="42.20833" lon="9.03013">
        <ele>2147.98</ele>
        <time>2018-08-29T09:43:06Z</time>
      </trkpt>
      <trkpt lat="42.20828" lon="9.03012">
        <ele>2146.14</ele>
        <time>2018-08-29T09:43:15Z</time>
      </trkpt>
      <trkpt lat="42.20829" lon="9.03011">
        <ele>2146.21</ele>
        <time>2018-08-29T09:43:30Z</time>
      </trkpt>
      <trkpt lat="42.20834" lon="9.03012">
        <ele>2146.26</ele>
        <time>2018-08-29T09:43:45Z</time>
      </trkpt>
      <trkpt lat="42.20835" lon="9.03014">
        <ele>2148.81</ele>
        <time>2018-08-29T09:43:49Z</time>
      </trkpt>
      <trkpt lat="42.20837" lon="9.03023">
        <ele>2149.87</ele>
        <time>2018-08-29T09:44:04Z</time>
      </trkpt>
      <trkpt lat="42.20835" lon="9.03027">
        <ele>2149.85</ele>
        <time>2018-08-29T09:44:08Z</time>
      </trkpt>
      <trkpt lat="42.20835" lon="9.03038">
        <ele>2149.91</ele>
        <time>2018-08-29T09:44:21Z</time>
      </trkpt>
      <trkpt lat="42.20834" lon="9.03049">
        <ele>2149.95</ele>
        <time>2018-08-29T09:44:33Z</time>
      </trkpt>
      <trkpt lat="42.20828" lon="9.03061">
        <ele>2150.02</ele>
        <time>2018-08-29T09:44:46Z</time>
      </trkpt>
      <trkpt lat="42.20823" lon="9.03074">
        <ele>2150.92</ele>
        <time>2018-08-29T09:45:01Z</time>
      </trkpt>
      <trkpt lat="42.20821" lon="9.03082">
        <ele>2153.01</ele>
        <time>2018-08-29T09:45:16Z</time>
      </trkpt>
      <trkpt lat="42.20825" lon="9.03091">
        <ele>2153.03</ele>
        <time>2018-08-29T09:45:28Z</time>
      </trkpt>
      <trkpt lat="42.20825" lon="9.0311">
        <ele>2153.14</ele>
        <time>2018-08-29T09:45:45Z</time>
      </trkpt>
      <trkpt lat="42.20825" lon="9.03114">
        <ele>2153.2</ele>
        <time>2018-08-29T09:46:00Z</time>
      </trkpt>
      <trkpt lat="42.20826" lon="9.03115">
        <ele>2153.34</ele>
        <time>2018-08-29T09:46:24Z</time>
      </trkpt>
      <trkpt lat="42.20826" lon="9.03121">
        <ele>2153.5</ele>
        <time>2018-08-29T09:46:48Z</time>
      </trkpt>
      <trkpt lat="42.20823" lon="9.03127">
        <ele>2155.11</ele>
        <time>2018-08-29T09:47:02Z</time>
      </trkpt>
      <trkpt lat="42.20823" lon="9.03132">
        <ele>2155.19</ele>
        <time>2018-08-29T09:47:13Z</time>
      </trkpt>
      <trkpt lat="42.20822" lon="9.03137">
        <ele>2156.97</ele>
        <time>2018-08-29T09:47:25Z</time>
      </trkpt>
      <trkpt lat="42.20824" lon="9.03145">
        <ele>2157.97</ele>
        <time>2018-08-29T09:47:37Z</time>
      </trkpt>
      <trkpt lat="42.20823" lon="9.03153">
        <ele>2160.77</ele>
        <time>2018-08-29T09:47:50Z</time>
      </trkpt>
      <trkpt lat="42.20819" lon="9.03158">
        <ele>2161.69</ele>
        <time>2018-08-29T09:48:02Z</time>
      </trkpt>
      <trkpt lat="42.20818" lon="9.03167">
        <ele>2162.78</ele>
        <time>2018-08-29T09:48:16Z</time>
      </trkpt>
      <trkpt lat="42.2082" lon="9.03176">
        <ele>2163.7</ele>
        <time>2018-08-29T09:48:31Z</time>
      </trkpt>
      <trkpt lat="42.2082" lon="9.03176">
        <ele>2163.7</ele>
        <time>2018-08-29T09:48:42Z</time>
      </trkpt>
      <trkpt lat="42.20821" lon="9.03177">
        <ele>2163.71</ele>
        <time>2018-08-29T09:48:44Z</time>
      </trkpt>
      <trkpt lat="42.20824" lon="9.03187">
        <ele>2163.75</ele>
        <time>2018-08-29T09:48:56Z</time>
      </trkpt>
      <trkpt lat="42.20827" lon="9.03195">
        <ele>2164.65</ele>
        <time>2018-08-29T09:49:09Z</time>
      </trkpt>
      <trkpt lat="42.20826" lon="9.03195">
        <ele>2165.48</ele>
        <time>2018-08-29T09:49:38Z</time>
      </trkpt>
      <trkpt lat="42.20823" lon="9.03196">
        <ele>2165.55</ele>
        <time>2018-08-29T09:50:00Z</time>
      </trkpt>
      <trkpt lat="42.20822" lon="9.03199">
        <ele>2165.6</ele>
        <time>2018-08-29T09:50:17Z</time>
      </trkpt>
      <trkpt lat="42.20817" lon="9.03207">
        <ele>2167.41</ele>
        <time>2018-08-29T09:50:37Z</time>
      </trkpt>
      <trkpt lat="42.20815" lon="9.03221">
        <ele>2167.44</ele>
        <time>2018-08-29T09:50:52Z</time>
      </trkpt>
      <trkpt lat="42.20812" lon="9.03231">
        <ele>2167.48</ele>
        <time>2018-08-29T09:51:02Z</time>
      </trkpt>
      <trkpt lat="42.2081" lon="9.03245">
        <ele>2167.5</ele>
        <time>2018-08-29T09:51:16Z</time>
      </trkpt>
      <trkpt lat="42.20809" lon="9.03258">
        <ele>2168.39</ele>
        <time>2018-08-29T09:51:29Z</time>
      </trkpt>
      <trkpt lat="42.20803" lon="9.0327">
        <ele>2169.33</ele>
        <time>2018-08-29T09:51:44Z</time>
      </trkpt>
      <trkpt lat="42.20801" lon="9.03275">
        <ele>2169.4</ele>
        <time>2018-08-29T09:52:00Z</time>
      </trkpt>
      <trkpt lat="42.20798" lon="9.03282">
        <ele>2171.09</ele>
        <time>2018-08-29T09:52:15Z</time>
      </trkpt>
      <trkpt lat="42.20799" lon="9.03293">
        <ele>2171.09</ele>
        <time>2018-08-29T09:52:31Z</time>
      </trkpt>
      <trkpt lat="42.20799" lon="9.03296">
        <ele>2168.75</ele>
        <time>2018-08-29T09:52:35Z</time>
      </trkpt>
      <trkpt lat="42.20801" lon="9.033">
        <ele>2168.78</ele>
        <time>2018-08-29T09:52:40Z</time>
      </trkpt>
      <trkpt lat="42.20802" lon="9.03308">
        <ele>2167.93</ele>
        <time>2018-08-29T09:52:51Z</time>
      </trkpt>
      <trkpt lat="42.20804" lon="9.03312">
        <ele>2167</ele>
        <time>2018-08-29T09:53:05Z</time>
      </trkpt>
      <trkpt lat="42.20806" lon="9.03318">
        <ele>2166.27</ele>
        <time>2018-08-29T09:53:20Z</time>
      </trkpt>
      <trkpt lat="42.20807" lon="9.03328">
        <ele>2165.43</ele>
        <time>2018-08-29T09:53:36Z</time>
      </trkpt>
      <trkpt lat="42.20806" lon="9.03336">
        <ele>2165.47</ele>
        <time>2018-08-29T09:53:48Z</time>
      </trkpt>
      <trkpt lat="42.20805" lon="9.03341">
        <ele>2164.27</ele>
        <time>2018-08-29T09:54:01Z</time>
      </trkpt>
      <trkpt lat="42.20804" lon="9.03345">
        <ele>2164.28</ele>
        <time>2018-08-29T09:54:07Z</time>
      </trkpt>
      <trkpt lat="42.20802" lon="9.03353">
        <ele>2163.43</ele>
        <time>2018-08-29T09:54:19Z</time>
      </trkpt>
      <trkpt lat="42.20801" lon="9.0336">
        <ele>2165.71</ele>
        <time>2018-08-29T09:54:36Z</time>
      </trkpt>
      <trkpt lat="42.20801" lon="9.0336">
        <ele>2165.72</ele>
        <time>2018-08-29T09:54:37Z</time>
      </trkpt>
      <trkpt lat="42.20798" lon="9.03369">
        <ele>2165.77</ele>
        <time>2018-08-29T09:54:50Z</time>
      </trkpt>
      <trkpt lat="42.20796" lon="9.03378">
        <ele>2166.91</ele>
        <time>2018-08-29T09:55:02Z</time>
      </trkpt>
      <trkpt lat="42.20794" lon="9.03388">
        <ele>2166.94</ele>
        <time>2018-08-29T09:55:16Z</time>
      </trkpt>
      <trkpt lat="42.20793" lon="9.03395">
        <ele>2166.98</ele>
        <time>2018-08-29T09:55:30Z</time>
      </trkpt>
      <trkpt lat="42.20794" lon="9.03404">
        <ele>2166.98</ele>
        <time>2018-08-29T09:55:43Z</time>
      </trkpt>
      <trkpt lat="42.20792" lon="9.03413">
        <ele>2167.04</ele>
        <time>2018-08-29T09:55:57Z</time>
      </trkpt>
      <trkpt lat="42.20789" lon="9.03422">
        <ele>2167.05</ele>
        <time>2018-08-29T09:56:12Z</time>
      </trkpt>
      <trkpt lat="42.20784" lon="9.03432">
        <ele>2167.84</ele>
        <time>2018-08-29T09:56:25Z</time>
      </trkpt>
      <trkpt lat="42.20781" lon="9.03439">
        <ele>2168.76</ele>
        <time>2018-08-29T09:56:39Z</time>
      </trkpt>
      <trkpt lat="42.20779" lon="9.03444">
        <ele>2170.39</ele>
        <time>2018-08-29T09:56:51Z</time>
      </trkpt>
      <trkpt lat="42.2078" lon="9.03449">
        <ele>2171.17</ele>
        <time>2018-08-29T09:57:05Z</time>
      </trkpt>
      <trkpt lat="42.20783" lon="9.03452">
        <ele>2171.32</ele>
        <time>2018-08-29T09:57:16Z</time>
      </trkpt>
      <trkpt lat="42.20783" lon="9.03456">
        <ele>2171.2</ele>
        <time>2018-08-29T09:57:30Z</time>
      </trkpt>
      <trkpt lat="42.20788" lon="9.03464">
        <ele>2171.23</ele>
        <time>2018-08-29T09:57:45Z</time>
      </trkpt>
      <trkpt lat="42.20789" lon="9.03475">
        <ele>2171.26</ele>
        <time>2018-08-29T09:57:59Z</time>
      </trkpt>
      <trkpt lat="42.20788" lon="9.03481">
        <ele>2171.29</ele>
        <time>2018-08-29T09:58:08Z</time>
      </trkpt>
      <trkpt lat="42.20789" lon="9.03487">
        <ele>2171.29</ele>
        <time>2018-08-29T09:58:22Z</time>
      </trkpt>
      <trkpt lat="42.2079" lon="9.03494">
        <ele>2171.29</ele>
        <time>2018-08-29T09:58:34Z</time>
      </trkpt>
      <trkpt lat="42.20788" lon="9.03502">
        <ele>2171.32</ele>
        <time>2018-08-29T09:58:45Z</time>
      </trkpt>
      <trkpt lat="42.20788" lon="9.03511">
        <ele>2171.34</ele>
        <time>2018-08-29T09:58:59Z</time>
      </trkpt>
      <trkpt lat="42.20786" lon="9.03522">
        <ele>2171.36</ele>
        <time>2018-08-29T09:59:14Z</time>
      </trkpt>
      <trkpt lat="42.20786" lon="9.03527">
        <ele>2171.37</ele>
        <time>2018-08-29T09:59:34Z</time>
      </trkpt>
      <trkpt lat="42.20786" lon="9.03538">
        <ele>2172.13</ele>
        <time>2018-08-29T09:59:45Z</time>
      </trkpt>
      <trkpt lat="42.20786" lon="9.03548">
        <ele>2173.03</ele>
        <time>2018-08-29T09:59:57Z</time>
      </trkpt>
      <trkpt lat="42.20785" lon="9.03557">
        <ele>2174.34</ele>
        <time>2018-08-29T10:00:08Z</time>
      </trkpt>
      <trkpt lat="42.20783" lon="9.03564">
        <ele>2175.11</ele>
        <time>2018-08-29T10:00:21Z</time>
      </trkpt>
      <trkpt lat="42.20783" lon="9.03567">
        <ele>2176.88</ele>
        <time>2018-08-29T10:00:39Z</time>
      </trkpt>
      <trkpt lat="42.20781" lon="9.03574">
        <ele>2179.25</ele>
        <time>2018-08-29T10:00:57Z</time>
      </trkpt>
      <trkpt lat="42.20781" lon="9.03579">
        <ele>2180.13</ele>
        <time>2018-08-29T10:01:09Z</time>
      </trkpt>
      <trkpt lat="42.20781" lon="9.03584">
        <ele>2181.27</ele>
        <time>2018-08-29T10:01:23Z</time>
      </trkpt>
      <trkpt lat="42.20779" lon="9.03587">
        <ele>2184.13</ele>
        <time>2018-08-29T10:01:35Z</time>
      </trkpt>
      <trkpt lat="42.20776" lon="9.03591">
        <ele>2186.07</ele>
        <time>2018-08-29T10:01:50Z</time>
      </trkpt>
      <trkpt lat="42.20773" lon="9.03593">
        <ele>2186.92</ele>
        <time>2018-08-29T10:02:04Z</time>
      </trkpt>
      <trkpt lat="42.2077" lon="9.03596">
        <ele>2188.93</ele>
        <time>2018-08-29T10:02:16Z</time>
      </trkpt>
      <trkpt lat="42.20768" lon="9.03599">
        <ele>2190.79</ele>
        <time>2018-08-29T10:02:29Z</time>
      </trkpt>
      <trkpt lat="42.20766" lon="9.03604">
        <ele>2191.62</ele>
        <time>2018-08-29T10:02:42Z</time>
      </trkpt>
      <trkpt lat="42.20757" lon="9.03615">
        <ele>2193.69</ele>
        <time>2018-08-29T10:03:00Z</time>
      </trkpt>
      <trkpt lat="42.20751" lon="9.03629">
        <ele>2193.61</ele>
        <time>2018-08-29T10:03:15Z</time>
      </trkpt>
      <trkpt lat="42.20745" lon="9.03641">
        <ele>2193.6</ele>
        <time>2018-08-29T10:03:31Z</time>
      </trkpt>
      <trkpt lat="42.20741" lon="9.03649">
        <ele>2191.25</ele>
        <time>2018-08-29T10:03:43Z</time>
      </trkpt>
      <trkpt lat="42.2074" lon="9.03652">
        <ele>2191.41</ele>
        <time>2018-08-29T10:04:01Z</time>
      </trkpt>
      <trkpt lat="42.20734" lon="9.03661">
        <ele>2191.57</ele>
        <time>2018-08-29T10:04:16Z</time>
      </trkpt>
      <trkpt lat="42.20729" lon="9.0367">
        <ele>2191.48</ele>
        <time>2018-08-29T10:04:30Z</time>
      </trkpt>
      <trkpt lat="42.20727" lon="9.03673">
        <ele>2194.05</ele>
        <time>2018-08-29T10:04:34Z</time>
      </trkpt>
      <trkpt lat="42.20721" lon="9.03684">
        <ele>2194.18</ele>
        <time>2018-08-29T10:04:49Z</time>
      </trkpt>
      <trkpt lat="42.20715" lon="9.03696">
        <ele>2195.99</ele>
        <time>2018-08-29T10:05:05Z</time>
      </trkpt>
      <trkpt lat="42.20707" lon="9.03706">
        <ele>2195.96</ele>
        <time>2018-08-29T10:05:21Z</time>
      </trkpt>
      <trkpt lat="42.20703" lon="9.03713">
        <ele>2197.93</ele>
        <time>2018-08-29T10:05:36Z</time>
      </trkpt>
      <trkpt lat="42.20701" lon="9.03723">
        <ele>2198.85</ele>
        <time>2018-08-29T10:05:49Z</time>
      </trkpt>
      <trkpt lat="42.20696" lon="9.03735">
        <ele>2199.96</ele>
        <time>2018-08-29T10:06:05Z</time>
      </trkpt>
      <trkpt lat="42.20691" lon="9.03743">
        <ele>2200.84</ele>
        <time>2018-08-29T10:06:19Z</time>
      </trkpt>
      <trkpt lat="42.20685" lon="9.03749">
        <ele>2202.36</ele>
        <time>2018-08-29T10:06:38Z</time>
      </trkpt>
      <trkpt lat="42.20681" lon="9.03751">
        <ele>2203.26</ele>
        <time>2018-08-29T10:06:51Z</time>
      </trkpt>
      <trkpt lat="42.20678" lon="9.03753">
        <ele>2205.25</ele>
        <time>2018-08-29T10:07:16Z</time>
      </trkpt>
      <trkpt lat="42.20675" lon="9.03758">
        <ele>2205.14</ele>
        <time>2018-08-29T10:07:30Z</time>
      </trkpt>
      <trkpt lat="42.20674" lon="9.03758">
        <ele>2206.16</ele>
        <time>2018-08-29T10:07:42Z</time>
      </trkpt>
      <trkpt lat="42.20676" lon="9.03756">
        <ele>2206.19</ele>
        <time>2018-08-29T10:08:05Z</time>
      </trkpt>
      <trkpt lat="42.20676" lon="9.0376">
        <ele>2206.17</ele>
        <time>2018-08-29T10:08:09Z</time>
      </trkpt>
      <trkpt lat="42.20676" lon="9.03765">
        <ele>2203.88</ele>
        <time>2018-08-29T10:08:14Z</time>
      </trkpt>
      <trkpt lat="42.20674" lon="9.03775">
        <ele>2203.08</ele>
        <time>2018-08-29T10:08:29Z</time>
      </trkpt>
      <trkpt lat="42.20676" lon="9.03782">
        <ele>2202.21</ele>
        <time>2018-08-29T10:08:43Z</time>
      </trkpt>
      <trkpt lat="42.20675" lon="9.0379">
        <ele>2202.3</ele>
        <time>2018-08-29T10:09:16Z</time>
      </trkpt>
      <trkpt lat="42.20673" lon="9.03796">
        <ele>2201.3</ele>
        <time>2018-08-29T10:09:29Z</time>
      </trkpt>
      <trkpt lat="42.20671" lon="9.03797">
        <ele>2200.44</ele>
        <time>2018-08-29T10:09:42Z</time>
      </trkpt>
      <trkpt lat="42.20671" lon="9.03798">
        <ele>2199.15</ele>
        <time>2018-08-29T10:09:45Z</time>
      </trkpt>
      <trkpt lat="42.20669" lon="9.038">
        <ele>2198.19</ele>
        <time>2018-08-29T10:09:52Z</time>
      </trkpt>
      <trkpt lat="42.20666" lon="9.0381">
        <ele>2197.35</ele>
        <time>2018-08-29T10:10:06Z</time>
      </trkpt>
      <trkpt lat="42.20662" lon="9.03816">
        <ele>2195.75</ele>
        <time>2018-08-29T10:10:17Z</time>
      </trkpt>
      <trkpt lat="42.20661" lon="9.03819">
        <ele>2195.11</ele>
        <time>2018-08-29T10:10:30Z</time>
      </trkpt>
      <trkpt lat="42.2066" lon="9.03821">
        <ele>2194.26</ele>
        <time>2018-08-29T10:10:43Z</time>
      </trkpt>
      <trkpt lat="42.20661" lon="9.03823">
        <ele>2193.39</ele>
        <time>2018-08-29T10:10:57Z</time>
      </trkpt>
      <trkpt lat="42.20661" lon="9.03822">
        <ele>2192.39</ele>
        <time>2018-08-29T10:11:18Z</time>
      </trkpt>
      <trkpt lat="42.2066" lon="9.03823">
        <ele>2191.64</ele>
        <time>2018-08-29T10:11:34Z</time>
      </trkpt>
      <trkpt lat="42.20658" lon="9.03827">
        <ele>2190.91</ele>
        <time>2018-08-29T10:11:48Z</time>
      </trkpt>
      <trkpt lat="42.20656" lon="9.03826">
        <ele>2189.48</ele>
        <time>2018-08-29T10:11:54Z</time>
      </trkpt>
      <trkpt lat="42.20653" lon="9.03832">
        <ele>2188.52</ele>
        <time>2018-08-29T10:12:05Z</time>
      </trkpt>
      <trkpt lat="42.20653" lon="9.03836">
        <ele>2187.58</ele>
        <time>2018-08-29T10:12:09Z</time>
      </trkpt>
      <trkpt lat="42.20651" lon="9.03845">
        <ele>2186.57</ele>
        <time>2018-08-29T10:12:23Z</time>
      </trkpt>
      <trkpt lat="42.2065" lon="9.03847">
        <ele>2185.8</ele>
        <time>2018-08-29T10:12:35Z</time>
      </trkpt>
      <trkpt lat="42.20647" lon="9.0385">
        <ele>2183.95</ele>
        <time>2018-08-29T10:12:48Z</time>
      </trkpt>
      <trkpt lat="42.20647" lon="9.03854">
        <ele>2183.2</ele>
        <time>2018-08-29T10:12:59Z</time>
      </trkpt>
      <trkpt lat="42.20645" lon="9.03856">
        <ele>2181.48</ele>
        <time>2018-08-29T10:13:15Z</time>
      </trkpt>
      <trkpt lat="42.20643" lon="9.0386">
        <ele>2179.93</ele>
        <time>2018-08-29T10:13:28Z</time>
      </trkpt>
      <trkpt lat="42.20638" lon="9.03868">
        <ele>2179.23</ele>
        <time>2018-08-29T10:13:41Z</time>
      </trkpt>
      <trkpt lat="42.20635" lon="9.03875">
        <ele>2178.34</ele>
        <time>2018-08-29T10:13:57Z</time>
      </trkpt>
      <trkpt lat="42.20631" lon="9.03879">
        <ele>2177.22</ele>
        <time>2018-08-29T10:14:03Z</time>
      </trkpt>
      <trkpt lat="42.20624" lon="9.03887">
        <ele>2177.32</ele>
        <time>2018-08-29T10:14:16Z</time>
      </trkpt>
      <trkpt lat="42.20622" lon="9.03893">
        <ele>2176.56</ele>
        <time>2018-08-29T10:14:31Z</time>
      </trkpt>
      <trkpt lat="42.20616" lon="9.03899">
        <ele>2175.77</ele>
        <time>2018-08-29T10:14:50Z</time>
      </trkpt>
      <trkpt lat="42.20607" lon="9.03909">
        <ele>2174.79</ele>
        <time>2018-08-29T10:15:05Z</time>
      </trkpt>
      <trkpt lat="42.20596" lon="9.03916">
        <ele>2172.41</ele>
        <time>2018-08-29T10:15:20Z</time>
      </trkpt>
      <trkpt lat="42.20593" lon="9.03921">
        <ele>2172.52</ele>
        <time>2018-08-29T10:15:32Z</time>
      </trkpt>
      <trkpt lat="42.20588" lon="9.03928">
        <ele>2171.59</ele>
        <time>2018-08-29T10:15:45Z</time>
      </trkpt>
      <trkpt lat="42.20582" lon="9.03933">
        <ele>2169.86</ele>
        <time>2018-08-29T10:15:58Z</time>
      </trkpt>
      <trkpt lat="42.2058" lon="9.03935">
        <ele>2169.9</ele>
        <time>2018-08-29T10:16:01Z</time>
      </trkpt>
      <trkpt lat="42.20574" lon="9.03946">
        <ele>2169.13</ele>
        <time>2018-08-29T10:16:14Z</time>
      </trkpt>
      <trkpt lat="42.20568" lon="9.03955">
        <ele>2169.29</ele>
        <time>2018-08-29T10:16:27Z</time>
      </trkpt>
      <trkpt lat="42.20566" lon="9.03965">
        <ele>2169.25</ele>
        <time>2018-08-29T10:16:40Z</time>
      </trkpt>
      <trkpt lat="42.20562" lon="9.03971">
        <ele>2169.28</ele>
        <time>2018-08-29T10:16:51Z</time>
      </trkpt>
      <trkpt lat="42.20562" lon="9.03977">
        <ele>2169.28</ele>
        <time>2018-08-29T10:16:58Z</time>
      </trkpt>
      <trkpt lat="42.20561" lon="9.03984">
        <ele>2169.29</ele>
        <time>2018-08-29T10:17:10Z</time>
      </trkpt>
      <trkpt lat="42.20558" lon="9.03989">
        <ele>2168.52</ele>
        <time>2018-08-29T10:17:25Z</time>
      </trkpt>
      <trkpt lat="42.20556" lon="9.03994">
        <ele>2168.58</ele>
        <time>2018-08-29T10:17:33Z</time>
      </trkpt>
      <trkpt lat="42.20551" lon="9.04001">
        <ele>2167.38</ele>
        <time>2018-08-29T10:17:46Z</time>
      </trkpt>
      <trkpt lat="42.20544" lon="9.04011">
        <ele>2166.52</ele>
        <time>2018-08-29T10:17:59Z</time>
      </trkpt>
      <trkpt lat="42.2054" lon="9.04019">
        <ele>2164.57</ele>
        <time>2018-08-29T10:18:13Z</time>
      </trkpt>
      <trkpt lat="42.20535" lon="9.04026">
        <ele>2163.7</ele>
        <time>2018-08-29T10:18:31Z</time>
      </trkpt>
      <trkpt lat="42.20528" lon="9.04037">
        <ele>2161.09</ele>
        <time>2018-08-29T10:18:46Z</time>
      </trkpt>
      <trkpt lat="42.20523" lon="9.04045">
        <ele>2160.4</ele>
        <time>2018-08-29T10:19:00Z</time>
      </trkpt>
      <trkpt lat="42.20518" lon="9.04054">
        <ele>2158.57</ele>
        <time>2018-08-29T10:19:13Z</time>
      </trkpt>
      <trkpt lat="42.20517" lon="9.04054">
        <ele>2158.64</ele>
        <time>2018-08-29T10:19:23Z</time>
      </trkpt>
      <trkpt lat="42.20514" lon="9.04055">
        <ele>2156.74</ele>
        <time>2018-08-29T10:19:38Z</time>
      </trkpt>
      <trkpt lat="42.20513" lon="9.04056">
        <ele>2155.37</ele>
        <time>2018-08-29T10:19:42Z</time>
      </trkpt>
      <trkpt lat="42.20506" lon="9.04064">
        <ele>2154.39</ele>
        <time>2018-08-29T10:19:55Z</time>
      </trkpt>
      <trkpt lat="42.20503" lon="9.04067">
        <ele>2153</ele>
        <time>2018-08-29T10:20:03Z</time>
      </trkpt>
      <trkpt lat="42.20498" lon="9.04077">
        <ele>2152.19</ele>
        <time>2018-08-29T10:20:15Z</time>
      </trkpt>
      <trkpt lat="42.20493" lon="9.0409">
        <ele>2151.36</ele>
        <time>2018-08-29T10:20:29Z</time>
      </trkpt>
      <trkpt lat="42.20492" lon="9.0409">
        <ele>2153.77</ele>
        <time>2018-08-29T10:20:31Z</time>
      </trkpt>
      <trkpt lat="42.20489" lon="9.04092">
        <ele>2153.74</ele>
        <time>2018-08-29T10:20:36Z</time>
      </trkpt>
      <trkpt lat="42.20483" lon="9.04094">
        <ele>2153.64</ele>
        <time>2018-08-29T10:20:50Z</time>
      </trkpt>
      <trkpt lat="42.20478" lon="9.041">
        <ele>2153.67</ele>
        <time>2018-08-29T10:21:02Z</time>
      </trkpt>
      <trkpt lat="42.20476" lon="9.04107">
        <ele>2151.38</ele>
        <time>2018-08-29T10:21:09Z</time>
      </trkpt>
      <trkpt lat="42.20475" lon="9.04113">
        <ele>2150.57</ele>
        <time>2018-08-29T10:21:16Z</time>
      </trkpt>
      <trkpt lat="42.20468" lon="9.04128">
        <ele>2148.96</ele>
        <time>2018-08-29T10:21:32Z</time>
      </trkpt>
      <trkpt lat="42.20463" lon="9.04141">
        <ele>2146.95</ele>
        <time>2018-08-29T10:21:48Z</time>
      </trkpt>
      <trkpt lat="42.20461" lon="9.04154">
        <ele>2145.25</ele>
        <time>2018-08-29T10:22:02Z</time>
      </trkpt>
      <trkpt lat="42.20459" lon="9.04163">
        <ele>2145.29</ele>
        <time>2018-08-29T10:22:20Z</time>
      </trkpt>
      <trkpt lat="42.20454" lon="9.04171">
        <ele>2143.34</ele>
        <time>2018-08-29T10:22:31Z</time>
      </trkpt>
      <trkpt lat="42.20452" lon="9.04177">
        <ele>2143.36</ele>
        <time>2018-08-29T10:22:38Z</time>
      </trkpt>
      <trkpt lat="42.2045" lon="9.04179">
        <ele>2142.06</ele>
        <time>2018-08-29T10:22:40Z</time>
      </trkpt>
      <trkpt lat="42.20449" lon="9.04183">
        <ele>2142.08</ele>
        <time>2018-08-29T10:22:44Z</time>
      </trkpt>
      <trkpt lat="42.20446" lon="9.04196">
        <ele>2142.1</ele>
        <time>2018-08-29T10:22:58Z</time>
      </trkpt>
      <trkpt lat="42.20446" lon="9.04204">
        <ele>2142.13</ele>
        <time>2018-08-29T10:23:09Z</time>
      </trkpt>
      <trkpt lat="42.20443" lon="9.04211">
        <ele>2142.11</ele>
        <time>2018-08-29T10:23:22Z</time>
      </trkpt>
      <trkpt lat="42.20441" lon="9.04222">
        <ele>2141.23</ele>
        <time>2018-08-29T10:23:35Z</time>
      </trkpt>
      <trkpt lat="42.20436" lon="9.0423">
        <ele>2140.1</ele>
        <time>2018-08-29T10:23:48Z</time>
      </trkpt>
      <trkpt lat="42.2043" lon="9.04242">
        <ele>2139.13</ele>
        <time>2018-08-29T10:24:02Z</time>
      </trkpt>
      <trkpt lat="42.20424" lon="9.04252">
        <ele>2137.33</ele>
        <time>2018-08-29T10:24:17Z</time>
      </trkpt>
      <trkpt lat="42.2042" lon="9.04262">
        <ele>2136.45</ele>
        <time>2018-08-29T10:24:30Z</time>
      </trkpt>
      <trkpt lat="42.20416" lon="9.04266">
        <ele>2134.44</ele>
        <time>2018-08-29T10:24:36Z</time>
      </trkpt>
      <trkpt lat="42.20409" lon="9.04275">
        <ele>2132.68</ele>
        <time>2018-08-29T10:24:49Z</time>
      </trkpt>
      <trkpt lat="42.20405" lon="9.04279">
        <ele>2130.86</ele>
        <time>2018-08-29T10:25:03Z</time>
      </trkpt>
      <trkpt lat="42.20401" lon="9.04287">
        <ele>2129.01</ele>
        <time>2018-08-29T10:25:17Z</time>
      </trkpt>
      <trkpt lat="42.20401" lon="9.04292">
        <ele>2127.87</ele>
        <time>2018-08-29T10:25:35Z</time>
      </trkpt>
      <trkpt lat="42.20395" lon="9.04302">
        <ele>2127.06</ele>
        <time>2018-08-29T10:25:48Z</time>
      </trkpt>
      <trkpt lat="42.20387" lon="9.04312">
        <ele>2125.29</ele>
        <time>2018-08-29T10:26:03Z</time>
      </trkpt>
      <trkpt lat="42.2038" lon="9.04312">
        <ele>2123.27</ele>
        <time>2018-08-29T10:26:17Z</time>
      </trkpt>
      <trkpt lat="42.20374" lon="9.04316">
        <ele>2120.24</ele>
        <time>2018-08-29T10:26:30Z</time>
      </trkpt>
      <trkpt lat="42.20374" lon="9.04316">
        <ele>2120.22</ele>
        <time>2018-08-29T10:26:31Z</time>
      </trkpt>
      <trkpt lat="42.20371" lon="9.04324">
        <ele>2118.29</ele>
        <time>2018-08-29T10:26:44Z</time>
      </trkpt>
      <trkpt lat="42.20368" lon="9.04328">
        <ele>2116.29</ele>
        <time>2018-08-29T10:26:57Z</time>
      </trkpt>
      <trkpt lat="42.20365" lon="9.04328">
        <ele>2115.39</ele>
        <time>2018-08-29T10:27:09Z</time>
      </trkpt>
      <trkpt lat="42.20364" lon="9.0433">
        <ele>2113.83</ele>
        <time>2018-08-29T10:27:16Z</time>
      </trkpt>
      <trkpt lat="42.20359" lon="9.04339">
        <ele>2113.82</ele>
        <time>2018-08-29T10:27:28Z</time>
      </trkpt>
      <trkpt lat="42.20357" lon="9.04341">
        <ele>2113.84</ele>
        <time>2018-08-29T10:27:32Z</time>
      </trkpt>
      <trkpt lat="42.2035" lon="9.04347">
        <ele>2113.86</ele>
        <time>2018-08-29T10:27:44Z</time>
      </trkpt>
      <trkpt lat="42.2035" lon="9.04348">
        <ele>2113.85</ele>
        <time>2018-08-29T10:27:45Z</time>
      </trkpt>
      <trkpt lat="42.2034" lon="9.0435">
        <ele>2112.97</ele>
        <time>2018-08-29T10:28:00Z</time>
      </trkpt>
      <trkpt lat="42.20339" lon="9.0435">
        <ele>2112.15</ele>
        <time>2018-08-29T10:28:01Z</time>
      </trkpt>
      <trkpt lat="42.20336" lon="9.04355">
        <ele>2112.16</ele>
        <time>2018-08-29T10:28:06Z</time>
      </trkpt>
      <trkpt lat="42.20329" lon="9.0436">
        <ele>2110.4</ele>
        <time>2018-08-29T10:28:18Z</time>
      </trkpt>
      <trkpt lat="42.20323" lon="9.0437">
        <ele>2110.39</ele>
        <time>2018-08-29T10:28:30Z</time>
      </trkpt>
      <trkpt lat="42.20319" lon="9.04377">
        <ele>2108.58</ele>
        <time>2018-08-29T10:28:43Z</time>
      </trkpt>
      <trkpt lat="42.20319" lon="9.04378">
        <ele>2108.58</ele>
        <time>2018-08-29T10:28:44Z</time>
      </trkpt>
      <trkpt lat="42.20311" lon="9.04387">
        <ele>2107.7</ele>
        <time>2018-08-29T10:28:58Z</time>
      </trkpt>
      <trkpt lat="42.20306" lon="9.04393">
        <ele>2106.64</ele>
        <time>2018-08-29T10:29:14Z</time>
      </trkpt>
      <trkpt lat="42.20301" lon="9.04399">
        <ele>2103.93</ele>
        <time>2018-08-29T10:29:28Z</time>
      </trkpt>
      <trkpt lat="42.20294" lon="9.04406">
        <ele>2103.18</ele>
        <time>2018-08-29T10:29:43Z</time>
      </trkpt>
      <trkpt lat="42.20292" lon="9.04406">
        <ele>2101.03</ele>
        <time>2018-08-29T10:29:51Z</time>
      </trkpt>
      <trkpt lat="42.20284" lon="9.04409">
        <ele>2099.3</ele>
        <time>2018-08-29T10:30:05Z</time>
      </trkpt>
      <trkpt lat="42.2028" lon="9.04413">
        <ele>2098.5</ele>
        <time>2018-08-29T10:30:19Z</time>
      </trkpt>
      <trkpt lat="42.20278" lon="9.04412">
        <ele>2097.54</ele>
        <time>2018-08-29T10:30:29Z</time>
      </trkpt>
      <trkpt lat="42.20273" lon="9.04414">
        <ele>2095.45</ele>
        <time>2018-08-29T10:30:40Z</time>
      </trkpt>
      <trkpt lat="42.20271" lon="9.04414">
        <ele>2093.47</ele>
        <time>2018-08-29T10:30:52Z</time>
      </trkpt>
      <trkpt lat="42.20266" lon="9.04415">
        <ele>2092.42</ele>
        <time>2018-08-29T10:31:04Z</time>
      </trkpt>
      <trkpt lat="42.20264" lon="9.0442">
        <ele>2090.42</ele>
        <time>2018-08-29T10:31:14Z</time>
      </trkpt>
      <trkpt lat="42.2026" lon="9.04421">
        <ele>2088.51</ele>
        <time>2018-08-29T10:31:27Z</time>
      </trkpt>
      <trkpt lat="42.20256" lon="9.04423">
        <ele>2087.58</ele>
        <time>2018-08-29T10:31:38Z</time>
      </trkpt>
      <trkpt lat="42.20252" lon="9.04428">
        <ele>2087.57</ele>
        <time>2018-08-29T10:31:51Z</time>
      </trkpt>
      <trkpt lat="42.20249" lon="9.04429">
        <ele>2090.42</ele>
        <time>2018-08-29T10:32:01Z</time>
      </trkpt>
      <trkpt lat="42.20246" lon="9.0443">
        <ele>2090.36</ele>
        <time>2018-08-29T10:32:15Z</time>
      </trkpt>
      <trkpt lat="42.20244" lon="9.0443">
        <ele>2088.04</ele>
        <time>2018-08-29T10:32:21Z</time>
      </trkpt>
      <trkpt lat="42.20234" lon="9.04435">
        <ele>2088.04</ele>
        <time>2018-08-29T10:32:37Z</time>
      </trkpt>
      <trkpt lat="42.20232" lon="9.04438">
        <ele>2090.47</ele>
        <time>2018-08-29T10:32:56Z</time>
      </trkpt>
      <trkpt lat="42.20223" lon="9.0444">
        <ele>2091.39</ele>
        <time>2018-08-29T10:33:10Z</time>
      </trkpt>
      <trkpt lat="42.20215" lon="9.04446">
        <ele>2091.35</ele>
        <time>2018-08-29T10:33:23Z</time>
      </trkpt>
      <trkpt lat="42.20209" lon="9.04453">
        <ele>2092.22</ele>
        <time>2018-08-29T10:33:32Z</time>
      </trkpt>
      <trkpt lat="42.20198" lon="9.04462">
        <ele>2092.15</ele>
        <time>2018-08-29T10:33:48Z</time>
      </trkpt>
      <trkpt lat="42.20187" lon="9.04468">
        <ele>2092.1</ele>
        <time>2018-08-29T10:34:02Z</time>
      </trkpt>
      <trkpt lat="42.20178" lon="9.04473">
        <ele>2092.03</ele>
        <time>2018-08-29T10:34:15Z</time>
      </trkpt>
      <trkpt lat="42.20165" lon="9.04484">
        <ele>2091.98</ele>
        <time>2018-08-29T10:34:32Z</time>
      </trkpt>
      <trkpt lat="42.20156" lon="9.04493">
        <ele>2089.46</ele>
        <time>2018-08-29T10:34:45Z</time>
      </trkpt>
      <trkpt lat="42.20149" lon="9.04498">
        <ele>2089.41</ele>
        <time>2018-08-29T10:34:59Z</time>
      </trkpt>
      <trkpt lat="42.20141" lon="9.04504">
        <ele>2087.57</ele>
        <time>2018-08-29T10:35:12Z</time>
      </trkpt>
      <trkpt lat="42.20135" lon="9.0451">
        <ele>2085.9</ele>
        <time>2018-08-29T10:35:25Z</time>
      </trkpt>
      <trkpt lat="42.20128" lon="9.04513">
        <ele>2083.91</ele>
        <time>2018-08-29T10:35:38Z</time>
      </trkpt>
      <trkpt lat="42.2012" lon="9.04521">
        <ele>2082.14</ele>
        <time>2018-08-29T10:35:52Z</time>
      </trkpt>
      <trkpt lat="42.20112" lon="9.04529">
        <ele>2080.13</ele>
        <time>2018-08-29T10:36:08Z</time>
      </trkpt>
      <trkpt lat="42.20104" lon="9.04533">
        <ele>2078.41</ele>
        <time>2018-08-29T10:36:22Z</time>
      </trkpt>
      <trkpt lat="42.20094" lon="9.04548">
        <ele>2077.15</ele>
        <time>2018-08-29T10:36:39Z</time>
      </trkpt>
      <trkpt lat="42.20088" lon="9.04554">
        <ele>2074.84</ele>
        <time>2018-08-29T10:36:49Z</time>
      </trkpt>
      <trkpt lat="42.20081" lon="9.04561">
        <ele>2072.55</ele>
        <time>2018-08-29T10:37:01Z</time>
      </trkpt>
      <trkpt lat="42.20076" lon="9.04564">
        <ele>2070.78</ele>
        <time>2018-08-29T10:37:12Z</time>
      </trkpt>
      <trkpt lat="42.20071" lon="9.04565">
        <ele>2069.18</ele>
        <time>2018-08-29T10:37:25Z</time>
      </trkpt>
      <trkpt lat="42.20065" lon="9.04568">
        <ele>2067.41</ele>
        <time>2018-08-29T10:37:39Z</time>
      </trkpt>
      <trkpt lat="42.2006" lon="9.04572">
        <ele>2065.62</ele>
        <time>2018-08-29T10:37:51Z</time>
      </trkpt>
      <trkpt lat="42.20054" lon="9.04574">
        <ele>2062.76</ele>
        <time>2018-08-29T10:38:05Z</time>
      </trkpt>
      <trkpt lat="42.20046" lon="9.04577">
        <ele>2059.98</ele>
        <time>2018-08-29T10:38:22Z</time>
      </trkpt>
      <trkpt lat="42.20044" lon="9.04581">
        <ele>2058.68</ele>
        <time>2018-08-29T10:38:31Z</time>
      </trkpt>
      <trkpt lat="42.20035" lon="9.04594">
        <ele>2057.74</ele>
        <time>2018-08-29T10:38:46Z</time>
      </trkpt>
      <trkpt lat="42.20026" lon="9.04607">
        <ele>2055.78</ele>
        <time>2018-08-29T10:39:02Z</time>
      </trkpt>
      <trkpt lat="42.20023" lon="9.04609">
        <ele>2054.59</ele>
        <time>2018-08-29T10:39:06Z</time>
      </trkpt>
      <trkpt lat="42.20018" lon="9.04614">
        <ele>2052.83</ele>
        <time>2018-08-29T10:39:18Z</time>
      </trkpt>
      <trkpt lat="42.20011" lon="9.04621">
        <ele>2050.94</ele>
        <time>2018-08-29T10:39:31Z</time>
      </trkpt>
      <trkpt lat="42.20004" lon="9.04633">
        <ele>2048.24</ele>
        <time>2018-08-29T10:39:47Z</time>
      </trkpt>
      <trkpt lat="42.20002" lon="9.04635">
        <ele>2048.35</ele>
        <time>2018-08-29T10:39:59Z</time>
      </trkpt>
      <trkpt lat="42.2" lon="9.0464">
        <ele>2048.34</ele>
        <time>2018-08-29T10:40:10Z</time>
      </trkpt>
      <trkpt lat="42.19999" lon="9.04647">
        <ele>2048.35</ele>
        <time>2018-08-29T10:40:21Z</time>
      </trkpt>
      <trkpt lat="42.19997" lon="9.04653">
        <ele>2050.53</ele>
        <time>2018-08-29T10:40:30Z</time>
      </trkpt>
      <trkpt lat="42.19997" lon="9.04659">
        <ele>2051.25</ele>
        <time>2018-08-29T10:40:45Z</time>
      </trkpt>
      <trkpt lat="42.19997" lon="9.04667">
        <ele>2052.16</ele>
        <time>2018-08-29T10:41:01Z</time>
      </trkpt>
      <trkpt lat="42.19997" lon="9.04668">
        <ele>2052.07</ele>
        <time>2018-08-29T10:41:22Z</time>
      </trkpt>
      <trkpt lat="42.19997" lon="9.04668">
        <ele>2051.94</ele>
        <time>2018-08-29T10:42:01Z</time>
      </trkpt>
      <trkpt lat="42.19997" lon="9.04671">
        <ele>2051.88</ele>
        <time>2018-08-29T10:42:20Z</time>
      </trkpt>
      <trkpt lat="42.20001" lon="9.04675">
        <ele>2049.47</ele>
        <time>2018-08-29T10:42:30Z</time>
      </trkpt>
      <trkpt lat="42.20003" lon="9.04681">
        <ele>2047.49</ele>
        <time>2018-08-29T10:42:45Z</time>
      </trkpt>
      <trkpt lat="42.20003" lon="9.0468">
        <ele>2046.7</ele>
        <time>2018-08-29T10:43:20Z</time>
      </trkpt>
      <trkpt lat="42.20001" lon="9.04681">
        <ele>2046.61</ele>
        <time>2018-08-29T10:43:36Z</time>
      </trkpt>
      <trkpt lat="42.20004" lon="9.04687">
        <ele>2044.08</ele>
        <time>2018-08-29T10:43:50Z</time>
      </trkpt>
      <trkpt lat="42.20007" lon="9.04692">
        <ele>2042.05</ele>
        <time>2018-08-29T10:44:04Z</time>
      </trkpt>
      <trkpt lat="42.20004" lon="9.04696">
        <ele>2039.56</ele>
        <time>2018-08-29T10:44:19Z</time>
      </trkpt>
      <trkpt lat="42.20008" lon="9.04702">
        <ele>2037.39</ele>
        <time>2018-08-29T10:44:38Z</time>
      </trkpt>
      <trkpt lat="42.20004" lon="9.04704">
        <ele>2035.8</ele>
        <time>2018-08-29T10:44:52Z</time>
      </trkpt>
      <trkpt lat="42.20004" lon="9.04708">
        <ele>2033.56</ele>
        <time>2018-08-29T10:45:04Z</time>
      </trkpt>
      <trkpt lat="42.19997" lon="9.0471">
        <ele>2030.78</ele>
        <time>2018-08-29T10:45:19Z</time>
      </trkpt>
      <trkpt lat="42.19995" lon="9.0471">
        <ele>2029.97</ele>
        <time>2018-08-29T10:45:35Z</time>
      </trkpt>
      <trkpt lat="42.19998" lon="9.04718">
        <ele>2026.96</ele>
        <time>2018-08-29T10:45:48Z</time>
      </trkpt>
      <trkpt lat="42.19998" lon="9.04721">
        <ele>2027</ele>
        <time>2018-08-29T10:45:52Z</time>
      </trkpt>
      <trkpt lat="42.19996" lon="9.04724">
        <ele>2024.94</ele>
        <time>2018-08-29T10:46:04Z</time>
      </trkpt>
      <trkpt lat="42.19993" lon="9.04724">
        <ele>2023.26</ele>
        <time>2018-08-29T10:46:17Z</time>
      </trkpt>
      <trkpt lat="42.19992" lon="9.04724">
        <ele>2023.18</ele>
        <time>2018-08-29T10:46:48Z</time>
      </trkpt>
      <trkpt lat="42.1999" lon="9.04724">
        <ele>2023.16</ele>
        <time>2018-08-29T10:47:10Z</time>
      </trkpt>
      <trkpt lat="42.19985" lon="9.04722">
        <ele>2023.06</ele>
        <time>2018-08-29T10:47:33Z</time>
      </trkpt>
      <trkpt lat="42.19983" lon="9.04721">
        <ele>2021.74</ele>
        <time>2018-08-29T10:47:35Z</time>
      </trkpt>
      <trkpt lat="42.19981" lon="9.04721">
        <ele>2021.72</ele>
        <time>2018-08-29T10:47:38Z</time>
      </trkpt>
      <trkpt lat="42.19976" lon="9.0472">
        <ele>2019.43</ele>
        <time>2018-08-29T10:47:53Z</time>
      </trkpt>
      <trkpt lat="42.19972" lon="9.0472">
        <ele>2017.58</ele>
        <time>2018-08-29T10:48:08Z</time>
      </trkpt>
      <trkpt lat="42.19969" lon="9.04721">
        <ele>2016.34</ele>
        <time>2018-08-29T10:48:14Z</time>
      </trkpt>
      <trkpt lat="42.19965" lon="9.04723">
        <ele>2014.47</ele>
        <time>2018-08-29T10:48:28Z</time>
      </trkpt>
      <trkpt lat="42.19958" lon="9.04725">
        <ele>2011.89</ele>
        <time>2018-08-29T10:48:42Z</time>
      </trkpt>
      <trkpt lat="42.19958" lon="9.04731">
        <ele>2010.05</ele>
        <time>2018-08-29T10:48:55Z</time>
      </trkpt>
      <trkpt lat="42.19953" lon="9.0473">
        <ele>2008.26</ele>
        <time>2018-08-29T10:49:08Z</time>
      </trkpt>
      <trkpt lat="42.19949" lon="9.04734">
        <ele>2005.68</ele>
        <time>2018-08-29T10:49:21Z</time>
      </trkpt>
      <trkpt lat="42.19942" lon="9.04735">
        <ele>2002.57</ele>
        <time>2018-08-29T10:49:36Z</time>
      </trkpt>
      <trkpt lat="42.19942" lon="9.04735">
        <ele>2002.57</ele>
        <time>2018-08-29T10:49:37Z</time>
      </trkpt>
      <trkpt lat="42.19937" lon="9.04733">
        <ele>2000.85</ele>
        <time>2018-08-29T10:49:50Z</time>
      </trkpt>
      <trkpt lat="42.19935" lon="9.04738">
        <ele>1999.05</ele>
        <time>2018-08-29T10:50:02Z</time>
      </trkpt>
      <trkpt lat="42.19931" lon="9.04737">
        <ele>1998.06</ele>
        <time>2018-08-29T10:50:15Z</time>
      </trkpt>
      <trkpt lat="42.19928" lon="9.04739">
        <ele>1996.11</ele>
        <time>2018-08-29T10:50:29Z</time>
      </trkpt>
      <trkpt lat="42.19924" lon="9.04744">
        <ele>1993.42</ele>
        <time>2018-08-29T10:50:44Z</time>
      </trkpt>
      <trkpt lat="42.19925" lon="9.04753">
        <ele>1989.62</ele>
        <time>2018-08-29T10:50:56Z</time>
      </trkpt>
      <trkpt lat="42.19925" lon="9.04754">
        <ele>1989.62</ele>
        <time>2018-08-29T10:50:57Z</time>
      </trkpt>
      <trkpt lat="42.19929" lon="9.04767">
        <ele>1986.98</ele>
        <time>2018-08-29T10:51:14Z</time>
      </trkpt>
      <trkpt lat="42.19929" lon="9.04776">
        <ele>1984.67</ele>
        <time>2018-08-29T10:51:26Z</time>
      </trkpt>
      <trkpt lat="42.19926" lon="9.04778">
        <ele>1982.8</ele>
        <time>2018-08-29T10:51:39Z</time>
      </trkpt>
      <trkpt lat="42.19921" lon="9.04781">
        <ele>1980.64</ele>
        <time>2018-08-29T10:51:51Z</time>
      </trkpt>
      <trkpt lat="42.19921" lon="9.04788">
        <ele>1978.69</ele>
        <time>2018-08-29T10:52:03Z</time>
      </trkpt>
      <trkpt lat="42.19921" lon="9.04795">
        <ele>1975.67</ele>
        <time>2018-08-29T10:52:16Z</time>
      </trkpt>
      <trkpt lat="42.19922" lon="9.04805">
        <ele>1973.89</ele>
        <time>2018-08-29T10:52:28Z</time>
      </trkpt>
      <trkpt lat="42.19922" lon="9.04814">
        <ele>1971.98</ele>
        <time>2018-08-29T10:52:40Z</time>
      </trkpt>
      <trkpt lat="42.19923" lon="9.04818">
        <ele>1971.12</ele>
        <time>2018-08-29T10:52:52Z</time>
      </trkpt>
      <trkpt lat="42.1992" lon="9.04823">
        <ele>1968.99</ele>
        <time>2018-08-29T10:53:04Z</time>
      </trkpt>
      <trkpt lat="42.1992" lon="9.04826">
        <ele>1967.53</ele>
        <time>2018-08-29T10:53:08Z</time>
      </trkpt>
      <trkpt lat="42.19912" lon="9.04827">
        <ele>1965.4</ele>
        <time>2018-08-29T10:53:23Z</time>
      </trkpt>
      <trkpt lat="42.19908" lon="9.04825">
        <ele>1963.69</ele>
        <time>2018-08-29T10:53:36Z</time>
      </trkpt>
      <trkpt lat="42.19905" lon="9.04825">
        <ele>1962.65</ele>
        <time>2018-08-29T10:53:49Z</time>
      </trkpt>
      <trkpt lat="42.19903" lon="9.04829">
        <ele>1959.89</ele>
        <time>2018-08-29T10:54:01Z</time>
      </trkpt>
      <trkpt lat="42.19901" lon="9.04832">
        <ele>1958.58</ele>
        <time>2018-08-29T10:54:08Z</time>
      </trkpt>
      <trkpt lat="42.19896" lon="9.04835">
        <ele>1956.7</ele>
        <time>2018-08-29T10:54:21Z</time>
      </trkpt>
      <trkpt lat="42.19893" lon="9.04838">
        <ele>1954.72</ele>
        <time>2018-08-29T10:54:32Z</time>
      </trkpt>
      <trkpt lat="42.1989" lon="9.04842">
        <ele>1952.92</ele>
        <time>2018-08-29T10:54:43Z</time>
      </trkpt>
      <trkpt lat="42.19889" lon="9.04846">
        <ele>1951.97</ele>
        <time>2018-08-29T10:54:47Z</time>
      </trkpt>
      <trkpt lat="42.19896" lon="9.04859">
        <ele>1951.13</ele>
        <time>2018-08-29T10:55:03Z</time>
      </trkpt>
      <trkpt lat="42.19898" lon="9.04864">
        <ele>1951.12</ele>
        <time>2018-08-29T10:55:11Z</time>
      </trkpt>
      <trkpt lat="42.19904" lon="9.04875">
        <ele>1949.39</ele>
        <time>2018-08-29T10:55:24Z</time>
      </trkpt>
      <trkpt lat="42.19905" lon="9.04882">
        <ele>1948.38</ele>
        <time>2018-08-29T10:55:37Z</time>
      </trkpt>
      <trkpt lat="42.19902" lon="9.04888">
        <ele>1946.16</ele>
        <time>2018-08-29T10:55:48Z</time>
      </trkpt>
      <trkpt lat="42.199" lon="9.04893">
        <ele>1943.91</ele>
        <time>2018-08-29T10:56:00Z</time>
      </trkpt>
      <trkpt lat="42.19901" lon="9.04902">
        <ele>1942.98</ele>
        <time>2018-08-29T10:56:14Z</time>
      </trkpt>
      <trkpt lat="42.19902" lon="9.04906">
        <ele>1942.11</ele>
        <time>2018-08-29T10:56:28Z</time>
      </trkpt>
      <trkpt lat="42.19907" lon="9.04914">
        <ele>1940.31</ele>
        <time>2018-08-29T10:56:42Z</time>
      </trkpt>
      <trkpt lat="42.19903" lon="9.04916">
        <ele>1938.57</ele>
        <time>2018-08-29T10:56:54Z</time>
      </trkpt>
      <trkpt lat="42.19902" lon="9.04917">
        <ele>1937.62</ele>
        <time>2018-08-29T10:56:59Z</time>
      </trkpt>
      <trkpt lat="42.19905" lon="9.04923">
        <ele>1935.42</ele>
        <time>2018-08-29T10:57:13Z</time>
      </trkpt>
      <trkpt lat="42.19905" lon="9.04927">
        <ele>1934.14</ele>
        <time>2018-08-29T10:57:19Z</time>
      </trkpt>
      <trkpt lat="42.19902" lon="9.04931">
        <ele>1931.91</ele>
        <time>2018-08-29T10:57:30Z</time>
      </trkpt>
      <trkpt lat="42.19901" lon="9.04935">
        <ele>1930.66</ele>
        <time>2018-08-29T10:57:43Z</time>
      </trkpt>
      <trkpt lat="42.19899" lon="9.04941">
        <ele>1928.42</ele>
        <time>2018-08-29T10:57:55Z</time>
      </trkpt>
      <trkpt lat="42.19903" lon="9.04944">
        <ele>1926.86</ele>
        <time>2018-08-29T10:58:07Z</time>
      </trkpt>
      <trkpt lat="42.19899" lon="9.04948">
        <ele>1925.94</ele>
        <time>2018-08-29T10:58:20Z</time>
      </trkpt>
      <trkpt lat="42.199" lon="9.04953">
        <ele>1923.5</ele>
        <time>2018-08-29T10:58:37Z</time>
      </trkpt>
      <trkpt lat="42.199" lon="9.04953">
        <ele>1923.49</ele>
        <time>2018-08-29T10:58:38Z</time>
      </trkpt>
      <trkpt lat="42.19899" lon="9.04958">
        <ele>1921.67</ele>
        <time>2018-08-29T10:58:52Z</time>
      </trkpt>
      <trkpt lat="42.19901" lon="9.04965">
        <ele>1919.81</ele>
        <time>2018-08-29T10:59:07Z</time>
      </trkpt>
      <trkpt lat="42.19898" lon="9.04971">
        <ele>1917.81</ele>
        <time>2018-08-29T10:59:20Z</time>
      </trkpt>
      <trkpt lat="42.19894" lon="9.04976">
        <ele>1915.83</ele>
        <time>2018-08-29T10:59:32Z</time>
      </trkpt>
      <trkpt lat="42.19894" lon="9.04982">
        <ele>1913.74</ele>
        <time>2018-08-29T10:59:45Z</time>
      </trkpt>
      <trkpt lat="42.19888" lon="9.04991">
        <ele>1910.79</ele>
        <time>2018-08-29T11:00:01Z</time>
      </trkpt>
      <trkpt lat="42.1989" lon="9.04997">
        <ele>1909.94</ele>
        <time>2018-08-29T11:00:13Z</time>
      </trkpt>
      <trkpt lat="42.19886" lon="9.04998">
        <ele>1908.12</ele>
        <time>2018-08-29T11:00:25Z</time>
      </trkpt>
      <trkpt lat="42.19878" lon="9.05001">
        <ele>1906.04</ele>
        <time>2018-08-29T11:00:39Z</time>
      </trkpt>
      <trkpt lat="42.19883" lon="9.05005">
        <ele>1905.16</ele>
        <time>2018-08-29T11:00:50Z</time>
      </trkpt>
      <trkpt lat="42.1988" lon="9.0501">
        <ele>1903.05</ele>
        <time>2018-08-29T11:01:03Z</time>
      </trkpt>
      <trkpt lat="42.19878" lon="9.05013">
        <ele>1901.25</ele>
        <time>2018-08-29T11:01:16Z</time>
      </trkpt>
      <trkpt lat="42.19875" lon="9.05018">
        <ele>1897.82</ele>
        <time>2018-08-29T11:01:28Z</time>
      </trkpt>
      <trkpt lat="42.1987" lon="9.05023">
        <ele>1895.8</ele>
        <time>2018-08-29T11:01:43Z</time>
      </trkpt>
      <trkpt lat="42.1987" lon="9.05028">
        <ele>1893.74</ele>
        <time>2018-08-29T11:01:56Z</time>
      </trkpt>
      <trkpt lat="42.19868" lon="9.05032">
        <ele>1891.87</ele>
        <time>2018-08-29T11:02:09Z</time>
      </trkpt>
      <trkpt lat="42.19873" lon="9.05039">
        <ele>1891.83</ele>
        <time>2018-08-29T11:02:20Z</time>
      </trkpt>
      <trkpt lat="42.19876" lon="9.0505">
        <ele>1890.98</ele>
        <time>2018-08-29T11:02:34Z</time>
      </trkpt>
      <trkpt lat="42.19877" lon="9.05058">
        <ele>1889.18</ele>
        <time>2018-08-29T11:02:52Z</time>
      </trkpt>
      <trkpt lat="42.19874" lon="9.05067">
        <ele>1888.32</ele>
        <time>2018-08-29T11:03:05Z</time>
      </trkpt>
      <trkpt lat="42.19874" lon="9.05075">
        <ele>1886.52</ele>
        <time>2018-08-29T11:03:16Z</time>
      </trkpt>
      <trkpt lat="42.1987" lon="9.05082">
        <ele>1884.67</ele>
        <time>2018-08-29T11:03:29Z</time>
      </trkpt>
      <trkpt lat="42.19868" lon="9.05095">
        <ele>1881.95</ele>
        <time>2018-08-29T11:03:44Z</time>
      </trkpt>
      <trkpt lat="42.19867" lon="9.05101">
        <ele>1881.03</ele>
        <time>2018-08-29T11:03:57Z</time>
      </trkpt>
      <trkpt lat="42.19866" lon="9.05104">
        <ele>1879.11</ele>
        <time>2018-08-29T11:04:08Z</time>
      </trkpt>
      <trkpt lat="42.1986" lon="9.05105">
        <ele>1877.93</ele>
        <time>2018-08-29T11:04:20Z</time>
      </trkpt>
      <trkpt lat="42.19858" lon="9.05113">
        <ele>1876.18</ele>
        <time>2018-08-29T11:04:33Z</time>
      </trkpt>
      <trkpt lat="42.19858" lon="9.05116">
        <ele>1875.23</ele>
        <time>2018-08-29T11:04:49Z</time>
      </trkpt>
      <trkpt lat="42.19855" lon="9.05123">
        <ele>1874.43</ele>
        <time>2018-08-29T11:05:01Z</time>
      </trkpt>
      <trkpt lat="42.19853" lon="9.05132">
        <ele>1872.52</ele>
        <time>2018-08-29T11:05:15Z</time>
      </trkpt>
      <trkpt lat="42.19851" lon="9.05136">
        <ele>1869.52</ele>
        <time>2018-08-29T11:05:27Z</time>
      </trkpt>
      <trkpt lat="42.19849" lon="9.0514">
        <ele>1868.63</ele>
        <time>2018-08-29T11:05:38Z</time>
      </trkpt>
      <trkpt lat="42.19844" lon="9.05138">
        <ele>1867.58</ele>
        <time>2018-08-29T11:05:52Z</time>
      </trkpt>
      <trkpt lat="42.19838" lon="9.05136">
        <ele>1866.43</ele>
        <time>2018-08-29T11:06:07Z</time>
      </trkpt>
      <trkpt lat="42.19836" lon="9.05137">
        <ele>1864.35</ele>
        <time>2018-08-29T11:06:21Z</time>
      </trkpt>
      <trkpt lat="42.19832" lon="9.05137">
        <ele>1863.22</ele>
        <time>2018-08-29T11:06:33Z</time>
      </trkpt>
      <trkpt lat="42.1983" lon="9.05139">
        <ele>1862.03</ele>
        <time>2018-08-29T11:06:44Z</time>
      </trkpt>
      <trkpt lat="42.19827" lon="9.0514">
        <ele>1859.59</ele>
        <time>2018-08-29T11:06:53Z</time>
      </trkpt>
      <trkpt lat="42.19823" lon="9.05141">
        <ele>1858.43</ele>
        <time>2018-08-29T11:07:06Z</time>
      </trkpt>
      <trkpt lat="42.19818" lon="9.05144">
        <ele>1856.74</ele>
        <time>2018-08-29T11:07:18Z</time>
      </trkpt>
      <trkpt lat="42.19813" lon="9.05154">
        <ele>1853.95</ele>
        <time>2018-08-29T11:07:31Z</time>
      </trkpt>
      <trkpt lat="42.19811" lon="9.05155">
        <ele>1853.94</ele>
        <time>2018-08-29T11:07:33Z</time>
      </trkpt>
      <trkpt lat="42.19812" lon="9.05161">
        <ele>1853.88</ele>
        <time>2018-08-29T11:07:42Z</time>
      </trkpt>
      <trkpt lat="42.19817" lon="9.05169">
        <ele>1852.77</ele>
        <time>2018-08-29T11:07:51Z</time>
      </trkpt>
      <trkpt lat="42.19817" lon="9.05175">
        <ele>1852.73</ele>
        <time>2018-08-29T11:07:56Z</time>
      </trkpt>
      <trkpt lat="42.19817" lon="9.05182">
        <ele>1851.43</ele>
        <time>2018-08-29T11:08:01Z</time>
      </trkpt>
      <trkpt lat="42.19816" lon="9.05192">
        <ele>1851.35</ele>
        <time>2018-08-29T11:08:08Z</time>
      </trkpt>
      <trkpt lat="42.19809" lon="9.05203">
        <ele>1851.29</ele>
        <time>2018-08-29T11:08:23Z</time>
      </trkpt>
      <trkpt lat="42.19806" lon="9.05204">
        <ele>1850.33</ele>
        <time>2018-08-29T11:08:36Z</time>
      </trkpt>
      <trkpt lat="42.19807" lon="9.05203">
        <ele>1850.24</ele>
        <time>2018-08-29T11:08:48Z</time>
      </trkpt>
      <trkpt lat="42.19807" lon="9.05203">
        <ele>1850.13</ele>
        <time>2018-08-29T11:09:07Z</time>
      </trkpt>
      <trkpt lat="42.1981" lon="9.05206">
        <ele>1850.05</ele>
        <time>2018-08-29T11:09:18Z</time>
      </trkpt>
      <trkpt lat="42.19811" lon="9.05207">
        <ele>1849.92</ele>
        <time>2018-08-29T11:09:41Z</time>
      </trkpt>
      <trkpt lat="42.19811" lon="9.05212">
        <ele>1849.78</ele>
        <time>2018-08-29T11:10:06Z</time>
      </trkpt>
      <trkpt lat="42.19813" lon="9.05216">
        <ele>1849.7</ele>
        <time>2018-08-29T11:10:21Z</time>
      </trkpt>
      <trkpt lat="42.19813" lon="9.05234">
        <ele>1849.56</ele>
        <time>2018-08-29T11:10:39Z</time>
      </trkpt>
      <trkpt lat="42.19813" lon="9.05237">
        <ele>1849.53</ele>
        <time>2018-08-29T11:10:51Z</time>
      </trkpt>
      <trkpt lat="42.19817" lon="9.05234">
        <ele>1848.56</ele>
        <time>2018-08-29T11:11:10Z</time>
      </trkpt>
      <trkpt lat="42.19824" lon="9.05237">
        <ele>1848.5</ele>
        <time>2018-08-29T11:11:23Z</time>
      </trkpt>
      <trkpt lat="42.19824" lon="9.05239">
        <ele>1850.77</ele>
        <time>2018-08-29T11:11:26Z</time>
      </trkpt>
      <trkpt lat="42.19824" lon="9.05239">
        <ele>1850.67</ele>
        <time>2018-08-29T11:11:41Z</time>
      </trkpt>
      <trkpt lat="42.19825" lon="9.05239">
        <ele>1850.58</ele>
        <time>2018-08-29T11:11:59Z</time>
      </trkpt>
      <trkpt lat="42.19825" lon="9.05239">
        <ele>1850.44</ele>
        <time>2018-08-29T11:12:31Z</time>
      </trkpt>
      <trkpt lat="42.19827" lon="9.05239">
        <ele>1850.37</ele>
        <time>2018-08-29T11:12:43Z</time>
      </trkpt>
      <trkpt lat="42.19827" lon="9.05237">
        <ele>1850.29</ele>
        <time>2018-08-29T11:12:59Z</time>
      </trkpt>
      <trkpt lat="42.19828" lon="9.05237">
        <ele>1850.09</ele>
        <time>2018-08-29T11:13:40Z</time>
      </trkpt>
      <trkpt lat="42.19827" lon="9.05235">
        <ele>1849.81</ele>
        <time>2018-08-29T11:14:28Z</time>
      </trkpt>
      <trkpt lat="42.19827" lon="9.05236">
        <ele>1849.58</ele>
        <time>2018-08-29T11:15:09Z</time>
      </trkpt>
      <trkpt lat="42.19826" lon="9.05237">
        <ele>1849.23</ele>
        <time>2018-08-29T11:16:14Z</time>
      </trkpt>
      <trkpt lat="42.19826" lon="9.05237">
        <ele>1848.83</ele>
        <time>2018-08-29T11:17:30Z</time>
      </trkpt>
      <trkpt lat="42.19826" lon="9.05238">
        <ele>1848.45</ele>
        <time>2018-08-29T11:18:47Z</time>
      </trkpt>
      <trkpt lat="42.19827" lon="9.05238">
        <ele>1848.15</ele>
        <time>2018-08-29T11:19:50Z</time>
      </trkpt>
      <trkpt lat="42.19826" lon="9.05238">
        <ele>1847.86</ele>
        <time>2018-08-29T11:21:00Z</time>
      </trkpt>
      <trkpt lat="42.19827" lon="9.05238">
        <ele>1847.59</ele>
        <time>2018-08-29T11:22:20Z</time>
      </trkpt>
      <trkpt lat="42.19828" lon="9.05238">
        <ele>1845.18</ele>
        <time>2018-08-29T11:22:54Z</time>
      </trkpt>
      <trkpt lat="42.19827" lon="9.05237">
        <ele>1844.98</ele>
        <time>2018-08-29T11:23:46Z</time>
      </trkpt>
      <trkpt lat="42.19827" lon="9.05237">
        <ele>1844.68</ele>
        <time>2018-08-29T11:24:47Z</time>
      </trkpt>
      <trkpt lat="42.19826" lon="9.05239">
        <ele>1844.37</ele>
        <time>2018-08-29T11:25:44Z</time>
      </trkpt>
      <trkpt lat="42.19826" lon="9.05239">
        <ele>1844</ele>
        <time>2018-08-29T11:26:48Z</time>
      </trkpt>
      <trkpt lat="42.19824" lon="9.05242">
        <ele>1843.66</ele>
        <time>2018-08-29T11:27:42Z</time>
      </trkpt>
      <trkpt lat="42.19824" lon="9.05243">
        <ele>1843.23</ele>
        <time>2018-08-29T11:28:49Z</time>
      </trkpt>
      <trkpt lat="42.19824" lon="9.05243">
        <ele>1842.98</ele>
        <time>2018-08-29T11:29:31Z</time>
      </trkpt>
      <trkpt lat="42.19824" lon="9.05241">
        <ele>1841.81</ele>
        <time>2018-08-29T11:30:49Z</time>
      </trkpt>
      <trkpt lat="42.19824" lon="9.05241">
        <ele>1841.53</ele>
        <time>2018-08-29T11:31:51Z</time>
      </trkpt>
      <trkpt lat="42.19824" lon="9.05242">
        <ele>1841.24</ele>
        <time>2018-08-29T11:32:52Z</time>
      </trkpt>
      <trkpt lat="42.19824" lon="9.05245">
        <ele>1840.97</ele>
        <time>2018-08-29T11:33:51Z</time>
      </trkpt>
      <trkpt lat="42.19821" lon="9.05241">
        <ele>1840.92</ele>
        <time>2018-08-29T11:34:02Z</time>
      </trkpt>
      <trkpt lat="42.19816" lon="9.05236">
        <ele>1840.89</ele>
        <time>2018-08-29T11:34:10Z</time>
      </trkpt>
      <trkpt lat="42.19812" lon="9.05244">
        <ele>1840.81</ele>
        <time>2018-08-29T11:34:24Z</time>
      </trkpt>
      <trkpt lat="42.19813" lon="9.05242">
        <ele>1840.8</ele>
        <time>2018-08-29T11:34:29Z</time>
      </trkpt>
      <trkpt lat="42.1981" lon="9.05241">
        <ele>1839.84</ele>
        <time>2018-08-29T11:34:40Z</time>
      </trkpt>
      <trkpt lat="42.19811" lon="9.05236">
        <ele>1839.71</ele>
        <time>2018-08-29T11:35:05Z</time>
      </trkpt>
      <trkpt lat="42.19811" lon="9.05238">
        <ele>1839.57</ele>
        <time>2018-08-29T11:35:36Z</time>
      </trkpt>
      <trkpt lat="42.19812" lon="9.05238">
        <ele>1839.44</ele>
        <time>2018-08-29T11:36:05Z</time>
      </trkpt>
      <trkpt lat="42.19812" lon="9.05236">
        <ele>1841.74</ele>
        <time>2018-08-29T11:36:29Z</time>
      </trkpt>
      <trkpt lat="42.19813" lon="9.05236">
        <ele>1839.87</ele>
        <time>2018-08-29T11:36:38Z</time>
      </trkpt>
      <trkpt lat="42.19814" lon="9.05237">
        <ele>1833.3</ele>
        <time>2018-08-29T11:36:48Z</time>
      </trkpt>
      <trkpt lat="42.19814" lon="9.05237">
        <ele>1839.79</ele>
        <time>2018-08-29T11:36:49Z</time>
      </trkpt>
      <trkpt lat="42.19815" lon="9.05237">
        <ele>1838.24</ele>
        <time>2018-08-29T11:37:01Z</time>
      </trkpt>
      <trkpt lat="42.19813" lon="9.05238">
        <ele>1840.59</ele>
        <time>2018-08-29T11:37:18Z</time>
      </trkpt>
      <trkpt lat="42.19812" lon="9.0524">
        <ele>1840.48</ele>
        <time>2018-08-29T11:37:52Z</time>
      </trkpt>
      <trkpt lat="42.19812" lon="9.05238">
        <ele>1841.22</ele>
        <time>2018-08-29T11:38:20Z</time>
      </trkpt>
      <trkpt lat="42.19812" lon="9.05238">
        <ele>1865.62</ele>
        <time>2018-08-29T11:38:40Z</time>
      </trkpt>
      <trkpt lat="42.19811" lon="9.05238">
        <ele>1865.68</ele>
        <time>2018-08-29T11:38:44Z</time>
      </trkpt>
      <trkpt lat="42.19811" lon="9.05238">
        <ele>1840.03</ele>
        <time>2018-08-29T11:38:45Z</time>
      </trkpt>
      <trkpt lat="42.19811" lon="9.05238">
        <ele>1840.01</ele>
        <time>2018-08-29T11:38:46Z</time>
      </trkpt>
      <trkpt lat="42.19809" lon="9.05238">
        <ele>1839.96</ele>
        <time>2018-08-29T11:39:05Z</time>
      </trkpt>
      <trkpt lat="42.19809" lon="9.05238">
        <ele>1839.96</ele>
        <time>2018-08-29T11:39:06Z</time>
      </trkpt>
      <trkpt lat="42.19809" lon="9.05236">
        <ele>1839.62</ele>
        <time>2018-08-29T12:05:44Z</time>
      </trkpt>
      <trkpt lat="42.19813" lon="9.05237">
        <ele>1839.94</ele>
        <time>2018-08-29T12:06:12Z</time>
      </trkpt>
      <trkpt lat="42.19812" lon="9.05238">
        <ele>1839.96</ele>
        <time>2018-08-29T12:06:47Z</time>
      </trkpt>
      <trkpt lat="42.19811" lon="9.05237">
        <ele>1839.13</ele>
        <time>2018-08-29T12:07:20Z</time>
      </trkpt>
      <trkpt lat="42.19812" lon="9.05237">
        <ele>1838.34</ele>
        <time>2018-08-29T12:08:00Z</time>
      </trkpt>
      <trkpt lat="42.19811" lon="9.05237">
        <ele>1838.37</ele>
        <time>2018-08-29T12:08:23Z</time>
      </trkpt>
      <trkpt lat="42.1981" lon="9.05238">
        <ele>1841.03</ele>
        <time>2018-08-29T12:08:55Z</time>
      </trkpt>
      <trkpt lat="42.1981" lon="9.05238">
        <ele>1838.56</ele>
        <time>2018-08-29T12:09:00Z</time>
      </trkpt>
      <trkpt lat="42.1981" lon="9.05238">
        <ele>1838.57</ele>
        <time>2018-08-29T12:09:31Z</time>
      </trkpt>
      <trkpt lat="42.1981" lon="9.0524">
        <ele>1838.58</ele>
        <time>2018-08-29T12:10:15Z</time>
      </trkpt>
      <trkpt lat="42.1981" lon="9.0524">
        <ele>1840.98</ele>
        <time>2018-08-29T12:10:54Z</time>
      </trkpt>
      <trkpt lat="42.1981" lon="9.0524">
        <ele>1840.94</ele>
        <time>2018-08-29T12:11:39Z</time>
      </trkpt>
      <trkpt lat="42.19809" lon="9.0524">
        <ele>1840.89</ele>
        <time>2018-08-29T12:12:30Z</time>
      </trkpt>
      <trkpt lat="42.1981" lon="9.0524">
        <ele>1840.83</ele>
        <time>2018-08-29T12:13:18Z</time>
      </trkpt>
      <trkpt lat="42.1981" lon="9.0524">
        <ele>1840.79</ele>
        <time>2018-08-29T12:14:02Z</time>
      </trkpt>
      <trkpt lat="42.1981" lon="9.05242">
        <ele>1840.73</ele>
        <time>2018-08-29T12:14:54Z</time>
      </trkpt>
      <trkpt lat="42.1981" lon="9.0524">
        <ele>1840.66</ele>
        <time>2018-08-29T12:15:42Z</time>
      </trkpt>
      <trkpt lat="42.1981" lon="9.05239">
        <ele>1840.62</ele>
        <time>2018-08-29T12:16:26Z</time>
      </trkpt>
      <trkpt lat="42.19809" lon="9.05238">
        <ele>1840.59</ele>
        <time>2018-08-29T12:16:58Z</time>
      </trkpt>
      <trkpt lat="42.1981" lon="9.05236">
        <ele>1840.59</ele>
        <time>2018-08-29T12:17:44Z</time>
      </trkpt>
      <trkpt lat="42.19809" lon="9.05236">
        <ele>1840.6</ele>
        <time>2018-08-29T12:18:09Z</time>
      </trkpt>
      <trkpt lat="42.19809" lon="9.05236">
        <ele>1833.39</ele>
        <time>2018-08-29T12:18:20Z</time>
      </trkpt>
      <trkpt lat="42.19808" lon="9.05236">
        <ele>1836.63</ele>
        <time>2018-08-29T12:18:21Z</time>
      </trkpt>
      <trkpt lat="42.19808" lon="9.05236">
        <ele>1848.21</ele>
        <time>2018-08-29T12:18:22Z</time>
      </trkpt>
      <trkpt lat="42.19808" lon="9.05236">
        <ele>1845.42</ele>
        <time>2018-08-29T12:18:23Z</time>
      </trkpt>
      <trkpt lat="42.19809" lon="9.05236">
        <ele>1839.51</ele>
        <time>2018-08-29T12:18:24Z</time>
      </trkpt>
      <trkpt lat="42.19808" lon="9.05236">
        <ele>1839.51</ele>
        <time>2018-08-29T12:18:25Z</time>
      </trkpt>
      <trkpt lat="42.1981" lon="9.05237">
        <ele>1839.52</ele>
        <time>2018-08-29T12:18:49Z</time>
      </trkpt>
      <trkpt lat="42.19814" lon="9.05239">
        <ele>1839.53</ele>
        <time>2018-08-29T12:19:17Z</time>
      </trkpt>
      <trkpt lat="42.19815" lon="9.05237">
        <ele>1839.57</ele>
        <time>2018-08-29T12:19:45Z</time>
      </trkpt>
      <trkpt lat="42.19815" lon="9.0524">
        <ele>1839.62</ele>
        <time>2018-08-29T12:20:11Z</time>
      </trkpt>
      <trkpt lat="42.19811" lon="9.05235">
        <ele>1839.73</ele>
        <time>2018-08-29T12:20:50Z</time>
      </trkpt>
      <trkpt lat="42.19811" lon="9.05236">
        <ele>1842.62</ele>
        <time>2018-08-29T12:20:58Z</time>
      </trkpt>
      <trkpt lat="42.19812" lon="9.05237">
        <ele>1842.67</ele>
        <time>2018-08-29T12:21:15Z</time>
      </trkpt>
      <trkpt lat="42.19812" lon="9.05236">
        <ele>1842.72</ele>
        <time>2018-08-29T12:21:31Z</time>
      </trkpt>
      <trkpt lat="42.19812" lon="9.05234">
        <ele>1842.76</ele>
        <time>2018-08-29T12:21:43Z</time>
      </trkpt>
      <trkpt lat="42.19813" lon="9.05239">
        <ele>1842.81</ele>
        <time>2018-08-29T12:21:55Z</time>
      </trkpt>
      <trkpt lat="42.1981" lon="9.05224">
        <ele>1842.85</ele>
        <time>2018-08-29T12:22:10Z</time>
      </trkpt>
      <trkpt lat="42.19812" lon="9.05213">
        <ele>1842.81</ele>
        <time>2018-08-29T12:22:23Z</time>
      </trkpt>
      <trkpt lat="42.1981" lon="9.05203">
        <ele>1842.94</ele>
        <time>2018-08-29T12:22:36Z</time>
      </trkpt>
      <trkpt lat="42.19806" lon="9.05202">
        <ele>1842.99</ele>
        <time>2018-08-29T12:22:53Z</time>
      </trkpt>
      <trkpt lat="42.19805" lon="9.05202">
        <ele>1843.03</ele>
        <time>2018-08-29T12:23:06Z</time>
      </trkpt>
      <trkpt lat="42.19806" lon="9.05201">
        <ele>1843.05</ele>
        <time>2018-08-29T12:23:17Z</time>
      </trkpt>
      <trkpt lat="42.19807" lon="9.05194">
        <ele>1843.01</ele>
        <time>2018-08-29T12:23:23Z</time>
      </trkpt>
      <trkpt lat="42.19804" lon="9.05178">
        <ele>1843.12</ele>
        <time>2018-08-29T12:23:38Z</time>
      </trkpt>
      <trkpt lat="42.198" lon="9.0517">
        <ele>1843.12</ele>
        <time>2018-08-29T12:23:46Z</time>
      </trkpt>
      <trkpt lat="42.19796" lon="9.05166">
        <ele>1843.15</ele>
        <time>2018-08-29T12:23:52Z</time>
      </trkpt>
      <trkpt lat="42.19781" lon="9.05164">
        <ele>1844.19</ele>
        <time>2018-08-29T12:24:10Z</time>
      </trkpt>
      <trkpt lat="42.19777" lon="9.05159">
        <ele>1844.97</ele>
        <time>2018-08-29T12:24:22Z</time>
      </trkpt>
      <trkpt lat="42.19776" lon="9.05147">
        <ele>1844.99</ele>
        <time>2018-08-29T12:24:36Z</time>
      </trkpt>
      <trkpt lat="42.19775" lon="9.05137">
        <ele>1845.8</ele>
        <time>2018-08-29T12:24:47Z</time>
      </trkpt>
      <trkpt lat="42.19772" lon="9.05132">
        <ele>1845.78</ele>
        <time>2018-08-29T12:25:01Z</time>
      </trkpt>
      <trkpt lat="42.19774" lon="9.05128">
        <ele>1843.48</ele>
        <time>2018-08-29T12:25:32Z</time>
      </trkpt>
      <trkpt lat="42.19776" lon="9.05121">
        <ele>1843.41</ele>
        <time>2018-08-29T12:25:46Z</time>
      </trkpt>
      <trkpt lat="42.19779" lon="9.05117">
        <ele>1843.52</ele>
        <time>2018-08-29T12:26:04Z</time>
      </trkpt>
      <trkpt lat="42.1978" lon="9.05117">
        <ele>1845.99</ele>
        <time>2018-08-29T12:26:08Z</time>
      </trkpt>
      <trkpt lat="42.1978" lon="9.0511">
        <ele>1846.06</ele>
        <time>2018-08-29T12:26:19Z</time>
      </trkpt>
      <trkpt lat="42.19781" lon="9.05103">
        <ele>1846.05</ele>
        <time>2018-08-29T12:26:36Z</time>
      </trkpt>
      <trkpt lat="42.19777" lon="9.05087">
        <ele>1847.02</ele>
        <time>2018-08-29T12:26:55Z</time>
      </trkpt>
      <trkpt lat="42.19774" lon="9.05085">
        <ele>1846.96</ele>
        <time>2018-08-29T12:26:58Z</time>
      </trkpt>
      <trkpt lat="42.19763" lon="9.05061">
        <ele>1846.92</ele>
        <time>2018-08-29T12:27:17Z</time>
      </trkpt>
      <trkpt lat="42.19758" lon="9.05057">
        <ele>1847.02</ele>
        <time>2018-08-29T12:27:31Z</time>
      </trkpt>
      <trkpt lat="42.19758" lon="9.05054">
        <ele>1847.04</ele>
        <time>2018-08-29T12:27:45Z</time>
      </trkpt>
      <trkpt lat="42.19753" lon="9.05053">
        <ele>1847</ele>
        <time>2018-08-29T12:28:04Z</time>
      </trkpt>
      <trkpt lat="42.19752" lon="9.05052">
        <ele>1844.35</ele>
        <time>2018-08-29T12:28:06Z</time>
      </trkpt>
      <trkpt lat="42.19748" lon="9.05053">
        <ele>1842.7</ele>
        <time>2018-08-29T12:28:18Z</time>
      </trkpt>
      <trkpt lat="42.19747" lon="9.05056">
        <ele>1840.67</ele>
        <time>2018-08-29T12:28:33Z</time>
      </trkpt>
      <trkpt lat="42.19746" lon="9.05061">
        <ele>1840.6</ele>
        <time>2018-08-29T12:28:47Z</time>
      </trkpt>
      <trkpt lat="42.19746" lon="9.05063">
        <ele>1839.36</ele>
        <time>2018-08-29T12:28:52Z</time>
      </trkpt>
      <trkpt lat="42.19744" lon="9.05065">
        <ele>1838.49</ele>
        <time>2018-08-29T12:29:03Z</time>
      </trkpt>
      <trkpt lat="42.19741" lon="9.0506">
        <ele>1836.11</ele>
        <time>2018-08-29T12:29:18Z</time>
      </trkpt>
      <trkpt lat="42.1974" lon="9.0506">
        <ele>1834.76</ele>
        <time>2018-08-29T12:29:20Z</time>
      </trkpt>
      <trkpt lat="42.19737" lon="9.05058">
        <ele>1833.91</ele>
        <time>2018-08-29T12:29:33Z</time>
      </trkpt>
      <trkpt lat="42.19735" lon="9.0506">
        <ele>1832.6</ele>
        <time>2018-08-29T12:29:46Z</time>
      </trkpt>
      <trkpt lat="42.19731" lon="9.05056">
        <ele>1830.35</ele>
        <time>2018-08-29T12:29:57Z</time>
      </trkpt>
      <trkpt lat="42.19727" lon="9.05056">
        <ele>1828.5</ele>
        <time>2018-08-29T12:30:12Z</time>
      </trkpt>
      <trkpt lat="42.19725" lon="9.05058">
        <ele>1826.89</ele>
        <time>2018-08-29T12:30:26Z</time>
      </trkpt>
      <trkpt lat="42.19725" lon="9.05063">
        <ele>1824.43</ele>
        <time>2018-08-29T12:30:34Z</time>
      </trkpt>
      <trkpt lat="42.19723" lon="9.05067">
        <ele>1823.68</ele>
        <time>2018-08-29T12:30:48Z</time>
      </trkpt>
      <trkpt lat="42.19722" lon="9.05072">
        <ele>1821.45</ele>
        <time>2018-08-29T12:31:01Z</time>
      </trkpt>
      <trkpt lat="42.19722" lon="9.05075">
        <ele>1820.15</ele>
        <time>2018-08-29T12:31:10Z</time>
      </trkpt>
      <trkpt lat="42.19722" lon="9.05083">
        <ele>1818.87</ele>
        <time>2018-08-29T12:31:20Z</time>
      </trkpt>
      <trkpt lat="42.19722" lon="9.05087">
        <ele>1817.98</ele>
        <time>2018-08-29T12:31:26Z</time>
      </trkpt>
      <trkpt lat="42.19722" lon="9.05102">
        <ele>1815.99</ele>
        <time>2018-08-29T12:31:41Z</time>
      </trkpt>
      <trkpt lat="42.19718" lon="9.05093">
        <ele>1813.98</ele>
        <time>2018-08-29T12:31:54Z</time>
      </trkpt>
      <trkpt lat="42.1971" lon="9.05083">
        <ele>1812.34</ele>
        <time>2018-08-29T12:32:11Z</time>
      </trkpt>
      <trkpt lat="42.19706" lon="9.05081">
        <ele>1810.17</ele>
        <time>2018-08-29T12:32:20Z</time>
      </trkpt>
      <trkpt lat="42.197" lon="9.05079">
        <ele>1807.57</ele>
        <time>2018-08-29T12:32:33Z</time>
      </trkpt>
      <trkpt lat="42.19694" lon="9.05078">
        <ele>1805.77</ele>
        <time>2018-08-29T12:32:47Z</time>
      </trkpt>
      <trkpt lat="42.19692" lon="9.05078">
        <ele>1804.12</ele>
        <time>2018-08-29T12:32:52Z</time>
      </trkpt>
      <trkpt lat="42.19688" lon="9.05077">
        <ele>1803.24</ele>
        <time>2018-08-29T12:33:06Z</time>
      </trkpt>
      <trkpt lat="42.19685" lon="9.05077">
        <ele>1801.3</ele>
        <time>2018-08-29T12:33:18Z</time>
      </trkpt>
      <trkpt lat="42.19682" lon="9.05076">
        <ele>1799.77</ele>
        <time>2018-08-29T12:33:23Z</time>
      </trkpt>
      <trkpt lat="42.19678" lon="9.05077">
        <ele>1798.77</ele>
        <time>2018-08-29T12:33:35Z</time>
      </trkpt>
      <trkpt lat="42.19675" lon="9.05077">
        <ele>1797.56</ele>
        <time>2018-08-29T12:33:42Z</time>
      </trkpt>
      <trkpt lat="42.19669" lon="9.05077">
        <ele>1795.66</ele>
        <time>2018-08-29T12:33:55Z</time>
      </trkpt>
      <trkpt lat="42.19667" lon="9.05077">
        <ele>1794.22</ele>
        <time>2018-08-29T12:33:57Z</time>
      </trkpt>
      <trkpt lat="42.19664" lon="9.05084">
        <ele>1792.49</ele>
        <time>2018-08-29T12:34:11Z</time>
      </trkpt>
      <trkpt lat="42.19662" lon="9.05084">
        <ele>1790.68</ele>
        <time>2018-08-29T12:34:16Z</time>
      </trkpt>
      <trkpt lat="42.19662" lon="9.05091">
        <ele>1788.87</ele>
        <time>2018-08-29T12:34:30Z</time>
      </trkpt>
      <trkpt lat="42.19659" lon="9.05093">
        <ele>1786.17</ele>
        <time>2018-08-29T12:34:40Z</time>
      </trkpt>
      <trkpt lat="42.19657" lon="9.05104">
        <ele>1784.35</ele>
        <time>2018-08-29T12:34:55Z</time>
      </trkpt>
      <trkpt lat="42.19653" lon="9.05104">
        <ele>1781.72</ele>
        <time>2018-08-29T12:35:09Z</time>
      </trkpt>
      <trkpt lat="42.19654" lon="9.05107">
        <ele>1780.87</ele>
        <time>2018-08-29T12:35:22Z</time>
      </trkpt>
      <trkpt lat="42.19654" lon="9.05111">
        <ele>1780.87</ele>
        <time>2018-08-29T12:35:36Z</time>
      </trkpt>
      <trkpt lat="42.19652" lon="9.05112">
        <ele>1778.46</ele>
        <time>2018-08-29T12:35:45Z</time>
      </trkpt>
      <trkpt lat="42.19648" lon="9.05108">
        <ele>1775.1</ele>
        <time>2018-08-29T12:35:56Z</time>
      </trkpt>
      <trkpt lat="42.19644" lon="9.05113">
        <ele>1772.33</ele>
        <time>2018-08-29T12:36:10Z</time>
      </trkpt>
      <trkpt lat="42.1964" lon="9.05118">
        <ele>1768.58</ele>
        <time>2018-08-29T12:36:23Z</time>
      </trkpt>
      <trkpt lat="42.1964" lon="9.05118">
        <ele>1768.58</ele>
        <time>2018-08-29T12:36:24Z</time>
      </trkpt>
      <trkpt lat="42.19638" lon="9.05118">
        <ele>1767.07</ele>
        <time>2018-08-29T12:36:31Z</time>
      </trkpt>
      <trkpt lat="42.19635" lon="9.05124">
        <ele>1765.82</ele>
        <time>2018-08-29T12:36:40Z</time>
      </trkpt>
      <trkpt lat="42.19632" lon="9.05131">
        <ele>1763.03</ele>
        <time>2018-08-29T12:36:52Z</time>
      </trkpt>
      <trkpt lat="42.19628" lon="9.05131">
        <ele>1762.01</ele>
        <time>2018-08-29T12:37:06Z</time>
      </trkpt>
      <trkpt lat="42.19626" lon="9.05137">
        <ele>1759.23</ele>
        <time>2018-08-29T12:37:20Z</time>
      </trkpt>
      <trkpt lat="42.19623" lon="9.05144">
        <ele>1757.4</ele>
        <time>2018-08-29T12:37:33Z</time>
      </trkpt>
      <trkpt lat="42.19622" lon="9.05152">
        <ele>1755.1</ele>
        <time>2018-08-29T12:37:44Z</time>
      </trkpt>
      <trkpt lat="42.19622" lon="9.05158">
        <ele>1754.28</ele>
        <time>2018-08-29T12:37:56Z</time>
      </trkpt>
      <trkpt lat="42.19622" lon="9.05164">
        <ele>1752.78</ele>
        <time>2018-08-29T12:38:02Z</time>
      </trkpt>
      <trkpt lat="42.19618" lon="9.05175">
        <ele>1750.21</ele>
        <time>2018-08-29T12:38:16Z</time>
      </trkpt>
      <trkpt lat="42.19617" lon="9.05183">
        <ele>1746.1</ele>
        <time>2018-08-29T12:38:29Z</time>
      </trkpt>
      <trkpt lat="42.19617" lon="9.05183">
        <ele>1746.08</ele>
        <time>2018-08-29T12:38:30Z</time>
      </trkpt>
      <trkpt lat="42.19611" lon="9.05187">
        <ele>1744.23</ele>
        <time>2018-08-29T12:38:43Z</time>
      </trkpt>
      <trkpt lat="42.19612" lon="9.05191">
        <ele>1743</ele>
        <time>2018-08-29T12:38:49Z</time>
      </trkpt>
      <trkpt lat="42.19607" lon="9.05193">
        <ele>1742.21</ele>
        <time>2018-08-29T12:39:01Z</time>
      </trkpt>
      <trkpt lat="42.19607" lon="9.05197">
        <ele>1740.04</ele>
        <time>2018-08-29T12:39:07Z</time>
      </trkpt>
      <trkpt lat="42.19605" lon="9.05203">
        <ele>1738.26</ele>
        <time>2018-08-29T12:39:20Z</time>
      </trkpt>
      <trkpt lat="42.19603" lon="9.05205">
        <ele>1735.64</ele>
        <time>2018-08-29T12:39:25Z</time>
      </trkpt>
      <trkpt lat="42.19599" lon="9.05211">
        <ele>1733.71</ele>
        <time>2018-08-29T12:39:39Z</time>
      </trkpt>
      <trkpt lat="42.19598" lon="9.05214">
        <ele>1730.82</ele>
        <time>2018-08-29T12:39:47Z</time>
      </trkpt>
      <trkpt lat="42.19595" lon="9.05219">
        <ele>1729.9</ele>
        <time>2018-08-29T12:39:59Z</time>
      </trkpt>
      <trkpt lat="42.19591" lon="9.05222">
        <ele>1727.93</ele>
        <time>2018-08-29T12:40:10Z</time>
      </trkpt>
      <trkpt lat="42.19586" lon="9.05226">
        <ele>1725.87</ele>
        <time>2018-08-29T12:40:23Z</time>
      </trkpt>
      <trkpt lat="42.19586" lon="9.05236">
        <ele>1723.18</ele>
        <time>2018-08-29T12:40:36Z</time>
      </trkpt>
      <trkpt lat="42.19578" lon="9.05235">
        <ele>1721.6</ele>
        <time>2018-08-29T12:40:49Z</time>
      </trkpt>
      <trkpt lat="42.19577" lon="9.05235">
        <ele>1719.72</ele>
        <time>2018-08-29T12:40:51Z</time>
      </trkpt>
      <trkpt lat="42.19578" lon="9.05247">
        <ele>1717.84</ele>
        <time>2018-08-29T12:41:03Z</time>
      </trkpt>
      <trkpt lat="42.19578" lon="9.05253">
        <ele>1714.63</ele>
        <time>2018-08-29T12:41:13Z</time>
      </trkpt>
      <trkpt lat="42.19578" lon="9.05253">
        <ele>1714.66</ele>
        <time>2018-08-29T12:41:14Z</time>
      </trkpt>
      <trkpt lat="42.19571" lon="9.05254">
        <ele>1712.53</ele>
        <time>2018-08-29T12:41:27Z</time>
      </trkpt>
      <trkpt lat="42.19567" lon="9.05259">
        <ele>1710.5</ele>
        <time>2018-08-29T12:41:40Z</time>
      </trkpt>
      <trkpt lat="42.19564" lon="9.05267">
        <ele>1710.54</ele>
        <time>2018-08-29T12:41:53Z</time>
      </trkpt>
      <trkpt lat="42.19562" lon="9.05272">
        <ele>1707.59</ele>
        <time>2018-08-29T12:42:06Z</time>
      </trkpt>
      <trkpt lat="42.1956" lon="9.0528">
        <ele>1704.97</ele>
        <time>2018-08-29T12:42:16Z</time>
      </trkpt>
      <trkpt lat="42.19562" lon="9.05285">
        <ele>1703.69</ele>
        <time>2018-08-29T12:42:23Z</time>
      </trkpt>
      <trkpt lat="42.19563" lon="9.05291">
        <ele>1701.78</ele>
        <time>2018-08-29T12:42:37Z</time>
      </trkpt>
      <trkpt lat="42.19559" lon="9.05293">
        <ele>1698.9</ele>
        <time>2018-08-29T12:42:50Z</time>
      </trkpt>
      <trkpt lat="42.19553" lon="9.05296">
        <ele>1697.37</ele>
        <time>2018-08-29T12:43:03Z</time>
      </trkpt>
      <trkpt lat="42.19549" lon="9.05301">
        <ele>1695.79</ele>
        <time>2018-08-29T12:43:17Z</time>
      </trkpt>
      <trkpt lat="42.19544" lon="9.05301">
        <ele>1693.99</ele>
        <time>2018-08-29T12:43:30Z</time>
      </trkpt>
      <trkpt lat="42.19544" lon="9.05312">
        <ele>1692.22</ele>
        <time>2018-08-29T12:43:45Z</time>
      </trkpt>
      <trkpt lat="42.1954" lon="9.05317">
        <ele>1688.52</ele>
        <time>2018-08-29T12:43:59Z</time>
      </trkpt>
      <trkpt lat="42.19537" lon="9.05316">
        <ele>1687.34</ele>
        <time>2018-08-29T12:44:07Z</time>
      </trkpt>
      <trkpt lat="42.19536" lon="9.05319">
        <ele>1686.53</ele>
        <time>2018-08-29T12:44:26Z</time>
      </trkpt>
      <trkpt lat="42.19533" lon="9.0532">
        <ele>1685.21</ele>
        <time>2018-08-29T12:44:33Z</time>
      </trkpt>
      <trkpt lat="42.19529" lon="9.05322">
        <ele>1683.54</ele>
        <time>2018-08-29T12:44:47Z</time>
      </trkpt>
      <trkpt lat="42.19523" lon="9.05318">
        <ele>1681.44</ele>
        <time>2018-08-29T12:45:01Z</time>
      </trkpt>
      <trkpt lat="42.19519" lon="9.05318">
        <ele>1679.45</ele>
        <time>2018-08-29T12:45:09Z</time>
      </trkpt>
      <trkpt lat="42.19516" lon="9.05321">
        <ele>1678.29</ele>
        <time>2018-08-29T12:45:23Z</time>
      </trkpt>
      <trkpt lat="42.19516" lon="9.05323">
        <ele>1676.79</ele>
        <time>2018-08-29T12:45:25Z</time>
      </trkpt>
      <trkpt lat="42.19514" lon="9.05326">
        <ele>1675.54</ele>
        <time>2018-08-29T12:45:31Z</time>
      </trkpt>
      <trkpt lat="42.19514" lon="9.05336">
        <ele>1673.58</ele>
        <time>2018-08-29T12:45:46Z</time>
      </trkpt>
      <trkpt lat="42.19517" lon="9.05342">
        <ele>1670.76</ele>
        <time>2018-08-29T12:46:01Z</time>
      </trkpt>
      <trkpt lat="42.19513" lon="9.05343">
        <ele>1669.13</ele>
        <time>2018-08-29T12:46:14Z</time>
      </trkpt>
      <trkpt lat="42.19514" lon="9.05351">
        <ele>1668.08</ele>
        <time>2018-08-29T12:46:28Z</time>
      </trkpt>
      <trkpt lat="42.19514" lon="9.05354">
        <ele>1666.25</ele>
        <time>2018-08-29T12:46:40Z</time>
      </trkpt>
      <trkpt lat="42.19514" lon="9.05359">
        <ele>1663.07</ele>
        <time>2018-08-29T12:46:52Z</time>
      </trkpt>
      <trkpt lat="42.1951" lon="9.05359">
        <ele>1661.72</ele>
        <time>2018-08-29T12:47:02Z</time>
      </trkpt>
      <trkpt lat="42.19509" lon="9.05364">
        <ele>1659.09</ele>
        <time>2018-08-29T12:47:16Z</time>
      </trkpt>
      <trkpt lat="42.19512" lon="9.05367">
        <ele>1657.98</ele>
        <time>2018-08-29T12:47:28Z</time>
      </trkpt>
      <trkpt lat="42.19509" lon="9.05368">
        <ele>1656.61</ele>
        <time>2018-08-29T12:47:33Z</time>
      </trkpt>
      <trkpt lat="42.1951" lon="9.05378">
        <ele>1653.77</ele>
        <time>2018-08-29T12:47:45Z</time>
      </trkpt>
      <trkpt lat="42.19507" lon="9.05379">
        <ele>1652.83</ele>
        <time>2018-08-29T12:47:59Z</time>
      </trkpt>
      <trkpt lat="42.19507" lon="9.05382">
        <ele>1651.54</ele>
        <time>2018-08-29T12:48:02Z</time>
      </trkpt>
      <trkpt lat="42.19507" lon="9.05386">
        <ele>1651.48</ele>
        <time>2018-08-29T12:48:20Z</time>
      </trkpt>
      <trkpt lat="42.19505" lon="9.05391">
        <ele>1649.64</ele>
        <time>2018-08-29T12:48:33Z</time>
      </trkpt>
      <trkpt lat="42.19505" lon="9.05392">
        <ele>1648.32</ele>
        <time>2018-08-29T12:48:35Z</time>
      </trkpt>
      <trkpt lat="42.19507" lon="9.05396">
        <ele>1647.43</ele>
        <time>2018-08-29T12:48:50Z</time>
      </trkpt>
      <trkpt lat="42.19509" lon="9.05402">
        <ele>1645.49</ele>
        <time>2018-08-29T12:49:04Z</time>
      </trkpt>
      <trkpt lat="42.19509" lon="9.05404">
        <ele>1644.63</ele>
        <time>2018-08-29T12:49:22Z</time>
      </trkpt>
      <trkpt lat="42.19511" lon="9.05407">
        <ele>1643.3</ele>
        <time>2018-08-29T12:49:29Z</time>
      </trkpt>
      <trkpt lat="42.19504" lon="9.05406">
        <ele>1643.21</ele>
        <time>2018-08-29T12:49:41Z</time>
      </trkpt>
      <trkpt lat="42.19505" lon="9.05413">
        <ele>1639.99</ele>
        <time>2018-08-29T12:49:54Z</time>
      </trkpt>
      <trkpt lat="42.19505" lon="9.05417">
        <ele>1638.59</ele>
        <time>2018-08-29T12:50:02Z</time>
      </trkpt>
      <trkpt lat="42.19505" lon="9.05422">
        <ele>1636.92</ele>
        <time>2018-08-29T12:50:17Z</time>
      </trkpt>
      <trkpt lat="42.19501" lon="9.05423">
        <ele>1634.59</ele>
        <time>2018-08-29T12:50:28Z</time>
      </trkpt>
      <trkpt lat="42.19503" lon="9.05429">
        <ele>1633.23</ele>
        <time>2018-08-29T12:50:38Z</time>
      </trkpt>
      <trkpt lat="42.19503" lon="9.05434">
        <ele>1630.85</ele>
        <time>2018-08-29T12:50:48Z</time>
      </trkpt>
      <trkpt lat="42.19501" lon="9.05439">
        <ele>1628.94</ele>
        <time>2018-08-29T12:51:01Z</time>
      </trkpt>
      <trkpt lat="42.19501" lon="9.05445">
        <ele>1627.34</ele>
        <time>2018-08-29T12:51:16Z</time>
      </trkpt>
      <trkpt lat="42.19501" lon="9.05447">
        <ele>1626.1</ele>
        <time>2018-08-29T12:51:19Z</time>
      </trkpt>
      <trkpt lat="42.19496" lon="9.05455">
        <ele>1623.61</ele>
        <time>2018-08-29T12:51:35Z</time>
      </trkpt>
      <trkpt lat="42.19495" lon="9.05458">
        <ele>1621.91</ele>
        <time>2018-08-29T12:51:47Z</time>
      </trkpt>
      <trkpt lat="42.19494" lon="9.05465">
        <ele>1619.21</ele>
        <time>2018-08-29T12:51:58Z</time>
      </trkpt>
      <trkpt lat="42.19492" lon="9.05471">
        <ele>1619.17</ele>
        <time>2018-08-29T12:52:10Z</time>
      </trkpt>
      <trkpt lat="42.19491" lon="9.05481">
        <ele>1617.31</ele>
        <time>2018-08-29T12:52:28Z</time>
      </trkpt>
      <trkpt lat="42.19485" lon="9.05491">
        <ele>1616.44</ele>
        <time>2018-08-29T12:52:43Z</time>
      </trkpt>
      <trkpt lat="42.19483" lon="9.055">
        <ele>1615.4</ele>
        <time>2018-08-29T12:52:56Z</time>
      </trkpt>
      <trkpt lat="42.19484" lon="9.05501">
        <ele>1614.55</ele>
        <time>2018-08-29T12:53:16Z</time>
      </trkpt>
      <trkpt lat="42.19485" lon="9.05505">
        <ele>1614.48</ele>
        <time>2018-08-29T12:53:35Z</time>
      </trkpt>
      <trkpt lat="42.19485" lon="9.05508">
        <ele>1613.36</ele>
        <time>2018-08-29T12:53:51Z</time>
      </trkpt>
      <trkpt lat="42.19486" lon="9.05513">
        <ele>1613.35</ele>
        <time>2018-08-29T12:54:01Z</time>
      </trkpt>
      <trkpt lat="42.19492" lon="9.05529">
        <ele>1612.26</ele>
        <time>2018-08-29T12:54:16Z</time>
      </trkpt>
      <trkpt lat="42.19493" lon="9.05533">
        <ele>1610.52</ele>
        <time>2018-08-29T12:54:20Z</time>
      </trkpt>
      <trkpt lat="42.19495" lon="9.05537">
        <ele>1610.51</ele>
        <time>2018-08-29T12:54:24Z</time>
      </trkpt>
      <trkpt lat="42.19513" lon="9.0554">
        <ele>1609.46</ele>
        <time>2018-08-29T12:54:41Z</time>
      </trkpt>
      <trkpt lat="42.19515" lon="9.05541">
        <ele>1609.45</ele>
        <time>2018-08-29T12:54:43Z</time>
      </trkpt>
      <trkpt lat="42.19523" lon="9.05535">
        <ele>1608.66</ele>
        <time>2018-08-29T12:54:53Z</time>
      </trkpt>
      <trkpt lat="42.19531" lon="9.05536">
        <ele>1608.58</ele>
        <time>2018-08-29T12:55:06Z</time>
      </trkpt>
      <trkpt lat="42.19532" lon="9.05536">
        <ele>1608.57</ele>
        <time>2018-08-29T12:55:09Z</time>
      </trkpt>
      <trkpt lat="42.19538" lon="9.05544">
        <ele>1608.5</ele>
        <time>2018-08-29T12:55:21Z</time>
      </trkpt>
      <trkpt lat="42.19538" lon="9.05549">
        <ele>1606.62</ele>
        <time>2018-08-29T12:55:24Z</time>
      </trkpt>
      <trkpt lat="42.19538" lon="9.05557">
        <ele>1609.07</ele>
        <time>2018-08-29T12:55:31Z</time>
      </trkpt>
      <trkpt lat="42.19541" lon="9.05567">
        <ele>1606.59</ele>
        <time>2018-08-29T12:55:43Z</time>
      </trkpt>
      <trkpt lat="42.19542" lon="9.05577">
        <ele>1603.61</ele>
        <time>2018-08-29T12:55:57Z</time>
      </trkpt>
      <trkpt lat="42.19544" lon="9.0559">
        <ele>1601.14</ele>
        <time>2018-08-29T12:56:11Z</time>
      </trkpt>
      <trkpt lat="42.19542" lon="9.05594">
        <ele>1600.23</ele>
        <time>2018-08-29T12:56:16Z</time>
      </trkpt>
      <trkpt lat="42.1954" lon="9.05609">
        <ele>1599.12</ele>
        <time>2018-08-29T12:56:32Z</time>
      </trkpt>
      <trkpt lat="42.19537" lon="9.05612">
        <ele>1597.45</ele>
        <time>2018-08-29T12:56:39Z</time>
      </trkpt>
      <trkpt lat="42.19534" lon="9.0562">
        <ele>1595.16</ele>
        <time>2018-08-29T12:56:53Z</time>
      </trkpt>
      <trkpt lat="42.19533" lon="9.05632">
        <ele>1592.5</ele>
        <time>2018-08-29T12:57:07Z</time>
      </trkpt>
      <trkpt lat="42.19534" lon="9.05642">
        <ele>1592.49</ele>
        <time>2018-08-29T12:57:23Z</time>
      </trkpt>
      <trkpt lat="42.19534" lon="9.05648">
        <ele>1590.65</ele>
        <time>2018-08-29T12:57:38Z</time>
      </trkpt>
      <trkpt lat="42.19535" lon="9.05655">
        <ele>1589.44</ele>
        <time>2018-08-29T12:57:50Z</time>
      </trkpt>
      <trkpt lat="42.19537" lon="9.05661">
        <ele>1588.16</ele>
        <time>2018-08-29T12:57:58Z</time>
      </trkpt>
      <trkpt lat="42.19537" lon="9.05664">
        <ele>1586.4</ele>
        <time>2018-08-29T12:58:15Z</time>
      </trkpt>
      <trkpt lat="42.19532" lon="9.05666">
        <ele>1584.76</ele>
        <time>2018-08-29T12:58:30Z</time>
      </trkpt>
      <trkpt lat="42.19535" lon="9.05676">
        <ele>1583.42</ele>
        <time>2018-08-29T12:58:44Z</time>
      </trkpt>
      <trkpt lat="42.19537" lon="9.05685">
        <ele>1581.71</ele>
        <time>2018-08-29T12:58:56Z</time>
      </trkpt>
      <trkpt lat="42.19538" lon="9.05697">
        <ele>1580.16</ele>
        <time>2018-08-29T12:59:09Z</time>
      </trkpt>
      <trkpt lat="42.19539" lon="9.05703">
        <ele>1580.13</ele>
        <time>2018-08-29T12:59:23Z</time>
      </trkpt>
      <trkpt lat="42.19544" lon="9.05705">
        <ele>1579.22</ele>
        <time>2018-08-29T12:59:46Z</time>
      </trkpt>
      <trkpt lat="42.19542" lon="9.05711">
        <ele>1576.57</ele>
        <time>2018-08-29T12:59:59Z</time>
      </trkpt>
      <trkpt lat="42.19543" lon="9.05716">
        <ele>1575.55</ele>
        <time>2018-08-29T13:00:12Z</time>
      </trkpt>
      <trkpt lat="42.19545" lon="9.05717">
        <ele>1573.76</ele>
        <time>2018-08-29T13:00:27Z</time>
      </trkpt>
      <trkpt lat="42.19542" lon="9.05719">
        <ele>1572.88</ele>
        <time>2018-08-29T13:00:44Z</time>
      </trkpt>
      <trkpt lat="42.19543" lon="9.05722">
        <ele>1571.12</ele>
        <time>2018-08-29T13:00:56Z</time>
      </trkpt>
      <trkpt lat="42.1954" lon="9.05724">
        <ele>1569.34</ele>
        <time>2018-08-29T13:01:09Z</time>
      </trkpt>
      <trkpt lat="42.19543" lon="9.05729">
        <ele>1567.64</ele>
        <time>2018-08-29T13:01:27Z</time>
      </trkpt>
      <trkpt lat="42.19547" lon="9.05731">
        <ele>1565.1</ele>
        <time>2018-08-29T13:01:44Z</time>
      </trkpt>
      <trkpt lat="42.19544" lon="9.05733">
        <ele>1563.43</ele>
        <time>2018-08-29T13:02:00Z</time>
      </trkpt>
      <trkpt lat="42.19546" lon="9.05737">
        <ele>1561.18</ele>
        <time>2018-08-29T13:02:06Z</time>
      </trkpt>
      <trkpt lat="42.19547" lon="9.05743">
        <ele>1559.24</ele>
        <time>2018-08-29T13:02:18Z</time>
      </trkpt>
      <trkpt lat="42.19545" lon="9.05744">
        <ele>1557.57</ele>
        <time>2018-08-29T13:02:31Z</time>
      </trkpt>
      <trkpt lat="42.19541" lon="9.05749">
        <ele>1554.9</ele>
        <time>2018-08-29T13:02:42Z</time>
      </trkpt>
      <trkpt lat="42.19536" lon="9.05744">
        <ele>1551.92</ele>
        <time>2018-08-29T13:02:57Z</time>
      </trkpt>
      <trkpt lat="42.19536" lon="9.05751">
        <ele>1550.1</ele>
        <time>2018-08-29T13:03:09Z</time>
      </trkpt>
      <trkpt lat="42.19533" lon="9.05754">
        <ele>1548.3</ele>
        <time>2018-08-29T13:03:22Z</time>
      </trkpt>
      <trkpt lat="42.1953" lon="9.05752">
        <ele>1547.08</ele>
        <time>2018-08-29T13:03:29Z</time>
      </trkpt>
      <trkpt lat="42.19523" lon="9.05749">
        <ele>1544.27</ele>
        <time>2018-08-29T13:03:45Z</time>
      </trkpt>
      <trkpt lat="42.19521" lon="9.05753">
        <ele>1542.55</ele>
        <time>2018-08-29T13:03:59Z</time>
      </trkpt>
      <trkpt lat="42.19524" lon="9.05757">
        <ele>1541.52</ele>
        <time>2018-08-29T13:04:12Z</time>
      </trkpt>
      <trkpt lat="42.19522" lon="9.05761">
        <ele>1539.45</ele>
        <time>2018-08-29T13:04:26Z</time>
      </trkpt>
      <trkpt lat="42.19521" lon="9.05767">
        <ele>1536.28</ele>
        <time>2018-08-29T13:04:38Z</time>
      </trkpt>
      <trkpt lat="42.1952" lon="9.05774">
        <ele>1534.42</ele>
        <time>2018-08-29T13:04:52Z</time>
      </trkpt>
      <trkpt lat="42.19521" lon="9.05779">
        <ele>1532.7</ele>
        <time>2018-08-29T13:04:57Z</time>
      </trkpt>
      <trkpt lat="42.19524" lon="9.05782">
        <ele>1531.44</ele>
        <time>2018-08-29T13:05:04Z</time>
      </trkpt>
      <trkpt lat="42.19523" lon="9.05789">
        <ele>1529.51</ele>
        <time>2018-08-29T13:05:18Z</time>
      </trkpt>
      <trkpt lat="42.19527" lon="9.05796">
        <ele>1527.53</ele>
        <time>2018-08-29T13:05:35Z</time>
      </trkpt>
      <trkpt lat="42.19528" lon="9.05807">
        <ele>1523.72</ele>
        <time>2018-08-29T13:05:49Z</time>
      </trkpt>
      <trkpt lat="42.19528" lon="9.05808">
        <ele>1523.74</ele>
        <time>2018-08-29T13:05:50Z</time>
      </trkpt>
      <trkpt lat="42.19532" lon="9.05818">
        <ele>1523.01</ele>
        <time>2018-08-29T13:06:02Z</time>
      </trkpt>
      <trkpt lat="42.19533" lon="9.05821">
        <ele>1523.01</ele>
        <time>2018-08-29T13:06:06Z</time>
      </trkpt>
      <trkpt lat="42.1954" lon="9.05831">
        <ele>1521.07</ele>
        <time>2018-08-29T13:06:21Z</time>
      </trkpt>
      <trkpt lat="42.19537" lon="9.05832">
        <ele>1519.79</ele>
        <time>2018-08-29T13:06:26Z</time>
      </trkpt>
      <trkpt lat="42.19535" lon="9.05839">
        <ele>1519.02</ele>
        <time>2018-08-29T13:06:39Z</time>
      </trkpt>
      <trkpt lat="42.19536" lon="9.05849">
        <ele>1516.78</ele>
        <time>2018-08-29T13:06:53Z</time>
      </trkpt>
      <trkpt lat="42.19533" lon="9.05855">
        <ele>1515.82</ele>
        <time>2018-08-29T13:07:06Z</time>
      </trkpt>
      <trkpt lat="42.19532" lon="9.05861">
        <ele>1513.93</ele>
        <time>2018-08-29T13:07:18Z</time>
      </trkpt>
      <trkpt lat="42.1953" lon="9.05862">
        <ele>1512.68</ele>
        <time>2018-08-29T13:07:20Z</time>
      </trkpt>
      <trkpt lat="42.19529" lon="9.05872">
        <ele>1510.92</ele>
        <time>2018-08-29T13:07:35Z</time>
      </trkpt>
      <trkpt lat="42.1953" lon="9.05873">
        <ele>1510.91</ele>
        <time>2018-08-29T13:07:37Z</time>
      </trkpt>
      <trkpt lat="42.19538" lon="9.05879">
        <ele>1508.74</ele>
        <time>2018-08-29T13:07:52Z</time>
      </trkpt>
      <trkpt lat="42.19534" lon="9.05883">
        <ele>1507.2</ele>
        <time>2018-08-29T13:08:03Z</time>
      </trkpt>
      <trkpt lat="42.19529" lon="9.05894">
        <ele>1505.49</ele>
        <time>2018-08-29T13:08:18Z</time>
      </trkpt>
      <trkpt lat="42.19522" lon="9.05905">
        <ele>1503.77</ele>
        <time>2018-08-29T13:08:33Z</time>
      </trkpt>
      <trkpt lat="42.19524" lon="9.05912">
        <ele>1501.76</ele>
        <time>2018-08-29T13:08:45Z</time>
      </trkpt>
      <trkpt lat="42.19524" lon="9.05913">
        <ele>1500.98</ele>
        <time>2018-08-29T13:08:49Z</time>
      </trkpt>
      <trkpt lat="42.19522" lon="9.05925">
        <ele>1500.02</ele>
        <time>2018-08-29T13:09:04Z</time>
      </trkpt>
      <trkpt lat="42.19523" lon="9.05934">
        <ele>1497.24</ele>
        <time>2018-08-29T13:09:17Z</time>
      </trkpt>
      <trkpt lat="42.19523" lon="9.05943">
        <ele>1494.56</ele>
        <time>2018-08-29T13:09:32Z</time>
      </trkpt>
      <trkpt lat="42.19528" lon="9.05945">
        <ele>1492.81</ele>
        <time>2018-08-29T13:09:52Z</time>
      </trkpt>
      <trkpt lat="42.19532" lon="9.05949">
        <ele>1491.1</ele>
        <time>2018-08-29T13:10:06Z</time>
      </trkpt>
      <trkpt lat="42.19534" lon="9.05947">
        <ele>1489.86</ele>
        <time>2018-08-29T13:10:10Z</time>
      </trkpt>
      <trkpt lat="42.1954" lon="9.05948">
        <ele>1488.8</ele>
        <time>2018-08-29T13:10:26Z</time>
      </trkpt>
      <trkpt lat="42.19543" lon="9.05947">
        <ele>1486.43</ele>
        <time>2018-08-29T13:10:33Z</time>
      </trkpt>
      <trkpt lat="42.19551" lon="9.05949">
        <ele>1486.43</ele>
        <time>2018-08-29T13:10:46Z</time>
      </trkpt>
      <trkpt lat="42.19556" lon="9.05951">
        <ele>1484.71</ele>
        <time>2018-08-29T13:10:59Z</time>
      </trkpt>
      <trkpt lat="42.19557" lon="9.05954">
        <ele>1483.61</ele>
        <time>2018-08-29T13:11:11Z</time>
      </trkpt>
      <trkpt lat="42.19557" lon="9.05955">
        <ele>1482.71</ele>
        <time>2018-08-29T13:11:25Z</time>
      </trkpt>
      <trkpt lat="42.19557" lon="9.05958">
        <ele>1482.67</ele>
        <time>2018-08-29T13:11:53Z</time>
      </trkpt>
      <trkpt lat="42.19559" lon="9.05961">
        <ele>1485.18</ele>
        <time>2018-08-29T13:12:03Z</time>
      </trkpt>
      <trkpt lat="42.19559" lon="9.05968">
        <ele>1485.13</ele>
        <time>2018-08-29T13:12:17Z</time>
      </trkpt>
      <trkpt lat="42.19559" lon="9.05967">
        <ele>1486.07</ele>
        <time>2018-08-29T13:12:53Z</time>
      </trkpt>
      <trkpt lat="42.19559" lon="9.05976">
        <ele>1486.08</ele>
        <time>2018-08-29T13:13:16Z</time>
      </trkpt>
      <trkpt lat="42.19557" lon="9.0599">
        <ele>1486.01</ele>
        <time>2018-08-29T13:13:30Z</time>
      </trkpt>
      <trkpt lat="42.19557" lon="9.06001">
        <ele>1485.94</ele>
        <time>2018-08-29T13:13:42Z</time>
      </trkpt>
      <trkpt lat="42.19557" lon="9.06012">
        <ele>1483.41</ele>
        <time>2018-08-29T13:13:55Z</time>
      </trkpt>
      <trkpt lat="42.19558" lon="9.06012">
        <ele>1483.37</ele>
        <time>2018-08-29T13:13:56Z</time>
      </trkpt>
      <trkpt lat="42.19559" lon="9.06014">
        <ele>1483.35</ele>
        <time>2018-08-29T13:13:58Z</time>
      </trkpt>
      <trkpt lat="42.19563" lon="9.0603">
        <ele>1482.47</ele>
        <time>2018-08-29T13:14:12Z</time>
      </trkpt>
      <trkpt lat="42.19561" lon="9.0604">
        <ele>1480.22</ele>
        <time>2018-08-29T13:14:22Z</time>
      </trkpt>
      <trkpt lat="42.19561" lon="9.06041">
        <ele>1480.25</ele>
        <time>2018-08-29T13:14:23Z</time>
      </trkpt>
      <trkpt lat="42.19562" lon="9.06058">
        <ele>1479.07</ele>
        <time>2018-08-29T13:14:39Z</time>
      </trkpt>
      <trkpt lat="42.19564" lon="9.06067">
        <ele>1478.23</ele>
        <time>2018-08-29T13:14:53Z</time>
      </trkpt>
      <trkpt lat="42.19562" lon="9.06075">
        <ele>1478.22</ele>
        <time>2018-08-29T13:15:09Z</time>
      </trkpt>
      <trkpt lat="42.19565" lon="9.06085">
        <ele>1476.32</ele>
        <time>2018-08-29T13:15:20Z</time>
      </trkpt>
      <trkpt lat="42.19565" lon="9.06095">
        <ele>1475.52</ele>
        <time>2018-08-29T13:15:31Z</time>
      </trkpt>
      <trkpt lat="42.19567" lon="9.06107">
        <ele>1474.67</ele>
        <time>2018-08-29T13:15:45Z</time>
      </trkpt>
      <trkpt lat="42.19568" lon="9.0611">
        <ele>1473.29</ele>
        <time>2018-08-29T13:15:47Z</time>
      </trkpt>
      <trkpt lat="42.19576" lon="9.0612">
        <ele>1473.32</ele>
        <time>2018-08-29T13:15:58Z</time>
      </trkpt>
      <trkpt lat="42.19578" lon="9.06126">
        <ele>1473.3</ele>
        <time>2018-08-29T13:16:04Z</time>
      </trkpt>
      <trkpt lat="42.19581" lon="9.06129">
        <ele>1472.49</ele>
        <time>2018-08-29T13:16:08Z</time>
      </trkpt>
      <trkpt lat="42.19583" lon="9.06132">
        <ele>1472.49</ele>
        <time>2018-08-29T13:16:11Z</time>
      </trkpt>
      <trkpt lat="42.19589" lon="9.06134">
        <ele>1472.48</ele>
        <time>2018-08-29T13:16:18Z</time>
      </trkpt>
      <trkpt lat="42.19599" lon="9.06145">
        <ele>1471.55</ele>
        <time>2018-08-29T13:16:32Z</time>
      </trkpt>
      <trkpt lat="42.19604" lon="9.06153">
        <ele>1469.17</ele>
        <time>2018-08-29T13:16:45Z</time>
      </trkpt>
      <trkpt lat="42.19604" lon="9.06154">
        <ele>1469.22</ele>
        <time>2018-08-29T13:16:46Z</time>
      </trkpt>
      <trkpt lat="42.19609" lon="9.06161">
        <ele>1469.22</ele>
        <time>2018-08-29T13:16:59Z</time>
      </trkpt>
      <trkpt lat="42.19612" lon="9.0617">
        <ele>1468.04</ele>
        <time>2018-08-29T13:17:13Z</time>
      </trkpt>
      <trkpt lat="42.19612" lon="9.06183">
        <ele>1468.04</ele>
        <time>2018-08-29T13:17:27Z</time>
      </trkpt>
      <trkpt lat="42.19622" lon="9.06187">
        <ele>1466.93</ele>
        <time>2018-08-29T13:17:40Z</time>
      </trkpt>
      <trkpt lat="42.19629" lon="9.06189">
        <ele>1466.85</ele>
        <time>2018-08-29T13:17:54Z</time>
      </trkpt>
      <trkpt lat="42.1963" lon="9.06193">
        <ele>1466.82</ele>
        <time>2018-08-29T13:18:05Z</time>
      </trkpt>
      <trkpt lat="42.19629" lon="9.06196">
        <ele>1466.8</ele>
        <time>2018-08-29T13:18:20Z</time>
      </trkpt>
      <trkpt lat="42.19626" lon="9.06202">
        <ele>1466.74</ele>
        <time>2018-08-29T13:18:43Z</time>
      </trkpt>
      <trkpt lat="42.19624" lon="9.06213">
        <ele>1465.77</ele>
        <time>2018-08-29T13:18:55Z</time>
      </trkpt>
      <trkpt lat="42.19622" lon="9.06224">
        <ele>1465.83</ele>
        <time>2018-08-29T13:19:08Z</time>
      </trkpt>
      <trkpt lat="42.19619" lon="9.06228">
        <ele>1465.82</ele>
        <time>2018-08-29T13:19:12Z</time>
      </trkpt>
      <trkpt lat="42.19617" lon="9.06251">
        <ele>1465.81</ele>
        <time>2018-08-29T13:19:29Z</time>
      </trkpt>
      <trkpt lat="42.19617" lon="9.06254">
        <ele>1465.81</ele>
        <time>2018-08-29T13:19:32Z</time>
      </trkpt>
      <trkpt lat="42.19619" lon="9.06265">
        <ele>1465.76</ele>
        <time>2018-08-29T13:19:43Z</time>
      </trkpt>
      <trkpt lat="42.19617" lon="9.06275">
        <ele>1465.75</ele>
        <time>2018-08-29T13:19:55Z</time>
      </trkpt>
      <trkpt lat="42.19615" lon="9.06282">
        <ele>1465.71</ele>
        <time>2018-08-29T13:20:00Z</time>
      </trkpt>
      <trkpt lat="42.19614" lon="9.06295">
        <ele>1464.83</ele>
        <time>2018-08-29T13:20:11Z</time>
      </trkpt>
      <trkpt lat="42.19616" lon="9.063">
        <ele>1464.79</ele>
        <time>2018-08-29T13:20:28Z</time>
      </trkpt>
      <trkpt lat="42.19619" lon="9.06304">
        <ele>1463.04</ele>
        <time>2018-08-29T13:20:48Z</time>
      </trkpt>
      <trkpt lat="42.19619" lon="9.06309">
        <ele>1462.1</ele>
        <time>2018-08-29T13:21:00Z</time>
      </trkpt>
      <trkpt lat="42.19619" lon="9.06313">
        <ele>1462.14</ele>
        <time>2018-08-29T13:21:10Z</time>
      </trkpt>
      <trkpt lat="42.19614" lon="9.06318">
        <ele>1462.11</ele>
        <time>2018-08-29T13:21:24Z</time>
      </trkpt>
      <trkpt lat="42.19611" lon="9.06327">
        <ele>1462.09</ele>
        <time>2018-08-29T13:21:37Z</time>
      </trkpt>
      <trkpt lat="42.19607" lon="9.06329">
        <ele>1461.04</ele>
        <time>2018-08-29T13:21:51Z</time>
      </trkpt>
      <trkpt lat="42.19602" lon="9.06329">
        <ele>1459.17</ele>
        <time>2018-08-29T13:22:03Z</time>
      </trkpt>
      <trkpt lat="42.19599" lon="9.06328">
        <ele>1457.38</ele>
        <time>2018-08-29T13:22:16Z</time>
      </trkpt>
      <trkpt lat="42.19593" lon="9.06332">
        <ele>1455.59</ele>
        <time>2018-08-29T13:22:30Z</time>
      </trkpt>
      <trkpt lat="42.19591" lon="9.06331">
        <ele>1454.8</ele>
        <time>2018-08-29T13:22:41Z</time>
      </trkpt>
      <trkpt lat="42.19587" lon="9.0633">
        <ele>1453.77</ele>
        <time>2018-08-29T13:22:52Z</time>
      </trkpt>
      <trkpt lat="42.19581" lon="9.06334">
        <ele>1452.95</ele>
        <time>2018-08-29T13:23:03Z</time>
      </trkpt>
      <trkpt lat="42.19576" lon="9.06336">
        <ele>1450.42</ele>
        <time>2018-08-29T13:23:14Z</time>
      </trkpt>
      <trkpt lat="42.19571" lon="9.06335">
        <ele>1449.33</ele>
        <time>2018-08-29T13:23:27Z</time>
      </trkpt>
      <trkpt lat="42.19566" lon="9.06336">
        <ele>1448.15</ele>
        <time>2018-08-29T13:23:40Z</time>
      </trkpt>
      <trkpt lat="42.19558" lon="9.06339">
        <ele>1445.96</ele>
        <time>2018-08-29T13:23:55Z</time>
      </trkpt>
      <trkpt lat="42.19553" lon="9.06341">
        <ele>1442.85</ele>
        <time>2018-08-29T13:24:05Z</time>
      </trkpt>
      <trkpt lat="42.19553" lon="9.06341">
        <ele>1442.86</ele>
        <time>2018-08-29T13:24:06Z</time>
      </trkpt>
      <trkpt lat="42.19547" lon="9.06344">
        <ele>1440.95</ele>
        <time>2018-08-29T13:24:19Z</time>
      </trkpt>
      <trkpt lat="42.19541" lon="9.06343">
        <ele>1439.08</ele>
        <time>2018-08-29T13:24:32Z</time>
      </trkpt>
      <trkpt lat="42.19537" lon="9.06341">
        <ele>1437.37</ele>
        <time>2018-08-29T13:24:43Z</time>
      </trkpt>
      <trkpt lat="42.1953" lon="9.06343">
        <ele>1435.5</ele>
        <time>2018-08-29T13:24:56Z</time>
      </trkpt>
      <trkpt lat="42.19527" lon="9.0634">
        <ele>1433.93</ele>
        <time>2018-08-29T13:25:09Z</time>
      </trkpt>
      <trkpt lat="42.19522" lon="9.06339">
        <ele>1431.14</ele>
        <time>2018-08-29T13:25:22Z</time>
      </trkpt>
      <trkpt lat="42.19518" lon="9.06336">
        <ele>1430.23</ele>
        <time>2018-08-29T13:25:33Z</time>
      </trkpt>
      <trkpt lat="42.1951" lon="9.06342">
        <ele>1427.38</ele>
        <time>2018-08-29T13:25:50Z</time>
      </trkpt>
      <trkpt lat="42.19507" lon="9.06335">
        <ele>1425.35</ele>
        <time>2018-08-29T13:26:03Z</time>
      </trkpt>
      <trkpt lat="42.19504" lon="9.06341">
        <ele>1423.68</ele>
        <time>2018-08-29T13:26:15Z</time>
      </trkpt>
      <trkpt lat="42.19502" lon="9.06347">
        <ele>1422.4</ele>
        <time>2018-08-29T13:26:21Z</time>
      </trkpt>
      <trkpt lat="42.19497" lon="9.06348">
        <ele>1419.92</ele>
        <time>2018-08-29T13:26:34Z</time>
      </trkpt>
      <trkpt lat="42.19492" lon="9.06352">
        <ele>1417.65</ele>
        <time>2018-08-29T13:26:49Z</time>
      </trkpt>
      <trkpt lat="42.19488" lon="9.06352">
        <ele>1415.71</ele>
        <time>2018-08-29T13:27:04Z</time>
      </trkpt>
      <trkpt lat="42.19482" lon="9.06352">
        <ele>1412.72</ele>
        <time>2018-08-29T13:27:17Z</time>
      </trkpt>
      <trkpt lat="42.19475" lon="9.0635">
        <ele>1411.04</ele>
        <time>2018-08-29T13:27:30Z</time>
      </trkpt>
      <trkpt lat="42.19472" lon="9.06348">
        <ele>1410.2</ele>
        <time>2018-08-29T13:27:44Z</time>
      </trkpt>
      <trkpt lat="42.19465" lon="9.06351">
        <ele>1406.72</ele>
        <time>2018-08-29T13:27:57Z</time>
      </trkpt>
      <trkpt lat="42.19462" lon="9.06348">
        <ele>1405.53</ele>
        <time>2018-08-29T13:28:09Z</time>
      </trkpt>
      <trkpt lat="42.19457" lon="9.06347">
        <ele>1402.97</ele>
        <time>2018-08-29T13:28:21Z</time>
      </trkpt>
      <trkpt lat="42.19449" lon="9.0635">
        <ele>1401.18</ele>
        <time>2018-08-29T13:28:33Z</time>
      </trkpt>
      <trkpt lat="42.19449" lon="9.06349">
        <ele>1401.13</ele>
        <time>2018-08-29T13:28:55Z</time>
      </trkpt>
      <trkpt lat="42.19448" lon="9.06347">
        <ele>1399.8</ele>
        <time>2018-08-29T13:29:07Z</time>
      </trkpt>
      <trkpt lat="42.19445" lon="9.06346">
        <ele>1399.8</ele>
        <time>2018-08-29T13:29:12Z</time>
      </trkpt>
      <trkpt lat="42.19432" lon="9.06351">
        <ele>1396.98</ele>
        <time>2018-08-29T13:29:26Z</time>
      </trkpt>
      <trkpt lat="42.19426" lon="9.06355">
        <ele>1395.3</ele>
        <time>2018-08-29T13:29:39Z</time>
      </trkpt>
      <trkpt lat="42.19419" lon="9.06357">
        <ele>1393.53</ele>
        <time>2018-08-29T13:29:53Z</time>
      </trkpt>
      <trkpt lat="42.19414" lon="9.0636">
        <ele>1392.49</ele>
        <time>2018-08-29T13:30:00Z</time>
      </trkpt>
      <trkpt lat="42.19412" lon="9.06361">
        <ele>1391.21</ele>
        <time>2018-08-29T13:30:02Z</time>
      </trkpt>
      <trkpt lat="42.19403" lon="9.06364">
        <ele>1389.04</ele>
        <time>2018-08-29T13:30:14Z</time>
      </trkpt>
      <trkpt lat="42.19399" lon="9.06357">
        <ele>1386.19</ele>
        <time>2018-08-29T13:30:25Z</time>
      </trkpt>
      <trkpt lat="42.19392" lon="9.06359">
        <ele>1385.3</ele>
        <time>2018-08-29T13:30:37Z</time>
      </trkpt>
      <trkpt lat="42.19391" lon="9.06361">
        <ele>1385.28</ele>
        <time>2018-08-29T13:30:39Z</time>
      </trkpt>
      <trkpt lat="42.19389" lon="9.06363">
        <ele>1383.99</ele>
        <time>2018-08-29T13:30:41Z</time>
      </trkpt>
      <trkpt lat="42.19379" lon="9.06369">
        <ele>1381.77</ele>
        <time>2018-08-29T13:30:55Z</time>
      </trkpt>
      <trkpt lat="42.19374" lon="9.06371">
        <ele>1379.85</ele>
        <time>2018-08-29T13:31:04Z</time>
      </trkpt>
      <trkpt lat="42.19364" lon="9.06367">
        <ele>1376.94</ele>
        <time>2018-08-29T13:31:18Z</time>
      </trkpt>
      <trkpt lat="42.19356" lon="9.06368">
        <ele>1375.32</ele>
        <time>2018-08-29T13:31:31Z</time>
      </trkpt>
      <trkpt lat="42.19355" lon="9.06371">
        <ele>1374.26</ele>
        <time>2018-08-29T13:31:34Z</time>
      </trkpt>
      <trkpt lat="42.19353" lon="9.06372">
        <ele>1374.27</ele>
        <time>2018-08-29T13:31:36Z</time>
      </trkpt>
      <trkpt lat="42.19348" lon="9.06393">
        <ele>1373.36</ele>
        <time>2018-08-29T13:31:51Z</time>
      </trkpt>
      <trkpt lat="42.19345" lon="9.064">
        <ele>1372.54</ele>
        <time>2018-08-29T13:32:04Z</time>
      </trkpt>
      <trkpt lat="42.19342" lon="9.06408">
        <ele>1370.78</ele>
        <time>2018-08-29T13:32:17Z</time>
      </trkpt>
      <trkpt lat="42.19344" lon="9.06409">
        <ele>1369.72</ele>
        <time>2018-08-29T13:32:35Z</time>
      </trkpt>
      <trkpt lat="42.19343" lon="9.06416">
        <ele>1369.68</ele>
        <time>2018-08-29T13:32:45Z</time>
      </trkpt>
      <trkpt lat="42.1934" lon="9.06419">
        <ele>1369.67</ele>
        <time>2018-08-29T13:32:49Z</time>
      </trkpt>
      <trkpt lat="42.19334" lon="9.06435">
        <ele>1369.61</ele>
        <time>2018-08-29T13:33:03Z</time>
      </trkpt>
      <trkpt lat="42.19326" lon="9.06446">
        <ele>1367.63</ele>
        <time>2018-08-29T13:33:18Z</time>
      </trkpt>
      <trkpt lat="42.19325" lon="9.06449">
        <ele>1367.62</ele>
        <time>2018-08-29T13:33:21Z</time>
      </trkpt>
      <trkpt lat="42.1932" lon="9.06461">
        <ele>1367.55</ele>
        <time>2018-08-29T13:33:34Z</time>
      </trkpt>
      <trkpt lat="42.19313" lon="9.06473">
        <ele>1364.86</ele>
        <time>2018-08-29T13:33:49Z</time>
      </trkpt>
      <trkpt lat="42.19313" lon="9.06474">
        <ele>1364.86</ele>
        <time>2018-08-29T13:33:50Z</time>
      </trkpt>
      <trkpt lat="42.19312" lon="9.06487">
        <ele>1364.82</ele>
        <time>2018-08-29T13:34:02Z</time>
      </trkpt>
      <trkpt lat="42.19306" lon="9.06498">
        <ele>1364.78</ele>
        <time>2018-08-29T13:34:17Z</time>
      </trkpt>
      <trkpt lat="42.19307" lon="9.06506">
        <ele>1363.88</ele>
        <time>2018-08-29T13:34:27Z</time>
      </trkpt>
      <trkpt lat="42.19307" lon="9.06521">
        <ele>1363.84</ele>
        <time>2018-08-29T13:34:43Z</time>
      </trkpt>
      <trkpt lat="42.19303" lon="9.06527">
        <ele>1363.81</ele>
        <time>2018-08-29T13:34:50Z</time>
      </trkpt>
      <trkpt lat="42.19302" lon="9.06529">
        <ele>1363.81</ele>
        <time>2018-08-29T13:34:52Z</time>
      </trkpt>
      <trkpt lat="42.19297" lon="9.06547">
        <ele>1363.75</ele>
        <time>2018-08-29T13:35:09Z</time>
      </trkpt>
      <trkpt lat="42.19292" lon="9.0655">
        <ele>1361.79</ele>
        <time>2018-08-29T13:35:21Z</time>
      </trkpt>
      <trkpt lat="42.19286" lon="9.06555">
        <ele>1360.91</ele>
        <time>2018-08-29T13:35:32Z</time>
      </trkpt>
      <trkpt lat="42.19282" lon="9.0656">
        <ele>1359.59</ele>
        <time>2018-08-29T13:35:40Z</time>
      </trkpt>
      <trkpt lat="42.19274" lon="9.0657">
        <ele>1357.03</ele>
        <time>2018-08-29T13:35:54Z</time>
      </trkpt>
      <trkpt lat="42.19273" lon="9.06573">
        <ele>1357.08</ele>
        <time>2018-08-29T13:36:11Z</time>
      </trkpt>
      <trkpt lat="42.19271" lon="9.06581">
        <ele>1355.14</ele>
        <time>2018-08-29T13:36:45Z</time>
      </trkpt>
      <trkpt lat="42.19264" lon="9.06593">
        <ele>1352.39</ele>
        <time>2018-08-29T13:36:59Z</time>
      </trkpt>
      <trkpt lat="42.19259" lon="9.06599">
        <ele>1351.12</ele>
        <time>2018-08-29T13:37:07Z</time>
      </trkpt>
      <trkpt lat="42.19258" lon="9.06604">
        <ele>1351</ele>
        <time>2018-08-29T13:37:11Z</time>
      </trkpt>
      <trkpt lat="42.19254" lon="9.06619">
        <ele>1349.27</ele>
        <time>2018-08-29T13:37:23Z</time>
      </trkpt>
      <trkpt lat="42.19247" lon="9.0663">
        <ele>1347.12</ele>
        <time>2018-08-29T13:37:40Z</time>
      </trkpt>
      <trkpt lat="42.19246" lon="9.0663">
        <ele>1347.14</ele>
        <time>2018-08-29T13:37:41Z</time>
      </trkpt>
      <trkpt lat="42.19245" lon="9.0663">
        <ele>1345.94</ele>
        <time>2018-08-29T13:37:58Z</time>
      </trkpt>
      <trkpt lat="42.19236" lon="9.06637">
        <ele>1344.97</ele>
        <time>2018-08-29T13:38:12Z</time>
      </trkpt>
      <trkpt lat="42.19231" lon="9.06645">
        <ele>1344.1</ele>
        <time>2018-08-29T13:38:25Z</time>
      </trkpt>
      <trkpt lat="42.1923" lon="9.06647">
        <ele>1344.09</ele>
        <time>2018-08-29T13:38:27Z</time>
      </trkpt>
      <trkpt lat="42.19222" lon="9.06655">
        <ele>1342.01</ele>
        <time>2018-08-29T13:38:38Z</time>
      </trkpt>
      <trkpt lat="42.19221" lon="9.06657">
        <ele>1342</ele>
        <time>2018-08-29T13:38:40Z</time>
      </trkpt>
      <trkpt lat="42.19219" lon="9.06659">
        <ele>1340.9</ele>
        <time>2018-08-29T13:38:43Z</time>
      </trkpt>
      <trkpt lat="42.19211" lon="9.06667">
        <ele>1338.17</ele>
        <time>2018-08-29T13:38:56Z</time>
      </trkpt>
      <trkpt lat="42.19207" lon="9.06674">
        <ele>1336.83</ele>
        <time>2018-08-29T13:39:04Z</time>
      </trkpt>
      <trkpt lat="42.192" lon="9.06682">
        <ele>1335.05</ele>
        <time>2018-08-29T13:39:17Z</time>
      </trkpt>
      <trkpt lat="42.19197" lon="9.06689">
        <ele>1332.79</ele>
        <time>2018-08-29T13:39:25Z</time>
      </trkpt>
      <trkpt lat="42.19191" lon="9.06693">
        <ele>1332.77</ele>
        <time>2018-08-29T13:39:33Z</time>
      </trkpt>
      <trkpt lat="42.19188" lon="9.06697">
        <ele>1330.88</ele>
        <time>2018-08-29T13:39:37Z</time>
      </trkpt>
      <trkpt lat="42.19187" lon="9.067">
        <ele>1329.16</ele>
        <time>2018-08-29T13:39:41Z</time>
      </trkpt>
      <trkpt lat="42.19179" lon="9.06708">
        <ele>1327.31</ele>
        <time>2018-08-29T13:39:56Z</time>
      </trkpt>
      <trkpt lat="42.19174" lon="9.06716">
        <ele>1324.03</ele>
        <time>2018-08-29T13:40:08Z</time>
      </trkpt>
      <trkpt lat="42.19173" lon="9.06717">
        <ele>1324.06</ele>
        <time>2018-08-29T13:40:09Z</time>
      </trkpt>
      <trkpt lat="42.1917" lon="9.06723">
        <ele>1322.54</ele>
        <time>2018-08-29T13:40:15Z</time>
      </trkpt>
      <trkpt lat="42.19162" lon="9.06733">
        <ele>1320.52</ele>
        <time>2018-08-29T13:40:29Z</time>
      </trkpt>
      <trkpt lat="42.1916" lon="9.06734">
        <ele>1319.68</ele>
        <time>2018-08-29T13:40:31Z</time>
      </trkpt>
      <trkpt lat="42.19151" lon="9.06742">
        <ele>1317.78</ele>
        <time>2018-08-29T13:40:45Z</time>
      </trkpt>
      <trkpt lat="42.19146" lon="9.06749">
        <ele>1315.84</ele>
        <time>2018-08-29T13:40:53Z</time>
      </trkpt>
      <trkpt lat="42.1914" lon="9.06756">
        <ele>1313.62</ele>
        <time>2018-08-29T13:41:07Z</time>
      </trkpt>
      <trkpt lat="42.19133" lon="9.06769">
        <ele>1311.89</ele>
        <time>2018-08-29T13:41:21Z</time>
      </trkpt>
      <trkpt lat="42.19126" lon="9.06782">
        <ele>1308.95</ele>
        <time>2018-08-29T13:41:38Z</time>
      </trkpt>
      <trkpt lat="42.19121" lon="9.06786">
        <ele>1305.92</ele>
        <time>2018-08-29T13:41:58Z</time>
      </trkpt>
      <trkpt lat="42.19115" lon="9.06795">
        <ele>1304.18</ele>
        <time>2018-08-29T13:42:09Z</time>
      </trkpt>
      <trkpt lat="42.19112" lon="9.06799">
        <ele>1304.19</ele>
        <time>2018-08-29T13:42:13Z</time>
      </trkpt>
      <trkpt lat="42.19104" lon="9.06816">
        <ele>1303.31</ele>
        <time>2018-08-29T13:42:30Z</time>
      </trkpt>
      <trkpt lat="42.19103" lon="9.06818">
        <ele>1303.28</ele>
        <time>2018-08-29T13:42:32Z</time>
      </trkpt>
      <trkpt lat="42.191" lon="9.06823">
        <ele>1301.81</ele>
        <time>2018-08-29T13:42:37Z</time>
      </trkpt>
      <trkpt lat="42.19097" lon="9.06833">
        <ele>1300.67</ele>
        <time>2018-08-29T13:42:45Z</time>
      </trkpt>
      <trkpt lat="42.1909" lon="9.06835">
        <ele>1297.72</ele>
        <time>2018-08-29T13:42:53Z</time>
      </trkpt>
      <trkpt lat="42.19078" lon="9.06845">
        <ele>1296.92</ele>
        <time>2018-08-29T13:43:06Z</time>
      </trkpt>
      <trkpt lat="42.19079" lon="9.06857">
        <ele>1295.43</ele>
        <time>2018-08-29T13:43:13Z</time>
      </trkpt>
      <trkpt lat="42.19076" lon="9.06863">
        <ele>1295.33</ele>
        <time>2018-08-29T13:43:18Z</time>
      </trkpt>
      <trkpt lat="42.19071" lon="9.06874">
        <ele>1293.33</ele>
        <time>2018-08-29T13:43:34Z</time>
      </trkpt>
      <trkpt lat="42.19069" lon="9.06873">
        <ele>1293.14</ele>
        <time>2018-08-29T13:44:10Z</time>
      </trkpt>
      <trkpt lat="42.1907" lon="9.06873">
        <ele>1293.01</ele>
        <time>2018-08-29T13:44:32Z</time>
      </trkpt>
      <trkpt lat="42.19069" lon="9.06874">
        <ele>1292.03</ele>
        <time>2018-08-29T13:45:05Z</time>
      </trkpt>
      <trkpt lat="42.19068" lon="9.06875">
        <ele>1291.99</ele>
        <time>2018-08-29T13:45:19Z</time>
      </trkpt>
      <trkpt lat="42.19069" lon="9.06877">
        <ele>1291.91</ele>
        <time>2018-08-29T13:45:29Z</time>
      </trkpt>
      <trkpt lat="42.19066" lon="9.06884">
        <ele>1291.85</ele>
        <time>2018-08-29T13:45:44Z</time>
      </trkpt>
      <trkpt lat="42.19067" lon="9.06883">
        <ele>1290.92</ele>
        <time>2018-08-29T13:46:04Z</time>
      </trkpt>
      <trkpt lat="42.19066" lon="9.06896">
        <ele>1290.81</ele>
        <time>2018-08-29T13:46:16Z</time>
      </trkpt>
      <trkpt lat="42.19063" lon="9.06907">
        <ele>1289.59</ele>
        <time>2018-08-29T13:46:23Z</time>
      </trkpt>
      <trkpt lat="42.1906" lon="9.06926">
        <ele>1287.77</ele>
        <time>2018-08-29T13:46:37Z</time>
      </trkpt>
      <trkpt lat="42.19057" lon="9.06949">
        <ele>1285.61</ele>
        <time>2018-08-29T13:46:54Z</time>
      </trkpt>
      <trkpt lat="42.19057" lon="9.0695">
        <ele>1285.61</ele>
        <time>2018-08-29T13:46:55Z</time>
      </trkpt>
      <trkpt lat="42.19056" lon="9.06969">
        <ele>1283.42</ele>
        <time>2018-08-29T13:47:09Z</time>
      </trkpt>
      <trkpt lat="42.19056" lon="9.06991">
        <ele>1282.6</ele>
        <time>2018-08-29T13:47:25Z</time>
      </trkpt>
      <trkpt lat="42.19056" lon="9.07016">
        <ele>1282.53</ele>
        <time>2018-08-29T13:47:42Z</time>
      </trkpt>
      <trkpt lat="42.19053" lon="9.07043">
        <ele>1281.48</ele>
        <time>2018-08-29T13:48:01Z</time>
      </trkpt>
      <trkpt lat="42.19045" lon="9.0706">
        <ele>1280.54</ele>
        <time>2018-08-29T13:48:17Z</time>
      </trkpt>
      <trkpt lat="42.19038" lon="9.07069">
        <ele>1279.71</ele>
        <time>2018-08-29T13:48:28Z</time>
      </trkpt>
      <trkpt lat="42.19035" lon="9.07071">
        <ele>1278.55</ele>
        <time>2018-08-29T13:48:32Z</time>
      </trkpt>
      <trkpt lat="42.19029" lon="9.0708">
        <ele>1277.69</ele>
        <time>2018-08-29T13:48:46Z</time>
      </trkpt>
      <trkpt lat="42.19025" lon="9.07087">
        <ele>1277.66</ele>
        <time>2018-08-29T13:49:06Z</time>
      </trkpt>
      <trkpt lat="42.19025" lon="9.07088">
        <ele>1277.65</ele>
        <time>2018-08-29T13:49:07Z</time>
      </trkpt>
      <trkpt lat="42.19023" lon="9.07094">
        <ele>1276.8</ele>
        <time>2018-08-29T13:49:12Z</time>
      </trkpt>
      <trkpt lat="42.19015" lon="9.07097">
        <ele>1276.74</ele>
        <time>2018-08-29T13:49:22Z</time>
      </trkpt>
      <trkpt lat="42.19009" lon="9.07103">
        <ele>1275.66</ele>
        <time>2018-08-29T13:49:30Z</time>
      </trkpt>
      <trkpt lat="42.19008" lon="9.07105">
        <ele>1275.61</ele>
        <time>2018-08-29T13:49:33Z</time>
      </trkpt>
      <trkpt lat="42.19002" lon="9.07114">
        <ele>1274.56</ele>
        <time>2018-08-29T13:49:45Z</time>
      </trkpt>
      <trkpt lat="42.18999" lon="9.07125">
        <ele>1272.56</ele>
        <time>2018-08-29T13:49:55Z</time>
      </trkpt>
      <trkpt lat="42.18992" lon="9.07136">
        <ele>1269.83</ele>
        <time>2018-08-29T13:50:09Z</time>
      </trkpt>
      <trkpt lat="42.18992" lon="9.07138">
        <ele>1269.88</ele>
        <time>2018-08-29T13:50:10Z</time>
      </trkpt>
      <trkpt lat="42.18986" lon="9.07158">
        <ele>1268.03</ele>
        <time>2018-08-29T13:50:27Z</time>
      </trkpt>
      <trkpt lat="42.18979" lon="9.0717">
        <ele>1266.17</ele>
        <time>2018-08-29T13:50:41Z</time>
      </trkpt>
      <trkpt lat="42.18972" lon="9.07184">
        <ele>1265.16</ele>
        <time>2018-08-29T13:50:55Z</time>
      </trkpt>
      <trkpt lat="42.18969" lon="9.07188">
        <ele>1263.63</ele>
        <time>2018-08-29T13:50:59Z</time>
      </trkpt>
      <trkpt lat="42.18968" lon="9.0719">
        <ele>1263.63</ele>
        <time>2018-08-29T13:51:01Z</time>
      </trkpt>
      <trkpt lat="42.18963" lon="9.072">
        <ele>1263.53</ele>
        <time>2018-08-29T13:51:10Z</time>
      </trkpt>
      <trkpt lat="42.18961" lon="9.07202">
        <ele>1262.69</ele>
        <time>2018-08-29T13:51:12Z</time>
      </trkpt>
      <trkpt lat="42.18952" lon="9.07213">
        <ele>1261.8</ele>
        <time>2018-08-29T13:51:25Z</time>
      </trkpt>
      <trkpt lat="42.18941" lon="9.0723">
        <ele>1259.62</ele>
        <time>2018-08-29T13:51:41Z</time>
      </trkpt>
      <trkpt lat="42.18941" lon="9.07232">
        <ele>1259.65</ele>
        <time>2018-08-29T13:51:43Z</time>
      </trkpt>
      <trkpt lat="42.18938" lon="9.07248">
        <ele>1258.8</ele>
        <time>2018-08-29T13:51:57Z</time>
      </trkpt>
      <trkpt lat="42.18937" lon="9.07252">
        <ele>1257.34</ele>
        <time>2018-08-29T13:51:59Z</time>
      </trkpt>
      <trkpt lat="42.18936" lon="9.07257">
        <ele>1257.29</ele>
        <time>2018-08-29T13:52:03Z</time>
      </trkpt>
      <trkpt lat="42.18935" lon="9.07264">
        <ele>1255.99</ele>
        <time>2018-08-29T13:52:08Z</time>
      </trkpt>
      <trkpt lat="42.18933" lon="9.07274">
        <ele>1255.94</ele>
        <time>2018-08-29T13:52:13Z</time>
      </trkpt>
      <trkpt lat="42.18927" lon="9.07302">
        <ele>1253.37</ele>
        <time>2018-08-29T13:52:29Z</time>
      </trkpt>
      <trkpt lat="42.18925" lon="9.07311">
        <ele>1253.38</ele>
        <time>2018-08-29T13:52:35Z</time>
      </trkpt>
      <trkpt lat="42.18922" lon="9.07322">
        <ele>1252.42</ele>
        <time>2018-08-29T13:52:41Z</time>
      </trkpt>
      <trkpt lat="42.18921" lon="9.07336">
        <ele>1252.49</ele>
        <time>2018-08-29T13:52:51Z</time>
      </trkpt>
      <trkpt lat="42.18916" lon="9.07352">
        <ele>1250.8</ele>
        <time>2018-08-29T13:53:05Z</time>
      </trkpt>
      <trkpt lat="42.1891" lon="9.07364">
        <ele>1248.96</ele>
        <time>2018-08-29T13:53:13Z</time>
      </trkpt>
      <trkpt lat="42.18909" lon="9.07368">
        <ele>1248.93</ele>
        <time>2018-08-29T13:53:16Z</time>
      </trkpt>
      <trkpt lat="42.18908" lon="9.07378">
        <ele>1248.11</ele>
        <time>2018-08-29T13:53:22Z</time>
      </trkpt>
      <trkpt lat="42.18904" lon="9.07384">
        <ele>1248.12</ele>
        <time>2018-08-29T13:53:27Z</time>
      </trkpt>
      <trkpt lat="42.18898" lon="9.07401">
        <ele>1245.21</ele>
        <time>2018-08-29T13:53:42Z</time>
      </trkpt>
      <trkpt lat="42.18894" lon="9.07414">
        <ele>1244.03</ele>
        <time>2018-08-29T13:53:54Z</time>
      </trkpt>
      <trkpt lat="42.18892" lon="9.07421">
        <ele>1242.28</ele>
        <time>2018-08-29T13:54:00Z</time>
      </trkpt>
      <trkpt lat="42.18886" lon="9.07432">
        <ele>1241.21</ele>
        <time>2018-08-29T13:54:13Z</time>
      </trkpt>
      <trkpt lat="42.18884" lon="9.07438">
        <ele>1240.44</ele>
        <time>2018-08-29T13:54:18Z</time>
      </trkpt>
      <trkpt lat="42.18878" lon="9.07451">
        <ele>1239.47</ele>
        <time>2018-08-29T13:54:31Z</time>
      </trkpt>
      <trkpt lat="42.18876" lon="9.07454">
        <ele>1238.12</ele>
        <time>2018-08-29T13:54:34Z</time>
      </trkpt>
      <trkpt lat="42.18874" lon="9.07462">
        <ele>1237.25</ele>
        <time>2018-08-29T13:54:43Z</time>
      </trkpt>
      <trkpt lat="42.18867" lon="9.07477">
        <ele>1236.32</ele>
        <time>2018-08-29T13:54:57Z</time>
      </trkpt>
      <trkpt lat="42.18865" lon="9.07482">
        <ele>1234.45</ele>
        <time>2018-08-29T13:55:02Z</time>
      </trkpt>
      <trkpt lat="42.18862" lon="9.07492">
        <ele>1234.48</ele>
        <time>2018-08-29T13:55:10Z</time>
      </trkpt>
      <trkpt lat="42.18859" lon="9.07502">
        <ele>1233.26</ele>
        <time>2018-08-29T13:55:20Z</time>
      </trkpt>
      <trkpt lat="42.18846" lon="9.07511">
        <ele>1232.19</ele>
        <time>2018-08-29T13:55:33Z</time>
      </trkpt>
      <trkpt lat="42.18841" lon="9.07514">
        <ele>1231.37</ele>
        <time>2018-08-29T13:55:38Z</time>
      </trkpt>
      <trkpt lat="42.18833" lon="9.07526">
        <ele>1231.45</ele>
        <time>2018-08-29T13:55:51Z</time>
      </trkpt>
      <trkpt lat="42.18827" lon="9.07534">
        <ele>1230.33</ele>
        <time>2018-08-29T13:56:04Z</time>
      </trkpt>
      <trkpt lat="42.18823" lon="9.07536">
        <ele>1228.26</ele>
        <time>2018-08-29T13:56:17Z</time>
      </trkpt>
      <trkpt lat="42.18818" lon="9.07533">
        <ele>1226.51</ele>
        <time>2018-08-29T13:56:31Z</time>
      </trkpt>
      <trkpt lat="42.18812" lon="9.07536">
        <ele>1225.54</ele>
        <time>2018-08-29T13:56:44Z</time>
      </trkpt>
      <trkpt lat="42.18803" lon="9.07538">
        <ele>1223.69</ele>
        <time>2018-08-29T13:56:57Z</time>
      </trkpt>
      <trkpt lat="42.18796" lon="9.0754">
        <ele>1221.99</ele>
        <time>2018-08-29T13:57:06Z</time>
      </trkpt>
      <trkpt lat="42.18781" lon="9.07546">
        <ele>1219.32</ele>
        <time>2018-08-29T13:57:24Z</time>
      </trkpt>
      <trkpt lat="42.18776" lon="9.07548">
        <ele>1219.38</ele>
        <time>2018-08-29T13:57:39Z</time>
      </trkpt>
      <trkpt lat="42.18767" lon="9.07547">
        <ele>1217.44</ele>
        <time>2018-08-29T13:57:54Z</time>
      </trkpt>
      <trkpt lat="42.18761" lon="9.07548">
        <ele>1216.35</ele>
        <time>2018-08-29T13:57:59Z</time>
      </trkpt>
      <trkpt lat="42.18746" lon="9.07557">
        <ele>1214.38</ele>
        <time>2018-08-29T13:58:12Z</time>
      </trkpt>
      <trkpt lat="42.18738" lon="9.07562">
        <ele>1213.5</ele>
        <time>2018-08-29T13:58:20Z</time>
      </trkpt>
      <trkpt lat="42.18734" lon="9.07563">
        <ele>1213.5</ele>
        <time>2018-08-29T13:58:23Z</time>
      </trkpt>
      <trkpt lat="42.18724" lon="9.07565">
        <ele>1211.43</ele>
        <time>2018-08-29T13:58:36Z</time>
      </trkpt>
      <trkpt lat="42.18724" lon="9.07565">
        <ele>1211.44</ele>
        <time>2018-08-29T13:58:37Z</time>
      </trkpt>
      <trkpt lat="42.18722" lon="9.07567">
        <ele>1211.57</ele>
        <time>2018-08-29T13:58:59Z</time>
      </trkpt>
      <trkpt lat="42.18718" lon="9.0757">
        <ele>1211.62</ele>
        <time>2018-08-29T13:59:19Z</time>
      </trkpt>
      <trkpt lat="42.18716" lon="9.07571">
        <ele>1210.85</ele>
        <time>2018-08-29T13:59:23Z</time>
      </trkpt>
      <trkpt lat="42.18709" lon="9.0757">
        <ele>1210.89</ele>
        <time>2018-08-29T13:59:30Z</time>
      </trkpt>
      <trkpt lat="42.18708" lon="9.07573">
        <ele>1210.03</ele>
        <time>2018-08-29T13:59:43Z</time>
      </trkpt>
      <trkpt lat="42.18707" lon="9.07577">
        <ele>1210.16</ele>
        <time>2018-08-29T14:00:09Z</time>
      </trkpt>
      <trkpt lat="42.18706" lon="9.07577">
        <ele>1210.34</ele>
        <time>2018-08-29T14:00:45Z</time>
      </trkpt>
      <trkpt lat="42.18705" lon="9.07577">
        <ele>1210.45</ele>
        <time>2018-08-29T14:01:08Z</time>
      </trkpt>
      <trkpt lat="42.18705" lon="9.07578">
        <ele>1210.53</ele>
        <time>2018-08-29T14:01:28Z</time>
      </trkpt>
      <trkpt lat="42.18701" lon="9.0758">
        <ele>1209.78</ele>
        <time>2018-08-29T14:01:40Z</time>
      </trkpt>
      <trkpt lat="42.18697" lon="9.07578">
        <ele>1208.45</ele>
        <time>2018-08-29T14:01:47Z</time>
      </trkpt>
      <trkpt lat="42.18693" lon="9.07574">
        <ele>1207.4</ele>
        <time>2018-08-29T14:01:58Z</time>
      </trkpt>
      <trkpt lat="42.18685" lon="9.0757">
        <ele>1205.51</ele>
        <time>2018-08-29T14:02:09Z</time>
      </trkpt>
      <trkpt lat="42.18684" lon="9.07567">
        <ele>1204.46</ele>
        <time>2018-08-29T14:02:12Z</time>
      </trkpt>
      <trkpt lat="42.18675" lon="9.07567">
        <ele>1203.22</ele>
        <time>2018-08-29T14:02:20Z</time>
      </trkpt>
      <trkpt lat="42.18662" lon="9.07568">
        <ele>1200.78</ele>
        <time>2018-08-29T14:02:35Z</time>
      </trkpt>
      <trkpt lat="42.1865" lon="9.07567">
        <ele>1199.54</ele>
        <time>2018-08-29T14:02:46Z</time>
      </trkpt>
      <trkpt lat="42.18647" lon="9.07569">
        <ele>1199.55</ele>
        <time>2018-08-29T14:02:50Z</time>
      </trkpt>
      <trkpt lat="42.18645" lon="9.07569">
        <ele>1199.56</ele>
        <time>2018-08-29T14:02:52Z</time>
      </trkpt>
      <trkpt lat="42.18643" lon="9.0757">
        <ele>1199.57</ele>
        <time>2018-08-29T14:02:54Z</time>
      </trkpt>
      <trkpt lat="42.18636" lon="9.07571">
        <ele>1198.4</ele>
        <time>2018-08-29T14:03:00Z</time>
      </trkpt>
      <trkpt lat="42.18623" lon="9.07569">
        <ele>1197.48</ele>
        <time>2018-08-29T14:03:12Z</time>
      </trkpt>
      <trkpt lat="42.18617" lon="9.07569">
        <ele>1196.67</ele>
        <time>2018-08-29T14:03:20Z</time>
      </trkpt>
      <trkpt lat="42.18605" lon="9.07569">
        <ele>1194.14</ele>
        <time>2018-08-29T14:03:33Z</time>
      </trkpt>
      <trkpt lat="42.18592" lon="9.07564">
        <ele>1191.69</ele>
        <time>2018-08-29T14:03:48Z</time>
      </trkpt>
      <trkpt lat="42.1858" lon="9.07564">
        <ele>1189.36</ele>
        <time>2018-08-29T14:03:59Z</time>
      </trkpt>
      <trkpt lat="42.18569" lon="9.07566">
        <ele>1187.53</ele>
        <time>2018-08-29T14:04:10Z</time>
      </trkpt>
      <trkpt lat="42.18563" lon="9.07577">
        <ele>1186.72</ele>
        <time>2018-08-29T14:04:23Z</time>
      </trkpt>
      <trkpt lat="42.18556" lon="9.07579">
        <ele>1186.76</ele>
        <time>2018-08-29T14:04:35Z</time>
      </trkpt>
      <trkpt lat="42.18547" lon="9.07582">
        <ele>1185.17</ele>
        <time>2018-08-29T14:04:45Z</time>
      </trkpt>
      <trkpt lat="42.18535" lon="9.07584">
        <ele>1184.33</ele>
        <time>2018-08-29T14:04:57Z</time>
      </trkpt>
      <trkpt lat="42.18522" lon="9.07595">
        <ele>1182.61</ele>
        <time>2018-08-29T14:05:12Z</time>
      </trkpt>
      <trkpt lat="42.18507" lon="9.07598">
        <ele>1181.6</ele>
        <time>2018-08-29T14:05:27Z</time>
      </trkpt>
      <trkpt lat="42.18502" lon="9.07603">
        <ele>1181.65</ele>
        <time>2018-08-29T14:05:35Z</time>
      </trkpt>
      <trkpt lat="42.18497" lon="9.07602">
        <ele>1180.8</ele>
        <time>2018-08-29T14:05:40Z</time>
      </trkpt>
      <trkpt lat="42.18492" lon="9.07608">
        <ele>1179.2</ele>
        <time>2018-08-29T14:05:47Z</time>
      </trkpt>
      <trkpt lat="42.1848" lon="9.07615">
        <ele>1178.46</ele>
        <time>2018-08-29T14:05:59Z</time>
      </trkpt>
      <trkpt lat="42.18477" lon="9.07617">
        <ele>1178.51</ele>
        <time>2018-08-29T14:06:04Z</time>
      </trkpt>
      <trkpt lat="42.18461" lon="9.07619">
        <ele>1177.76</ele>
        <time>2018-08-29T14:06:20Z</time>
      </trkpt>
      <trkpt lat="42.18458" lon="9.07619">
        <ele>1177.8</ele>
        <time>2018-08-29T14:06:24Z</time>
      </trkpt>
      <trkpt lat="42.18445" lon="9.07624">
        <ele>1175.87</ele>
        <time>2018-08-29T14:06:38Z</time>
      </trkpt>
      <trkpt lat="42.18431" lon="9.07628">
        <ele>1173.85</ele>
        <time>2018-08-29T14:06:55Z</time>
      </trkpt>
      <trkpt lat="42.1842" lon="9.0763">
        <ele>1171.75</ele>
        <time>2018-08-29T14:07:08Z</time>
      </trkpt>
      <trkpt lat="42.18407" lon="9.07631">
        <ele>1170.1</ele>
        <time>2018-08-29T14:07:24Z</time>
      </trkpt>
      <trkpt lat="42.18397" lon="9.07633">
        <ele>1169.3</ele>
        <time>2018-08-29T14:07:37Z</time>
      </trkpt>
      <trkpt lat="42.18387" lon="9.07633">
        <ele>1166.56</ele>
        <time>2018-08-29T14:07:52Z</time>
      </trkpt>
      <trkpt lat="42.18383" lon="9.07634">
        <ele>1166.59</ele>
        <time>2018-08-29T14:08:07Z</time>
      </trkpt>
      <trkpt lat="42.18373" lon="9.07641">
        <ele>1164.55</ele>
        <time>2018-08-29T14:08:28Z</time>
      </trkpt>
      <trkpt lat="42.18369" lon="9.07644">
        <ele>1164.56</ele>
        <time>2018-08-29T14:08:33Z</time>
      </trkpt>
      <trkpt lat="42.18361" lon="9.07648">
        <ele>1162.38</ele>
        <time>2018-08-29T14:08:47Z</time>
      </trkpt>
      <trkpt lat="42.18349" lon="9.07658">
        <ele>1160.59</ele>
        <time>2018-08-29T14:09:03Z</time>
      </trkpt>
      <trkpt lat="42.18345" lon="9.07662">
        <ele>1159.69</ele>
        <time>2018-08-29T14:09:07Z</time>
      </trkpt>
      <trkpt lat="42.18339" lon="9.07666">
        <ele>1158.92</ele>
        <time>2018-08-29T14:09:14Z</time>
      </trkpt>
      <trkpt lat="42.18327" lon="9.0768">
        <ele>1157.04</ele>
        <time>2018-08-29T14:09:26Z</time>
      </trkpt>
      <trkpt lat="42.18326" lon="9.07682">
        <ele>1157.04</ele>
        <time>2018-08-29T14:09:28Z</time>
      </trkpt>
      <trkpt lat="42.18314" lon="9.07689">
        <ele>1156.25</ele>
        <time>2018-08-29T14:09:41Z</time>
      </trkpt>
      <trkpt lat="42.18306" lon="9.07696">
        <ele>1154.05</ele>
        <time>2018-08-29T14:09:53Z</time>
      </trkpt>
      <trkpt lat="42.18297" lon="9.07702">
        <ele>1154.08</ele>
        <time>2018-08-29T14:10:01Z</time>
      </trkpt>
      <trkpt lat="42.18291" lon="9.07712">
        <ele>1152.37</ele>
        <time>2018-08-29T14:10:15Z</time>
      </trkpt>
      <trkpt lat="42.18284" lon="9.07716">
        <ele>1150.74</ele>
        <time>2018-08-29T14:10:29Z</time>
      </trkpt>
      <trkpt lat="42.18274" lon="9.07726">
        <ele>1149.75</ele>
        <time>2018-08-29T14:10:40Z</time>
      </trkpt>
      <trkpt lat="42.18267" lon="9.07733">
        <ele>1148.92</ele>
        <time>2018-08-29T14:10:48Z</time>
      </trkpt>
      <trkpt lat="42.18258" lon="9.07741">
        <ele>1146.77</ele>
        <time>2018-08-29T14:11:00Z</time>
      </trkpt>
      <trkpt lat="42.18255" lon="9.07744">
        <ele>1146.78</ele>
        <time>2018-08-29T14:11:04Z</time>
      </trkpt>
      <trkpt lat="42.18245" lon="9.07752">
        <ele>1145.04</ele>
        <time>2018-08-29T14:11:13Z</time>
      </trkpt>
      <trkpt lat="42.18236" lon="9.07764">
        <ele>1144.12</ele>
        <time>2018-08-29T14:11:26Z</time>
      </trkpt>
      <trkpt lat="42.18234" lon="9.07769">
        <ele>1144.14</ele>
        <time>2018-08-29T14:11:32Z</time>
      </trkpt>
      <trkpt lat="42.18227" lon="9.07775">
        <ele>1143.41</ele>
        <time>2018-08-29T14:11:43Z</time>
      </trkpt>
      <trkpt lat="42.18221" lon="9.07779">
        <ele>1141.8</ele>
        <time>2018-08-29T14:11:55Z</time>
      </trkpt>
      <trkpt lat="42.1822" lon="9.07779">
        <ele>1141.77</ele>
        <time>2018-08-29T14:11:57Z</time>
      </trkpt>
      <trkpt lat="42.18217" lon="9.07784">
        <ele>1141.8</ele>
        <time>2018-08-29T14:12:03Z</time>
      </trkpt>
      <trkpt lat="42.18216" lon="9.07786">
        <ele>1140.58</ele>
        <time>2018-08-29T14:12:05Z</time>
      </trkpt>
      <trkpt lat="42.18208" lon="9.07797">
        <ele>1139.73</ele>
        <time>2018-08-29T14:12:16Z</time>
      </trkpt>
      <trkpt lat="42.18205" lon="9.07804">
        <ele>1137.24</ele>
        <time>2018-08-29T14:12:32Z</time>
      </trkpt>
      <trkpt lat="42.18199" lon="9.07805">
        <ele>1135.64</ele>
        <time>2018-08-29T14:12:43Z</time>
      </trkpt>
      <trkpt lat="42.18195" lon="9.07806">
        <ele>1132.24</ele>
        <time>2018-08-29T14:12:55Z</time>
      </trkpt>
      <trkpt lat="42.18194" lon="9.07806">
        <ele>1132.02</ele>
        <time>2018-08-29T14:12:56Z</time>
      </trkpt>
      <trkpt lat="42.18184" lon="9.07816">
        <ele>1132.22</ele>
        <time>2018-08-29T14:13:08Z</time>
      </trkpt>
      <trkpt lat="42.18177" lon="9.07829">
        <ele>1130.51</ele>
        <time>2018-08-29T14:13:21Z</time>
      </trkpt>
      <trkpt lat="42.18171" lon="9.07839">
        <ele>1129.6</ele>
        <time>2018-08-29T14:13:33Z</time>
      </trkpt>
      <trkpt lat="42.18168" lon="9.07843">
        <ele>1128.83</ele>
        <time>2018-08-29T14:13:49Z</time>
      </trkpt>
      <trkpt lat="42.18168" lon="9.07845">
        <ele>1127.99</ele>
        <time>2018-08-29T14:14:16Z</time>
      </trkpt>
      <trkpt lat="42.18166" lon="9.07856">
        <ele>1127.87</ele>
        <time>2018-08-29T14:14:28Z</time>
      </trkpt>
      <trkpt lat="42.18163" lon="9.07863">
        <ele>1126.7</ele>
        <time>2018-08-29T14:14:35Z</time>
      </trkpt>
      <trkpt lat="42.18161" lon="9.07869">
        <ele>1125.55</ele>
        <time>2018-08-29T14:14:40Z</time>
      </trkpt>
      <trkpt lat="42.18156" lon="9.07885">
        <ele>1124.72</ele>
        <time>2018-08-29T14:14:55Z</time>
      </trkpt>
      <trkpt lat="42.18154" lon="9.07897">
        <ele>1122.58</ele>
        <time>2018-08-29T14:15:08Z</time>
      </trkpt>
      <trkpt lat="42.18151" lon="9.07906">
        <ele>1120.84</ele>
        <time>2018-08-29T14:15:19Z</time>
      </trkpt>
      <trkpt lat="42.18148" lon="9.07917">
        <ele>1118.33</ele>
        <time>2018-08-29T14:15:31Z</time>
      </trkpt>
      <trkpt lat="42.18148" lon="9.07919">
        <ele>1118.37</ele>
        <time>2018-08-29T14:15:32Z</time>
      </trkpt>
      <trkpt lat="42.18148" lon="9.0792">
        <ele>1118.29</ele>
        <time>2018-08-29T14:15:33Z</time>
      </trkpt>
      <trkpt lat="42.18146" lon="9.07927">
        <ele>1117.18</ele>
        <time>2018-08-29T14:15:41Z</time>
      </trkpt>
      <trkpt lat="42.18143" lon="9.07933">
        <ele>1116.15</ele>
        <time>2018-08-29T14:15:48Z</time>
      </trkpt>
      <trkpt lat="42.1814" lon="9.07945">
        <ele>1114.1</ele>
        <time>2018-08-29T14:15:58Z</time>
      </trkpt>
      <trkpt lat="42.18139" lon="9.07949">
        <ele>1114.1</ele>
        <time>2018-08-29T14:16:01Z</time>
      </trkpt>
      <trkpt lat="42.18136" lon="9.07962">
        <ele>1111.44</ele>
        <time>2018-08-29T14:16:15Z</time>
      </trkpt>
      <trkpt lat="42.18135" lon="9.07963">
        <ele>1109.8</ele>
        <time>2018-08-29T14:16:25Z</time>
      </trkpt>
      <trkpt lat="42.18135" lon="9.07963">
        <ele>1114</ele>
        <time>2018-08-29T14:16:27Z</time>
      </trkpt>
      <trkpt lat="42.18135" lon="9.07963">
        <ele>1111.1</ele>
        <time>2018-08-29T14:16:28Z</time>
      </trkpt>
      <trkpt lat="42.18131" lon="9.07965">
        <ele>1109.78</ele>
        <time>2018-08-29T14:16:34Z</time>
      </trkpt>
      <trkpt lat="42.18122" lon="9.07971">
        <ele>1108.86</ele>
        <time>2018-08-29T14:16:44Z</time>
      </trkpt>
      <trkpt lat="42.18124" lon="9.07978">
        <ele>1111.45</ele>
        <time>2018-08-29T14:16:56Z</time>
      </trkpt>
      <trkpt lat="42.18124" lon="9.07978">
        <ele>1109.29</ele>
        <time>2018-08-29T14:16:58Z</time>
      </trkpt>
      <trkpt lat="42.18124" lon="9.07977">
        <ele>1109.25</ele>
        <time>2018-08-29T14:17:00Z</time>
      </trkpt>
      <trkpt lat="42.18116" lon="9.07985">
        <ele>1108.14</ele>
        <time>2018-08-29T14:17:10Z</time>
      </trkpt>
      <trkpt lat="42.18109" lon="9.07995">
        <ele>1108.14</ele>
        <time>2018-08-29T14:17:19Z</time>
      </trkpt>
      <trkpt lat="42.18106" lon="9.08001">
        <ele>1107.34</ele>
        <time>2018-08-29T14:17:23Z</time>
      </trkpt>
      <trkpt lat="42.18103" lon="9.08003">
        <ele>1107.34</ele>
        <time>2018-08-29T14:17:25Z</time>
      </trkpt>
      <trkpt lat="42.18101" lon="9.08005">
        <ele>1107.31</ele>
        <time>2018-08-29T14:17:27Z</time>
      </trkpt>
      <trkpt lat="42.18097" lon="9.08008">
        <ele>1107.32</ele>
        <time>2018-08-29T14:17:30Z</time>
      </trkpt>
      <trkpt lat="42.18095" lon="9.0801">
        <ele>1107.3</ele>
        <time>2018-08-29T14:17:32Z</time>
      </trkpt>
      <trkpt lat="42.18089" lon="9.0802">
        <ele>1105.85</ele>
        <time>2018-08-29T14:17:45Z</time>
      </trkpt>
      <trkpt lat="42.18081" lon="9.08029">
        <ele>1103.95</ele>
        <time>2018-08-29T14:17:59Z</time>
      </trkpt>
      <trkpt lat="42.18071" lon="9.08039">
        <ele>1103.9</ele>
        <time>2018-08-29T14:18:09Z</time>
      </trkpt>
      <trkpt lat="42.1806" lon="9.08051">
        <ele>1101.6</ele>
        <time>2018-08-29T14:18:21Z</time>
      </trkpt>
      <trkpt lat="42.18049" lon="9.08062">
        <ele>1100.77</ele>
        <time>2018-08-29T14:18:33Z</time>
      </trkpt>
      <trkpt lat="42.18037" lon="9.08066">
        <ele>1099.89</ele>
        <time>2018-08-29T14:18:45Z</time>
      </trkpt>
      <trkpt lat="42.18026" lon="9.08068">
        <ele>1099</ele>
        <time>2018-08-29T14:18:55Z</time>
      </trkpt>
      <trkpt lat="42.18025" lon="9.08069">
        <ele>1098.97</ele>
        <time>2018-08-29T14:18:56Z</time>
      </trkpt>
      <trkpt lat="42.18008" lon="9.08083">
        <ele>1097.11</ele>
        <time>2018-08-29T14:19:10Z</time>
      </trkpt>
      <trkpt lat="42.17993" lon="9.08093">
        <ele>1097.01</ele>
        <time>2018-08-29T14:19:22Z</time>
      </trkpt>
      <trkpt lat="42.17992" lon="9.08093">
        <ele>1095.95</ele>
        <time>2018-08-29T14:19:23Z</time>
      </trkpt>
      <trkpt lat="42.17983" lon="9.08103">
        <ele>1095.06</ele>
        <time>2018-08-29T14:19:36Z</time>
      </trkpt>
      <trkpt lat="42.17979" lon="9.08108">
        <ele>1094.21</ele>
        <time>2018-08-29T14:19:41Z</time>
      </trkpt>
      <trkpt lat="42.17974" lon="9.08111">
        <ele>1094.18</ele>
        <time>2018-08-29T14:19:46Z</time>
      </trkpt>
      <trkpt lat="42.17969" lon="9.08112">
        <ele>1094.16</ele>
        <time>2018-08-29T14:19:50Z</time>
      </trkpt>
      <trkpt lat="42.17964" lon="9.08115">
        <ele>1093.36</ele>
        <time>2018-08-29T14:19:54Z</time>
      </trkpt>
      <trkpt lat="42.17962" lon="9.08116">
        <ele>1093.35</ele>
        <time>2018-08-29T14:19:56Z</time>
      </trkpt>
      <trkpt lat="42.17952" lon="9.0812">
        <ele>1092.42</ele>
        <time>2018-08-29T14:20:04Z</time>
      </trkpt>
      <trkpt lat="42.17944" lon="9.08138">
        <ele>1091.39</ele>
        <time>2018-08-29T14:20:17Z</time>
      </trkpt>
      <trkpt lat="42.17944" lon="9.0814">
        <ele>1091.38</ele>
        <time>2018-08-29T14:20:18Z</time>
      </trkpt>
      <trkpt lat="42.17943" lon="9.08145">
        <ele>1091.4</ele>
        <time>2018-08-29T14:20:21Z</time>
      </trkpt>
      <trkpt lat="42.17942" lon="9.08151">
        <ele>1090.57</ele>
        <time>2018-08-29T14:20:24Z</time>
      </trkpt>
      <trkpt lat="42.17941" lon="9.0817">
        <ele>1089.63</ele>
        <time>2018-08-29T14:20:36Z</time>
      </trkpt>
      <trkpt lat="42.1794" lon="9.08173">
        <ele>1088.85</ele>
        <time>2018-08-29T14:20:39Z</time>
      </trkpt>
      <trkpt lat="42.17935" lon="9.08191">
        <ele>1087.9</ele>
        <time>2018-08-29T14:20:52Z</time>
      </trkpt>
      <trkpt lat="42.17933" lon="9.08196">
        <ele>1086.66</ele>
        <time>2018-08-29T14:20:56Z</time>
      </trkpt>
      <trkpt lat="42.17927" lon="9.08218">
        <ele>1085.81</ele>
        <time>2018-08-29T14:21:13Z</time>
      </trkpt>
      <trkpt lat="42.17927" lon="9.08224">
        <ele>1085.81</ele>
        <time>2018-08-29T14:21:17Z</time>
      </trkpt>
      <trkpt lat="42.17921" lon="9.08237">
        <ele>1084.79</ele>
        <time>2018-08-29T14:21:27Z</time>
      </trkpt>
      <trkpt lat="42.17917" lon="9.08253">
        <ele>1083.91</ele>
        <time>2018-08-29T14:21:36Z</time>
      </trkpt>
      <trkpt lat="42.17913" lon="9.08262">
        <ele>1082.14</ele>
        <time>2018-08-29T14:21:42Z</time>
      </trkpt>
      <trkpt lat="42.17912" lon="9.08281">
        <ele>1081.11</ele>
        <time>2018-08-29T14:21:54Z</time>
      </trkpt>
      <trkpt lat="42.17907" lon="9.08292">
        <ele>1081.03</ele>
        <time>2018-08-29T14:22:03Z</time>
      </trkpt>
      <trkpt lat="42.17906" lon="9.08295">
        <ele>1080.18</ele>
        <time>2018-08-29T14:22:05Z</time>
      </trkpt>
      <trkpt lat="42.17902" lon="9.08312">
        <ele>1080.11</ele>
        <time>2018-08-29T14:22:19Z</time>
      </trkpt>
      <trkpt lat="42.17901" lon="9.08316">
        <ele>1080.09</ele>
        <time>2018-08-29T14:22:21Z</time>
      </trkpt>
      <trkpt lat="42.17901" lon="9.08325">
        <ele>1079.15</ele>
        <time>2018-08-29T14:22:26Z</time>
      </trkpt>
      <trkpt lat="42.179" lon="9.08328">
        <ele>1079.13</ele>
        <time>2018-08-29T14:22:28Z</time>
      </trkpt>
      <trkpt lat="42.17896" lon="9.08334">
        <ele>1079.09</ele>
        <time>2018-08-29T14:22:33Z</time>
      </trkpt>
      <trkpt lat="42.17894" lon="9.0834">
        <ele>1079.03</ele>
        <time>2018-08-29T14:22:37Z</time>
      </trkpt>
      <trkpt lat="42.1789" lon="9.08347">
        <ele>1078.16</ele>
        <time>2018-08-29T14:22:43Z</time>
      </trkpt>
      <trkpt lat="42.17884" lon="9.08364">
        <ele>1076.79</ele>
        <time>2018-08-29T14:22:51Z</time>
      </trkpt>
      <trkpt lat="42.17884" lon="9.08367">
        <ele>1076.8</ele>
        <time>2018-08-29T14:22:53Z</time>
      </trkpt>
      <trkpt lat="42.17882" lon="9.08387">
        <ele>1076.7</ele>
        <time>2018-08-29T14:23:06Z</time>
      </trkpt>
      <trkpt lat="42.17876" lon="9.08409">
        <ele>1076.55</ele>
        <time>2018-08-29T14:23:18Z</time>
      </trkpt>
      <trkpt lat="42.17872" lon="9.08425">
        <ele>1075.57</ele>
        <time>2018-08-29T14:23:28Z</time>
      </trkpt>
      <trkpt lat="42.17868" lon="9.08428">
        <ele>1075.48</ele>
        <time>2018-08-29T14:23:32Z</time>
      </trkpt>
      <trkpt lat="42.17863" lon="9.08434">
        <ele>1074.39</ele>
        <time>2018-08-29T14:23:37Z</time>
      </trkpt>
      <trkpt lat="42.17853" lon="9.08448">
        <ele>1074.32</ele>
        <time>2018-08-29T14:23:50Z</time>
      </trkpt>
      <trkpt lat="42.17845" lon="9.0847">
        <ele>1073.24</ele>
        <time>2018-08-29T14:24:07Z</time>
      </trkpt>
      <trkpt lat="42.17839" lon="9.08485">
        <ele>1072.35</ele>
        <time>2018-08-29T14:24:18Z</time>
      </trkpt>
      <trkpt lat="42.17838" lon="9.08486">
        <ele>1072.4</ele>
        <time>2018-08-29T14:24:19Z</time>
      </trkpt>
      <trkpt lat="42.17835" lon="9.08497">
        <ele>1072.25</ele>
        <time>2018-08-29T14:24:25Z</time>
      </trkpt>
      <trkpt lat="42.17827" lon="9.08517">
        <ele>1071.11</ele>
        <time>2018-08-29T14:24:38Z</time>
      </trkpt>
      <trkpt lat="42.17822" lon="9.08534">
        <ele>1069.87</ele>
        <time>2018-08-29T14:24:49Z</time>
      </trkpt>
      <trkpt lat="42.17819" lon="9.08545">
        <ele>1069.83</ele>
        <time>2018-08-29T14:24:56Z</time>
      </trkpt>
      <trkpt lat="42.17814" lon="9.0855">
        <ele>1068.81</ele>
        <time>2018-08-29T14:25:01Z</time>
      </trkpt>
      <trkpt lat="42.17813" lon="9.0856">
        <ele>1067.99</ele>
        <time>2018-08-29T14:25:07Z</time>
      </trkpt>
      <trkpt lat="42.17814" lon="9.08563">
        <ele>1067.93</ele>
        <time>2018-08-29T14:25:09Z</time>
      </trkpt>
      <trkpt lat="42.17811" lon="9.08577">
        <ele>1067.88</ele>
        <time>2018-08-29T14:25:23Z</time>
      </trkpt>
      <trkpt lat="42.17811" lon="9.08583">
        <ele>1067.7</ele>
        <time>2018-08-29T14:25:41Z</time>
      </trkpt>
      <trkpt lat="42.17807" lon="9.08596">
        <ele>1066.81</ele>
        <time>2018-08-29T14:25:50Z</time>
      </trkpt>
      <trkpt lat="42.17804" lon="9.08616">
        <ele>1065.86</ele>
        <time>2018-08-29T14:26:02Z</time>
      </trkpt>
      <trkpt lat="42.17802" lon="9.08634">
        <ele>1064.82</ele>
        <time>2018-08-29T14:26:14Z</time>
      </trkpt>
      <trkpt lat="42.17798" lon="9.08645">
        <ele>1064.77</ele>
        <time>2018-08-29T14:26:22Z</time>
      </trkpt>
      <trkpt lat="42.17794" lon="9.08657">
        <ele>1063.95</ele>
        <time>2018-08-29T14:26:29Z</time>
      </trkpt>
      <trkpt lat="42.17789" lon="9.08668">
        <ele>1063.84</ele>
        <time>2018-08-29T14:26:37Z</time>
      </trkpt>
      <trkpt lat="42.17784" lon="9.08679">
        <ele>1063.82</ele>
        <time>2018-08-29T14:26:44Z</time>
      </trkpt>
      <trkpt lat="42.1778" lon="9.08687">
        <ele>1063.79</ele>
        <time>2018-08-29T14:26:49Z</time>
      </trkpt>
      <trkpt lat="42.17772" lon="9.08697">
        <ele>1062.81</ele>
        <time>2018-08-29T14:26:59Z</time>
      </trkpt>
      <trkpt lat="42.17768" lon="9.08707">
        <ele>1062.75</ele>
        <time>2018-08-29T14:27:06Z</time>
      </trkpt>
      <trkpt lat="42.17757" lon="9.08714">
        <ele>1061.81</ele>
        <time>2018-08-29T14:27:16Z</time>
      </trkpt>
      <trkpt lat="42.17754" lon="9.08721">
        <ele>1061.76</ele>
        <time>2018-08-29T14:27:21Z</time>
      </trkpt>
      <trkpt lat="42.17749" lon="9.08731">
        <ele>1061.67</ele>
        <time>2018-08-29T14:27:30Z</time>
      </trkpt>
      <trkpt lat="42.17747" lon="9.08733">
        <ele>1060.76</ele>
        <time>2018-08-29T14:27:33Z</time>
      </trkpt>
      <trkpt lat="42.17738" lon="9.08744">
        <ele>1059.77</ele>
        <time>2018-08-29T14:27:45Z</time>
      </trkpt>
      <trkpt lat="42.1773" lon="9.08751">
        <ele>1058.67</ele>
        <time>2018-08-29T14:27:54Z</time>
      </trkpt>
      <trkpt lat="42.17724" lon="9.08754">
        <ele>1057.58</ele>
        <time>2018-08-29T14:27:59Z</time>
      </trkpt>
      <trkpt lat="42.17714" lon="9.08761">
        <ele>1057.42</ele>
        <time>2018-08-29T14:28:07Z</time>
      </trkpt>
      <trkpt lat="42.17712" lon="9.08766">
        <ele>1056.58</ele>
        <time>2018-08-29T14:28:10Z</time>
      </trkpt>
      <trkpt lat="42.17709" lon="9.08772">
        <ele>1056.53</ele>
        <time>2018-08-29T14:28:14Z</time>
      </trkpt>
      <trkpt lat="42.17706" lon="9.08776">
        <ele>1056.5</ele>
        <time>2018-08-29T14:28:17Z</time>
      </trkpt>
      <trkpt lat="42.17704" lon="9.08779">
        <ele>1054.83</ele>
        <time>2018-08-29T14:28:19Z</time>
      </trkpt>
      <trkpt lat="42.17696" lon="9.08798">
        <ele>1052.63</ele>
        <time>2018-08-29T14:28:34Z</time>
      </trkpt>
      <trkpt lat="42.17696" lon="9.08799">
        <ele>1052.63</ele>
        <time>2018-08-29T14:28:35Z</time>
      </trkpt>
      <trkpt lat="42.17686" lon="9.08815">
        <ele>1051.52</ele>
        <time>2018-08-29T14:28:50Z</time>
      </trkpt>
      <trkpt lat="42.17679" lon="9.08832">
        <ele>1050.52</ele>
        <time>2018-08-29T14:28:59Z</time>
      </trkpt>
      <trkpt lat="42.17672" lon="9.0885">
        <ele>1049.66</ele>
        <time>2018-08-29T14:29:09Z</time>
      </trkpt>
      <trkpt lat="42.17664" lon="9.08871">
        <ele>1048.59</ele>
        <time>2018-08-29T14:29:22Z</time>
      </trkpt>
      <trkpt lat="42.17663" lon="9.08874">
        <ele>1048.58</ele>
        <time>2018-08-29T14:29:24Z</time>
      </trkpt>
      <trkpt lat="42.17662" lon="9.08882">
        <ele>1048.54</ele>
        <time>2018-08-29T14:29:28Z</time>
      </trkpt>
      <trkpt lat="42.17661" lon="9.0889">
        <ele>1048.51</ele>
        <time>2018-08-29T14:29:33Z</time>
      </trkpt>
      <trkpt lat="42.17658" lon="9.08899">
        <ele>1047.63</ele>
        <time>2018-08-29T14:29:38Z</time>
      </trkpt>
      <trkpt lat="42.17658" lon="9.08902">
        <ele>1047.62</ele>
        <time>2018-08-29T14:29:40Z</time>
      </trkpt>
      <trkpt lat="42.17652" lon="9.08922">
        <ele>1046.73</ele>
        <time>2018-08-29T14:29:52Z</time>
      </trkpt>
      <trkpt lat="42.17652" lon="9.08926">
        <ele>1046.72</ele>
        <time>2018-08-29T14:29:54Z</time>
      </trkpt>
      <trkpt lat="42.17649" lon="9.0894">
        <ele>1046.68</ele>
        <time>2018-08-29T14:30:04Z</time>
      </trkpt>
      <trkpt lat="42.17647" lon="9.08944">
        <ele>1046.68</ele>
        <time>2018-08-29T14:30:07Z</time>
      </trkpt>
      <trkpt lat="42.1764" lon="9.08963">
        <ele>1045.62</ele>
        <time>2018-08-29T14:30:20Z</time>
      </trkpt>
      <trkpt lat="42.17635" lon="9.08973">
        <ele>1044.82</ele>
        <time>2018-08-29T14:30:26Z</time>
      </trkpt>
      <trkpt lat="42.17628" lon="9.08985">
        <ele>1044.81</ele>
        <time>2018-08-29T14:30:33Z</time>
      </trkpt>
      <trkpt lat="42.17624" lon="9.08992">
        <ele>1044.79</ele>
        <time>2018-08-29T14:30:39Z</time>
      </trkpt>
      <trkpt lat="42.17618" lon="9.09001">
        <ele>1043.98</ele>
        <time>2018-08-29T14:30:45Z</time>
      </trkpt>
      <trkpt lat="42.17615" lon="9.09006">
        <ele>1044</ele>
        <time>2018-08-29T14:30:49Z</time>
      </trkpt>
      <trkpt lat="42.17614" lon="9.09009">
        <ele>1044</ele>
        <time>2018-08-29T14:30:51Z</time>
      </trkpt>
      <trkpt lat="42.1761" lon="9.09015">
        <ele>1044.02</ele>
        <time>2018-08-29T14:30:55Z</time>
      </trkpt>
      <trkpt lat="42.17605" lon="9.0902">
        <ele>1044.01</ele>
        <time>2018-08-29T14:31:02Z</time>
      </trkpt>
      <trkpt lat="42.17595" lon="9.09037">
        <ele>1043.15</ele>
        <time>2018-08-29T14:31:15Z</time>
      </trkpt>
      <trkpt lat="42.17585" lon="9.09056">
        <ele>1043.16</ele>
        <time>2018-08-29T14:31:28Z</time>
      </trkpt>
      <trkpt lat="42.1757" lon="9.09071">
        <ele>1043.15</ele>
        <time>2018-08-29T14:31:40Z</time>
      </trkpt>
      <trkpt lat="42.1757" lon="9.09072">
        <ele>1043.15</ele>
        <time>2018-08-29T14:31:41Z</time>
      </trkpt>
      <trkpt lat="42.17567" lon="9.09078">
        <ele>1043.13</ele>
        <time>2018-08-29T14:31:46Z</time>
      </trkpt>
      <trkpt lat="42.17565" lon="9.0908">
        <ele>1043.12</ele>
        <time>2018-08-29T14:31:48Z</time>
      </trkpt>
      <trkpt lat="42.1756" lon="9.09088">
        <ele>1043.09</ele>
        <time>2018-08-29T14:31:54Z</time>
      </trkpt>
      <trkpt lat="42.17557" lon="9.09093">
        <ele>1041.6</ele>
        <time>2018-08-29T14:31:57Z</time>
      </trkpt>
      <trkpt lat="42.17549" lon="9.09107">
        <ele>1041.53</ele>
        <time>2018-08-29T14:32:06Z</time>
      </trkpt>
      <trkpt lat="42.17543" lon="9.09112">
        <ele>1041.49</ele>
        <time>2018-08-29T14:32:13Z</time>
      </trkpt>
      <trkpt lat="42.17533" lon="9.09126">
        <ele>1041.45</ele>
        <time>2018-08-29T14:32:25Z</time>
      </trkpt>
      <trkpt lat="42.17532" lon="9.09128">
        <ele>1041.44</ele>
        <time>2018-08-29T14:32:27Z</time>
      </trkpt>
      <trkpt lat="42.17527" lon="9.09132">
        <ele>1041.42</ele>
        <time>2018-08-29T14:32:32Z</time>
      </trkpt>
      <trkpt lat="42.17521" lon="9.09139">
        <ele>1041.34</ele>
        <time>2018-08-29T14:32:38Z</time>
      </trkpt>
      <trkpt lat="42.17516" lon="9.09144">
        <ele>1040.44</ele>
        <time>2018-08-29T14:32:43Z</time>
      </trkpt>
      <trkpt lat="42.17511" lon="9.0915">
        <ele>1040.39</ele>
        <time>2018-08-29T14:32:48Z</time>
      </trkpt>
      <trkpt lat="42.17501" lon="9.09162">
        <ele>1039.34</ele>
        <time>2018-08-29T14:32:58Z</time>
      </trkpt>
      <trkpt lat="42.17499" lon="9.0918">
        <ele>1039.28</ele>
        <time>2018-08-29T14:33:08Z</time>
      </trkpt>
      <trkpt lat="42.17489" lon="9.09195">
        <ele>1039.22</ele>
        <time>2018-08-29T14:33:19Z</time>
      </trkpt>
      <trkpt lat="42.17479" lon="9.09203">
        <ele>1039.15</ele>
        <time>2018-08-29T14:33:32Z</time>
      </trkpt>
      <trkpt lat="42.17479" lon="9.09204">
        <ele>1041.46</ele>
        <time>2018-08-29T14:33:34Z</time>
      </trkpt>
      <trkpt lat="42.17465" lon="9.09217">
        <ele>1043.2</ele>
        <time>2018-08-29T14:33:50Z</time>
      </trkpt>
      <trkpt lat="42.17456" lon="9.09222">
        <ele>1043.92</ele>
        <time>2018-08-29T14:33:59Z</time>
      </trkpt>
      <trkpt lat="42.17445" lon="9.09234">
        <ele>1044.79</ele>
        <time>2018-08-29T14:34:13Z</time>
      </trkpt>
      <trkpt lat="42.1744" lon="9.09253">
        <ele>1045.5</ele>
        <time>2018-08-29T14:34:28Z</time>
      </trkpt>
      <trkpt lat="42.17438" lon="9.09272">
        <ele>1047.22</ele>
        <time>2018-08-29T14:34:44Z</time>
      </trkpt>
      <trkpt lat="42.17435" lon="9.09292">
        <ele>1047.1</ele>
        <time>2018-08-29T14:34:59Z</time>
      </trkpt>
      <trkpt lat="42.17433" lon="9.09308">
        <ele>1048.59</ele>
        <time>2018-08-29T14:35:12Z</time>
      </trkpt>
      <trkpt lat="42.17435" lon="9.09317">
        <ele>1048.58</ele>
        <time>2018-08-29T14:35:20Z</time>
      </trkpt>
      <trkpt lat="42.17432" lon="9.09338">
        <ele>1050.39</ele>
        <time>2018-08-29T14:35:36Z</time>
      </trkpt>
      <trkpt lat="42.1743" lon="9.09344">
        <ele>1050.35</ele>
        <time>2018-08-29T14:35:40Z</time>
      </trkpt>
      <trkpt lat="42.17431" lon="9.09366">
        <ele>1050.35</ele>
        <time>2018-08-29T14:35:58Z</time>
      </trkpt>
      <trkpt lat="42.17427" lon="9.09383">
        <ele>1050.39</ele>
        <time>2018-08-29T14:36:14Z</time>
      </trkpt>
      <trkpt lat="42.17427" lon="9.09391">
        <ele>1048.09</ele>
        <time>2018-08-29T14:36:21Z</time>
      </trkpt>
      <trkpt lat="42.1743" lon="9.09404">
        <ele>1047.4</ele>
        <time>2018-08-29T14:36:34Z</time>
      </trkpt>
      <trkpt lat="42.17438" lon="9.09418">
        <ele>1047.49</ele>
        <time>2018-08-29T14:36:51Z</time>
      </trkpt>
      <trkpt lat="42.17439" lon="9.09433">
        <ele>1047.53</ele>
        <time>2018-08-29T14:37:02Z</time>
      </trkpt>
      <trkpt lat="42.17437" lon="9.09449">
        <ele>1047.64</ele>
        <time>2018-08-29T14:37:17Z</time>
      </trkpt>
      <trkpt lat="42.17432" lon="9.09456">
        <ele>1047.62</ele>
        <time>2018-08-29T14:37:31Z</time>
      </trkpt>
      <trkpt lat="42.17422" lon="9.09473">
        <ele>1045.84</ele>
        <time>2018-08-29T14:37:49Z</time>
      </trkpt>
      <trkpt lat="42.17412" lon="9.09484">
        <ele>1044.07</ele>
        <time>2018-08-29T14:38:05Z</time>
      </trkpt>
      <trkpt lat="42.17407" lon="9.09492">
        <ele>1042.33</ele>
        <time>2018-08-29T14:38:15Z</time>
      </trkpt>
      <trkpt lat="42.17406" lon="9.09496">
        <ele>1042.35</ele>
        <time>2018-08-29T14:38:17Z</time>
      </trkpt>
      <trkpt lat="42.17404" lon="9.095">
        <ele>1042.37</ele>
        <time>2018-08-29T14:38:20Z</time>
      </trkpt>
      <trkpt lat="42.17403" lon="9.09506">
        <ele>1042.38</ele>
        <time>2018-08-29T14:38:24Z</time>
      </trkpt>
      <trkpt lat="42.17399" lon="9.09514">
        <ele>1042.41</ele>
        <time>2018-08-29T14:38:31Z</time>
      </trkpt>
      <trkpt lat="42.17387" lon="9.09525">
        <ele>1041.55</ele>
        <time>2018-08-29T14:38:45Z</time>
      </trkpt>
      <trkpt lat="42.17379" lon="9.09538">
        <ele>1039.88</ele>
        <time>2018-08-29T14:38:56Z</time>
      </trkpt>
      <trkpt lat="42.17379" lon="9.09542">
        <ele>1039.91</ele>
        <time>2018-08-29T14:38:59Z</time>
      </trkpt>
      <trkpt lat="42.17369" lon="9.09557">
        <ele>1039.92</ele>
        <time>2018-08-29T14:39:15Z</time>
      </trkpt>
      <trkpt lat="42.17367" lon="9.09561">
        <ele>1039.9</ele>
        <time>2018-08-29T14:39:18Z</time>
      </trkpt>
      <trkpt lat="42.17367" lon="9.09564">
        <ele>1039.88</ele>
        <time>2018-08-29T14:39:20Z</time>
      </trkpt>
      <trkpt lat="42.17363" lon="9.09571">
        <ele>1039.87</ele>
        <time>2018-08-29T14:39:25Z</time>
      </trkpt>
      <trkpt lat="42.17361" lon="9.09579">
        <ele>1042.29</ele>
        <time>2018-08-29T14:39:30Z</time>
      </trkpt>
      <trkpt lat="42.17361" lon="9.09584">
        <ele>1042.28</ele>
        <time>2018-08-29T14:39:33Z</time>
      </trkpt>
      <trkpt lat="42.17353" lon="9.09601">
        <ele>1042.2</ele>
        <time>2018-08-29T14:39:43Z</time>
      </trkpt>
      <trkpt lat="42.1735" lon="9.09623">
        <ele>1042.1</ele>
        <time>2018-08-29T14:39:57Z</time>
      </trkpt>
      <trkpt lat="42.17349" lon="9.0963">
        <ele>1042.09</ele>
        <time>2018-08-29T14:40:02Z</time>
      </trkpt>
      <trkpt lat="42.17345" lon="9.09636">
        <ele>1042.06</ele>
        <time>2018-08-29T14:40:07Z</time>
      </trkpt>
      <trkpt lat="42.17345" lon="9.0964">
        <ele>1042.05</ele>
        <time>2018-08-29T14:40:10Z</time>
      </trkpt>
      <trkpt lat="42.17336" lon="9.09652">
        <ele>1041.98</ele>
        <time>2018-08-29T14:40:23Z</time>
      </trkpt>
      <trkpt lat="42.17328" lon="9.09665">
        <ele>1042.65</ele>
        <time>2018-08-29T14:40:37Z</time>
      </trkpt>
      <trkpt lat="42.17324" lon="9.09667">
        <ele>1042.63</ele>
        <time>2018-08-29T14:40:41Z</time>
      </trkpt>
      <trkpt lat="42.17318" lon="9.09673">
        <ele>1042.58</ele>
        <time>2018-08-29T14:40:47Z</time>
      </trkpt>
      <trkpt lat="42.17309" lon="9.0968">
        <ele>1042.48</ele>
        <time>2018-08-29T14:40:59Z</time>
      </trkpt>
      <trkpt lat="42.17298" lon="9.09689">
        <ele>1042.38</ele>
        <time>2018-08-29T14:41:14Z</time>
      </trkpt>
      <trkpt lat="42.1729" lon="9.09701">
        <ele>1043.11</ele>
        <time>2018-08-29T14:41:23Z</time>
      </trkpt>
      <trkpt lat="42.17282" lon="9.09707">
        <ele>1043.03</ele>
        <time>2018-08-29T14:41:30Z</time>
      </trkpt>
      <trkpt lat="42.1727" lon="9.09717">
        <ele>1042.97</ele>
        <time>2018-08-29T14:41:43Z</time>
      </trkpt>
      <trkpt lat="42.17261" lon="9.09719">
        <ele>1042.93</ele>
        <time>2018-08-29T14:41:53Z</time>
      </trkpt>
      <trkpt lat="42.17258" lon="9.0972">
        <ele>1040.62</ele>
        <time>2018-08-29T14:41:55Z</time>
      </trkpt>
      <trkpt lat="42.17248" lon="9.09726">
        <ele>1039.59</ele>
        <time>2018-08-29T14:42:02Z</time>
      </trkpt>
      <trkpt lat="42.17244" lon="9.09731">
        <ele>1039.57</ele>
        <time>2018-08-29T14:42:06Z</time>
      </trkpt>
      <trkpt lat="42.17231" lon="9.09743">
        <ele>1038.6</ele>
        <time>2018-08-29T14:42:16Z</time>
      </trkpt>
      <trkpt lat="42.17226" lon="9.09746">
        <ele>1038.57</ele>
        <time>2018-08-29T14:42:21Z</time>
      </trkpt>
      <trkpt lat="42.17223" lon="9.09748">
        <ele>1037.3</ele>
        <time>2018-08-29T14:42:24Z</time>
      </trkpt>
      <trkpt lat="42.17217" lon="9.09755">
        <ele>1037.24</ele>
        <time>2018-08-29T14:42:30Z</time>
      </trkpt>
      <trkpt lat="42.17208" lon="9.09765">
        <ele>1035.3</ele>
        <time>2018-08-29T14:42:39Z</time>
      </trkpt>
      <trkpt lat="42.17204" lon="9.09765">
        <ele>1035.24</ele>
        <time>2018-08-29T14:42:43Z</time>
      </trkpt>
      <trkpt lat="42.17198" lon="9.0976">
        <ele>1033.97</ele>
        <time>2018-08-29T14:42:55Z</time>
      </trkpt>
      <trkpt lat="42.17193" lon="9.09766">
        <ele>1033.84</ele>
        <time>2018-08-29T14:43:10Z</time>
      </trkpt>
      <trkpt lat="42.17189" lon="9.09767">
        <ele>1033.71</ele>
        <time>2018-08-29T14:43:21Z</time>
      </trkpt>
      <trkpt lat="42.17181" lon="9.09771">
        <ele>1031.89</ele>
        <time>2018-08-29T14:43:33Z</time>
      </trkpt>
      <trkpt lat="42.17177" lon="9.09794">
        <ele>1030.79</ele>
        <time>2018-08-29T14:43:47Z</time>
      </trkpt>
      <trkpt lat="42.17173" lon="9.09803">
        <ele>1030.72</ele>
        <time>2018-08-29T14:43:54Z</time>
      </trkpt>
      <trkpt lat="42.17169" lon="9.09821">
        <ele>1030.53</ele>
        <time>2018-08-29T14:44:10Z</time>
      </trkpt>
      <trkpt lat="42.17162" lon="9.09822">
        <ele>1029.49</ele>
        <time>2018-08-29T14:44:19Z</time>
      </trkpt>
      <trkpt lat="42.17159" lon="9.09822">
        <ele>1028.55</ele>
        <time>2018-08-29T14:44:25Z</time>
      </trkpt>
      <trkpt lat="42.17157" lon="9.0981">
        <ele>1027.64</ele>
        <time>2018-08-29T14:44:33Z</time>
      </trkpt>
      <trkpt lat="42.17155" lon="9.09809">
        <ele>1027.48</ele>
        <time>2018-08-29T14:44:49Z</time>
      </trkpt>
      <trkpt lat="42.17156" lon="9.09807">
        <ele>1027.35</ele>
        <time>2018-08-29T14:45:13Z</time>
      </trkpt>
      <trkpt lat="42.17154" lon="9.09807">
        <ele>1026.03</ele>
        <time>2018-08-29T14:46:01Z</time>
      </trkpt>
      <trkpt lat="42.17153" lon="9.0981">
        <ele>1001.26</ele>
        <time>2018-08-29T14:46:11Z</time>
      </trkpt>
      <trkpt lat="42.17156" lon="9.09804">
        <ele>1025.18</ele>
        <time>2018-08-29T14:47:06Z</time>
      </trkpt>
      <trkpt lat="42.17161" lon="9.09805">
        <ele>1024.92</ele>
        <time>2018-08-29T14:47:31Z</time>
      </trkpt>
      <trkpt lat="42.17158" lon="9.09805">
        <ele>1024.61</ele>
        <time>2018-08-29T14:48:02Z</time>
      </trkpt>
      <trkpt lat="42.17156" lon="9.09805">
        <ele>1024.16</ele>
        <time>2018-08-29T14:48:44Z</time>
      </trkpt>
      <trkpt lat="42.17155" lon="9.09804">
        <ele>1023.84</ele>
        <time>2018-08-29T14:49:14Z</time>
      </trkpt>
      <trkpt lat="42.17155" lon="9.09805">
        <ele>1022.09</ele>
        <time>2018-08-29T14:49:42Z</time>
      </trkpt>
      <trkpt lat="42.17149" lon="9.09805">
        <ele>1023.27</ele>
        <time>2018-08-29T14:50:25Z</time>
      </trkpt>
      <trkpt lat="42.17152" lon="9.09811">
        <ele>1031.13</ele>
        <time>2018-08-29T14:50:52Z</time>
      </trkpt>
      <trkpt lat="42.17151" lon="9.09811">
        <ele>1024.33</ele>
        <time>2018-08-29T14:50:53Z</time>
      </trkpt>
      <trkpt lat="42.17153" lon="9.09808">
        <ele>1023.5</ele>
        <time>2018-08-29T14:51:53Z</time>
      </trkpt>
      <trkpt lat="42.17149" lon="9.09807">
        <ele>1022.39</ele>
        <time>2018-08-29T14:53:08Z</time>
      </trkpt>
      <trkpt lat="42.17153" lon="9.09807">
        <ele>1021.1</ele>
        <time>2018-08-29T14:54:28Z</time>
      </trkpt>
      <trkpt lat="42.17155" lon="9.09807">
        <ele>1019.73</ele>
        <time>2018-08-29T14:55:59Z</time>
      </trkpt>
      <trkpt lat="42.17154" lon="9.09808">
        <ele>1018.44</ele>
        <time>2018-08-29T14:57:37Z</time>
      </trkpt>
      <trkpt lat="42.1715" lon="9.09806">
        <ele>1017.56</ele>
        <time>2018-08-29T14:59:00Z</time>
      </trkpt>
      <trkpt lat="42.17151" lon="9.09806">
        <ele>1016.8</ele>
        <time>2018-08-29T15:00:21Z</time>
      </trkpt>
      <trkpt lat="42.17153" lon="9.09807">
        <ele>1016.42</ele>
        <time>2018-08-29T15:01:02Z</time>
      </trkpt>
      <trkpt lat="42.17152" lon="9.09807">
        <ele>1016.24</ele>
        <time>2018-08-29T15:01:20Z</time>
      </trkpt>
      <trkpt lat="42.17152" lon="9.09806">
        <ele>1016.23</ele>
        <time>2018-08-29T15:01:21Z</time>
      </trkpt>
      <trkpt lat="42.17153" lon="9.09801">
        <ele>1016.19</ele>
        <time>2018-08-29T15:01:25Z</time>
      </trkpt>
      <trkpt lat="42.17153" lon="9.098">
        <ele>1016.05</ele>
        <time>2018-08-29T15:01:41Z</time>
      </trkpt>
      <trkpt lat="42.17152" lon="9.09804">
        <ele>1015.92</ele>
        <time>2018-08-29T15:01:54Z</time>
      </trkpt>
      <trkpt lat="42.17152" lon="9.09805">
        <ele>1015.76</ele>
        <time>2018-08-29T15:02:13Z</time>
      </trkpt>
      <trkpt lat="42.17152" lon="9.0981">
        <ele>1015.71</ele>
        <time>2018-08-29T15:02:20Z</time>
      </trkpt>
      <trkpt lat="42.17156" lon="9.09816">
        <ele>1015.68</ele>
        <time>2018-08-29T15:02:25Z</time>
      </trkpt>
      <trkpt lat="42.17159" lon="9.09826">
        <ele>1015.58</ele>
        <time>2018-08-29T15:02:38Z</time>
      </trkpt>
      <trkpt lat="42.17158" lon="9.09828">
        <ele>1015.53</ele>
        <time>2018-08-29T15:02:45Z</time>
      </trkpt>
      <trkpt lat="42.17151" lon="9.09833">
        <ele>1015.46</ele>
        <time>2018-08-29T15:02:52Z</time>
      </trkpt>
      <trkpt lat="42.17147" lon="9.09835">
        <ele>1014.62</ele>
        <time>2018-08-29T15:02:57Z</time>
      </trkpt>
      <trkpt lat="42.17132" lon="9.09842">
        <ele>1014.5</ele>
        <time>2018-08-29T15:03:12Z</time>
      </trkpt>
      <trkpt lat="42.17129" lon="9.09845">
        <ele>1014.48</ele>
        <time>2018-08-29T15:03:15Z</time>
      </trkpt>
      <trkpt lat="42.17116" lon="9.09866">
        <ele>1013.58</ele>
        <time>2018-08-29T15:03:32Z</time>
      </trkpt>
      <trkpt lat="42.17105" lon="9.09888">
        <ele>1013.44</ele>
        <time>2018-08-29T15:03:50Z</time>
      </trkpt>
      <trkpt lat="42.17104" lon="9.09888">
        <ele>1013.43</ele>
        <time>2018-08-29T15:03:51Z</time>
      </trkpt>
      <trkpt lat="42.17098" lon="9.09895">
        <ele>1012.21</ele>
        <time>2018-08-29T15:03:59Z</time>
      </trkpt>
      <trkpt lat="42.17095" lon="9.09895">
        <ele>1012.27</ele>
        <time>2018-08-29T15:04:02Z</time>
      </trkpt>
      <trkpt lat="42.17088" lon="9.09905">
        <ele>1012.19</ele>
        <time>2018-08-29T15:04:11Z</time>
      </trkpt>
      <trkpt lat="42.17081" lon="9.09915">
        <ele>1012.07</ele>
        <time>2018-08-29T15:04:24Z</time>
      </trkpt>
      <trkpt lat="42.17076" lon="9.09921">
        <ele>1010.99</ele>
        <time>2018-08-29T15:04:37Z</time>
      </trkpt>
      <trkpt lat="42.17077" lon="9.0992">
        <ele>1010.6</ele>
        <time>2018-08-29T15:05:13Z</time>
      </trkpt>
      <trkpt lat="42.17075" lon="9.0992">
        <ele>1010.2</ele>
        <time>2018-08-29T15:05:45Z</time>
      </trkpt>
      <trkpt lat="42.17066" lon="9.09924">
        <ele>1009.11</ele>
        <time>2018-08-29T15:05:58Z</time>
      </trkpt>
      <trkpt lat="42.17052" lon="9.09931">
        <ele>1007.02</ele>
        <time>2018-08-29T15:06:13Z</time>
      </trkpt>
      <trkpt lat="42.17049" lon="9.09931">
        <ele>1006.03</ele>
        <time>2018-08-29T15:06:28Z</time>
      </trkpt>
      <trkpt lat="42.17048" lon="9.09928">
        <ele>1005.9</ele>
        <time>2018-08-29T15:06:48Z</time>
      </trkpt>
      <trkpt lat="42.17043" lon="9.09933">
        <ele>1004.92</ele>
        <time>2018-08-29T15:07:00Z</time>
      </trkpt>
      <trkpt lat="42.17036" lon="9.09934">
        <ele>1002.79</ele>
        <time>2018-08-29T15:07:10Z</time>
      </trkpt>
      <trkpt lat="42.17035" lon="9.09935">
        <ele>1002.78</ele>
        <time>2018-08-29T15:07:12Z</time>
      </trkpt>
      <trkpt lat="42.17027" lon="9.09942">
        <ele>1000.23</ele>
        <time>2018-08-29T15:07:25Z</time>
      </trkpt>
      <trkpt lat="42.17022" lon="9.09945">
        <ele>999.09</ele>
        <time>2018-08-29T15:07:32Z</time>
      </trkpt>
      <trkpt lat="42.17016" lon="9.09944">
        <ele>996.45</ele>
        <time>2018-08-29T15:07:44Z</time>
      </trkpt>
      <trkpt lat="42.17012" lon="9.09944">
        <ele>995.06</ele>
        <time>2018-08-29T15:07:49Z</time>
      </trkpt>
      <trkpt lat="42.17004" lon="9.09948">
        <ele>992.93</ele>
        <time>2018-08-29T15:08:04Z</time>
      </trkpt>
      <trkpt lat="42.16998" lon="9.09956">
        <ele>990.58</ele>
        <time>2018-08-29T15:08:15Z</time>
      </trkpt>
      <trkpt lat="42.1699" lon="9.0996">
        <ele>988.93</ele>
        <time>2018-08-29T15:08:28Z</time>
      </trkpt>
      <trkpt lat="42.16981" lon="9.09961">
        <ele>986.2</ele>
        <time>2018-08-29T15:08:41Z</time>
      </trkpt>
      <trkpt lat="42.16971" lon="9.09961">
        <ele>984.15</ele>
        <time>2018-08-29T15:08:56Z</time>
      </trkpt>
      <trkpt lat="42.16964" lon="9.09964">
        <ele>982.03</ele>
        <time>2018-08-29T15:09:07Z</time>
      </trkpt>
      <trkpt lat="42.1696" lon="9.09965">
        <ele>981.23</ele>
        <time>2018-08-29T15:09:12Z</time>
      </trkpt>
      <trkpt lat="42.16953" lon="9.09975">
        <ele>978.13</ele>
        <time>2018-08-29T15:09:26Z</time>
      </trkpt>
      <trkpt lat="42.16945" lon="9.09983">
        <ele>975.51</ele>
        <time>2018-08-29T15:09:40Z</time>
      </trkpt>
      <trkpt lat="42.16935" lon="9.09987">
        <ele>972.74</ele>
        <time>2018-08-29T15:09:55Z</time>
      </trkpt>
      <trkpt lat="42.16934" lon="9.09988">
        <ele>972.58</ele>
        <time>2018-08-29T15:09:56Z</time>
      </trkpt>
      <trkpt lat="42.16925" lon="9.09994">
        <ele>971.64</ele>
        <time>2018-08-29T15:10:10Z</time>
      </trkpt>
      <trkpt lat="42.16921" lon="9.09994">
        <ele>970.82</ele>
        <time>2018-08-29T15:10:14Z</time>
      </trkpt>
      <trkpt lat="42.16918" lon="9.09999">
        <ele>969.8</ele>
        <time>2018-08-29T15:10:18Z</time>
      </trkpt>
      <trkpt lat="42.16913" lon="9.10004">
        <ele>967.72</ele>
        <time>2018-08-29T15:10:30Z</time>
      </trkpt>
      <trkpt lat="42.16906" lon="9.1001">
        <ele>964.98</ele>
        <time>2018-08-29T15:10:44Z</time>
      </trkpt>
      <trkpt lat="42.16899" lon="9.1002">
        <ele>962.75</ele>
        <time>2018-08-29T15:10:57Z</time>
      </trkpt>
      <trkpt lat="42.16897" lon="9.10034">
        <ele>959.73</ele>
        <time>2018-08-29T15:11:12Z</time>
      </trkpt>
      <trkpt lat="42.16898" lon="9.10041">
        <ele>958.7</ele>
        <time>2018-08-29T15:11:22Z</time>
      </trkpt>
      <trkpt lat="42.16894" lon="9.10046">
        <ele>957.9</ele>
        <time>2018-08-29T15:11:27Z</time>
      </trkpt>
      <trkpt lat="42.16886" lon="9.10051">
        <ele>957.94</ele>
        <time>2018-08-29T15:11:35Z</time>
      </trkpt>
      <trkpt lat="42.16879" lon="9.10057">
        <ele>956.96</ele>
        <time>2018-08-29T15:11:47Z</time>
      </trkpt>
      <trkpt lat="42.16874" lon="9.10066">
        <ele>956.07</ele>
        <time>2018-08-29T15:11:55Z</time>
      </trkpt>
      <trkpt lat="42.16867" lon="9.10074">
        <ele>955.1</ele>
        <time>2018-08-29T15:12:05Z</time>
      </trkpt>
      <trkpt lat="42.1686" lon="9.10084">
        <ele>953.34</ele>
        <time>2018-08-29T15:12:18Z</time>
      </trkpt>
      <trkpt lat="42.16859" lon="9.10084">
        <ele>953.33</ele>
        <time>2018-08-29T15:12:19Z</time>
      </trkpt>
      <trkpt lat="42.16853" lon="9.10081">
        <ele>951.94</ele>
        <time>2018-08-29T15:12:26Z</time>
      </trkpt>
      <trkpt lat="42.16852" lon="9.10081">
        <ele>951.89</ele>
        <time>2018-08-29T15:12:27Z</time>
      </trkpt>
      <trkpt lat="42.16847" lon="9.10083">
        <ele>951.81</ele>
        <time>2018-08-29T15:12:33Z</time>
      </trkpt>
      <trkpt lat="42.16842" lon="9.10081">
        <ele>950.82</ele>
        <time>2018-08-29T15:12:45Z</time>
      </trkpt>
      <trkpt lat="42.16838" lon="9.10086">
        <ele>948.95</ele>
        <time>2018-08-29T15:12:57Z</time>
      </trkpt>
      <trkpt lat="42.16836" lon="9.10088">
        <ele>947.62</ele>
        <time>2018-08-29T15:12:59Z</time>
      </trkpt>
      <trkpt lat="42.16832" lon="9.10092">
        <ele>947.77</ele>
        <time>2018-08-29T15:13:11Z</time>
      </trkpt>
      <trkpt lat="42.16833" lon="9.10091">
        <ele>947.66</ele>
        <time>2018-08-29T15:13:31Z</time>
      </trkpt>
      <trkpt lat="42.16831" lon="9.10091">
        <ele>947.52</ele>
        <time>2018-08-29T15:13:57Z</time>
      </trkpt>
      <trkpt lat="42.16825" lon="9.10098">
        <ele>947.44</ele>
        <time>2018-08-29T15:14:11Z</time>
      </trkpt>
      <trkpt lat="42.1682" lon="9.10102">
        <ele>947.37</ele>
        <time>2018-08-29T15:14:23Z</time>
      </trkpt>
      <trkpt lat="42.16815" lon="9.10104">
        <ele>946.52</ele>
        <time>2018-08-29T15:14:38Z</time>
      </trkpt>
      <trkpt lat="42.16815" lon="9.10118">
        <ele>946.41</ele>
        <time>2018-08-29T15:14:53Z</time>
      </trkpt>
      <trkpt lat="42.16811" lon="9.10129">
        <ele>948.58</ele>
        <time>2018-08-29T15:15:06Z</time>
      </trkpt>
      <trkpt lat="42.16806" lon="9.10129">
        <ele>950.74</ele>
        <time>2018-08-29T15:15:16Z</time>
      </trkpt>
      <trkpt lat="42.16801" lon="9.1013">
        <ele>951.62</ele>
        <time>2018-08-29T15:15:30Z</time>
      </trkpt>
      <trkpt lat="42.16794" lon="9.10129">
        <ele>953.68</ele>
        <time>2018-08-29T15:15:41Z</time>
      </trkpt>
      <trkpt lat="42.16794" lon="9.1012">
        <ele>953.39</ele>
        <time>2018-08-29T15:15:57Z</time>
      </trkpt>
      <trkpt lat="42.16792" lon="9.10111">
        <ele>954.03</ele>
        <time>2018-08-29T15:16:23Z</time>
      </trkpt>
      <trkpt lat="42.16781" lon="9.10095">
        <ele>956.52</ele>
        <time>2018-08-29T15:16:41Z</time>
      </trkpt>
      <trkpt lat="42.16779" lon="9.10093">
        <ele>956.55</ele>
        <time>2018-08-29T15:16:44Z</time>
      </trkpt>
      <trkpt lat="42.16767" lon="9.1008">
        <ele>958.1</ele>
        <time>2018-08-29T15:17:01Z</time>
      </trkpt>
      <trkpt lat="42.16757" lon="9.10073">
        <ele>959.86</ele>
        <time>2018-08-29T15:17:16Z</time>
      </trkpt>
      <trkpt lat="42.16749" lon="9.10065">
        <ele>962.1</ele>
        <time>2018-08-29T15:17:29Z</time>
      </trkpt>
      <trkpt lat="42.16741" lon="9.10061">
        <ele>963.61</ele>
        <time>2018-08-29T15:17:43Z</time>
      </trkpt>
      <trkpt lat="42.16731" lon="9.10055">
        <ele>966.18</ele>
        <time>2018-08-29T15:18:01Z</time>
      </trkpt>
      <trkpt lat="42.16721" lon="9.10051">
        <ele>968.06</ele>
        <time>2018-08-29T15:18:17Z</time>
      </trkpt>
      <trkpt lat="42.16714" lon="9.10046">
        <ele>969.98</ele>
        <time>2018-08-29T15:18:30Z</time>
      </trkpt>
      <trkpt lat="42.16706" lon="9.10044">
        <ele>971.75</ele>
        <time>2018-08-29T15:18:46Z</time>
      </trkpt>
      <trkpt lat="42.16701" lon="9.10041">
        <ele>972.4</ele>
        <time>2018-08-29T15:19:00Z</time>
      </trkpt>
      <trkpt lat="42.16694" lon="9.10042">
        <ele>974.26</ele>
        <time>2018-08-29T15:19:14Z</time>
      </trkpt>
      <trkpt lat="42.16685" lon="9.10038">
        <ele>975.22</ele>
        <time>2018-08-29T15:19:28Z</time>
      </trkpt>
      <trkpt lat="42.16679" lon="9.10035">
        <ele>975.9</ele>
        <time>2018-08-29T15:19:41Z</time>
      </trkpt>
      <trkpt lat="42.16673" lon="9.10037">
        <ele>977.6</ele>
        <time>2018-08-29T15:19:55Z</time>
      </trkpt>
      <trkpt lat="42.16663" lon="9.10037">
        <ele>979.56</ele>
        <time>2018-08-29T15:20:10Z</time>
      </trkpt>
      <trkpt lat="42.16655" lon="9.10034">
        <ele>981.11</ele>
        <time>2018-08-29T15:20:26Z</time>
      </trkpt>
      <trkpt lat="42.16645" lon="9.10029">
        <ele>981.84</ele>
        <time>2018-08-29T15:20:41Z</time>
      </trkpt>
      <trkpt lat="42.16641" lon="9.10027">
        <ele>983.1</ele>
        <time>2018-08-29T15:20:49Z</time>
      </trkpt>
      <trkpt lat="42.16635" lon="9.1002">
        <ele>983.81</ele>
        <time>2018-08-29T15:21:05Z</time>
      </trkpt>
      <trkpt lat="42.16626" lon="9.1001">
        <ele>986.41</ele>
        <time>2018-08-29T15:21:23Z</time>
      </trkpt>
      <trkpt lat="42.1662" lon="9.09999">
        <ele>989.13</ele>
        <time>2018-08-29T15:21:39Z</time>
      </trkpt>
      <trkpt lat="42.16613" lon="9.09987">
        <ele>989.9</ele>
        <time>2018-08-29T15:21:54Z</time>
      </trkpt>
      <trkpt lat="42.16613" lon="9.09971">
        <ele>991.1</ele>
        <time>2018-08-29T15:22:09Z</time>
      </trkpt>
      <trkpt lat="42.16608" lon="9.0995">
        <ele>992.91</ele>
        <time>2018-08-29T15:22:24Z</time>
      </trkpt>
      <trkpt lat="42.16602" lon="9.0993">
        <ele>994.87</ele>
        <time>2018-08-29T15:22:44Z</time>
      </trkpt>
      <trkpt lat="42.16597" lon="9.09913">
        <ele>996.87</ele>
        <time>2018-08-29T15:23:03Z</time>
      </trkpt>
      <trkpt lat="42.16596" lon="9.09907">
        <ele>997.65</ele>
        <time>2018-08-29T15:23:24Z</time>
      </trkpt>
      <trkpt lat="42.16592" lon="9.09887">
        <ele>999.37</ele>
        <time>2018-08-29T15:23:44Z</time>
      </trkpt>
      <trkpt lat="42.16585" lon="9.09871">
        <ele>1001.21</ele>
        <time>2018-08-29T15:24:02Z</time>
      </trkpt>
      <trkpt lat="42.16581" lon="9.09851">
        <ele>1002.88</ele>
        <time>2018-08-29T15:24:22Z</time>
      </trkpt>
      <trkpt lat="42.16575" lon="9.09834">
        <ele>1003.78</ele>
        <time>2018-08-29T15:24:42Z</time>
      </trkpt>
      <trkpt lat="42.16568" lon="9.09817">
        <ele>1006.71</ele>
        <time>2018-08-29T15:25:01Z</time>
      </trkpt>
      <trkpt lat="42.16558" lon="9.09801">
        <ele>1009.06</ele>
        <time>2018-08-29T15:25:21Z</time>
      </trkpt>
      <trkpt lat="42.16554" lon="9.09797">
        <ele>1010.66</ele>
        <time>2018-08-29T15:25:27Z</time>
      </trkpt>
      <trkpt lat="42.16548" lon="9.09784">
        <ele>1011.34</ele>
        <time>2018-08-29T15:25:42Z</time>
      </trkpt>
      <trkpt lat="42.16539" lon="9.09771">
        <ele>1012.33</ele>
        <time>2018-08-29T15:25:58Z</time>
      </trkpt>
      <trkpt lat="42.16525" lon="9.09751">
        <ele>1014.27</ele>
        <time>2018-08-29T15:26:20Z</time>
      </trkpt>
      <trkpt lat="42.16517" lon="9.09739">
        <ele>1015.9</ele>
        <time>2018-08-29T15:26:35Z</time>
      </trkpt>
      <trkpt lat="42.16516" lon="9.09733">
        <ele>1015.89</ele>
        <time>2018-08-29T15:26:40Z</time>
      </trkpt>
      <trkpt lat="42.16505" lon="9.09716">
        <ele>1016.58</ele>
        <time>2018-08-29T15:26:56Z</time>
      </trkpt>
      <trkpt lat="42.165" lon="9.09697">
        <ele>1018.83</ele>
        <time>2018-08-29T15:27:13Z</time>
      </trkpt>
      <trkpt lat="42.16499" lon="9.09696">
        <ele>1018.82</ele>
        <time>2018-08-29T15:27:14Z</time>
      </trkpt>
      <trkpt lat="42.16498" lon="9.09683">
        <ele>1019.58</ele>
        <time>2018-08-29T15:27:30Z</time>
      </trkpt>
      <trkpt lat="42.165" lon="9.09665">
        <ele>1021.08</ele>
        <time>2018-08-29T15:27:46Z</time>
      </trkpt>
      <trkpt lat="42.16499" lon="9.09646">
        <ele>1021.92</ele>
        <time>2018-08-29T15:28:02Z</time>
      </trkpt>
      <trkpt lat="42.16498" lon="9.0963">
        <ele>1022.48</ele>
        <time>2018-08-29T15:28:17Z</time>
      </trkpt>
      <trkpt lat="42.16493" lon="9.09616">
        <ele>1022.27</ele>
        <time>2018-08-29T15:28:33Z</time>
      </trkpt>
      <trkpt lat="42.16486" lon="9.09601">
        <ele>1024</ele>
        <time>2018-08-29T15:28:53Z</time>
      </trkpt>
      <trkpt lat="42.16479" lon="9.09583">
        <ele>1025.59</ele>
        <time>2018-08-29T15:29:10Z</time>
      </trkpt>
      <trkpt lat="42.16473" lon="9.09568">
        <ele>1027.3</ele>
        <time>2018-08-29T15:29:29Z</time>
      </trkpt>
      <trkpt lat="42.16467" lon="9.09553">
        <ele>1028.6</ele>
        <time>2018-08-29T15:29:49Z</time>
      </trkpt>
      <trkpt lat="42.16457" lon="9.09532">
        <ele>1029.17</ele>
        <time>2018-08-29T15:30:07Z</time>
      </trkpt>
      <trkpt lat="42.16447" lon="9.09515">
        <ele>1030.82</ele>
        <time>2018-08-29T15:30:26Z</time>
      </trkpt>
      <trkpt lat="42.16437" lon="9.09498">
        <ele>1032.45</ele>
        <time>2018-08-29T15:30:43Z</time>
      </trkpt>
      <trkpt lat="42.1643" lon="9.09486">
        <ele>1032.88</ele>
        <time>2018-08-29T15:31:01Z</time>
      </trkpt>
      <trkpt lat="42.16425" lon="9.09475">
        <ele>1034.24</ele>
        <time>2018-08-29T15:31:16Z</time>
      </trkpt>
      <trkpt lat="42.16422" lon="9.09455">
        <ele>1034.98</ele>
        <time>2018-08-29T15:31:34Z</time>
      </trkpt>
      <trkpt lat="42.16417" lon="9.09444">
        <ele>1036.77</ele>
        <time>2018-08-29T15:31:48Z</time>
      </trkpt>
      <trkpt lat="42.16409" lon="9.09427">
        <ele>1037.25</ele>
        <time>2018-08-29T15:32:05Z</time>
      </trkpt>
      <trkpt lat="42.16398" lon="9.09416">
        <ele>1037.96</ele>
        <time>2018-08-29T15:32:21Z</time>
      </trkpt>
      <trkpt lat="42.16391" lon="9.09405">
        <ele>1038.55</ele>
        <time>2018-08-29T15:32:36Z</time>
      </trkpt>
      <trkpt lat="42.16378" lon="9.09392">
        <ele>1039.18</ele>
        <time>2018-08-29T15:32:53Z</time>
      </trkpt>
      <trkpt lat="42.16364" lon="9.09381">
        <ele>1040.8</ele>
        <time>2018-08-29T15:33:07Z</time>
      </trkpt>
      <trkpt lat="42.16354" lon="9.09372">
        <ele>1041.49</ele>
        <time>2018-08-29T15:33:21Z</time>
      </trkpt>
      <trkpt lat="42.16346" lon="9.0936">
        <ele>1043.3</ele>
        <time>2018-08-29T15:33:36Z</time>
      </trkpt>
      <trkpt lat="42.16338" lon="9.09349">
        <ele>1043.12</ele>
        <time>2018-08-29T15:33:51Z</time>
      </trkpt>
      <trkpt lat="42.16333" lon="9.09336">
        <ele>1044.79</ele>
        <time>2018-08-29T15:34:06Z</time>
      </trkpt>
      <trkpt lat="42.16327" lon="9.09323">
        <ele>1046.24</ele>
        <time>2018-08-29T15:34:17Z</time>
      </trkpt>
      <trkpt lat="42.16317" lon="9.09309">
        <ele>1047.69</ele>
        <time>2018-08-29T15:34:34Z</time>
      </trkpt>
      <trkpt lat="42.16309" lon="9.09288">
        <ele>1048.3</ele>
        <time>2018-08-29T15:34:54Z</time>
      </trkpt>
      <trkpt lat="42.16303" lon="9.09274">
        <ele>1049.94</ele>
        <time>2018-08-29T15:35:12Z</time>
      </trkpt>
      <trkpt lat="42.16295" lon="9.09265">
        <ele>1051.45</ele>
        <time>2018-08-29T15:35:28Z</time>
      </trkpt>
      <trkpt lat="42.16292" lon="9.0926">
        <ele>1052.34</ele>
        <time>2018-08-29T15:35:41Z</time>
      </trkpt>
      <trkpt lat="42.16289" lon="9.0925">
        <ele>1052.23</ele>
        <time>2018-08-29T15:35:59Z</time>
      </trkpt>
      <trkpt lat="42.16282" lon="9.09242">
        <ele>1053.4</ele>
        <time>2018-08-29T15:36:14Z</time>
      </trkpt>
      <trkpt lat="42.16279" lon="9.09233">
        <ele>1055.35</ele>
        <time>2018-08-29T15:36:30Z</time>
      </trkpt>
      <trkpt lat="42.1627" lon="9.0922">
        <ele>1056.87</ele>
        <time>2018-08-29T15:36:48Z</time>
      </trkpt>
      <trkpt lat="42.16266" lon="9.09203">
        <ele>1058.68</ele>
        <time>2018-08-29T15:37:03Z</time>
      </trkpt>
      <trkpt lat="42.16261" lon="9.09194">
        <ele>1059.69</ele>
        <time>2018-08-29T15:37:19Z</time>
      </trkpt>
      <trkpt lat="42.16256" lon="9.09184">
        <ele>1061.34</ele>
        <time>2018-08-29T15:37:36Z</time>
      </trkpt>
      <trkpt lat="42.16252" lon="9.09172">
        <ele>1062.96</ele>
        <time>2018-08-29T15:37:52Z</time>
      </trkpt>
      <trkpt lat="42.16249" lon="9.09158">
        <ele>1065.55</ele>
        <time>2018-08-29T15:38:12Z</time>
      </trkpt>
      <trkpt lat="42.16244" lon="9.0914">
        <ele>1067.81</ele>
        <time>2018-08-29T15:38:33Z</time>
      </trkpt>
      <trkpt lat="42.16237" lon="9.09127">
        <ele>1069.52</ele>
        <time>2018-08-29T15:38:52Z</time>
      </trkpt>
      <trkpt lat="42.16222" lon="9.09109">
        <ele>1070.86</ele>
        <time>2018-08-29T15:39:10Z</time>
      </trkpt>
      <trkpt lat="42.16218" lon="9.09101">
        <ele>1073.02</ele>
        <time>2018-08-29T15:39:20Z</time>
      </trkpt>
      <trkpt lat="42.16207" lon="9.09079">
        <ele>1074.49</ele>
        <time>2018-08-29T15:39:41Z</time>
      </trkpt>
      <trkpt lat="42.16207" lon="9.09074">
        <ele>1075.83</ele>
        <time>2018-08-29T15:39:46Z</time>
      </trkpt>
      <trkpt lat="42.16199" lon="9.09064">
        <ele>1077.5</ele>
        <time>2018-08-29T15:40:01Z</time>
      </trkpt>
      <trkpt lat="42.16195" lon="9.09045">
        <ele>1078.14</ele>
        <time>2018-08-29T15:40:19Z</time>
      </trkpt>
      <trkpt lat="42.16188" lon="9.09026">
        <ele>1080.01</ele>
        <time>2018-08-29T15:40:37Z</time>
      </trkpt>
      <trkpt lat="42.16181" lon="9.09012">
        <ele>1079.85</ele>
        <time>2018-08-29T15:40:52Z</time>
      </trkpt>
      <trkpt lat="42.16175" lon="9.08998">
        <ele>1080.96</ele>
        <time>2018-08-29T15:41:07Z</time>
      </trkpt>
      <trkpt lat="42.16168" lon="9.08983">
        <ele>1082.76</ele>
        <time>2018-08-29T15:41:24Z</time>
      </trkpt>
      <trkpt lat="42.16162" lon="9.08964">
        <ele>1083.66</ele>
        <time>2018-08-29T15:41:41Z</time>
      </trkpt>
      <trkpt lat="42.1616" lon="9.08961">
        <ele>1085.12</ele>
        <time>2018-08-29T15:41:45Z</time>
      </trkpt>
      <trkpt lat="42.1616" lon="9.08962">
        <ele>1085.09</ele>
        <time>2018-08-29T15:41:47Z</time>
      </trkpt>
      <trkpt lat="42.16156" lon="9.08955">
        <ele>1085.57</ele>
        <time>2018-08-29T15:42:12Z</time>
      </trkpt>
      <trkpt lat="42.16159" lon="9.08954">
        <ele>1085.3</ele>
        <time>2018-08-29T15:42:43Z</time>
      </trkpt>
      <trkpt lat="42.16157" lon="9.08952">
        <ele>1091.68</ele>
        <time>2018-08-29T15:42:51Z</time>
      </trkpt>
      <trkpt lat="42.16157" lon="9.08952">
        <ele>1086.07</ele>
        <time>2018-08-29T15:42:52Z</time>
      </trkpt>
      <trkpt lat="42.16157" lon="9.08951">
        <ele>1085.02</ele>
        <time>2018-08-29T15:42:54Z</time>
      </trkpt>
      <trkpt lat="42.16153" lon="9.08952">
        <ele>1084.92</ele>
        <time>2018-08-29T15:43:27Z</time>
      </trkpt>
      <trkpt lat="42.1615" lon="9.08951">
        <ele>1084.26</ele>
        <time>2018-08-29T15:44:07Z</time>
      </trkpt>
      <trkpt lat="42.16149" lon="9.08948">
        <ele>1084.55</ele>
        <time>2018-08-29T15:44:42Z</time>
      </trkpt>
      <trkpt lat="42.1615" lon="9.08948">
        <ele>1084.85</ele>
        <time>2018-08-29T15:45:10Z</time>
      </trkpt>
      <trkpt lat="42.16148" lon="9.08946">
        <ele>1085.09</ele>
        <time>2018-08-29T15:45:32Z</time>
      </trkpt>
      <trkpt lat="42.16148" lon="9.08936">
        <ele>1088.11</ele>
        <time>2018-08-29T15:45:48Z</time>
      </trkpt>
      <trkpt lat="42.16148" lon="9.08936">
        <ele>1088.02</ele>
        <time>2018-08-29T15:45:49Z</time>
      </trkpt>
      <trkpt lat="42.16142" lon="9.08919">
        <ele>1090.3</ele>
        <time>2018-08-29T15:46:08Z</time>
      </trkpt>
      <trkpt lat="42.16137" lon="9.08897">
        <ele>1093.26</ele>
        <time>2018-08-29T15:46:31Z</time>
      </trkpt>
      <trkpt lat="42.16136" lon="9.08892">
        <ele>1095.35</ele>
        <time>2018-08-29T15:46:40Z</time>
      </trkpt>
      <trkpt lat="42.16133" lon="9.0888">
        <ele>1097.26</ele>
        <time>2018-08-29T15:46:58Z</time>
      </trkpt>
      <trkpt lat="42.16133" lon="9.08865">
        <ele>1099.08</ele>
        <time>2018-08-29T15:47:17Z</time>
      </trkpt>
      <trkpt lat="42.1613" lon="9.08846">
        <ele>1100.05</ele>
        <time>2018-08-29T15:47:37Z</time>
      </trkpt>
      <trkpt lat="42.16128" lon="9.08827">
        <ele>1101.79</ele>
        <time>2018-08-29T15:47:55Z</time>
      </trkpt>
      <trkpt lat="42.16128" lon="9.08802">
        <ele>1104.66</ele>
        <time>2018-08-29T15:48:17Z</time>
      </trkpt>
      <trkpt lat="42.16129" lon="9.08782">
        <ele>1106.51</ele>
        <time>2018-08-29T15:48:38Z</time>
      </trkpt>
      <trkpt lat="42.16128" lon="9.08769">
        <ele>1108.25</ele>
        <time>2018-08-29T15:48:58Z</time>
      </trkpt>
      <trkpt lat="42.16127" lon="9.08765">
        <ele>1108.26</ele>
        <time>2018-08-29T15:49:01Z</time>
      </trkpt>
      <trkpt lat="42.1613" lon="9.08749">
        <ele>1109.11</ele>
        <time>2018-08-29T15:49:17Z</time>
      </trkpt>
      <trkpt lat="42.16126" lon="9.08732">
        <ele>1110.72</ele>
        <time>2018-08-29T15:49:32Z</time>
      </trkpt>
      <trkpt lat="42.16127" lon="9.08714">
        <ele>1112.62</ele>
        <time>2018-08-29T15:49:50Z</time>
      </trkpt>
      <trkpt lat="42.16127" lon="9.08695">
        <ele>1114.6</ele>
        <time>2018-08-29T15:50:09Z</time>
      </trkpt>
      <trkpt lat="42.16121" lon="9.08677">
        <ele>1116.09</ele>
        <time>2018-08-29T15:50:29Z</time>
      </trkpt>
      <trkpt lat="42.16117" lon="9.08656">
        <ele>1116.83</ele>
        <time>2018-08-29T15:50:48Z</time>
      </trkpt>
      <trkpt lat="42.16114" lon="9.0864">
        <ele>1118.5</ele>
        <time>2018-08-29T15:51:08Z</time>
      </trkpt>
      <trkpt lat="42.16113" lon="9.08623">
        <ele>1119.53</ele>
        <time>2018-08-29T15:51:27Z</time>
      </trkpt>
      <trkpt lat="42.16109" lon="9.0861">
        <ele>1120.28</ele>
        <time>2018-08-29T15:51:36Z</time>
      </trkpt>
      <trkpt lat="42.16099" lon="9.08589">
        <ele>1123.51</ele>
        <time>2018-08-29T15:51:54Z</time>
      </trkpt>
      <trkpt lat="42.16099" lon="9.08588">
        <ele>1123.52</ele>
        <time>2018-08-29T15:51:55Z</time>
      </trkpt>
      <trkpt lat="42.16097" lon="9.08571">
        <ele>1124.5</ele>
        <time>2018-08-29T15:52:08Z</time>
      </trkpt>
      <trkpt lat="42.16095" lon="9.0856">
        <ele>1125.29</ele>
        <time>2018-08-29T15:52:22Z</time>
      </trkpt>
      <trkpt lat="42.1609" lon="9.08543">
        <ele>1126.06</ele>
        <time>2018-08-29T15:52:40Z</time>
      </trkpt>
      <trkpt lat="42.16085" lon="9.08527">
        <ele>1128.69</ele>
        <time>2018-08-29T15:52:58Z</time>
      </trkpt>
      <trkpt lat="42.16083" lon="9.08515">
        <ele>1129.85</ele>
        <time>2018-08-29T15:53:13Z</time>
      </trkpt>
      <trkpt lat="42.16084" lon="9.08505">
        <ele>1131.42</ele>
        <time>2018-08-29T15:53:23Z</time>
      </trkpt>
      <trkpt lat="42.16086" lon="9.08494">
        <ele>1132.59</ele>
        <time>2018-08-29T15:53:39Z</time>
      </trkpt>
      <trkpt lat="42.16083" lon="9.0848">
        <ele>1135.1</ele>
        <time>2018-08-29T15:54:01Z</time>
      </trkpt>
      <trkpt lat="42.16082" lon="9.08467">
        <ele>1136.11</ele>
        <time>2018-08-29T15:54:18Z</time>
      </trkpt>
      <trkpt lat="42.1608" lon="9.08451">
        <ele>1139.16</ele>
        <time>2018-08-29T15:54:35Z</time>
      </trkpt>
      <trkpt lat="42.1608" lon="9.08451">
        <ele>1139.14</ele>
        <time>2018-08-29T15:54:36Z</time>
      </trkpt>
      <trkpt lat="42.16079" lon="9.08441">
        <ele>1141.02</ele>
        <time>2018-08-29T15:54:54Z</time>
      </trkpt>
      <trkpt lat="42.1607" lon="9.08432">
        <ele>1142.91</ele>
        <time>2018-08-29T15:55:15Z</time>
      </trkpt>
      <trkpt lat="42.16065" lon="9.08421">
        <ele>1145.64</ele>
        <time>2018-08-29T15:55:31Z</time>
      </trkpt>
      <trkpt lat="42.16058" lon="9.08413">
        <ele>1147.63</ele>
        <time>2018-08-29T15:55:48Z</time>
      </trkpt>
      <trkpt lat="42.16052" lon="9.08408">
        <ele>1149.42</ele>
        <time>2018-08-29T15:56:07Z</time>
      </trkpt>
      <trkpt lat="42.16051" lon="9.08398">
        <ele>1151.46</ele>
        <time>2018-08-29T15:56:26Z</time>
      </trkpt>
      <trkpt lat="42.16052" lon="9.08386">
        <ele>1153.46</ele>
        <time>2018-08-29T15:56:46Z</time>
      </trkpt>
      <trkpt lat="42.16048" lon="9.08364">
        <ele>1155.42</ele>
        <time>2018-08-29T15:57:07Z</time>
      </trkpt>
      <trkpt lat="42.16048" lon="9.08363">
        <ele>1156.72</ele>
        <time>2018-08-29T15:57:09Z</time>
      </trkpt>
      <trkpt lat="42.16044" lon="9.08357">
        <ele>1158</ele>
        <time>2018-08-29T15:57:19Z</time>
      </trkpt>
      <trkpt lat="42.16039" lon="9.08347">
        <ele>1160.05</ele>
        <time>2018-08-29T15:57:39Z</time>
      </trkpt>
      <trkpt lat="42.16043" lon="9.08333">
        <ele>1161.81</ele>
        <time>2018-08-29T15:57:58Z</time>
      </trkpt>
      <trkpt lat="42.16045" lon="9.0832">
        <ele>1163.04</ele>
        <time>2018-08-29T15:58:18Z</time>
      </trkpt>
      <trkpt lat="42.16045" lon="9.08307">
        <ele>1166.11</ele>
        <time>2018-08-29T15:58:33Z</time>
      </trkpt>
      <trkpt lat="42.16047" lon="9.08289">
        <ele>1167.08</ele>
        <time>2018-08-29T15:58:53Z</time>
      </trkpt>
      <trkpt lat="42.1605" lon="9.08273">
        <ele>1169.72</ele>
        <time>2018-08-29T15:59:13Z</time>
      </trkpt>
      <trkpt lat="42.16058" lon="9.08257">
        <ele>1172.29</ele>
        <time>2018-08-29T15:59:32Z</time>
      </trkpt>
      <trkpt lat="42.16062" lon="9.08239">
        <ele>1174.15</ele>
        <time>2018-08-29T15:59:50Z</time>
      </trkpt>
      <trkpt lat="42.16066" lon="9.08224">
        <ele>1175.07</ele>
        <time>2018-08-29T16:00:03Z</time>
      </trkpt>
      <trkpt lat="42.16067" lon="9.08204">
        <ele>1176.98</ele>
        <time>2018-08-29T16:00:20Z</time>
      </trkpt>
      <trkpt lat="42.16066" lon="9.08192">
        <ele>1178.16</ele>
        <time>2018-08-29T16:00:33Z</time>
      </trkpt>
      <trkpt lat="42.16062" lon="9.08177">
        <ele>1179.28</ele>
        <time>2018-08-29T16:00:50Z</time>
      </trkpt>
      <trkpt lat="42.16061" lon="9.08169">
        <ele>1177.63</ele>
        <time>2018-08-29T16:01:12Z</time>
      </trkpt>
      <trkpt lat="42.16059" lon="9.08157">
        <ele>1176.78</ele>
        <time>2018-08-29T16:01:32Z</time>
      </trkpt>
      <trkpt lat="42.16059" lon="9.08153">
        <ele>1175.85</ele>
        <time>2018-08-29T16:01:44Z</time>
      </trkpt>
      <trkpt lat="42.16058" lon="9.08148">
        <ele>1174.97</ele>
        <time>2018-08-29T16:02:03Z</time>
      </trkpt>
      <trkpt lat="42.1606" lon="9.08143">
        <ele>1175.2</ele>
        <time>2018-08-29T16:02:25Z</time>
      </trkpt>
      <trkpt lat="42.1606" lon="9.08144">
        <ele>1175.41</ele>
        <time>2018-08-29T16:02:47Z</time>
      </trkpt>
      <trkpt lat="42.16065" lon="9.08138">
        <ele>1174.39</ele>
        <time>2018-08-29T16:03:02Z</time>
      </trkpt>
      <trkpt lat="42.16066" lon="9.08136">
        <ele>1176.98</ele>
        <time>2018-08-29T16:03:09Z</time>
      </trkpt>
      <trkpt lat="42.16072" lon="9.08145">
        <ele>1177.09</ele>
        <time>2018-08-29T16:03:28Z</time>
      </trkpt>
      <trkpt lat="42.16081" lon="9.08151">
        <ele>1177.32</ele>
        <time>2018-08-29T16:03:50Z</time>
      </trkpt>
      <trkpt lat="42.16087" lon="9.08156">
        <ele>1178.31</ele>
        <time>2018-08-29T16:04:09Z</time>
      </trkpt>
      <trkpt lat="42.16098" lon="9.08159">
        <ele>1181.05</ele>
        <time>2018-08-29T16:04:30Z</time>
      </trkpt>
      <trkpt lat="42.16109" lon="9.08158">
        <ele>1184.3</ele>
        <time>2018-08-29T16:04:48Z</time>
      </trkpt>
      <trkpt lat="42.16115" lon="9.08155">
        <ele>1185.33</ele>
        <time>2018-08-29T16:05:03Z</time>
      </trkpt>
      <trkpt lat="42.16115" lon="9.08147">
        <ele>1187.92</ele>
        <time>2018-08-29T16:05:19Z</time>
      </trkpt>
      <trkpt lat="42.16111" lon="9.0814">
        <ele>1189.87</ele>
        <time>2018-08-29T16:05:36Z</time>
      </trkpt>
      <trkpt lat="42.16104" lon="9.08132">
        <ele>1193.05</ele>
        <time>2018-08-29T16:05:52Z</time>
      </trkpt>
      <trkpt lat="42.16103" lon="9.08132">
        <ele>1193.03</ele>
        <time>2018-08-29T16:05:53Z</time>
      </trkpt>
      <trkpt lat="42.16101" lon="9.08125">
        <ele>1195.77</ele>
        <time>2018-08-29T16:06:11Z</time>
      </trkpt>
      <trkpt lat="42.16098" lon="9.08113">
        <ele>1198.21</ele>
        <time>2018-08-29T16:06:31Z</time>
      </trkpt>
      <trkpt lat="42.16101" lon="9.08108">
        <ele>1200.97</ele>
        <time>2018-08-29T16:06:50Z</time>
      </trkpt>
      <trkpt lat="42.16099" lon="9.08099">
        <ele>1203.89</ele>
        <time>2018-08-29T16:07:09Z</time>
      </trkpt>
      <trkpt lat="42.16097" lon="9.0809">
        <ele>1204.74</ele>
        <time>2018-08-29T16:07:27Z</time>
      </trkpt>
      <trkpt lat="42.16094" lon="9.08083">
        <ele>1206.04</ele>
        <time>2018-08-29T16:07:37Z</time>
      </trkpt>
      <trkpt lat="42.1609" lon="9.08075">
        <ele>1208.09</ele>
        <time>2018-08-29T16:07:51Z</time>
      </trkpt>
      <trkpt lat="42.16083" lon="9.08067">
        <ele>1211.17</ele>
        <time>2018-08-29T16:08:09Z</time>
      </trkpt>
      <trkpt lat="42.16075" lon="9.08058">
        <ele>1212.06</ele>
        <time>2018-08-29T16:08:25Z</time>
      </trkpt>
      <trkpt lat="42.16066" lon="9.08052">
        <ele>1212.96</ele>
        <time>2018-08-29T16:08:40Z</time>
      </trkpt>
      <trkpt lat="42.16063" lon="9.08043">
        <ele>1214.71</ele>
        <time>2018-08-29T16:08:56Z</time>
      </trkpt>
      <trkpt lat="42.16061" lon="9.08038">
        <ele>1215.93</ele>
        <time>2018-08-29T16:09:27Z</time>
      </trkpt>
      <trkpt lat="42.16058" lon="9.08029">
        <ele>1217.64</ele>
        <time>2018-08-29T16:09:41Z</time>
      </trkpt>
      <trkpt lat="42.16058" lon="9.08029">
        <ele>1217.77</ele>
        <time>2018-08-29T16:10:10Z</time>
      </trkpt>
      <trkpt lat="42.16057" lon="9.08027">
        <ele>1217.92</ele>
        <time>2018-08-29T16:10:33Z</time>
      </trkpt>
      <trkpt lat="42.16055" lon="9.08024">
        <ele>1219.74</ele>
        <time>2018-08-29T16:10:47Z</time>
      </trkpt>
      <trkpt lat="42.16056" lon="9.08025">
        <ele>1219.88</ele>
        <time>2018-08-29T16:11:14Z</time>
      </trkpt>
      <trkpt lat="42.16054" lon="9.08022">
        <ele>1220</ele>
        <time>2018-08-29T16:11:36Z</time>
      </trkpt>
      <trkpt lat="42.1605" lon="9.08015">
        <ele>1222.08</ele>
        <time>2018-08-29T16:11:51Z</time>
      </trkpt>
      <trkpt lat="42.16047" lon="9.08007">
        <ele>1222.88</ele>
        <time>2018-08-29T16:12:07Z</time>
      </trkpt>
      <trkpt lat="42.16049" lon="9.08">
        <ele>1225.43</ele>
        <time>2018-08-29T16:12:23Z</time>
      </trkpt>
      <trkpt lat="42.16045" lon="9.07988">
        <ele>1227.57</ele>
        <time>2018-08-29T16:12:39Z</time>
      </trkpt>
      <trkpt lat="42.16037" lon="9.07979">
        <ele>1228.55</ele>
        <time>2018-08-29T16:12:55Z</time>
      </trkpt>
      <trkpt lat="42.16034" lon="9.07972">
        <ele>1230.72</ele>
        <time>2018-08-29T16:13:09Z</time>
      </trkpt>
      <trkpt lat="42.16029" lon="9.07962">
        <ele>1231.71</ele>
        <time>2018-08-29T16:13:24Z</time>
      </trkpt>
      <trkpt lat="42.16026" lon="9.07954">
        <ele>1232.78</ele>
        <time>2018-08-29T16:13:40Z</time>
      </trkpt>
      <trkpt lat="42.16022" lon="9.07946">
        <ele>1235.06</ele>
        <time>2018-08-29T16:13:51Z</time>
      </trkpt>
      <trkpt lat="42.16018" lon="9.07938">
        <ele>1237.73</ele>
        <time>2018-08-29T16:14:11Z</time>
      </trkpt>
      <trkpt lat="42.16012" lon="9.07927">
        <ele>1238.6</ele>
        <time>2018-08-29T16:14:27Z</time>
      </trkpt>
      <trkpt lat="42.16008" lon="9.07913">
        <ele>1240.67</ele>
        <time>2018-08-29T16:14:45Z</time>
      </trkpt>
      <trkpt lat="42.16005" lon="9.07904">
        <ele>1242.73</ele>
        <time>2018-08-29T16:14:57Z</time>
      </trkpt>
      <trkpt lat="42.15994" lon="9.07898">
        <ele>1243.57</ele>
        <time>2018-08-29T16:15:15Z</time>
      </trkpt>
      <trkpt lat="42.15989" lon="9.07887">
        <ele>1246.93</ele>
        <time>2018-08-29T16:15:32Z</time>
      </trkpt>
      <trkpt lat="42.15982" lon="9.07876">
        <ele>1248.85</ele>
        <time>2018-08-29T16:15:49Z</time>
      </trkpt>
      <trkpt lat="42.1598" lon="9.0787">
        <ele>1250.04</ele>
        <time>2018-08-29T16:16:03Z</time>
      </trkpt>
      <trkpt lat="42.15973" lon="9.07865">
        <ele>1251.16</ele>
        <time>2018-08-29T16:16:19Z</time>
      </trkpt>
      <trkpt lat="42.15964" lon="9.07861">
        <ele>1252.14</ele>
        <time>2018-08-29T16:16:37Z</time>
      </trkpt>
      <trkpt lat="42.15954" lon="9.07853">
        <ele>1254.23</ele>
        <time>2018-08-29T16:16:58Z</time>
      </trkpt>
      <trkpt lat="42.15949" lon="9.07848">
        <ele>1255.89</ele>
        <time>2018-08-29T16:17:13Z</time>
      </trkpt>
      <trkpt lat="42.15948" lon="9.07846">
        <ele>1257.17</ele>
        <time>2018-08-29T16:17:40Z</time>
      </trkpt>
      <trkpt lat="42.1594" lon="9.0784">
        <ele>1258.06</ele>
        <time>2018-08-29T16:17:57Z</time>
      </trkpt>
      <trkpt lat="42.15935" lon="9.07834">
        <ele>1259.93</ele>
        <time>2018-08-29T16:18:15Z</time>
      </trkpt>
      <trkpt lat="42.15931" lon="9.07827">
        <ele>1261.79</ele>
        <time>2018-08-29T16:18:32Z</time>
      </trkpt>
      <trkpt lat="42.15919" lon="9.07821">
        <ele>1261.89</ele>
        <time>2018-08-29T16:18:49Z</time>
      </trkpt>
      <trkpt lat="42.15904" lon="9.07815">
        <ele>1262.81</ele>
        <time>2018-08-29T16:19:05Z</time>
      </trkpt>
      <trkpt lat="42.15898" lon="9.07814">
        <ele>1263.91</ele>
        <time>2018-08-29T16:19:13Z</time>
      </trkpt>
      <trkpt lat="42.15888" lon="9.07809">
        <ele>1264.92</ele>
        <time>2018-08-29T16:19:27Z</time>
      </trkpt>
      <trkpt lat="42.15878" lon="9.07804">
        <ele>1266.82</ele>
        <time>2018-08-29T16:19:47Z</time>
      </trkpt>
      <trkpt lat="42.15866" lon="9.07798">
        <ele>1266.97</ele>
        <time>2018-08-29T16:20:07Z</time>
      </trkpt>
      <trkpt lat="42.15854" lon="9.07796">
        <ele>1267.93</ele>
        <time>2018-08-29T16:20:23Z</time>
      </trkpt>
      <trkpt lat="42.15844" lon="9.07784">
        <ele>1268.98</ele>
        <time>2018-08-29T16:20:40Z</time>
      </trkpt>
      <trkpt lat="42.15834" lon="9.07777">
        <ele>1269.95</ele>
        <time>2018-08-29T16:21:01Z</time>
      </trkpt>
      <trkpt lat="42.15821" lon="9.07774">
        <ele>1270.06</ele>
        <time>2018-08-29T16:21:17Z</time>
      </trkpt>
      <trkpt lat="42.15806" lon="9.07768">
        <ele>1270.17</ele>
        <time>2018-08-29T16:21:34Z</time>
      </trkpt>
      <trkpt lat="42.15804" lon="9.07764">
        <ele>1271.05</ele>
        <time>2018-08-29T16:21:40Z</time>
      </trkpt>
      <trkpt lat="42.15801" lon="9.07759">
        <ele>1271.08</ele>
        <time>2018-08-29T16:21:46Z</time>
      </trkpt>
      <trkpt lat="42.15798" lon="9.07749">
        <ele>1272.12</ele>
        <time>2018-08-29T16:21:59Z</time>
      </trkpt>
      <trkpt lat="42.15796" lon="9.07745">
        <ele>1272.13</ele>
        <time>2018-08-29T16:22:12Z</time>
      </trkpt>
      <trkpt lat="42.15795" lon="9.07744">
        <ele>1273.5</ele>
        <time>2018-08-29T16:22:16Z</time>
      </trkpt>
      <trkpt lat="42.15789" lon="9.07737">
        <ele>1274.53</ele>
        <time>2018-08-29T16:22:29Z</time>
      </trkpt>
      <trkpt lat="42.15783" lon="9.07734">
        <ele>1274.6</ele>
        <time>2018-08-29T16:22:42Z</time>
      </trkpt>
      <trkpt lat="42.15774" lon="9.07731">
        <ele>1275.8</ele>
        <time>2018-08-29T16:22:55Z</time>
      </trkpt>
      <trkpt lat="42.15765" lon="9.07726">
        <ele>1275.89</ele>
        <time>2018-08-29T16:23:08Z</time>
      </trkpt>
      <trkpt lat="42.15761" lon="9.07721">
        <ele>1276.9</ele>
        <time>2018-08-29T16:23:22Z</time>
      </trkpt>
      <trkpt lat="42.15757" lon="9.07718">
        <ele>1277.72</ele>
        <time>2018-08-29T16:23:36Z</time>
      </trkpt>
      <trkpt lat="42.15757" lon="9.07712">
        <ele>1279.91</ele>
        <time>2018-08-29T16:23:53Z</time>
      </trkpt>
      <trkpt lat="42.15751" lon="9.07707">
        <ele>1280.89</ele>
        <time>2018-08-29T16:24:13Z</time>
      </trkpt>
      <trkpt lat="42.15742" lon="9.07698">
        <ele>1281.96</ele>
        <time>2018-08-29T16:24:28Z</time>
      </trkpt>
      <trkpt lat="42.15735" lon="9.07688">
        <ele>1282.84</ele>
        <time>2018-08-29T16:24:43Z</time>
      </trkpt>
      <trkpt lat="42.15729" lon="9.0768">
        <ele>1285.56</ele>
        <time>2018-08-29T16:24:58Z</time>
      </trkpt>
      <trkpt lat="42.15723" lon="9.07673">
        <ele>1286.5</ele>
        <time>2018-08-29T16:25:12Z</time>
      </trkpt>
      <trkpt lat="42.15719" lon="9.07666">
        <ele>1288.77</ele>
        <time>2018-08-29T16:25:22Z</time>
      </trkpt>
      <trkpt lat="42.15713" lon="9.07658">
        <ele>1289.74</ele>
        <time>2018-08-29T16:25:36Z</time>
      </trkpt>
      <trkpt lat="42.15709" lon="9.07651">
        <ele>1292.47</ele>
        <time>2018-08-29T16:25:55Z</time>
      </trkpt>
      <trkpt lat="42.15702" lon="9.07641">
        <ele>1294.32</ele>
        <time>2018-08-29T16:26:14Z</time>
      </trkpt>
      <trkpt lat="42.15698" lon="9.07634">
        <ele>1296.55</ele>
        <time>2018-08-29T16:26:28Z</time>
      </trkpt>
      <trkpt lat="42.15694" lon="9.07626">
        <ele>1297.79</ele>
        <time>2018-08-29T16:26:38Z</time>
      </trkpt>
      <trkpt lat="42.15687" lon="9.07619">
        <ele>1299.95</ele>
        <time>2018-08-29T16:26:55Z</time>
      </trkpt>
      <trkpt lat="42.15681" lon="9.07616">
        <ele>1300.93</ele>
        <time>2018-08-29T16:27:15Z</time>
      </trkpt>
      <trkpt lat="42.15678" lon="9.07608">
        <ele>1302.99</ele>
        <time>2018-08-29T16:27:34Z</time>
      </trkpt>
      <trkpt lat="42.15674" lon="9.07602">
        <ele>1305.63</ele>
        <time>2018-08-29T16:27:51Z</time>
      </trkpt>
      <trkpt lat="42.15669" lon="9.07594">
        <ele>1306.47</ele>
        <time>2018-08-29T16:28:08Z</time>
      </trkpt>
      <trkpt lat="42.15666" lon="9.07591">
        <ele>1308.76</ele>
        <time>2018-08-29T16:28:13Z</time>
      </trkpt>
      <trkpt lat="42.15663" lon="9.07583">
        <ele>1309.64</ele>
        <time>2018-08-29T16:28:33Z</time>
      </trkpt>
      <trkpt lat="42.15655" lon="9.07573">
        <ele>1312.46</ele>
        <time>2018-08-29T16:28:51Z</time>
      </trkpt>
      <trkpt lat="42.1565" lon="9.07567">
        <ele>1313.56</ele>
        <time>2018-08-29T16:29:09Z</time>
      </trkpt>
      <trkpt lat="42.15643" lon="9.07565">
        <ele>1313.73</ele>
        <time>2018-08-29T16:29:28Z</time>
      </trkpt>
      <trkpt lat="42.15637" lon="9.07565">
        <ele>1311.39</ele>
        <time>2018-08-29T16:29:39Z</time>
      </trkpt>
      <trkpt lat="42.15626" lon="9.07559">
        <ele>1314.1</ele>
        <time>2018-08-29T16:29:57Z</time>
      </trkpt>
      <trkpt lat="42.15626" lon="9.07559">
        <ele>1314.13</ele>
        <time>2018-08-29T16:29:58Z</time>
      </trkpt>
      <trkpt lat="42.15621" lon="9.07558">
        <ele>1315.11</ele>
        <time>2018-08-29T16:30:16Z</time>
      </trkpt>
      <trkpt lat="42.15615" lon="9.07551">
        <ele>1316.17</ele>
        <time>2018-08-29T16:30:34Z</time>
      </trkpt>
      <trkpt lat="42.15612" lon="9.07545">
        <ele>1317.09</ele>
        <time>2018-08-29T16:30:57Z</time>
      </trkpt>
      <trkpt lat="42.15608" lon="9.07542">
        <ele>1317.99</ele>
        <time>2018-08-29T16:31:04Z</time>
      </trkpt>
      <trkpt lat="42.15601" lon="9.07535">
        <ele>1319</ele>
        <time>2018-08-29T16:31:16Z</time>
      </trkpt>
      <trkpt lat="42.15598" lon="9.07534">
        <ele>1320.26</ele>
        <time>2018-08-29T16:31:21Z</time>
      </trkpt>
      <trkpt lat="42.15587" lon="9.07522">
        <ele>1322.68</ele>
        <time>2018-08-29T16:31:41Z</time>
      </trkpt>
      <trkpt lat="42.15582" lon="9.07516">
        <ele>1325.45</ele>
        <time>2018-08-29T16:31:56Z</time>
      </trkpt>
      <trkpt lat="42.15578" lon="9.07508">
        <ele>1328.44</ele>
        <time>2018-08-29T16:32:17Z</time>
      </trkpt>
      <trkpt lat="42.15578" lon="9.07501">
        <ele>1331.01</ele>
        <time>2018-08-29T16:32:39Z</time>
      </trkpt>
      <trkpt lat="42.15571" lon="9.07496">
        <ele>1332.79</ele>
        <time>2018-08-29T16:32:57Z</time>
      </trkpt>
      <trkpt lat="42.15567" lon="9.07493">
        <ele>1333.83</ele>
        <time>2018-08-29T16:33:13Z</time>
      </trkpt>
      <trkpt lat="42.15566" lon="9.07492">
        <ele>1335.09</ele>
        <time>2018-08-29T16:33:16Z</time>
      </trkpt>
      <trkpt lat="42.15564" lon="9.07485">
        <ele>1337.15</ele>
        <time>2018-08-29T16:33:36Z</time>
      </trkpt>
      <trkpt lat="42.15558" lon="9.07475">
        <ele>1339.34</ele>
        <time>2018-08-29T16:33:56Z</time>
      </trkpt>
      <trkpt lat="42.15552" lon="9.07471">
        <ele>1341.34</ele>
        <time>2018-08-29T16:34:14Z</time>
      </trkpt>
      <trkpt lat="42.15552" lon="9.07466">
        <ele>1344.85</ele>
        <time>2018-08-29T16:34:27Z</time>
      </trkpt>
      <trkpt lat="42.15553" lon="9.07462">
        <ele>1347.57</ele>
        <time>2018-08-29T16:34:50Z</time>
      </trkpt>
      <trkpt lat="42.15548" lon="9.07455">
        <ele>1348.6</ele>
        <time>2018-08-29T16:35:14Z</time>
      </trkpt>
      <trkpt lat="42.15541" lon="9.07443">
        <ele>1350.64</ele>
        <time>2018-08-29T16:35:33Z</time>
      </trkpt>
      <trkpt lat="42.1554" lon="9.07441">
        <ele>1352.33</ele>
        <time>2018-08-29T16:35:38Z</time>
      </trkpt>
      <trkpt lat="42.15536" lon="9.07435">
        <ele>1353.25</ele>
        <time>2018-08-29T16:35:56Z</time>
      </trkpt>
      <trkpt lat="42.1553" lon="9.07433">
        <ele>1354.91</ele>
        <time>2018-08-29T16:36:07Z</time>
      </trkpt>
      <trkpt lat="42.15527" lon="9.07429">
        <ele>1354.95</ele>
        <time>2018-08-29T16:36:21Z</time>
      </trkpt>
      <trkpt lat="42.15519" lon="9.07427">
        <ele>1356.19</ele>
        <time>2018-08-29T16:36:36Z</time>
      </trkpt>
      <trkpt lat="42.15509" lon="9.07423">
        <ele>1357.2</ele>
        <time>2018-08-29T16:36:52Z</time>
      </trkpt>
      <trkpt lat="42.15501" lon="9.07421">
        <ele>1359.96</ele>
        <time>2018-08-29T16:37:08Z</time>
      </trkpt>
      <trkpt lat="42.15492" lon="9.07419">
        <ele>1360.05</ele>
        <time>2018-08-29T16:37:23Z</time>
      </trkpt>
      <trkpt lat="42.15483" lon="9.07416">
        <ele>1361.9</ele>
        <time>2018-08-29T16:37:36Z</time>
      </trkpt>
      <trkpt lat="42.15471" lon="9.07416">
        <ele>1363.07</ele>
        <time>2018-08-29T16:37:51Z</time>
      </trkpt>
      <trkpt lat="42.15461" lon="9.07414">
        <ele>1363.17</ele>
        <time>2018-08-29T16:38:04Z</time>
      </trkpt>
      <trkpt lat="42.15454" lon="9.07414">
        <ele>1363.27</ele>
        <time>2018-08-29T16:38:14Z</time>
      </trkpt>
      <trkpt lat="42.15442" lon="9.07421">
        <ele>1363.38</ele>
        <time>2018-08-29T16:38:29Z</time>
      </trkpt>
      <trkpt lat="42.15435" lon="9.07421">
        <ele>1364.73</ele>
        <time>2018-08-29T16:38:43Z</time>
      </trkpt>
      <trkpt lat="42.15432" lon="9.07422">
        <ele>1364.77</ele>
        <time>2018-08-29T16:38:46Z</time>
      </trkpt>
      <trkpt lat="42.15423" lon="9.07423">
        <ele>1367.01</ele>
        <time>2018-08-29T16:38:59Z</time>
      </trkpt>
      <trkpt lat="42.15414" lon="9.07422">
        <ele>1368</ele>
        <time>2018-08-29T16:39:12Z</time>
      </trkpt>
      <trkpt lat="42.15405" lon="9.0742">
        <ele>1368.91</ele>
        <time>2018-08-29T16:39:25Z</time>
      </trkpt>
      <trkpt lat="42.15398" lon="9.07416">
        <ele>1370.73</ele>
        <time>2018-08-29T16:39:39Z</time>
      </trkpt>
      <trkpt lat="42.15393" lon="9.0741">
        <ele>1372.46</ele>
        <time>2018-08-29T16:39:56Z</time>
      </trkpt>
      <trkpt lat="42.15384" lon="9.07406">
        <ele>1373.41</ele>
        <time>2018-08-29T16:40:10Z</time>
      </trkpt>
      <trkpt lat="42.15372" lon="9.07404">
        <ele>1374.53</ele>
        <time>2018-08-29T16:40:26Z</time>
      </trkpt>
      <trkpt lat="42.15359" lon="9.07399">
        <ele>1376.25</ele>
        <time>2018-08-29T16:40:43Z</time>
      </trkpt>
      <trkpt lat="42.15347" lon="9.07399">
        <ele>1377.11</ele>
        <time>2018-08-29T16:40:57Z</time>
      </trkpt>
      <trkpt lat="42.15344" lon="9.07401">
        <ele>1377.12</ele>
        <time>2018-08-29T16:41:01Z</time>
      </trkpt>
      <trkpt lat="42.15331" lon="9.07413">
        <ele>1377.22</ele>
        <time>2018-08-29T16:41:19Z</time>
      </trkpt>
      <trkpt lat="42.15331" lon="9.07413">
        <ele>1377.24</ele>
        <time>2018-08-29T16:41:20Z</time>
      </trkpt>
      <trkpt lat="42.15333" lon="9.07415">
        <ele>1375</ele>
        <time>2018-08-29T16:41:22Z</time>
      </trkpt>
      <trkpt lat="42.15338" lon="9.07417">
        <ele>1375</ele>
        <time>2018-08-29T16:41:26Z</time>
      </trkpt>
      <trkpt lat="42.15358" lon="9.07417">
        <ele>1374.33</ele>
        <time>2018-08-29T16:41:45Z</time>
      </trkpt>
      <trkpt lat="42.15358" lon="9.07417">
        <ele>1374.5</ele>
        <time>2018-08-29T16:42:04Z</time>
      </trkpt>
      <trkpt lat="42.15358" lon="9.07417">
        <ele>1371.24</ele>
        <time>2018-08-29T16:42:14Z</time>
      </trkpt>
      <trkpt lat="42.15359" lon="9.07416">
        <ele>1374.24</ele>
        <time>2018-08-29T16:42:46Z</time>
      </trkpt>
      <trkpt lat="42.15357" lon="9.07416">
        <ele>1374.89</ele>
        <time>2018-08-29T16:44:19Z</time>
      </trkpt>
      <trkpt lat="42.15359" lon="9.07416">
        <ele>1376.19</ele>
        <time>2018-08-29T16:45:47Z</time>
      </trkpt>
      <trkpt lat="42.1536" lon="9.07418">
        <ele>1376.59</ele>
        <time>2018-08-29T16:47:22Z</time>
      </trkpt>
      <trkpt lat="42.15359" lon="9.07418">
        <ele>1376.85</ele>
        <time>2018-08-29T16:48:33Z</time>
      </trkpt>
      <trkpt lat="42.15358" lon="9.07416">
        <ele>1373.19</ele>
        <time>2018-08-29T16:48:41Z</time>
      </trkpt>
      <trkpt lat="42.15359" lon="9.07416">
        <ele>1370.23</ele>
        <time>2018-08-29T16:48:48Z</time>
      </trkpt>
      <trkpt lat="42.15356" lon="9.0742">
        <ele>1375.2</ele>
        <time>2018-08-29T16:49:37Z</time>
      </trkpt>
      <trkpt lat="42.15356" lon="9.07419">
        <ele>1377.91</ele>
        <time>2018-08-29T16:49:45Z</time>
      </trkpt>
    </trkseg>
  </trk>
</gpx>